<?xml version="1.0" encoding="UTF-8" standalone="no" ?>
<gpx xmlns="http://www.topografix.com/GPX/1/1" xmlns:xsi="http://www.w3.org/2001/XMLSchema-instance" xsi:schemaLocation="http://www.topografix.com/GPX/1/1 http://www.topografix.com/GPX/1/1/gpx.xsd" version="1.1" creator="VisuGPX - https://www.visugpx.com">
  <metadata>
    <name>Moliere 2016</name>
    <desc><![CDATA[Sortie GreVTT]]></desc>
  </metadata>
  <trk>
    <name><![CDATA[2016-07-29-01]]></name>
    <trkseg>
      <trkpt lat="45.12928" lon="5.58419">
        <ele>997.6</ele>
        <time>2016-07-29T11:12:25Z</time>
      </trkpt>
      <trkpt lat="45.12929" lon="5.5842">
        <ele>1001</ele>
        <time>2016-07-29T11:12:29Z</time>
      </trkpt>
      <trkpt lat="45.12924" lon="5.58409">
        <ele>1005.8</ele>
        <time>2016-07-29T11:15:13Z</time>
      </trkpt>
      <trkpt lat="45.12933" lon="5.58412">
        <ele>1005.8</ele>
        <time>2016-07-29T11:15:46Z</time>
      </trkpt>
      <trkpt lat="45.12942" lon="5.58406">
        <ele>1005.9</ele>
        <time>2016-07-29T11:15:54Z</time>
      </trkpt>
      <trkpt lat="45.12951" lon="5.584">
        <ele>1006</ele>
        <time>2016-07-29T11:16:02Z</time>
      </trkpt>
      <trkpt lat="45.12959" lon="5.58394">
        <ele>1005.9</ele>
        <time>2016-07-29T11:16:12Z</time>
      </trkpt>
      <trkpt lat="45.12955" lon="5.58407">
        <ele>1005.6</ele>
        <time>2016-07-29T11:17:41Z</time>
      </trkpt>
      <trkpt lat="45.1295" lon="5.58418">
        <ele>1005.6</ele>
        <time>2016-07-29T11:17:49Z</time>
      </trkpt>
      <trkpt lat="45.12941" lon="5.58422">
        <ele>1005.9</ele>
        <time>2016-07-29T11:17:58Z</time>
      </trkpt>
      <trkpt lat="45.12934" lon="5.58432">
        <ele>1005.8</ele>
        <time>2016-07-29T11:18:05Z</time>
      </trkpt>
      <trkpt lat="45.12928" lon="5.58442">
        <ele>1005.8</ele>
        <time>2016-07-29T11:18:12Z</time>
      </trkpt>
      <trkpt lat="45.12924" lon="5.58453">
        <ele>1006</ele>
        <time>2016-07-29T11:18:19Z</time>
      </trkpt>
      <trkpt lat="45.12921" lon="5.58467">
        <ele>1006.1</ele>
        <time>2016-07-29T11:18:26Z</time>
      </trkpt>
      <trkpt lat="45.12918" lon="5.58478">
        <ele>1006.2</ele>
        <time>2016-07-29T11:18:33Z</time>
      </trkpt>
      <trkpt lat="45.12917" lon="5.58491">
        <ele>1006.4</ele>
        <time>2016-07-29T11:18:42Z</time>
      </trkpt>
      <trkpt lat="45.12917" lon="5.58504">
        <ele>1006.9</ele>
        <time>2016-07-29T11:18:54Z</time>
      </trkpt>
      <trkpt lat="45.1292" lon="5.58492">
        <ele>1006.9</ele>
        <time>2016-07-29T11:19:03Z</time>
      </trkpt>
      <trkpt lat="45.12919" lon="5.58479">
        <ele>1006.7</ele>
        <time>2016-07-29T11:19:11Z</time>
      </trkpt>
      <trkpt lat="45.12918" lon="5.58465">
        <ele>1006.4</ele>
        <time>2016-07-29T11:21:02Z</time>
      </trkpt>
      <trkpt lat="45.12921" lon="5.58453">
        <ele>1006.3</ele>
        <time>2016-07-29T11:21:13Z</time>
      </trkpt>
      <trkpt lat="45.12927" lon="5.58443">
        <ele>1006.3</ele>
        <time>2016-07-29T11:21:22Z</time>
      </trkpt>
      <trkpt lat="45.12929" lon="5.5843">
        <ele>1006.4</ele>
        <time>2016-07-29T11:21:31Z</time>
      </trkpt>
      <trkpt lat="45.12931" lon="5.58418">
        <ele>1006.3</ele>
        <time>2016-07-29T11:21:36Z</time>
      </trkpt>
      <trkpt lat="45.12929" lon="5.58405">
        <ele>1006.2</ele>
        <time>2016-07-29T11:22:44Z</time>
      </trkpt>
      <trkpt lat="45.1292" lon="5.58398">
        <ele>1005.9</ele>
        <time>2016-07-29T11:25:38Z</time>
      </trkpt>
      <trkpt lat="45.12925" lon="5.58409">
        <ele>1006.1</ele>
        <time>2016-07-29T11:26:04Z</time>
      </trkpt>
      <trkpt lat="45.12933" lon="5.58415">
        <ele>1006.2</ele>
        <time>2016-07-29T11:26:33Z</time>
      </trkpt>
      <trkpt lat="45.12925" lon="5.5841">
        <ele>1006.2</ele>
        <time>2016-07-29T11:29:48Z</time>
      </trkpt>
      <trkpt lat="45.12934" lon="5.58414">
        <ele>1006.3</ele>
        <time>2016-07-29T11:31:33Z</time>
      </trkpt>
      <trkpt lat="45.12942" lon="5.5842">
        <ele>1006.3</ele>
        <time>2016-07-29T11:32:59Z</time>
      </trkpt>
      <trkpt lat="45.12952" lon="5.58423">
        <ele>1006.6</ele>
        <time>2016-07-29T11:33:06Z</time>
      </trkpt>
      <trkpt lat="45.12958" lon="5.58411">
        <ele>1006.9</ele>
        <time>2016-07-29T11:33:12Z</time>
      </trkpt>
      <trkpt lat="45.1296" lon="5.58397">
        <ele>1006.8</ele>
        <time>2016-07-29T11:33:16Z</time>
      </trkpt>
      <trkpt lat="45.12964" lon="5.58383">
        <ele>1006.6</ele>
        <time>2016-07-29T11:33:20Z</time>
      </trkpt>
      <trkpt lat="45.12969" lon="5.5837">
        <ele>1006.3</ele>
        <time>2016-07-29T11:33:24Z</time>
      </trkpt>
      <trkpt lat="45.12971" lon="5.58355">
        <ele>1006.1</ele>
        <time>2016-07-29T11:33:28Z</time>
      </trkpt>
      <trkpt lat="45.12977" lon="5.58344">
        <ele>1005.8</ele>
        <time>2016-07-29T11:33:32Z</time>
      </trkpt>
      <trkpt lat="45.12984" lon="5.58332">
        <ele>1005.4</ele>
        <time>2016-07-29T11:33:36Z</time>
      </trkpt>
      <trkpt lat="45.12989" lon="5.58319">
        <ele>1005.3</ele>
        <time>2016-07-29T11:33:39Z</time>
      </trkpt>
      <trkpt lat="45.12994" lon="5.58305">
        <ele>1005.2</ele>
        <time>2016-07-29T11:33:42Z</time>
      </trkpt>
      <trkpt lat="45.12999" lon="5.58292">
        <ele>1004.9</ele>
        <time>2016-07-29T11:33:45Z</time>
      </trkpt>
      <trkpt lat="45.13003" lon="5.58278">
        <ele>1004.7</ele>
        <time>2016-07-29T11:33:48Z</time>
      </trkpt>
      <trkpt lat="45.13008" lon="5.58264">
        <ele>1004.9</ele>
        <time>2016-07-29T11:33:51Z</time>
      </trkpt>
      <trkpt lat="45.13013" lon="5.58252">
        <ele>1004.7</ele>
        <time>2016-07-29T11:33:54Z</time>
      </trkpt>
      <trkpt lat="45.1302" lon="5.5824">
        <ele>1004.6</ele>
        <time>2016-07-29T11:33:57Z</time>
      </trkpt>
      <trkpt lat="45.13028" lon="5.58231">
        <ele>1004.7</ele>
        <time>2016-07-29T11:34:00Z</time>
      </trkpt>
      <trkpt lat="45.13036" lon="5.58223">
        <ele>1004.8</ele>
        <time>2016-07-29T11:34:03Z</time>
      </trkpt>
      <trkpt lat="45.13045" lon="5.58218">
        <ele>1004.9</ele>
        <time>2016-07-29T11:34:06Z</time>
      </trkpt>
      <trkpt lat="45.13055" lon="5.58215">
        <ele>1004.8</ele>
        <time>2016-07-29T11:34:09Z</time>
      </trkpt>
      <trkpt lat="45.13064" lon="5.58213">
        <ele>1004.5</ele>
        <time>2016-07-29T11:34:12Z</time>
      </trkpt>
      <trkpt lat="45.13075" lon="5.5821">
        <ele>1004.1</ele>
        <time>2016-07-29T11:34:15Z</time>
      </trkpt>
      <trkpt lat="45.13084" lon="5.58202">
        <ele>1004.2</ele>
        <time>2016-07-29T11:34:18Z</time>
      </trkpt>
      <trkpt lat="45.13092" lon="5.58192">
        <ele>1004.6</ele>
        <time>2016-07-29T11:34:21Z</time>
      </trkpt>
      <trkpt lat="45.13101" lon="5.58183">
        <ele>1004.8</ele>
        <time>2016-07-29T11:34:24Z</time>
      </trkpt>
      <trkpt lat="45.13109" lon="5.58172">
        <ele>1004.8</ele>
        <time>2016-07-29T11:34:27Z</time>
      </trkpt>
      <trkpt lat="45.13111" lon="5.58155">
        <ele>1004.8</ele>
        <time>2016-07-29T11:34:30Z</time>
      </trkpt>
      <trkpt lat="45.13104" lon="5.58141">
        <ele>1005</ele>
        <time>2016-07-29T11:34:33Z</time>
      </trkpt>
      <trkpt lat="45.13093" lon="5.58134">
        <ele>1005.3</ele>
        <time>2016-07-29T11:34:36Z</time>
      </trkpt>
      <trkpt lat="45.13082" lon="5.58137">
        <ele>1005.5</ele>
        <time>2016-07-29T11:34:39Z</time>
      </trkpt>
      <trkpt lat="45.13072" lon="5.58142">
        <ele>1005.5</ele>
        <time>2016-07-29T11:34:42Z</time>
      </trkpt>
      <trkpt lat="45.13061" lon="5.58134">
        <ele>1005.5</ele>
        <time>2016-07-29T11:34:45Z</time>
      </trkpt>
      <trkpt lat="45.13059" lon="5.58116">
        <ele>1005.4</ele>
        <time>2016-07-29T11:34:48Z</time>
      </trkpt>
      <trkpt lat="45.13057" lon="5.581">
        <ele>1006</ele>
        <time>2016-07-29T11:34:51Z</time>
      </trkpt>
      <trkpt lat="45.13051" lon="5.58087">
        <ele>1005.9</ele>
        <time>2016-07-29T11:34:54Z</time>
      </trkpt>
      <trkpt lat="45.13041" lon="5.58077">
        <ele>1005.8</ele>
        <time>2016-07-29T11:34:57Z</time>
      </trkpt>
      <trkpt lat="45.13028" lon="5.58072">
        <ele>1005.6</ele>
        <time>2016-07-29T11:35:00Z</time>
      </trkpt>
      <trkpt lat="45.1302" lon="5.58067">
        <ele>1005.4</ele>
        <time>2016-07-29T11:35:02Z</time>
      </trkpt>
      <trkpt lat="45.13011" lon="5.58062">
        <ele>1005.3</ele>
        <time>2016-07-29T11:35:04Z</time>
      </trkpt>
      <trkpt lat="45.13003" lon="5.58055">
        <ele>1005.3</ele>
        <time>2016-07-29T11:35:06Z</time>
      </trkpt>
      <trkpt lat="45.12994" lon="5.58048">
        <ele>1005.1</ele>
        <time>2016-07-29T11:35:08Z</time>
      </trkpt>
      <trkpt lat="45.12986" lon="5.58042">
        <ele>1004.8</ele>
        <time>2016-07-29T11:35:10Z</time>
      </trkpt>
      <trkpt lat="45.12977" lon="5.58035">
        <ele>1004.8</ele>
        <time>2016-07-29T11:35:12Z</time>
      </trkpt>
      <trkpt lat="45.12969" lon="5.58029">
        <ele>1004.8</ele>
        <time>2016-07-29T11:35:14Z</time>
      </trkpt>
      <trkpt lat="45.12961" lon="5.58022">
        <ele>1004.8</ele>
        <time>2016-07-29T11:35:16Z</time>
      </trkpt>
      <trkpt lat="45.12952" lon="5.58016">
        <ele>1004.7</ele>
        <time>2016-07-29T11:35:18Z</time>
      </trkpt>
      <trkpt lat="45.12944" lon="5.58009">
        <ele>1004.7</ele>
        <time>2016-07-29T11:35:20Z</time>
      </trkpt>
      <trkpt lat="45.12935" lon="5.58002">
        <ele>1004.7</ele>
        <time>2016-07-29T11:35:22Z</time>
      </trkpt>
      <trkpt lat="45.12926" lon="5.57995">
        <ele>1004.8</ele>
        <time>2016-07-29T11:35:24Z</time>
      </trkpt>
      <trkpt lat="45.12917" lon="5.57988">
        <ele>1004.8</ele>
        <time>2016-07-29T11:35:26Z</time>
      </trkpt>
      <trkpt lat="45.12908" lon="5.57981">
        <ele>1004.8</ele>
        <time>2016-07-29T11:35:28Z</time>
      </trkpt>
      <trkpt lat="45.12899" lon="5.57974">
        <ele>1004.6</ele>
        <time>2016-07-29T11:35:30Z</time>
      </trkpt>
      <trkpt lat="45.1289" lon="5.57967">
        <ele>1004.4</ele>
        <time>2016-07-29T11:35:32Z</time>
      </trkpt>
      <trkpt lat="45.12881" lon="5.5796">
        <ele>1004.3</ele>
        <time>2016-07-29T11:35:34Z</time>
      </trkpt>
      <trkpt lat="45.12872" lon="5.57953">
        <ele>1004.2</ele>
        <time>2016-07-29T11:35:36Z</time>
      </trkpt>
      <trkpt lat="45.12864" lon="5.57946">
        <ele>1004.1</ele>
        <time>2016-07-29T11:35:38Z</time>
      </trkpt>
      <trkpt lat="45.12855" lon="5.57939">
        <ele>1004.1</ele>
        <time>2016-07-29T11:35:40Z</time>
      </trkpt>
      <trkpt lat="45.12847" lon="5.57932">
        <ele>1004.1</ele>
        <time>2016-07-29T11:35:42Z</time>
      </trkpt>
      <trkpt lat="45.12838" lon="5.57926">
        <ele>1003.8</ele>
        <time>2016-07-29T11:35:44Z</time>
      </trkpt>
      <trkpt lat="45.12829" lon="5.57919">
        <ele>1003.9</ele>
        <time>2016-07-29T11:35:46Z</time>
      </trkpt>
      <trkpt lat="45.12821" lon="5.57912">
        <ele>1003.8</ele>
        <time>2016-07-29T11:35:48Z</time>
      </trkpt>
      <trkpt lat="45.12813" lon="5.57905">
        <ele>1003.9</ele>
        <time>2016-07-29T11:35:50Z</time>
      </trkpt>
      <trkpt lat="45.12805" lon="5.57899">
        <ele>1004</ele>
        <time>2016-07-29T11:35:52Z</time>
      </trkpt>
      <trkpt lat="45.12796" lon="5.57893">
        <ele>1004.1</ele>
        <time>2016-07-29T11:35:54Z</time>
      </trkpt>
      <trkpt lat="45.12788" lon="5.57887">
        <ele>1004.3</ele>
        <time>2016-07-29T11:35:56Z</time>
      </trkpt>
      <trkpt lat="45.1278" lon="5.57881">
        <ele>1004.3</ele>
        <time>2016-07-29T11:35:58Z</time>
      </trkpt>
      <trkpt lat="45.12769" lon="5.57872">
        <ele>1004.3</ele>
        <time>2016-07-29T11:36:01Z</time>
      </trkpt>
      <trkpt lat="45.12764" lon="5.57859">
        <ele>1004.2</ele>
        <time>2016-07-29T11:36:04Z</time>
      </trkpt>
      <trkpt lat="45.12766" lon="5.57846">
        <ele>1004.4</ele>
        <time>2016-07-29T11:36:07Z</time>
      </trkpt>
      <trkpt lat="45.12768" lon="5.5783">
        <ele>1004.7</ele>
        <time>2016-07-29T11:36:11Z</time>
      </trkpt>
      <trkpt lat="45.1277" lon="5.57818">
        <ele>1005.2</ele>
        <time>2016-07-29T11:36:15Z</time>
      </trkpt>
      <trkpt lat="45.12773" lon="5.57804">
        <ele>1006.3</ele>
        <time>2016-07-29T11:36:20Z</time>
      </trkpt>
      <trkpt lat="45.12775" lon="5.5779">
        <ele>1007.4</ele>
        <time>2016-07-29T11:36:26Z</time>
      </trkpt>
      <trkpt lat="45.12774" lon="5.57777">
        <ele>1008.6</ele>
        <time>2016-07-29T11:36:32Z</time>
      </trkpt>
      <trkpt lat="45.12773" lon="5.57762">
        <ele>1010.2</ele>
        <time>2016-07-29T11:36:39Z</time>
      </trkpt>
      <trkpt lat="45.12771" lon="5.5775">
        <ele>1011.6</ele>
        <time>2016-07-29T11:36:45Z</time>
      </trkpt>
      <trkpt lat="45.12768" lon="5.57736">
        <ele>1012.7</ele>
        <time>2016-07-29T11:36:52Z</time>
      </trkpt>
      <trkpt lat="45.12766" lon="5.57724">
        <ele>1013.7</ele>
        <time>2016-07-29T11:36:58Z</time>
      </trkpt>
      <trkpt lat="45.12763" lon="5.57712">
        <ele>1014.7</ele>
        <time>2016-07-29T11:37:04Z</time>
      </trkpt>
      <trkpt lat="45.12759" lon="5.57699">
        <ele>1016.1</ele>
        <time>2016-07-29T11:37:11Z</time>
      </trkpt>
      <trkpt lat="45.12756" lon="5.57686">
        <ele>1017.2</ele>
        <time>2016-07-29T11:37:17Z</time>
      </trkpt>
      <trkpt lat="45.1275" lon="5.57676">
        <ele>1018.1</ele>
        <time>2016-07-29T11:37:24Z</time>
      </trkpt>
      <trkpt lat="45.12743" lon="5.57667">
        <ele>1019</ele>
        <time>2016-07-29T11:37:30Z</time>
      </trkpt>
      <trkpt lat="45.12736" lon="5.57657">
        <ele>1019.8</ele>
        <time>2016-07-29T11:37:37Z</time>
      </trkpt>
      <trkpt lat="45.12729" lon="5.57646">
        <ele>1020.9</ele>
        <time>2016-07-29T11:37:44Z</time>
      </trkpt>
      <trkpt lat="45.12721" lon="5.57637">
        <ele>1021.6</ele>
        <time>2016-07-29T11:37:51Z</time>
      </trkpt>
      <trkpt lat="45.12714" lon="5.57629">
        <ele>1022.8</ele>
        <time>2016-07-29T11:37:57Z</time>
      </trkpt>
      <trkpt lat="45.12707" lon="5.5762">
        <ele>1024.1</ele>
        <time>2016-07-29T11:38:04Z</time>
      </trkpt>
      <trkpt lat="45.12699" lon="5.57612">
        <ele>1025</ele>
        <time>2016-07-29T11:38:11Z</time>
      </trkpt>
      <trkpt lat="45.1269" lon="5.57606">
        <ele>1026.5</ele>
        <time>2016-07-29T11:38:18Z</time>
      </trkpt>
      <trkpt lat="45.12682" lon="5.576">
        <ele>1027.6</ele>
        <time>2016-07-29T11:38:25Z</time>
      </trkpt>
      <trkpt lat="45.12674" lon="5.57592">
        <ele>1028.8</ele>
        <time>2016-07-29T11:38:32Z</time>
      </trkpt>
      <trkpt lat="45.12666" lon="5.57582">
        <ele>1030</ele>
        <time>2016-07-29T11:38:39Z</time>
      </trkpt>
      <trkpt lat="45.1266" lon="5.57572">
        <ele>1031.3</ele>
        <time>2016-07-29T11:38:46Z</time>
      </trkpt>
      <trkpt lat="45.12654" lon="5.57561">
        <ele>1032.3</ele>
        <time>2016-07-29T11:38:53Z</time>
      </trkpt>
      <trkpt lat="45.12648" lon="5.57549">
        <ele>1033.5</ele>
        <time>2016-07-29T11:39:00Z</time>
      </trkpt>
      <trkpt lat="45.12641" lon="5.57539">
        <ele>1034.5</ele>
        <time>2016-07-29T11:39:07Z</time>
      </trkpt>
      <trkpt lat="45.12635" lon="5.57528">
        <ele>1035.5</ele>
        <time>2016-07-29T11:39:14Z</time>
      </trkpt>
      <trkpt lat="45.12628" lon="5.57518">
        <ele>1036.5</ele>
        <time>2016-07-29T11:39:21Z</time>
      </trkpt>
      <trkpt lat="45.12621" lon="5.57508">
        <ele>1037.7</ele>
        <time>2016-07-29T11:39:28Z</time>
      </trkpt>
      <trkpt lat="45.12615" lon="5.57499">
        <ele>1038.9</ele>
        <time>2016-07-29T11:39:35Z</time>
      </trkpt>
      <trkpt lat="45.12608" lon="5.5749">
        <ele>1040.1</ele>
        <time>2016-07-29T11:39:42Z</time>
      </trkpt>
      <trkpt lat="45.12601" lon="5.5748">
        <ele>1041.1</ele>
        <time>2016-07-29T11:39:49Z</time>
      </trkpt>
      <trkpt lat="45.12593" lon="5.57471">
        <ele>1041.9</ele>
        <time>2016-07-29T11:39:56Z</time>
      </trkpt>
      <trkpt lat="45.12586" lon="5.57461">
        <ele>1042.8</ele>
        <time>2016-07-29T11:40:03Z</time>
      </trkpt>
      <trkpt lat="45.12579" lon="5.57452">
        <ele>1044.4</ele>
        <time>2016-07-29T11:40:10Z</time>
      </trkpt>
      <trkpt lat="45.12576" lon="5.57437">
        <ele>1046.2</ele>
        <time>2016-07-29T11:40:27Z</time>
      </trkpt>
      <trkpt lat="45.1257" lon="5.57426">
        <ele>1046.6</ele>
        <time>2016-07-29T11:40:32Z</time>
      </trkpt>
      <trkpt lat="45.12564" lon="5.57417">
        <ele>1047.3</ele>
        <time>2016-07-29T11:40:38Z</time>
      </trkpt>
      <trkpt lat="45.12557" lon="5.57407">
        <ele>1048.7</ele>
        <time>2016-07-29T11:40:45Z</time>
      </trkpt>
      <trkpt lat="45.12548" lon="5.57399">
        <ele>1049.8</ele>
        <time>2016-07-29T11:40:52Z</time>
      </trkpt>
      <trkpt lat="45.1254" lon="5.5739">
        <ele>1050.7</ele>
        <time>2016-07-29T11:40:59Z</time>
      </trkpt>
      <trkpt lat="45.12532" lon="5.57381">
        <ele>1051.8</ele>
        <time>2016-07-29T11:41:06Z</time>
      </trkpt>
      <trkpt lat="45.12525" lon="5.57372">
        <ele>1053</ele>
        <time>2016-07-29T11:41:13Z</time>
      </trkpt>
      <trkpt lat="45.12517" lon="5.57363">
        <ele>1054.7</ele>
        <time>2016-07-29T11:41:21Z</time>
      </trkpt>
      <trkpt lat="45.1251" lon="5.57355">
        <ele>1056</ele>
        <time>2016-07-29T11:41:28Z</time>
      </trkpt>
      <trkpt lat="45.12502" lon="5.57345">
        <ele>1057.3</ele>
        <time>2016-07-29T11:41:37Z</time>
      </trkpt>
      <trkpt lat="45.12495" lon="5.57336">
        <ele>1058.1</ele>
        <time>2016-07-29T11:41:45Z</time>
      </trkpt>
      <trkpt lat="45.12487" lon="5.57328">
        <ele>1059.3</ele>
        <time>2016-07-29T11:41:53Z</time>
      </trkpt>
      <trkpt lat="45.1248" lon="5.5732">
        <ele>1060.6</ele>
        <time>2016-07-29T11:42:01Z</time>
      </trkpt>
      <trkpt lat="45.12474" lon="5.5731">
        <ele>1062.1</ele>
        <time>2016-07-29T11:42:09Z</time>
      </trkpt>
      <trkpt lat="45.12466" lon="5.57302">
        <ele>1063</ele>
        <time>2016-07-29T11:42:17Z</time>
      </trkpt>
      <trkpt lat="45.12459" lon="5.57292">
        <ele>1064.4</ele>
        <time>2016-07-29T11:42:26Z</time>
      </trkpt>
      <trkpt lat="45.12453" lon="5.57282">
        <ele>1065.5</ele>
        <time>2016-07-29T11:42:33Z</time>
      </trkpt>
      <trkpt lat="45.12447" lon="5.57273">
        <ele>1066.2</ele>
        <time>2016-07-29T11:42:40Z</time>
      </trkpt>
      <trkpt lat="45.12438" lon="5.57266">
        <ele>1067.5</ele>
        <time>2016-07-29T11:42:48Z</time>
      </trkpt>
      <trkpt lat="45.12431" lon="5.57257">
        <ele>1068.8</ele>
        <time>2016-07-29T11:42:56Z</time>
      </trkpt>
      <trkpt lat="45.12423" lon="5.5725">
        <ele>1070.3</ele>
        <time>2016-07-29T11:43:04Z</time>
      </trkpt>
      <trkpt lat="45.12414" lon="5.57244">
        <ele>1071.5</ele>
        <time>2016-07-29T11:43:12Z</time>
      </trkpt>
      <trkpt lat="45.12405" lon="5.57237">
        <ele>1072.7</ele>
        <time>2016-07-29T11:43:19Z</time>
      </trkpt>
      <trkpt lat="45.12397" lon="5.5723">
        <ele>1073.5</ele>
        <time>2016-07-29T11:43:26Z</time>
      </trkpt>
      <trkpt lat="45.12389" lon="5.5722">
        <ele>1074.6</ele>
        <time>2016-07-29T11:43:33Z</time>
      </trkpt>
      <trkpt lat="45.12381" lon="5.57212">
        <ele>1075.3</ele>
        <time>2016-07-29T11:43:39Z</time>
      </trkpt>
      <trkpt lat="45.12373" lon="5.57204">
        <ele>1076</ele>
        <time>2016-07-29T11:43:45Z</time>
      </trkpt>
      <trkpt lat="45.12365" lon="5.57196">
        <ele>1076.4</ele>
        <time>2016-07-29T11:43:51Z</time>
      </trkpt>
      <trkpt lat="45.12358" lon="5.57189">
        <ele>1077.2</ele>
        <time>2016-07-29T11:43:57Z</time>
      </trkpt>
      <trkpt lat="45.1235" lon="5.57181">
        <ele>1077.7</ele>
        <time>2016-07-29T11:44:03Z</time>
      </trkpt>
      <trkpt lat="45.12341" lon="5.57174">
        <ele>1078.6</ele>
        <time>2016-07-29T11:44:09Z</time>
      </trkpt>
      <trkpt lat="45.12333" lon="5.57169">
        <ele>1079.6</ele>
        <time>2016-07-29T11:44:15Z</time>
      </trkpt>
      <trkpt lat="45.12325" lon="5.57163">
        <ele>1080.7</ele>
        <time>2016-07-29T11:44:22Z</time>
      </trkpt>
      <trkpt lat="45.12316" lon="5.57157">
        <ele>1081.6</ele>
        <time>2016-07-29T11:44:30Z</time>
      </trkpt>
      <trkpt lat="45.12309" lon="5.57149">
        <ele>1082.5</ele>
        <time>2016-07-29T11:44:35Z</time>
      </trkpt>
      <trkpt lat="45.123" lon="5.57141">
        <ele>1083.2</ele>
        <time>2016-07-29T11:44:40Z</time>
      </trkpt>
      <trkpt lat="45.12292" lon="5.57134">
        <ele>1084.2</ele>
        <time>2016-07-29T11:44:46Z</time>
      </trkpt>
      <trkpt lat="45.12283" lon="5.57128">
        <ele>1085.3</ele>
        <time>2016-07-29T11:44:54Z</time>
      </trkpt>
      <trkpt lat="45.12274" lon="5.57123">
        <ele>1085.8</ele>
        <time>2016-07-29T11:45:00Z</time>
      </trkpt>
      <trkpt lat="45.12265" lon="5.57117">
        <ele>1086.7</ele>
        <time>2016-07-29T11:45:06Z</time>
      </trkpt>
      <trkpt lat="45.12256" lon="5.57115">
        <ele>1087.7</ele>
        <time>2016-07-29T11:45:13Z</time>
      </trkpt>
      <trkpt lat="45.12248" lon="5.57109">
        <ele>1088.6</ele>
        <time>2016-07-29T11:45:20Z</time>
      </trkpt>
      <trkpt lat="45.12239" lon="5.57102">
        <ele>1089.5</ele>
        <time>2016-07-29T11:45:26Z</time>
      </trkpt>
      <trkpt lat="45.12231" lon="5.57097">
        <ele>1090.4</ele>
        <time>2016-07-29T11:45:32Z</time>
      </trkpt>
      <trkpt lat="45.12222" lon="5.5709">
        <ele>1090.9</ele>
        <time>2016-07-29T11:45:37Z</time>
      </trkpt>
      <trkpt lat="45.12213" lon="5.57086">
        <ele>1091.3</ele>
        <time>2016-07-29T11:45:42Z</time>
      </trkpt>
      <trkpt lat="45.12204" lon="5.57082">
        <ele>1091.9</ele>
        <time>2016-07-29T11:45:47Z</time>
      </trkpt>
      <trkpt lat="45.12195" lon="5.57076">
        <ele>1093.2</ele>
        <time>2016-07-29T11:45:54Z</time>
      </trkpt>
      <trkpt lat="45.12185" lon="5.57073">
        <ele>1094.1</ele>
        <time>2016-07-29T11:45:59Z</time>
      </trkpt>
      <trkpt lat="45.12177" lon="5.57069">
        <ele>1094.8</ele>
        <time>2016-07-29T11:46:05Z</time>
      </trkpt>
      <trkpt lat="45.12166" lon="5.57067">
        <ele>1095.6</ele>
        <time>2016-07-29T11:46:12Z</time>
      </trkpt>
      <trkpt lat="45.12157" lon="5.57061">
        <ele>1096.5</ele>
        <time>2016-07-29T11:46:18Z</time>
      </trkpt>
      <trkpt lat="45.12148" lon="5.57057">
        <ele>1097.5</ele>
        <time>2016-07-29T11:46:24Z</time>
      </trkpt>
      <trkpt lat="45.12139" lon="5.57051">
        <ele>1098.4</ele>
        <time>2016-07-29T11:46:29Z</time>
      </trkpt>
      <trkpt lat="45.12129" lon="5.57048">
        <ele>1099.1</ele>
        <time>2016-07-29T11:46:35Z</time>
      </trkpt>
      <trkpt lat="45.12119" lon="5.57043">
        <ele>1099.9</ele>
        <time>2016-07-29T11:46:41Z</time>
      </trkpt>
      <trkpt lat="45.12111" lon="5.57037">
        <ele>1100.9</ele>
        <time>2016-07-29T11:46:47Z</time>
      </trkpt>
      <trkpt lat="45.12102" lon="5.57033">
        <ele>1101.4</ele>
        <time>2016-07-29T11:46:52Z</time>
      </trkpt>
      <trkpt lat="45.12094" lon="5.57026">
        <ele>1102.2</ele>
        <time>2016-07-29T11:46:58Z</time>
      </trkpt>
      <trkpt lat="45.12085" lon="5.5702">
        <ele>1103.1</ele>
        <time>2016-07-29T11:47:04Z</time>
      </trkpt>
      <trkpt lat="45.12077" lon="5.57012">
        <ele>1103.6</ele>
        <time>2016-07-29T11:47:10Z</time>
      </trkpt>
      <trkpt lat="45.12068" lon="5.57004">
        <ele>1104.8</ele>
        <time>2016-07-29T11:47:17Z</time>
      </trkpt>
      <trkpt lat="45.12061" lon="5.56996">
        <ele>1105.9</ele>
        <time>2016-07-29T11:47:23Z</time>
      </trkpt>
      <trkpt lat="45.12052" lon="5.56987">
        <ele>1106.7</ele>
        <time>2016-07-29T11:47:30Z</time>
      </trkpt>
      <trkpt lat="45.12045" lon="5.56978">
        <ele>1107.3</ele>
        <time>2016-07-29T11:47:37Z</time>
      </trkpt>
      <trkpt lat="45.12035" lon="5.56971">
        <ele>1108.4</ele>
        <time>2016-07-29T11:47:43Z</time>
      </trkpt>
      <trkpt lat="45.12027" lon="5.56964">
        <ele>1109</ele>
        <time>2016-07-29T11:47:48Z</time>
      </trkpt>
      <trkpt lat="45.12019" lon="5.56959">
        <ele>1109.6</ele>
        <time>2016-07-29T11:47:54Z</time>
      </trkpt>
      <trkpt lat="45.12009" lon="5.56954">
        <ele>1110.5</ele>
        <time>2016-07-29T11:48:01Z</time>
      </trkpt>
      <trkpt lat="45.12001" lon="5.56948">
        <ele>1111.1</ele>
        <time>2016-07-29T11:48:07Z</time>
      </trkpt>
      <trkpt lat="45.11992" lon="5.56945">
        <ele>1112.1</ele>
        <time>2016-07-29T11:48:13Z</time>
      </trkpt>
      <trkpt lat="45.11983" lon="5.56941">
        <ele>1112.8</ele>
        <time>2016-07-29T11:48:20Z</time>
      </trkpt>
      <trkpt lat="45.11974" lon="5.56936">
        <ele>1113.8</ele>
        <time>2016-07-29T11:48:27Z</time>
      </trkpt>
      <trkpt lat="45.11966" lon="5.5693">
        <ele>1114.8</ele>
        <time>2016-07-29T11:48:33Z</time>
      </trkpt>
      <trkpt lat="45.11957" lon="5.56925">
        <ele>1115.3</ele>
        <time>2016-07-29T11:48:39Z</time>
      </trkpt>
      <trkpt lat="45.11948" lon="5.56921">
        <ele>1116</ele>
        <time>2016-07-29T11:48:44Z</time>
      </trkpt>
      <trkpt lat="45.11938" lon="5.56917">
        <ele>1116.9</ele>
        <time>2016-07-29T11:48:50Z</time>
      </trkpt>
      <trkpt lat="45.11931" lon="5.5691">
        <ele>1117.6</ele>
        <time>2016-07-29T11:48:56Z</time>
      </trkpt>
      <trkpt lat="45.11921" lon="5.56904">
        <ele>1118.7</ele>
        <time>2016-07-29T11:49:02Z</time>
      </trkpt>
      <trkpt lat="45.11912" lon="5.56899">
        <ele>1119.6</ele>
        <time>2016-07-29T11:49:08Z</time>
      </trkpt>
      <trkpt lat="45.11903" lon="5.56893">
        <ele>1120.6</ele>
        <time>2016-07-29T11:49:14Z</time>
      </trkpt>
      <trkpt lat="45.11895" lon="5.56888">
        <ele>1121.4</ele>
        <time>2016-07-29T11:49:20Z</time>
      </trkpt>
      <trkpt lat="45.11886" lon="5.56882">
        <ele>1122.6</ele>
        <time>2016-07-29T11:49:26Z</time>
      </trkpt>
      <trkpt lat="45.11877" lon="5.56875">
        <ele>1123.4</ele>
        <time>2016-07-29T11:49:32Z</time>
      </trkpt>
      <trkpt lat="45.11872" lon="5.56863">
        <ele>1124.4</ele>
        <time>2016-07-29T11:49:39Z</time>
      </trkpt>
      <trkpt lat="45.11876" lon="5.5685">
        <ele>1125.5</ele>
        <time>2016-07-29T11:49:46Z</time>
      </trkpt>
      <trkpt lat="45.11884" lon="5.56842">
        <ele>1126.3</ele>
        <time>2016-07-29T11:49:53Z</time>
      </trkpt>
      <trkpt lat="45.11892" lon="5.56836">
        <ele>1127.3</ele>
        <time>2016-07-29T11:49:59Z</time>
      </trkpt>
      <trkpt lat="45.11897" lon="5.56825">
        <ele>1128.5</ele>
        <time>2016-07-29T11:50:07Z</time>
      </trkpt>
      <trkpt lat="45.11901" lon="5.56813">
        <ele>1129.6</ele>
        <time>2016-07-29T11:50:14Z</time>
      </trkpt>
      <trkpt lat="45.11906" lon="5.56799">
        <ele>1130.2</ele>
        <time>2016-07-29T11:50:21Z</time>
      </trkpt>
      <trkpt lat="45.11911" lon="5.56788">
        <ele>1130.6</ele>
        <time>2016-07-29T11:50:26Z</time>
      </trkpt>
      <trkpt lat="45.11913" lon="5.56776">
        <ele>1131.4</ele>
        <time>2016-07-29T11:50:31Z</time>
      </trkpt>
      <trkpt lat="45.11918" lon="5.56763">
        <ele>1132.3</ele>
        <time>2016-07-29T11:50:37Z</time>
      </trkpt>
      <trkpt lat="45.11922" lon="5.56751">
        <ele>1133</ele>
        <time>2016-07-29T11:50:42Z</time>
      </trkpt>
      <trkpt lat="45.11926" lon="5.56739">
        <ele>1133.8</ele>
        <time>2016-07-29T11:50:48Z</time>
      </trkpt>
      <trkpt lat="45.1193" lon="5.56726">
        <ele>1134.6</ele>
        <time>2016-07-29T11:50:54Z</time>
      </trkpt>
      <trkpt lat="45.11934" lon="5.56714">
        <ele>1135.1</ele>
        <time>2016-07-29T11:50:59Z</time>
      </trkpt>
      <trkpt lat="45.11939" lon="5.56701">
        <ele>1135.9</ele>
        <time>2016-07-29T11:51:05Z</time>
      </trkpt>
      <trkpt lat="45.11944" lon="5.56688">
        <ele>1136.9</ele>
        <time>2016-07-29T11:51:11Z</time>
      </trkpt>
      <trkpt lat="45.1195" lon="5.56677">
        <ele>1137.7</ele>
        <time>2016-07-29T11:51:17Z</time>
      </trkpt>
      <trkpt lat="45.11956" lon="5.56668">
        <ele>1138.5</ele>
        <time>2016-07-29T11:51:23Z</time>
      </trkpt>
      <trkpt lat="45.11963" lon="5.56658">
        <ele>1139.4</ele>
        <time>2016-07-29T11:51:29Z</time>
      </trkpt>
      <trkpt lat="45.11968" lon="5.56647">
        <ele>1140.3</ele>
        <time>2016-07-29T11:51:35Z</time>
      </trkpt>
      <trkpt lat="45.11975" lon="5.56637">
        <ele>1141.3</ele>
        <time>2016-07-29T11:51:41Z</time>
      </trkpt>
      <trkpt lat="45.1198" lon="5.56627">
        <ele>1141.9</ele>
        <time>2016-07-29T11:51:46Z</time>
      </trkpt>
      <trkpt lat="45.11987" lon="5.56617">
        <ele>1142.8</ele>
        <time>2016-07-29T11:51:52Z</time>
      </trkpt>
      <trkpt lat="45.11994" lon="5.56607">
        <ele>1143.4</ele>
        <time>2016-07-29T11:51:58Z</time>
      </trkpt>
      <trkpt lat="45.12001" lon="5.566">
        <ele>1144</ele>
        <time>2016-07-29T11:52:04Z</time>
      </trkpt>
      <trkpt lat="45.1201" lon="5.56595">
        <ele>1144.9</ele>
        <time>2016-07-29T11:52:11Z</time>
      </trkpt>
      <trkpt lat="45.1202" lon="5.56593">
        <ele>1145.7</ele>
        <time>2016-07-29T11:52:18Z</time>
      </trkpt>
      <trkpt lat="45.12029" lon="5.56592">
        <ele>1146.2</ele>
        <time>2016-07-29T11:52:24Z</time>
      </trkpt>
      <trkpt lat="45.12039" lon="5.56593">
        <ele>1147.2</ele>
        <time>2016-07-29T11:52:30Z</time>
      </trkpt>
      <trkpt lat="45.12049" lon="5.56592">
        <ele>1148</ele>
        <time>2016-07-29T11:52:36Z</time>
      </trkpt>
      <trkpt lat="45.12056" lon="5.56585">
        <ele>1148.9</ele>
        <time>2016-07-29T11:52:43Z</time>
      </trkpt>
      <trkpt lat="45.12062" lon="5.56574">
        <ele>1149.9</ele>
        <time>2016-07-29T11:52:48Z</time>
      </trkpt>
      <trkpt lat="45.12057" lon="5.56561">
        <ele>1151.7</ele>
        <time>2016-07-29T11:52:57Z</time>
      </trkpt>
      <trkpt lat="45.1205" lon="5.56551">
        <ele>1153</ele>
        <time>2016-07-29T11:53:04Z</time>
      </trkpt>
      <trkpt lat="45.12044" lon="5.56542">
        <ele>1153.7</ele>
        <time>2016-07-29T11:53:11Z</time>
      </trkpt>
      <trkpt lat="45.12038" lon="5.5653">
        <ele>1154.9</ele>
        <time>2016-07-29T11:53:18Z</time>
      </trkpt>
      <trkpt lat="45.12033" lon="5.56517">
        <ele>1155.8</ele>
        <time>2016-07-29T11:53:25Z</time>
      </trkpt>
      <trkpt lat="45.12028" lon="5.56507">
        <ele>1156.6</ele>
        <time>2016-07-29T11:53:30Z</time>
      </trkpt>
      <trkpt lat="45.12021" lon="5.56498">
        <ele>1157.6</ele>
        <time>2016-07-29T11:53:38Z</time>
      </trkpt>
      <trkpt lat="45.12012" lon="5.56491">
        <ele>1158.5</ele>
        <time>2016-07-29T11:53:45Z</time>
      </trkpt>
      <trkpt lat="45.12002" lon="5.56486">
        <ele>1159.2</ele>
        <time>2016-07-29T11:53:50Z</time>
      </trkpt>
      <trkpt lat="45.11995" lon="5.56479">
        <ele>1160</ele>
        <time>2016-07-29T11:53:55Z</time>
      </trkpt>
      <trkpt lat="45.11987" lon="5.56469">
        <ele>1161</ele>
        <time>2016-07-29T11:54:02Z</time>
      </trkpt>
      <trkpt lat="45.11982" lon="5.56457">
        <ele>1161.8</ele>
        <time>2016-07-29T11:54:10Z</time>
      </trkpt>
      <trkpt lat="45.1198" lon="5.56444">
        <ele>1162.8</ele>
        <time>2016-07-29T11:54:17Z</time>
      </trkpt>
      <trkpt lat="45.11983" lon="5.56431">
        <ele>1163.5</ele>
        <time>2016-07-29T11:54:23Z</time>
      </trkpt>
      <trkpt lat="45.11986" lon="5.56419">
        <ele>1164.4</ele>
        <time>2016-07-29T11:54:29Z</time>
      </trkpt>
      <trkpt lat="45.11993" lon="5.56408">
        <ele>1165.2</ele>
        <time>2016-07-29T11:54:35Z</time>
      </trkpt>
      <trkpt lat="45.11997" lon="5.56396">
        <ele>1165.7</ele>
        <time>2016-07-29T11:54:40Z</time>
      </trkpt>
      <trkpt lat="45.12006" lon="5.56388">
        <ele>1166.2</ele>
        <time>2016-07-29T11:54:47Z</time>
      </trkpt>
      <trkpt lat="45.12015" lon="5.56385">
        <ele>1167.1</ele>
        <time>2016-07-29T11:54:54Z</time>
      </trkpt>
      <trkpt lat="45.12023" lon="5.56375">
        <ele>1167.6</ele>
        <time>2016-07-29T11:54:59Z</time>
      </trkpt>
      <trkpt lat="45.12032" lon="5.56371">
        <ele>1167.6</ele>
        <time>2016-07-29T11:55:03Z</time>
      </trkpt>
      <trkpt lat="45.12043" lon="5.56368">
        <ele>1167.7</ele>
        <time>2016-07-29T11:55:07Z</time>
      </trkpt>
      <trkpt lat="45.12054" lon="5.56365">
        <ele>1167.8</ele>
        <time>2016-07-29T11:55:11Z</time>
      </trkpt>
      <trkpt lat="45.12065" lon="5.56362">
        <ele>1167.8</ele>
        <time>2016-07-29T11:55:15Z</time>
      </trkpt>
      <trkpt lat="45.12077" lon="5.56358">
        <ele>1167.8</ele>
        <time>2016-07-29T11:55:19Z</time>
      </trkpt>
      <trkpt lat="45.12086" lon="5.56355">
        <ele>1167.7</ele>
        <time>2016-07-29T11:55:22Z</time>
      </trkpt>
      <trkpt lat="45.12095" lon="5.56351">
        <ele>1167.6</ele>
        <time>2016-07-29T11:55:25Z</time>
      </trkpt>
      <trkpt lat="45.12104" lon="5.56349">
        <ele>1167.5</ele>
        <time>2016-07-29T11:55:28Z</time>
      </trkpt>
      <trkpt lat="45.12113" lon="5.56344">
        <ele>1167.6</ele>
        <time>2016-07-29T11:55:31Z</time>
      </trkpt>
      <trkpt lat="45.12121" lon="5.56338">
        <ele>1167.9</ele>
        <time>2016-07-29T11:55:34Z</time>
      </trkpt>
      <trkpt lat="45.1213" lon="5.56331">
        <ele>1167.7</ele>
        <time>2016-07-29T11:55:37Z</time>
      </trkpt>
      <trkpt lat="45.12138" lon="5.56322">
        <ele>1167.5</ele>
        <time>2016-07-29T11:55:40Z</time>
      </trkpt>
      <trkpt lat="45.12145" lon="5.5631">
        <ele>1167.4</ele>
        <time>2016-07-29T11:55:43Z</time>
      </trkpt>
      <trkpt lat="45.1215" lon="5.56296">
        <ele>1167.4</ele>
        <time>2016-07-29T11:55:46Z</time>
      </trkpt>
      <trkpt lat="45.1215" lon="5.5628">
        <ele>1167.4</ele>
        <time>2016-07-29T11:55:49Z</time>
      </trkpt>
      <trkpt lat="45.12145" lon="5.56266">
        <ele>1167.4</ele>
        <time>2016-07-29T11:55:52Z</time>
      </trkpt>
      <trkpt lat="45.1214" lon="5.56256">
        <ele>1167.4</ele>
        <time>2016-07-29T11:55:55Z</time>
      </trkpt>
      <trkpt lat="45.12134" lon="5.56244">
        <ele>1167.6</ele>
        <time>2016-07-29T11:55:58Z</time>
      </trkpt>
      <trkpt lat="45.12129" lon="5.56232">
        <ele>1167.8</ele>
        <time>2016-07-29T11:56:01Z</time>
      </trkpt>
      <trkpt lat="45.1213" lon="5.56215">
        <ele>1168</ele>
        <time>2016-07-29T11:56:05Z</time>
      </trkpt>
      <trkpt lat="45.12135" lon="5.56205">
        <ele>1167.9</ele>
        <time>2016-07-29T11:56:08Z</time>
      </trkpt>
      <trkpt lat="45.12145" lon="5.56197">
        <ele>1167.9</ele>
        <time>2016-07-29T11:56:11Z</time>
      </trkpt>
      <trkpt lat="45.12153" lon="5.56188">
        <ele>1167.8</ele>
        <time>2016-07-29T11:56:14Z</time>
      </trkpt>
      <trkpt lat="45.12161" lon="5.56178">
        <ele>1167.8</ele>
        <time>2016-07-29T11:56:17Z</time>
      </trkpt>
      <trkpt lat="45.12171" lon="5.56169">
        <ele>1167.7</ele>
        <time>2016-07-29T11:56:20Z</time>
      </trkpt>
      <trkpt lat="45.1218" lon="5.5616">
        <ele>1167.8</ele>
        <time>2016-07-29T11:56:23Z</time>
      </trkpt>
      <trkpt lat="45.12189" lon="5.56151">
        <ele>1167.8</ele>
        <time>2016-07-29T11:56:26Z</time>
      </trkpt>
      <trkpt lat="45.12198" lon="5.56142">
        <ele>1167.7</ele>
        <time>2016-07-29T11:56:29Z</time>
      </trkpt>
      <trkpt lat="45.12207" lon="5.56135">
        <ele>1167.7</ele>
        <time>2016-07-29T11:56:32Z</time>
      </trkpt>
      <trkpt lat="45.12217" lon="5.56127">
        <ele>1167.7</ele>
        <time>2016-07-29T11:56:35Z</time>
      </trkpt>
      <trkpt lat="45.12227" lon="5.56121">
        <ele>1168</ele>
        <time>2016-07-29T11:56:38Z</time>
      </trkpt>
      <trkpt lat="45.12238" lon="5.56115">
        <ele>1167.9</ele>
        <time>2016-07-29T11:56:41Z</time>
      </trkpt>
      <trkpt lat="45.12249" lon="5.56109">
        <ele>1167.8</ele>
        <time>2016-07-29T11:56:44Z</time>
      </trkpt>
      <trkpt lat="45.1226" lon="5.56103">
        <ele>1167.8</ele>
        <time>2016-07-29T11:56:47Z</time>
      </trkpt>
      <trkpt lat="45.12271" lon="5.56096">
        <ele>1167.7</ele>
        <time>2016-07-29T11:56:50Z</time>
      </trkpt>
      <trkpt lat="45.12281" lon="5.56092">
        <ele>1167.8</ele>
        <time>2016-07-29T11:56:53Z</time>
      </trkpt>
      <trkpt lat="45.12292" lon="5.5609">
        <ele>1168.1</ele>
        <time>2016-07-29T11:56:56Z</time>
      </trkpt>
      <trkpt lat="45.12303" lon="5.56091">
        <ele>1168.1</ele>
        <time>2016-07-29T11:56:59Z</time>
      </trkpt>
      <trkpt lat="45.12315" lon="5.56094">
        <ele>1168.1</ele>
        <time>2016-07-29T11:57:03Z</time>
      </trkpt>
      <trkpt lat="45.12327" lon="5.56097">
        <ele>1168</ele>
        <time>2016-07-29T11:57:08Z</time>
      </trkpt>
      <trkpt lat="45.12336" lon="5.56103">
        <ele>1168.2</ele>
        <time>2016-07-29T11:57:11Z</time>
      </trkpt>
      <trkpt lat="45.12348" lon="5.5611">
        <ele>1168.2</ele>
        <time>2016-07-29T11:57:14Z</time>
      </trkpt>
      <trkpt lat="45.12356" lon="5.56117">
        <ele>1168.1</ele>
        <time>2016-07-29T11:57:16Z</time>
      </trkpt>
      <trkpt lat="45.12365" lon="5.56123">
        <ele>1168.1</ele>
        <time>2016-07-29T11:57:19Z</time>
      </trkpt>
      <trkpt lat="45.12374" lon="5.56129">
        <ele>1168</ele>
        <time>2016-07-29T11:57:22Z</time>
      </trkpt>
      <trkpt lat="45.12383" lon="5.56132">
        <ele>1168</ele>
        <time>2016-07-29T11:57:26Z</time>
      </trkpt>
      <trkpt lat="45.12392" lon="5.56126">
        <ele>1168</ele>
        <time>2016-07-29T11:57:30Z</time>
      </trkpt>
      <trkpt lat="45.124" lon="5.56116">
        <ele>1168</ele>
        <time>2016-07-29T11:57:34Z</time>
      </trkpt>
      <trkpt lat="45.12411" lon="5.56112">
        <ele>1168.5</ele>
        <time>2016-07-29T11:57:40Z</time>
      </trkpt>
      <trkpt lat="45.1242" lon="5.56106">
        <ele>1170</ele>
        <time>2016-07-29T11:57:46Z</time>
      </trkpt>
      <trkpt lat="45.12427" lon="5.56096">
        <ele>1171.2</ele>
        <time>2016-07-29T11:57:52Z</time>
      </trkpt>
      <trkpt lat="45.12429" lon="5.56083">
        <ele>1172.4</ele>
        <time>2016-07-29T11:57:58Z</time>
      </trkpt>
      <trkpt lat="45.12425" lon="5.5607">
        <ele>1174.2</ele>
        <time>2016-07-29T11:58:07Z</time>
      </trkpt>
      <trkpt lat="45.1242" lon="5.56058">
        <ele>1175.5</ele>
        <time>2016-07-29T11:58:14Z</time>
      </trkpt>
      <trkpt lat="45.12415" lon="5.56047">
        <ele>1176.5</ele>
        <time>2016-07-29T11:58:20Z</time>
      </trkpt>
      <trkpt lat="45.12408" lon="5.56037">
        <ele>1177.6</ele>
        <time>2016-07-29T11:58:26Z</time>
      </trkpt>
      <trkpt lat="45.124" lon="5.56029">
        <ele>1178.7</ele>
        <time>2016-07-29T11:58:32Z</time>
      </trkpt>
      <trkpt lat="45.12392" lon="5.56021">
        <ele>1179.8</ele>
        <time>2016-07-29T11:58:38Z</time>
      </trkpt>
      <trkpt lat="45.12385" lon="5.56013">
        <ele>1180.1</ele>
        <time>2016-07-29T11:58:43Z</time>
      </trkpt>
      <trkpt lat="45.12377" lon="5.56004">
        <ele>1180.3</ele>
        <time>2016-07-29T11:58:48Z</time>
      </trkpt>
      <trkpt lat="45.1237" lon="5.55994">
        <ele>1180.6</ele>
        <time>2016-07-29T11:58:54Z</time>
      </trkpt>
      <trkpt lat="45.12366" lon="5.55981">
        <ele>1180.7</ele>
        <time>2016-07-29T11:58:59Z</time>
      </trkpt>
      <trkpt lat="45.12363" lon="5.55969">
        <ele>1180.9</ele>
        <time>2016-07-29T11:59:04Z</time>
      </trkpt>
      <trkpt lat="45.12365" lon="5.55956">
        <ele>1181.1</ele>
        <time>2016-07-29T11:59:09Z</time>
      </trkpt>
      <trkpt lat="45.12367" lon="5.55943">
        <ele>1181.7</ele>
        <time>2016-07-29T11:59:14Z</time>
      </trkpt>
      <trkpt lat="45.1237" lon="5.5593">
        <ele>1182.3</ele>
        <time>2016-07-29T11:59:20Z</time>
      </trkpt>
      <trkpt lat="45.12373" lon="5.55917">
        <ele>1183.4</ele>
        <time>2016-07-29T11:59:26Z</time>
      </trkpt>
      <trkpt lat="45.12377" lon="5.55903">
        <ele>1184.5</ele>
        <time>2016-07-29T11:59:32Z</time>
      </trkpt>
      <trkpt lat="45.12378" lon="5.55889">
        <ele>1185.6</ele>
        <time>2016-07-29T11:59:38Z</time>
      </trkpt>
      <trkpt lat="45.12382" lon="5.55876">
        <ele>1187.1</ele>
        <time>2016-07-29T11:59:44Z</time>
      </trkpt>
      <trkpt lat="45.12386" lon="5.55863">
        <ele>1188.2</ele>
        <time>2016-07-29T11:59:50Z</time>
      </trkpt>
      <trkpt lat="45.1239" lon="5.55849">
        <ele>1189</ele>
        <time>2016-07-29T11:59:56Z</time>
      </trkpt>
      <trkpt lat="45.12393" lon="5.55837">
        <ele>1189.7</ele>
        <time>2016-07-29T12:00:02Z</time>
      </trkpt>
      <trkpt lat="45.12395" lon="5.55823">
        <ele>1191.1</ele>
        <time>2016-07-29T12:00:09Z</time>
      </trkpt>
      <trkpt lat="45.12398" lon="5.5581">
        <ele>1192.3</ele>
        <time>2016-07-29T12:00:15Z</time>
      </trkpt>
      <trkpt lat="45.12405" lon="5.55801">
        <ele>1193.1</ele>
        <time>2016-07-29T12:00:22Z</time>
      </trkpt>
      <trkpt lat="45.12413" lon="5.55792">
        <ele>1194</ele>
        <time>2016-07-29T12:00:30Z</time>
      </trkpt>
      <trkpt lat="45.1242" lon="5.55784">
        <ele>1194.7</ele>
        <time>2016-07-29T12:00:35Z</time>
      </trkpt>
      <trkpt lat="45.12428" lon="5.55775">
        <ele>1195.3</ele>
        <time>2016-07-29T12:00:40Z</time>
      </trkpt>
      <trkpt lat="45.12435" lon="5.55768">
        <ele>1196</ele>
        <time>2016-07-29T12:00:45Z</time>
      </trkpt>
      <trkpt lat="45.12442" lon="5.55758">
        <ele>1196.9</ele>
        <time>2016-07-29T12:00:51Z</time>
      </trkpt>
      <trkpt lat="45.12451" lon="5.55759">
        <ele>1198.8</ele>
        <time>2016-07-29T12:01:04Z</time>
      </trkpt>
      <trkpt lat="45.1246" lon="5.55761">
        <ele>1200.1</ele>
        <time>2016-07-29T12:01:11Z</time>
      </trkpt>
      <trkpt lat="45.1247" lon="5.55765">
        <ele>1201.7</ele>
        <time>2016-07-29T12:01:19Z</time>
      </trkpt>
      <trkpt lat="45.12476" lon="5.55775">
        <ele>1203.5</ele>
        <time>2016-07-29T12:01:27Z</time>
      </trkpt>
      <trkpt lat="45.12481" lon="5.55786">
        <ele>1204.3</ele>
        <time>2016-07-29T12:01:33Z</time>
      </trkpt>
      <trkpt lat="45.12489" lon="5.55796">
        <ele>1204.5</ele>
        <time>2016-07-29T12:01:38Z</time>
      </trkpt>
      <trkpt lat="45.12495" lon="5.55806">
        <ele>1204.5</ele>
        <time>2016-07-29T12:01:43Z</time>
      </trkpt>
      <trkpt lat="45.12504" lon="5.55812">
        <ele>1204.8</ele>
        <time>2016-07-29T12:01:48Z</time>
      </trkpt>
      <trkpt lat="45.12512" lon="5.55819">
        <ele>1205</ele>
        <time>2016-07-29T12:01:53Z</time>
      </trkpt>
      <trkpt lat="45.12522" lon="5.55824">
        <ele>1205</ele>
        <time>2016-07-29T12:01:58Z</time>
      </trkpt>
      <trkpt lat="45.12532" lon="5.55826">
        <ele>1205.6</ele>
        <time>2016-07-29T12:02:04Z</time>
      </trkpt>
      <trkpt lat="45.12542" lon="5.55828">
        <ele>1205.8</ele>
        <time>2016-07-29T12:02:09Z</time>
      </trkpt>
      <trkpt lat="45.12552" lon="5.55829">
        <ele>1205.7</ele>
        <time>2016-07-29T12:02:13Z</time>
      </trkpt>
      <trkpt lat="45.12562" lon="5.5583">
        <ele>1205.9</ele>
        <time>2016-07-29T12:02:17Z</time>
      </trkpt>
      <trkpt lat="45.12571" lon="5.55828">
        <ele>1205.8</ele>
        <time>2016-07-29T12:02:21Z</time>
      </trkpt>
      <trkpt lat="45.12583" lon="5.55824">
        <ele>1205.7</ele>
        <time>2016-07-29T12:02:25Z</time>
      </trkpt>
      <trkpt lat="45.12593" lon="5.55818">
        <ele>1205.8</ele>
        <time>2016-07-29T12:02:30Z</time>
      </trkpt>
      <trkpt lat="45.126" lon="5.55809">
        <ele>1205.8</ele>
        <time>2016-07-29T12:02:34Z</time>
      </trkpt>
      <trkpt lat="45.12608" lon="5.558">
        <ele>1205.6</ele>
        <time>2016-07-29T12:02:37Z</time>
      </trkpt>
      <trkpt lat="45.12617" lon="5.55793">
        <ele>1204.9</ele>
        <time>2016-07-29T12:02:39Z</time>
      </trkpt>
      <trkpt lat="45.12627" lon="5.55781">
        <ele>1204.2</ele>
        <time>2016-07-29T12:02:42Z</time>
      </trkpt>
      <trkpt lat="45.12636" lon="5.55774">
        <ele>1203.6</ele>
        <time>2016-07-29T12:02:44Z</time>
      </trkpt>
      <trkpt lat="45.12645" lon="5.55768">
        <ele>1202.6</ele>
        <time>2016-07-29T12:02:46Z</time>
      </trkpt>
      <trkpt lat="45.12656" lon="5.55766">
        <ele>1201.9</ele>
        <time>2016-07-29T12:02:49Z</time>
      </trkpt>
      <trkpt lat="45.12665" lon="5.55773">
        <ele>1201.4</ele>
        <time>2016-07-29T12:02:52Z</time>
      </trkpt>
      <trkpt lat="45.12676" lon="5.55781">
        <ele>1201.4</ele>
        <time>2016-07-29T12:02:55Z</time>
      </trkpt>
      <trkpt lat="45.12684" lon="5.55789">
        <ele>1201.5</ele>
        <time>2016-07-29T12:02:58Z</time>
      </trkpt>
      <trkpt lat="45.12694" lon="5.55796">
        <ele>1202</ele>
        <time>2016-07-29T12:03:02Z</time>
      </trkpt>
      <trkpt lat="45.12704" lon="5.55804">
        <ele>1202.3</ele>
        <time>2016-07-29T12:03:05Z</time>
      </trkpt>
      <trkpt lat="45.12712" lon="5.5581">
        <ele>1203.2</ele>
        <time>2016-07-29T12:03:09Z</time>
      </trkpt>
      <trkpt lat="45.12723" lon="5.55817">
        <ele>1203.5</ele>
        <time>2016-07-29T12:03:13Z</time>
      </trkpt>
      <trkpt lat="45.12732" lon="5.55821">
        <ele>1203.6</ele>
        <time>2016-07-29T12:03:16Z</time>
      </trkpt>
      <trkpt lat="45.12742" lon="5.55825">
        <ele>1203.7</ele>
        <time>2016-07-29T12:03:20Z</time>
      </trkpt>
      <trkpt lat="45.12752" lon="5.5583">
        <ele>1204.1</ele>
        <time>2016-07-29T12:03:23Z</time>
      </trkpt>
      <trkpt lat="45.12761" lon="5.55833">
        <ele>1204.4</ele>
        <time>2016-07-29T12:03:27Z</time>
      </trkpt>
      <trkpt lat="45.12771" lon="5.55842">
        <ele>1204.8</ele>
        <time>2016-07-29T12:03:31Z</time>
      </trkpt>
      <trkpt lat="45.1278" lon="5.55848">
        <ele>1205.1</ele>
        <time>2016-07-29T12:03:34Z</time>
      </trkpt>
      <trkpt lat="45.12789" lon="5.55852">
        <ele>1205.7</ele>
        <time>2016-07-29T12:03:37Z</time>
      </trkpt>
      <trkpt lat="45.12799" lon="5.55853">
        <ele>1205.9</ele>
        <time>2016-07-29T12:03:40Z</time>
      </trkpt>
      <trkpt lat="45.12808" lon="5.55853">
        <ele>1206.1</ele>
        <time>2016-07-29T12:03:43Z</time>
      </trkpt>
      <trkpt lat="45.12818" lon="5.55858">
        <ele>1206.4</ele>
        <time>2016-07-29T12:03:46Z</time>
      </trkpt>
      <trkpt lat="45.12828" lon="5.55866">
        <ele>1206.5</ele>
        <time>2016-07-29T12:03:50Z</time>
      </trkpt>
      <trkpt lat="45.12839" lon="5.5587">
        <ele>1207.1</ele>
        <time>2016-07-29T12:03:54Z</time>
      </trkpt>
      <trkpt lat="45.12849" lon="5.55874">
        <ele>1207.8</ele>
        <time>2016-07-29T12:03:58Z</time>
      </trkpt>
      <trkpt lat="45.1286" lon="5.55877">
        <ele>1208.3</ele>
        <time>2016-07-29T12:04:02Z</time>
      </trkpt>
      <trkpt lat="45.1287" lon="5.55879">
        <ele>1208.6</ele>
        <time>2016-07-29T12:04:06Z</time>
      </trkpt>
      <trkpt lat="45.12881" lon="5.5588">
        <ele>1209.1</ele>
        <time>2016-07-29T12:04:10Z</time>
      </trkpt>
      <trkpt lat="45.12893" lon="5.55879">
        <ele>1209.1</ele>
        <time>2016-07-29T12:04:14Z</time>
      </trkpt>
      <trkpt lat="45.12904" lon="5.5588">
        <ele>1208.5</ele>
        <time>2016-07-29T12:04:17Z</time>
      </trkpt>
      <trkpt lat="45.12913" lon="5.55883">
        <ele>1208.3</ele>
        <time>2016-07-29T12:04:20Z</time>
      </trkpt>
      <trkpt lat="45.12924" lon="5.55888">
        <ele>1208.2</ele>
        <time>2016-07-29T12:04:24Z</time>
      </trkpt>
      <trkpt lat="45.12933" lon="5.55894">
        <ele>1208.3</ele>
        <time>2016-07-29T12:04:27Z</time>
      </trkpt>
      <trkpt lat="45.12942" lon="5.559">
        <ele>1209.1</ele>
        <time>2016-07-29T12:04:31Z</time>
      </trkpt>
      <trkpt lat="45.12951" lon="5.55905">
        <ele>1209.6</ele>
        <time>2016-07-29T12:04:35Z</time>
      </trkpt>
      <trkpt lat="45.1296" lon="5.55911">
        <ele>1209.7</ele>
        <time>2016-07-29T12:04:39Z</time>
      </trkpt>
      <trkpt lat="45.12969" lon="5.55918">
        <ele>1209.9</ele>
        <time>2016-07-29T12:04:43Z</time>
      </trkpt>
      <trkpt lat="45.12977" lon="5.55928">
        <ele>1209.9</ele>
        <time>2016-07-29T12:04:47Z</time>
      </trkpt>
      <trkpt lat="45.12981" lon="5.55943">
        <ele>1209.8</ele>
        <time>2016-07-29T12:04:51Z</time>
      </trkpt>
      <trkpt lat="45.12985" lon="5.55959">
        <ele>1209.5</ele>
        <time>2016-07-29T12:04:55Z</time>
      </trkpt>
      <trkpt lat="45.12995" lon="5.55964">
        <ele>1209.6</ele>
        <time>2016-07-29T12:04:59Z</time>
      </trkpt>
      <trkpt lat="45.13005" lon="5.55969">
        <ele>1209.8</ele>
        <time>2016-07-29T12:05:03Z</time>
      </trkpt>
      <trkpt lat="45.13013" lon="5.55973">
        <ele>1210</ele>
        <time>2016-07-29T12:05:08Z</time>
      </trkpt>
      <trkpt lat="45.13023" lon="5.5598">
        <ele>1210.1</ele>
        <time>2016-07-29T12:05:14Z</time>
      </trkpt>
      <trkpt lat="45.13033" lon="5.55984">
        <ele>1209.8</ele>
        <time>2016-07-29T12:05:18Z</time>
      </trkpt>
      <trkpt lat="45.13041" lon="5.55997">
        <ele>1209.8</ele>
        <time>2016-07-29T12:05:22Z</time>
      </trkpt>
      <trkpt lat="45.13043" lon="5.56011">
        <ele>1210.3</ele>
        <time>2016-07-29T12:05:26Z</time>
      </trkpt>
      <trkpt lat="45.13045" lon="5.56024">
        <ele>1211</ele>
        <time>2016-07-29T12:05:30Z</time>
      </trkpt>
      <trkpt lat="45.1305" lon="5.56037">
        <ele>1211.6</ele>
        <time>2016-07-29T12:05:34Z</time>
      </trkpt>
      <trkpt lat="45.13054" lon="5.56049">
        <ele>1211.9</ele>
        <time>2016-07-29T12:05:38Z</time>
      </trkpt>
      <trkpt lat="45.13059" lon="5.56063">
        <ele>1211.9</ele>
        <time>2016-07-29T12:05:42Z</time>
      </trkpt>
      <trkpt lat="45.13061" lon="5.56079">
        <ele>1212.2</ele>
        <time>2016-07-29T12:05:46Z</time>
      </trkpt>
      <trkpt lat="45.13062" lon="5.56094">
        <ele>1212.4</ele>
        <time>2016-07-29T12:05:50Z</time>
      </trkpt>
      <trkpt lat="45.13063" lon="5.56109">
        <ele>1212.5</ele>
        <time>2016-07-29T12:05:54Z</time>
      </trkpt>
      <trkpt lat="45.13066" lon="5.56121">
        <ele>1212.9</ele>
        <time>2016-07-29T12:05:57Z</time>
      </trkpt>
      <trkpt lat="45.13069" lon="5.56136">
        <ele>1213.2</ele>
        <time>2016-07-29T12:06:01Z</time>
      </trkpt>
      <trkpt lat="45.13068" lon="5.56151">
        <ele>1213.5</ele>
        <time>2016-07-29T12:06:05Z</time>
      </trkpt>
      <trkpt lat="45.13069" lon="5.56166">
        <ele>1213.8</ele>
        <time>2016-07-29T12:06:09Z</time>
      </trkpt>
      <trkpt lat="45.1307" lon="5.5618">
        <ele>1214.2</ele>
        <time>2016-07-29T12:06:13Z</time>
      </trkpt>
      <trkpt lat="45.13074" lon="5.56192">
        <ele>1214.6</ele>
        <time>2016-07-29T12:06:17Z</time>
      </trkpt>
      <trkpt lat="45.13083" lon="5.56202">
        <ele>1214.8</ele>
        <time>2016-07-29T12:06:22Z</time>
      </trkpt>
      <trkpt lat="45.13094" lon="5.56205">
        <ele>1215</ele>
        <time>2016-07-29T12:06:25Z</time>
      </trkpt>
      <trkpt lat="45.13106" lon="5.56205">
        <ele>1215.2</ele>
        <time>2016-07-29T12:06:28Z</time>
      </trkpt>
      <trkpt lat="45.13117" lon="5.56199">
        <ele>1215.6</ele>
        <time>2016-07-29T12:06:32Z</time>
      </trkpt>
      <trkpt lat="45.13127" lon="5.5619">
        <ele>1216.1</ele>
        <time>2016-07-29T12:06:36Z</time>
      </trkpt>
      <trkpt lat="45.13136" lon="5.56183">
        <ele>1216.6</ele>
        <time>2016-07-29T12:06:40Z</time>
      </trkpt>
      <trkpt lat="45.13147" lon="5.56179">
        <ele>1217</ele>
        <time>2016-07-29T12:06:44Z</time>
      </trkpt>
      <trkpt lat="45.13158" lon="5.56175">
        <ele>1217.6</ele>
        <time>2016-07-29T12:06:48Z</time>
      </trkpt>
      <trkpt lat="45.13168" lon="5.56174">
        <ele>1218.2</ele>
        <time>2016-07-29T12:06:52Z</time>
      </trkpt>
      <trkpt lat="45.13178" lon="5.56171">
        <ele>1218.8</ele>
        <time>2016-07-29T12:06:56Z</time>
      </trkpt>
      <trkpt lat="45.13188" lon="5.56167">
        <ele>1219.6</ele>
        <time>2016-07-29T12:07:00Z</time>
      </trkpt>
      <trkpt lat="45.13198" lon="5.56163">
        <ele>1220.3</ele>
        <time>2016-07-29T12:07:04Z</time>
      </trkpt>
      <trkpt lat="45.13208" lon="5.5616">
        <ele>1220.9</ele>
        <time>2016-07-29T12:07:08Z</time>
      </trkpt>
      <trkpt lat="45.13217" lon="5.56156">
        <ele>1221.4</ele>
        <time>2016-07-29T12:07:12Z</time>
      </trkpt>
      <trkpt lat="45.13228" lon="5.56153">
        <ele>1222</ele>
        <time>2016-07-29T12:07:16Z</time>
      </trkpt>
      <trkpt lat="45.13238" lon="5.56152">
        <ele>1222.7</ele>
        <time>2016-07-29T12:07:20Z</time>
      </trkpt>
      <trkpt lat="45.13249" lon="5.56152">
        <ele>1223.2</ele>
        <time>2016-07-29T12:07:25Z</time>
      </trkpt>
      <trkpt lat="45.13258" lon="5.56156">
        <ele>1223.9</ele>
        <time>2016-07-29T12:07:30Z</time>
      </trkpt>
      <trkpt lat="45.13267" lon="5.56166">
        <ele>1224.9</ele>
        <time>2016-07-29T12:07:36Z</time>
      </trkpt>
      <trkpt lat="45.13274" lon="5.56175">
        <ele>1225.8</ele>
        <time>2016-07-29T12:07:42Z</time>
      </trkpt>
      <trkpt lat="45.13285" lon="5.56178">
        <ele>1226.3</ele>
        <time>2016-07-29T12:07:47Z</time>
      </trkpt>
      <trkpt lat="45.13295" lon="5.56176">
        <ele>1226.7</ele>
        <time>2016-07-29T12:07:50Z</time>
      </trkpt>
      <trkpt lat="45.13303" lon="5.5617">
        <ele>1226.9</ele>
        <time>2016-07-29T12:07:53Z</time>
      </trkpt>
      <trkpt lat="45.13312" lon="5.56164">
        <ele>1227.1</ele>
        <time>2016-07-29T12:07:56Z</time>
      </trkpt>
      <trkpt lat="45.1332" lon="5.56153">
        <ele>1227.3</ele>
        <time>2016-07-29T12:08:00Z</time>
      </trkpt>
      <trkpt lat="45.13329" lon="5.56143">
        <ele>1227.5</ele>
        <time>2016-07-29T12:08:04Z</time>
      </trkpt>
      <trkpt lat="45.13336" lon="5.56132">
        <ele>1227.8</ele>
        <time>2016-07-29T12:08:08Z</time>
      </trkpt>
      <trkpt lat="45.13343" lon="5.5612">
        <ele>1228</ele>
        <time>2016-07-29T12:08:12Z</time>
      </trkpt>
      <trkpt lat="45.13352" lon="5.56113">
        <ele>1228.5</ele>
        <time>2016-07-29T12:08:16Z</time>
      </trkpt>
      <trkpt lat="45.13359" lon="5.56105">
        <ele>1228.9</ele>
        <time>2016-07-29T12:08:20Z</time>
      </trkpt>
      <trkpt lat="45.13368" lon="5.56098">
        <ele>1229.4</ele>
        <time>2016-07-29T12:08:24Z</time>
      </trkpt>
      <trkpt lat="45.13378" lon="5.56092">
        <ele>1230</ele>
        <time>2016-07-29T12:08:28Z</time>
      </trkpt>
      <trkpt lat="45.13388" lon="5.56088">
        <ele>1230.5</ele>
        <time>2016-07-29T12:08:32Z</time>
      </trkpt>
      <trkpt lat="45.13397" lon="5.56084">
        <ele>1231.2</ele>
        <time>2016-07-29T12:08:37Z</time>
      </trkpt>
      <trkpt lat="45.13406" lon="5.56084">
        <ele>1231.7</ele>
        <time>2016-07-29T12:08:42Z</time>
      </trkpt>
      <trkpt lat="45.13416" lon="5.56086">
        <ele>1232.5</ele>
        <time>2016-07-29T12:08:47Z</time>
      </trkpt>
      <trkpt lat="45.13426" lon="5.56087">
        <ele>1233.4</ele>
        <time>2016-07-29T12:08:52Z</time>
      </trkpt>
      <trkpt lat="45.13436" lon="5.56089">
        <ele>1234.2</ele>
        <time>2016-07-29T12:08:57Z</time>
      </trkpt>
      <trkpt lat="45.13446" lon="5.56093">
        <ele>1235.1</ele>
        <time>2016-07-29T12:09:02Z</time>
      </trkpt>
      <trkpt lat="45.13455" lon="5.56098">
        <ele>1235.6</ele>
        <time>2016-07-29T12:09:06Z</time>
      </trkpt>
      <trkpt lat="45.13464" lon="5.56103">
        <ele>1236.5</ele>
        <time>2016-07-29T12:09:10Z</time>
      </trkpt>
      <trkpt lat="45.13473" lon="5.56109">
        <ele>1237</ele>
        <time>2016-07-29T12:09:14Z</time>
      </trkpt>
      <trkpt lat="45.13483" lon="5.56117">
        <ele>1237.7</ele>
        <time>2016-07-29T12:09:19Z</time>
      </trkpt>
      <trkpt lat="45.13491" lon="5.56124">
        <ele>1238</ele>
        <time>2016-07-29T12:09:22Z</time>
      </trkpt>
      <trkpt lat="45.13497" lon="5.56134">
        <ele>1238.4</ele>
        <time>2016-07-29T12:09:25Z</time>
      </trkpt>
      <trkpt lat="45.13501" lon="5.56149">
        <ele>1239.1</ele>
        <time>2016-07-29T12:09:29Z</time>
      </trkpt>
      <trkpt lat="45.13508" lon="5.56158">
        <ele>1239.3</ele>
        <time>2016-07-29T12:09:32Z</time>
      </trkpt>
      <trkpt lat="45.13517" lon="5.56164">
        <ele>1239.4</ele>
        <time>2016-07-29T12:09:35Z</time>
      </trkpt>
      <trkpt lat="45.13528" lon="5.56164">
        <ele>1239.7</ele>
        <time>2016-07-29T12:09:38Z</time>
      </trkpt>
      <trkpt lat="45.1354" lon="5.56161">
        <ele>1240</ele>
        <time>2016-07-29T12:09:41Z</time>
      </trkpt>
      <trkpt lat="45.13551" lon="5.56154">
        <ele>1240.4</ele>
        <time>2016-07-29T12:09:44Z</time>
      </trkpt>
      <trkpt lat="45.1356" lon="5.56145">
        <ele>1240.6</ele>
        <time>2016-07-29T12:09:47Z</time>
      </trkpt>
      <trkpt lat="45.13569" lon="5.56134">
        <ele>1240.7</ele>
        <time>2016-07-29T12:09:51Z</time>
      </trkpt>
      <trkpt lat="45.13577" lon="5.56128">
        <ele>1240.9</ele>
        <time>2016-07-29T12:09:54Z</time>
      </trkpt>
      <trkpt lat="45.13588" lon="5.56124">
        <ele>1241.2</ele>
        <time>2016-07-29T12:09:58Z</time>
      </trkpt>
      <trkpt lat="45.13598" lon="5.56122">
        <ele>1241.8</ele>
        <time>2016-07-29T12:10:02Z</time>
      </trkpt>
      <trkpt lat="45.13608" lon="5.56118">
        <ele>1242.2</ele>
        <time>2016-07-29T12:10:07Z</time>
      </trkpt>
      <trkpt lat="45.13618" lon="5.56117">
        <ele>1242.5</ele>
        <time>2016-07-29T12:10:10Z</time>
      </trkpt>
      <trkpt lat="45.13628" lon="5.56117">
        <ele>1242.7</ele>
        <time>2016-07-29T12:10:13Z</time>
      </trkpt>
      <trkpt lat="45.13637" lon="5.56117">
        <ele>1243.2</ele>
        <time>2016-07-29T12:10:16Z</time>
      </trkpt>
      <trkpt lat="45.13647" lon="5.56116">
        <ele>1243.4</ele>
        <time>2016-07-29T12:10:19Z</time>
      </trkpt>
      <trkpt lat="45.13657" lon="5.56114">
        <ele>1243.7</ele>
        <time>2016-07-29T12:10:22Z</time>
      </trkpt>
      <trkpt lat="45.13667" lon="5.56111">
        <ele>1244.5</ele>
        <time>2016-07-29T12:10:26Z</time>
      </trkpt>
      <trkpt lat="45.13678" lon="5.56107">
        <ele>1244.7</ele>
        <time>2016-07-29T12:10:30Z</time>
      </trkpt>
      <trkpt lat="45.13686" lon="5.56104">
        <ele>1245</ele>
        <time>2016-07-29T12:10:33Z</time>
      </trkpt>
      <trkpt lat="45.13695" lon="5.56101">
        <ele>1245.3</ele>
        <time>2016-07-29T12:10:36Z</time>
      </trkpt>
      <trkpt lat="45.13705" lon="5.56098">
        <ele>1245.7</ele>
        <time>2016-07-29T12:10:39Z</time>
      </trkpt>
      <trkpt lat="45.13715" lon="5.56092">
        <ele>1246.1</ele>
        <time>2016-07-29T12:10:43Z</time>
      </trkpt>
      <trkpt lat="45.13726" lon="5.56088">
        <ele>1246.6</ele>
        <time>2016-07-29T12:10:47Z</time>
      </trkpt>
      <trkpt lat="45.13736" lon="5.56085">
        <ele>1247.1</ele>
        <time>2016-07-29T12:10:50Z</time>
      </trkpt>
      <trkpt lat="45.13745" lon="5.56082">
        <ele>1247.7</ele>
        <time>2016-07-29T12:10:53Z</time>
      </trkpt>
      <trkpt lat="45.13756" lon="5.56078">
        <ele>1248.3</ele>
        <time>2016-07-29T12:10:57Z</time>
      </trkpt>
      <trkpt lat="45.13765" lon="5.56074">
        <ele>1249.1</ele>
        <time>2016-07-29T12:11:01Z</time>
      </trkpt>
      <trkpt lat="45.13776" lon="5.5607">
        <ele>1249.8</ele>
        <time>2016-07-29T12:11:05Z</time>
      </trkpt>
      <trkpt lat="45.13787" lon="5.56066">
        <ele>1250.4</ele>
        <time>2016-07-29T12:11:09Z</time>
      </trkpt>
      <trkpt lat="45.13796" lon="5.56063">
        <ele>1250.9</ele>
        <time>2016-07-29T12:11:13Z</time>
      </trkpt>
      <trkpt lat="45.13805" lon="5.56062">
        <ele>1251.3</ele>
        <time>2016-07-29T12:11:16Z</time>
      </trkpt>
      <trkpt lat="45.13815" lon="5.5606">
        <ele>1251.9</ele>
        <time>2016-07-29T12:11:20Z</time>
      </trkpt>
      <trkpt lat="45.13825" lon="5.56058">
        <ele>1252.6</ele>
        <time>2016-07-29T12:11:24Z</time>
      </trkpt>
      <trkpt lat="45.13835" lon="5.56056">
        <ele>1253.4</ele>
        <time>2016-07-29T12:11:28Z</time>
      </trkpt>
      <trkpt lat="45.13844" lon="5.56053">
        <ele>1254.2</ele>
        <time>2016-07-29T12:11:33Z</time>
      </trkpt>
      <trkpt lat="45.13853" lon="5.56051">
        <ele>1254.8</ele>
        <time>2016-07-29T12:11:37Z</time>
      </trkpt>
      <trkpt lat="45.13863" lon="5.56049">
        <ele>1255.7</ele>
        <time>2016-07-29T12:11:42Z</time>
      </trkpt>
      <trkpt lat="45.13872" lon="5.5605">
        <ele>1256.1</ele>
        <time>2016-07-29T12:11:46Z</time>
      </trkpt>
      <trkpt lat="45.13881" lon="5.56052">
        <ele>1256.9</ele>
        <time>2016-07-29T12:11:50Z</time>
      </trkpt>
      <trkpt lat="45.13889" lon="5.56059">
        <ele>1257.8</ele>
        <time>2016-07-29T12:11:54Z</time>
      </trkpt>
      <trkpt lat="45.13893" lon="5.56073">
        <ele>1258.8</ele>
        <time>2016-07-29T12:11:59Z</time>
      </trkpt>
      <trkpt lat="45.13894" lon="5.56088">
        <ele>1259.7</ele>
        <time>2016-07-29T12:12:04Z</time>
      </trkpt>
      <trkpt lat="45.13895" lon="5.56101">
        <ele>1260.4</ele>
        <time>2016-07-29T12:12:08Z</time>
      </trkpt>
      <trkpt lat="45.13894" lon="5.56116">
        <ele>1261.3</ele>
        <time>2016-07-29T12:12:13Z</time>
      </trkpt>
      <trkpt lat="45.13892" lon="5.56131">
        <ele>1262</ele>
        <time>2016-07-29T12:12:18Z</time>
      </trkpt>
      <trkpt lat="45.1389" lon="5.56147">
        <ele>1262.8</ele>
        <time>2016-07-29T12:12:23Z</time>
      </trkpt>
      <trkpt lat="45.1389" lon="5.56159">
        <ele>1263.5</ele>
        <time>2016-07-29T12:12:27Z</time>
      </trkpt>
      <trkpt lat="45.13893" lon="5.56176">
        <ele>1264.3</ele>
        <time>2016-07-29T12:12:32Z</time>
      </trkpt>
      <trkpt lat="45.13895" lon="5.56191">
        <ele>1265.3</ele>
        <time>2016-07-29T12:12:37Z</time>
      </trkpt>
      <trkpt lat="45.13898" lon="5.56206">
        <ele>1266.1</ele>
        <time>2016-07-29T12:12:42Z</time>
      </trkpt>
      <trkpt lat="45.13896" lon="5.56221">
        <ele>1267</ele>
        <time>2016-07-29T12:12:47Z</time>
      </trkpt>
      <trkpt lat="45.13901" lon="5.56234">
        <ele>1267.7</ele>
        <time>2016-07-29T12:12:51Z</time>
      </trkpt>
      <trkpt lat="45.13909" lon="5.56242">
        <ele>1268.3</ele>
        <time>2016-07-29T12:12:56Z</time>
      </trkpt>
      <trkpt lat="45.13922" lon="5.56244">
        <ele>1268.9</ele>
        <time>2016-07-29T12:13:00Z</time>
      </trkpt>
      <trkpt lat="45.13935" lon="5.56245">
        <ele>1269.4</ele>
        <time>2016-07-29T12:13:03Z</time>
      </trkpt>
      <trkpt lat="45.13945" lon="5.56242">
        <ele>1269.9</ele>
        <time>2016-07-29T12:13:06Z</time>
      </trkpt>
      <trkpt lat="45.13953" lon="5.56237">
        <ele>1270.4</ele>
        <time>2016-07-29T12:13:09Z</time>
      </trkpt>
      <trkpt lat="45.1396" lon="5.56226">
        <ele>1271</ele>
        <time>2016-07-29T12:13:13Z</time>
      </trkpt>
      <trkpt lat="45.13965" lon="5.56214">
        <ele>1271.4</ele>
        <time>2016-07-29T12:13:17Z</time>
      </trkpt>
      <trkpt lat="45.13972" lon="5.56202">
        <ele>1271.9</ele>
        <time>2016-07-29T12:13:22Z</time>
      </trkpt>
      <trkpt lat="45.13981" lon="5.56192">
        <ele>1272.6</ele>
        <time>2016-07-29T12:13:27Z</time>
      </trkpt>
      <trkpt lat="45.13988" lon="5.56181">
        <ele>1273.3</ele>
        <time>2016-07-29T12:13:32Z</time>
      </trkpt>
      <trkpt lat="45.13998" lon="5.56181">
        <ele>1274.2</ele>
        <time>2016-07-29T12:13:37Z</time>
      </trkpt>
      <trkpt lat="45.14007" lon="5.5619">
        <ele>1274.7</ele>
        <time>2016-07-29T12:13:43Z</time>
      </trkpt>
      <trkpt lat="45.14014" lon="5.562">
        <ele>1275.4</ele>
        <time>2016-07-29T12:13:47Z</time>
      </trkpt>
      <trkpt lat="45.1402" lon="5.5621">
        <ele>1276</ele>
        <time>2016-07-29T12:13:53Z</time>
      </trkpt>
      <trkpt lat="45.14024" lon="5.56223">
        <ele>1276.7</ele>
        <time>2016-07-29T12:14:00Z</time>
      </trkpt>
      <trkpt lat="45.14027" lon="5.56236">
        <ele>1278</ele>
        <time>2016-07-29T12:14:06Z</time>
      </trkpt>
      <trkpt lat="45.14033" lon="5.56247">
        <ele>1279</ele>
        <time>2016-07-29T12:14:10Z</time>
      </trkpt>
      <trkpt lat="45.14039" lon="5.56257">
        <ele>1279.8</ele>
        <time>2016-07-29T12:14:14Z</time>
      </trkpt>
      <trkpt lat="45.14047" lon="5.56268">
        <ele>1280.7</ele>
        <time>2016-07-29T12:14:20Z</time>
      </trkpt>
      <trkpt lat="45.14059" lon="5.56271">
        <ele>1280.9</ele>
        <time>2016-07-29T12:14:23Z</time>
      </trkpt>
      <trkpt lat="45.1407" lon="5.56269">
        <ele>1281.1</ele>
        <time>2016-07-29T12:14:26Z</time>
      </trkpt>
      <trkpt lat="45.14079" lon="5.56263">
        <ele>1281.2</ele>
        <time>2016-07-29T12:14:29Z</time>
      </trkpt>
      <trkpt lat="45.14088" lon="5.56257">
        <ele>1281.5</ele>
        <time>2016-07-29T12:14:32Z</time>
      </trkpt>
      <trkpt lat="45.14097" lon="5.56248">
        <ele>1282.1</ele>
        <time>2016-07-29T12:14:36Z</time>
      </trkpt>
      <trkpt lat="45.14106" lon="5.5624">
        <ele>1282.9</ele>
        <time>2016-07-29T12:14:40Z</time>
      </trkpt>
      <trkpt lat="45.14112" lon="5.56228">
        <ele>1283.6</ele>
        <time>2016-07-29T12:14:45Z</time>
      </trkpt>
      <trkpt lat="45.14121" lon="5.56218">
        <ele>1284.6</ele>
        <time>2016-07-29T12:14:50Z</time>
      </trkpt>
      <trkpt lat="45.14131" lon="5.56216">
        <ele>1285.1</ele>
        <time>2016-07-29T12:14:54Z</time>
      </trkpt>
      <trkpt lat="45.14141" lon="5.56216">
        <ele>1286.2</ele>
        <time>2016-07-29T12:15:00Z</time>
      </trkpt>
      <trkpt lat="45.14152" lon="5.56216">
        <ele>1286.9</ele>
        <time>2016-07-29T12:15:05Z</time>
      </trkpt>
      <trkpt lat="45.14161" lon="5.56217">
        <ele>1287.5</ele>
        <time>2016-07-29T12:15:09Z</time>
      </trkpt>
      <trkpt lat="45.14171" lon="5.56215">
        <ele>1288.2</ele>
        <time>2016-07-29T12:15:14Z</time>
      </trkpt>
      <trkpt lat="45.14181" lon="5.56214">
        <ele>1288.8</ele>
        <time>2016-07-29T12:15:19Z</time>
      </trkpt>
      <trkpt lat="45.14191" lon="5.56214">
        <ele>1289.5</ele>
        <time>2016-07-29T12:15:23Z</time>
      </trkpt>
      <trkpt lat="45.142" lon="5.56213">
        <ele>1290.1</ele>
        <time>2016-07-29T12:15:28Z</time>
      </trkpt>
      <trkpt lat="45.1421" lon="5.56214">
        <ele>1290.7</ele>
        <time>2016-07-29T12:15:33Z</time>
      </trkpt>
      <trkpt lat="45.14219" lon="5.56216">
        <ele>1291.2</ele>
        <time>2016-07-29T12:15:37Z</time>
      </trkpt>
      <trkpt lat="45.14227" lon="5.56224">
        <ele>1291.9</ele>
        <time>2016-07-29T12:15:41Z</time>
      </trkpt>
      <trkpt lat="45.14237" lon="5.5623">
        <ele>1292.6</ele>
        <time>2016-07-29T12:15:46Z</time>
      </trkpt>
      <trkpt lat="45.14249" lon="5.56235">
        <ele>1292.9</ele>
        <time>2016-07-29T12:15:49Z</time>
      </trkpt>
      <trkpt lat="45.14259" lon="5.56239">
        <ele>1293.5</ele>
        <time>2016-07-29T12:15:53Z</time>
      </trkpt>
      <trkpt lat="45.1427" lon="5.5624">
        <ele>1294.1</ele>
        <time>2016-07-29T12:15:58Z</time>
      </trkpt>
      <trkpt lat="45.1428" lon="5.56239">
        <ele>1294.7</ele>
        <time>2016-07-29T12:16:02Z</time>
      </trkpt>
      <trkpt lat="45.1429" lon="5.56235">
        <ele>1295.7</ele>
        <time>2016-07-29T12:16:07Z</time>
      </trkpt>
      <trkpt lat="45.14299" lon="5.5623">
        <ele>1296.6</ele>
        <time>2016-07-29T12:16:11Z</time>
      </trkpt>
      <trkpt lat="45.14308" lon="5.56227">
        <ele>1297.1</ele>
        <time>2016-07-29T12:16:15Z</time>
      </trkpt>
      <trkpt lat="45.1432" lon="5.56225">
        <ele>1297.7</ele>
        <time>2016-07-29T12:16:19Z</time>
      </trkpt>
      <trkpt lat="45.1433" lon="5.56225">
        <ele>1298.4</ele>
        <time>2016-07-29T12:16:23Z</time>
      </trkpt>
      <trkpt lat="45.14339" lon="5.56225">
        <ele>1299.1</ele>
        <time>2016-07-29T12:16:27Z</time>
      </trkpt>
      <trkpt lat="45.14349" lon="5.56225">
        <ele>1300</ele>
        <time>2016-07-29T12:16:32Z</time>
      </trkpt>
      <trkpt lat="45.14361" lon="5.56227">
        <ele>1301.3</ele>
        <time>2016-07-29T12:16:40Z</time>
      </trkpt>
      <trkpt lat="45.1437" lon="5.56232">
        <ele>1302.1</ele>
        <time>2016-07-29T12:16:45Z</time>
      </trkpt>
      <trkpt lat="45.14379" lon="5.5624">
        <ele>1303.1</ele>
        <time>2016-07-29T12:16:51Z</time>
      </trkpt>
      <trkpt lat="45.1439" lon="5.56246">
        <ele>1303.8</ele>
        <time>2016-07-29T12:16:55Z</time>
      </trkpt>
      <trkpt lat="45.144" lon="5.56246">
        <ele>1304.3</ele>
        <time>2016-07-29T12:16:58Z</time>
      </trkpt>
      <trkpt lat="45.14409" lon="5.56238">
        <ele>1305.2</ele>
        <time>2016-07-29T12:17:03Z</time>
      </trkpt>
      <trkpt lat="45.14417" lon="5.56229">
        <ele>1305.8</ele>
        <time>2016-07-29T12:17:08Z</time>
      </trkpt>
      <trkpt lat="45.14426" lon="5.56221">
        <ele>1306.8</ele>
        <time>2016-07-29T12:17:13Z</time>
      </trkpt>
      <trkpt lat="45.14434" lon="5.56211">
        <ele>1307.7</ele>
        <time>2016-07-29T12:17:18Z</time>
      </trkpt>
      <trkpt lat="45.14442" lon="5.56204">
        <ele>1308.6</ele>
        <time>2016-07-29T12:17:23Z</time>
      </trkpt>
      <trkpt lat="45.14452" lon="5.56202">
        <ele>1309.5</ele>
        <time>2016-07-29T12:17:29Z</time>
      </trkpt>
      <trkpt lat="45.14462" lon="5.56206">
        <ele>1310.9</ele>
        <time>2016-07-29T12:17:36Z</time>
      </trkpt>
      <trkpt lat="45.14471" lon="5.56214">
        <ele>1311.9</ele>
        <time>2016-07-29T12:17:42Z</time>
      </trkpt>
      <trkpt lat="45.14481" lon="5.56219">
        <ele>1312.9</ele>
        <time>2016-07-29T12:17:47Z</time>
      </trkpt>
      <trkpt lat="45.14492" lon="5.56222">
        <ele>1313.5</ele>
        <time>2016-07-29T12:17:51Z</time>
      </trkpt>
      <trkpt lat="45.14502" lon="5.56222">
        <ele>1314.1</ele>
        <time>2016-07-29T12:17:55Z</time>
      </trkpt>
      <trkpt lat="45.14514" lon="5.56222">
        <ele>1314.6</ele>
        <time>2016-07-29T12:18:01Z</time>
      </trkpt>
      <trkpt lat="45.14523" lon="5.56223">
        <ele>1315.2</ele>
        <time>2016-07-29T12:18:07Z</time>
      </trkpt>
      <trkpt lat="45.14534" lon="5.5623">
        <ele>1316.3</ele>
        <time>2016-07-29T12:18:15Z</time>
      </trkpt>
      <trkpt lat="45.14544" lon="5.56239">
        <ele>1316.8</ele>
        <time>2016-07-29T12:18:19Z</time>
      </trkpt>
      <trkpt lat="45.1455" lon="5.5625">
        <ele>1317.5</ele>
        <time>2016-07-29T12:18:24Z</time>
      </trkpt>
      <trkpt lat="45.14555" lon="5.56263">
        <ele>1318.2</ele>
        <time>2016-07-29T12:18:30Z</time>
      </trkpt>
      <trkpt lat="45.14559" lon="5.56277">
        <ele>1319.2</ele>
        <time>2016-07-29T12:18:36Z</time>
      </trkpt>
      <trkpt lat="45.14565" lon="5.56289">
        <ele>1319.9</ele>
        <time>2016-07-29T12:18:41Z</time>
      </trkpt>
      <trkpt lat="45.14573" lon="5.563">
        <ele>1320.7</ele>
        <time>2016-07-29T12:18:46Z</time>
      </trkpt>
      <trkpt lat="45.14576" lon="5.56313">
        <ele>1321.4</ele>
        <time>2016-07-29T12:18:51Z</time>
      </trkpt>
      <trkpt lat="45.1458" lon="5.56326">
        <ele>1321.8</ele>
        <time>2016-07-29T12:18:56Z</time>
      </trkpt>
      <trkpt lat="45.14585" lon="5.56338">
        <ele>1322.3</ele>
        <time>2016-07-29T12:19:00Z</time>
      </trkpt>
      <trkpt lat="45.14592" lon="5.56349">
        <ele>1322.5</ele>
        <time>2016-07-29T12:19:03Z</time>
      </trkpt>
      <trkpt lat="45.146" lon="5.56362">
        <ele>1322.5</ele>
        <time>2016-07-29T12:19:06Z</time>
      </trkpt>
      <trkpt lat="45.14606" lon="5.56374">
        <ele>1322.5</ele>
        <time>2016-07-29T12:19:09Z</time>
      </trkpt>
      <trkpt lat="45.14608" lon="5.56389">
        <ele>1322.5</ele>
        <time>2016-07-29T12:19:13Z</time>
      </trkpt>
      <trkpt lat="45.14611" lon="5.56403">
        <ele>1323</ele>
        <time>2016-07-29T12:19:17Z</time>
      </trkpt>
      <trkpt lat="45.14605" lon="5.56413">
        <ele>1323.3</ele>
        <time>2016-07-29T12:19:21Z</time>
      </trkpt>
      <trkpt lat="45.14597" lon="5.56421">
        <ele>1323.6</ele>
        <time>2016-07-29T12:19:25Z</time>
      </trkpt>
      <trkpt lat="45.14601" lon="5.56434">
        <ele>1324</ele>
        <time>2016-07-29T12:19:29Z</time>
      </trkpt>
      <trkpt lat="45.1461" lon="5.56441">
        <ele>1324.1</ele>
        <time>2016-07-29T12:19:31Z</time>
      </trkpt>
      <trkpt lat="45.14621" lon="5.56447">
        <ele>1324.2</ele>
        <time>2016-07-29T12:19:33Z</time>
      </trkpt>
      <trkpt lat="45.14631" lon="5.5645">
        <ele>1324.4</ele>
        <time>2016-07-29T12:19:35Z</time>
      </trkpt>
      <trkpt lat="45.14643" lon="5.56451">
        <ele>1324.5</ele>
        <time>2016-07-29T12:19:37Z</time>
      </trkpt>
      <trkpt lat="45.14656" lon="5.56447">
        <ele>1324.3</ele>
        <time>2016-07-29T12:19:40Z</time>
      </trkpt>
      <trkpt lat="45.14667" lon="5.56442">
        <ele>1324.4</ele>
        <time>2016-07-29T12:19:44Z</time>
      </trkpt>
      <trkpt lat="45.14672" lon="5.56429">
        <ele>1324.7</ele>
        <time>2016-07-29T12:19:50Z</time>
      </trkpt>
      <trkpt lat="45.14675" lon="5.56416">
        <ele>1325.4</ele>
        <time>2016-07-29T12:19:55Z</time>
      </trkpt>
      <trkpt lat="45.14674" lon="5.56403">
        <ele>1326.2</ele>
        <time>2016-07-29T12:20:09Z</time>
      </trkpt>
      <trkpt lat="45.1467" lon="5.56391">
        <ele>1326</ele>
        <time>2016-07-29T12:23:19Z</time>
      </trkpt>
      <trkpt lat="45.14679" lon="5.56397">
        <ele>1325.6</ele>
        <time>2016-07-29T12:25:04Z</time>
      </trkpt>
      <trkpt lat="45.14671" lon="5.56403">
        <ele>1326.3</ele>
        <time>2016-07-29T12:27:06Z</time>
      </trkpt>
      <trkpt lat="45.14666" lon="5.56391">
        <ele>1324.9</ele>
        <time>2016-07-29T12:27:26Z</time>
      </trkpt>
      <trkpt lat="45.14668" lon="5.56375">
        <ele>1323</ele>
        <time>2016-07-29T12:27:32Z</time>
      </trkpt>
      <trkpt lat="45.14671" lon="5.56363">
        <ele>1321</ele>
        <time>2016-07-29T12:27:36Z</time>
      </trkpt>
      <trkpt lat="45.14674" lon="5.56347">
        <ele>1317.9</ele>
        <time>2016-07-29T12:27:41Z</time>
      </trkpt>
      <trkpt lat="45.14668" lon="5.56337">
        <ele>1315.2</ele>
        <time>2016-07-29T12:27:45Z</time>
      </trkpt>
      <trkpt lat="45.14661" lon="5.56323">
        <ele>1310.1</ele>
        <time>2016-07-29T12:27:51Z</time>
      </trkpt>
      <trkpt lat="45.14654" lon="5.56313">
        <ele>1305.6</ele>
        <time>2016-07-29T12:27:58Z</time>
      </trkpt>
      <trkpt lat="45.14647" lon="5.56303">
        <ele>1303.8</ele>
        <time>2016-07-29T12:28:02Z</time>
      </trkpt>
      <trkpt lat="45.14643" lon="5.5629">
        <ele>1302.6</ele>
        <time>2016-07-29T12:28:07Z</time>
      </trkpt>
      <trkpt lat="45.14636" lon="5.56281">
        <ele>1302</ele>
        <time>2016-07-29T12:28:13Z</time>
      </trkpt>
      <trkpt lat="45.14636" lon="5.56268">
        <ele>1302.3</ele>
        <time>2016-07-29T12:28:20Z</time>
      </trkpt>
      <trkpt lat="45.14632" lon="5.56255">
        <ele>1301.9</ele>
        <time>2016-07-29T12:28:25Z</time>
      </trkpt>
      <trkpt lat="45.14629" lon="5.5624">
        <ele>1301.2</ele>
        <time>2016-07-29T12:28:29Z</time>
      </trkpt>
      <trkpt lat="45.14628" lon="5.56225">
        <ele>1300.1</ele>
        <time>2016-07-29T12:28:34Z</time>
      </trkpt>
      <trkpt lat="45.1463" lon="5.56211">
        <ele>1299.4</ele>
        <time>2016-07-29T12:28:38Z</time>
      </trkpt>
      <trkpt lat="45.14634" lon="5.56199">
        <ele>1298.3</ele>
        <time>2016-07-29T12:28:42Z</time>
      </trkpt>
      <trkpt lat="45.14636" lon="5.56183">
        <ele>1297.3</ele>
        <time>2016-07-29T12:28:46Z</time>
      </trkpt>
      <trkpt lat="45.14639" lon="5.56169">
        <ele>1295.8</ele>
        <time>2016-07-29T12:28:49Z</time>
      </trkpt>
      <trkpt lat="45.14641" lon="5.56155">
        <ele>1295.2</ele>
        <time>2016-07-29T12:28:51Z</time>
      </trkpt>
      <trkpt lat="45.14646" lon="5.5614">
        <ele>1294.4</ele>
        <time>2016-07-29T12:28:54Z</time>
      </trkpt>
      <trkpt lat="45.14651" lon="5.56128">
        <ele>1293.8</ele>
        <time>2016-07-29T12:28:58Z</time>
      </trkpt>
      <trkpt lat="45.14661" lon="5.56123">
        <ele>1293.8</ele>
        <time>2016-07-29T12:29:04Z</time>
      </trkpt>
      <trkpt lat="45.14671" lon="5.56122">
        <ele>1293.8</ele>
        <time>2016-07-29T12:29:09Z</time>
      </trkpt>
      <trkpt lat="45.14679" lon="5.56115">
        <ele>1293.8</ele>
        <time>2016-07-29T12:29:14Z</time>
      </trkpt>
      <trkpt lat="45.14687" lon="5.56106">
        <ele>1294</ele>
        <time>2016-07-29T12:29:18Z</time>
      </trkpt>
      <trkpt lat="45.14696" lon="5.56103">
        <ele>1294.1</ele>
        <time>2016-07-29T12:29:21Z</time>
      </trkpt>
      <trkpt lat="45.14706" lon="5.56096">
        <ele>1293.9</ele>
        <time>2016-07-29T12:29:24Z</time>
      </trkpt>
      <trkpt lat="45.14715" lon="5.56086">
        <ele>1293.1</ele>
        <time>2016-07-29T12:29:29Z</time>
      </trkpt>
      <trkpt lat="45.14723" lon="5.5608">
        <ele>1292.2</ele>
        <time>2016-07-29T12:29:32Z</time>
      </trkpt>
      <trkpt lat="45.14734" lon="5.56074">
        <ele>1291</ele>
        <time>2016-07-29T12:29:35Z</time>
      </trkpt>
      <trkpt lat="45.14743" lon="5.56066">
        <ele>1289.5</ele>
        <time>2016-07-29T12:29:38Z</time>
      </trkpt>
      <trkpt lat="45.14751" lon="5.56057">
        <ele>1287.4</ele>
        <time>2016-07-29T12:29:41Z</time>
      </trkpt>
      <trkpt lat="45.1476" lon="5.56047">
        <ele>1284.9</ele>
        <time>2016-07-29T12:29:44Z</time>
      </trkpt>
      <trkpt lat="45.14768" lon="5.56037">
        <ele>1281.8</ele>
        <time>2016-07-29T12:29:47Z</time>
      </trkpt>
      <trkpt lat="45.14782" lon="5.56023">
        <ele>1276</ele>
        <time>2016-07-29T12:29:51Z</time>
      </trkpt>
      <trkpt lat="45.14792" lon="5.56015">
        <ele>1273</ele>
        <time>2016-07-29T12:29:55Z</time>
      </trkpt>
      <trkpt lat="45.14803" lon="5.56009">
        <ele>1271</ele>
        <time>2016-07-29T12:29:59Z</time>
      </trkpt>
      <trkpt lat="45.14814" lon="5.56004">
        <ele>1270.2</ele>
        <time>2016-07-29T12:30:02Z</time>
      </trkpt>
      <trkpt lat="45.14822" lon="5.55998">
        <ele>1268.3</ele>
        <time>2016-07-29T12:30:05Z</time>
      </trkpt>
      <trkpt lat="45.14831" lon="5.55991">
        <ele>1266.6</ele>
        <time>2016-07-29T12:30:09Z</time>
      </trkpt>
      <trkpt lat="45.14842" lon="5.55988">
        <ele>1264</ele>
        <time>2016-07-29T12:30:15Z</time>
      </trkpt>
      <trkpt lat="45.1485" lon="5.55982">
        <ele>1262.9</ele>
        <time>2016-07-29T12:30:18Z</time>
      </trkpt>
      <trkpt lat="45.1486" lon="5.55983">
        <ele>1261.3</ele>
        <time>2016-07-29T12:30:22Z</time>
      </trkpt>
      <trkpt lat="45.1487" lon="5.55985">
        <ele>1259.9</ele>
        <time>2016-07-29T12:30:26Z</time>
      </trkpt>
      <trkpt lat="45.1488" lon="5.55983">
        <ele>1257.5</ele>
        <time>2016-07-29T12:30:30Z</time>
      </trkpt>
      <trkpt lat="45.14889" lon="5.55985">
        <ele>1255.1</ele>
        <time>2016-07-29T12:30:34Z</time>
      </trkpt>
      <trkpt lat="45.14899" lon="5.55987">
        <ele>1252.9</ele>
        <time>2016-07-29T12:30:38Z</time>
      </trkpt>
      <trkpt lat="45.14908" lon="5.55994">
        <ele>1249.6</ele>
        <time>2016-07-29T12:30:44Z</time>
      </trkpt>
      <trkpt lat="45.14919" lon="5.56003">
        <ele>1247.5</ele>
        <time>2016-07-29T12:30:50Z</time>
      </trkpt>
      <trkpt lat="45.14925" lon="5.56012">
        <ele>1246</ele>
        <time>2016-07-29T12:30:54Z</time>
      </trkpt>
      <trkpt lat="45.14932" lon="5.56021">
        <ele>1246.1</ele>
        <time>2016-07-29T12:30:59Z</time>
      </trkpt>
      <trkpt lat="45.1494" lon="5.5603">
        <ele>1246.5</ele>
        <time>2016-07-29T12:31:04Z</time>
      </trkpt>
      <trkpt lat="45.14948" lon="5.56038">
        <ele>1247.4</ele>
        <time>2016-07-29T12:31:09Z</time>
      </trkpt>
      <trkpt lat="45.14957" lon="5.56044">
        <ele>1246.7</ele>
        <time>2016-07-29T12:31:13Z</time>
      </trkpt>
      <trkpt lat="45.14966" lon="5.56051">
        <ele>1245.6</ele>
        <time>2016-07-29T12:31:16Z</time>
      </trkpt>
      <trkpt lat="45.14977" lon="5.56054">
        <ele>1244.4</ele>
        <time>2016-07-29T12:31:20Z</time>
      </trkpt>
      <trkpt lat="45.14985" lon="5.56047">
        <ele>1242.1</ele>
        <time>2016-07-29T12:31:24Z</time>
      </trkpt>
      <trkpt lat="45.14995" lon="5.56042">
        <ele>1237.8</ele>
        <time>2016-07-29T12:31:31Z</time>
      </trkpt>
      <trkpt lat="45.15004" lon="5.56042">
        <ele>1233.5</ele>
        <time>2016-07-29T12:31:37Z</time>
      </trkpt>
      <trkpt lat="45.15013" lon="5.56046">
        <ele>1229.9</ele>
        <time>2016-07-29T12:31:44Z</time>
      </trkpt>
      <trkpt lat="45.15016" lon="5.56058">
        <ele>1229.2</ele>
        <time>2016-07-29T12:31:49Z</time>
      </trkpt>
      <trkpt lat="45.15023" lon="5.56069">
        <ele>1228.6</ele>
        <time>2016-07-29T12:31:54Z</time>
      </trkpt>
      <trkpt lat="45.1503" lon="5.56079">
        <ele>1228.5</ele>
        <time>2016-07-29T12:31:58Z</time>
      </trkpt>
      <trkpt lat="45.15044" lon="5.56079">
        <ele>1226.3</ele>
        <time>2016-07-29T12:32:05Z</time>
      </trkpt>
      <trkpt lat="45.15053" lon="5.56076">
        <ele>1222.3</ele>
        <time>2016-07-29T12:32:12Z</time>
      </trkpt>
      <trkpt lat="45.15063" lon="5.56078">
        <ele>1218.2</ele>
        <time>2016-07-29T12:32:18Z</time>
      </trkpt>
      <trkpt lat="45.15071" lon="5.5607">
        <ele>1214</ele>
        <time>2016-07-29T12:32:24Z</time>
      </trkpt>
      <trkpt lat="45.15076" lon="5.56057">
        <ele>1209.3</ele>
        <time>2016-07-29T12:32:31Z</time>
      </trkpt>
      <trkpt lat="45.15081" lon="5.56046">
        <ele>1206.5</ele>
        <time>2016-07-29T12:32:35Z</time>
      </trkpt>
      <trkpt lat="45.15084" lon="5.56032">
        <ele>1204.1</ele>
        <time>2016-07-29T12:32:39Z</time>
      </trkpt>
      <trkpt lat="45.1509" lon="5.56046">
        <ele>1200</ele>
        <time>2016-07-29T12:32:49Z</time>
      </trkpt>
      <trkpt lat="45.15092" lon="5.56058">
        <ele>1200</ele>
        <time>2016-07-29T12:32:54Z</time>
      </trkpt>
      <trkpt lat="45.15094" lon="5.56072">
        <ele>1201.2</ele>
        <time>2016-07-29T12:33:01Z</time>
      </trkpt>
      <trkpt lat="45.15096" lon="5.56088">
        <ele>1202</ele>
        <time>2016-07-29T12:33:08Z</time>
      </trkpt>
      <trkpt lat="45.15097" lon="5.56105">
        <ele>1203.1</ele>
        <time>2016-07-29T12:33:15Z</time>
      </trkpt>
      <trkpt lat="45.15102" lon="5.56125">
        <ele>1204</ele>
        <time>2016-07-29T12:33:23Z</time>
      </trkpt>
      <trkpt lat="45.15118" lon="5.56128">
        <ele>1205</ele>
        <time>2016-07-29T12:33:31Z</time>
      </trkpt>
      <trkpt lat="45.1513" lon="5.56116">
        <ele>1206</ele>
        <time>2016-07-29T12:33:39Z</time>
      </trkpt>
      <trkpt lat="45.15143" lon="5.56103">
        <ele>1208</ele>
        <time>2016-07-29T12:33:47Z</time>
      </trkpt>
      <trkpt lat="45.15151" lon="5.56093">
        <ele>1208.6</ele>
        <time>2016-07-29T12:33:52Z</time>
      </trkpt>
      <trkpt lat="45.15158" lon="5.56084">
        <ele>1209.6</ele>
        <time>2016-07-29T12:33:58Z</time>
      </trkpt>
      <trkpt lat="45.15166" lon="5.56078">
        <ele>1209.9</ele>
        <time>2016-07-29T12:34:04Z</time>
      </trkpt>
      <trkpt lat="45.15175" lon="5.56066">
        <ele>1210</ele>
        <time>2016-07-29T12:34:10Z</time>
      </trkpt>
      <trkpt lat="45.15182" lon="5.56056">
        <ele>1209.7</ele>
        <time>2016-07-29T12:34:15Z</time>
      </trkpt>
      <trkpt lat="45.15188" lon="5.56045">
        <ele>1209.5</ele>
        <time>2016-07-29T12:34:19Z</time>
      </trkpt>
      <trkpt lat="45.15193" lon="5.56031">
        <ele>1209.4</ele>
        <time>2016-07-29T12:34:23Z</time>
      </trkpt>
      <trkpt lat="45.152" lon="5.56018">
        <ele>1209.5</ele>
        <time>2016-07-29T12:34:27Z</time>
      </trkpt>
      <trkpt lat="45.15206" lon="5.56005">
        <ele>1209.6</ele>
        <time>2016-07-29T12:34:31Z</time>
      </trkpt>
      <trkpt lat="45.15211" lon="5.55992">
        <ele>1209.7</ele>
        <time>2016-07-29T12:34:35Z</time>
      </trkpt>
      <trkpt lat="45.15219" lon="5.55975">
        <ele>1210</ele>
        <time>2016-07-29T12:34:40Z</time>
      </trkpt>
      <trkpt lat="45.15225" lon="5.55963">
        <ele>1210.2</ele>
        <time>2016-07-29T12:34:43Z</time>
      </trkpt>
      <trkpt lat="45.15232" lon="5.55951">
        <ele>1210.1</ele>
        <time>2016-07-29T12:34:47Z</time>
      </trkpt>
      <trkpt lat="45.15239" lon="5.5594">
        <ele>1210.1</ele>
        <time>2016-07-29T12:34:51Z</time>
      </trkpt>
      <trkpt lat="45.15246" lon="5.55928">
        <ele>1210.2</ele>
        <time>2016-07-29T12:34:55Z</time>
      </trkpt>
      <trkpt lat="45.15255" lon="5.55912">
        <ele>1210.1</ele>
        <time>2016-07-29T12:35:00Z</time>
      </trkpt>
      <trkpt lat="45.15262" lon="5.55901">
        <ele>1209.9</ele>
        <time>2016-07-29T12:35:04Z</time>
      </trkpt>
      <trkpt lat="45.1527" lon="5.55891">
        <ele>1209.9</ele>
        <time>2016-07-29T12:35:08Z</time>
      </trkpt>
      <trkpt lat="45.15278" lon="5.55881">
        <ele>1210.1</ele>
        <time>2016-07-29T12:35:12Z</time>
      </trkpt>
      <trkpt lat="45.15286" lon="5.55873">
        <ele>1210.2</ele>
        <time>2016-07-29T12:35:16Z</time>
      </trkpt>
      <trkpt lat="45.15294" lon="5.55862">
        <ele>1210</ele>
        <time>2016-07-29T12:35:21Z</time>
      </trkpt>
      <trkpt lat="45.153" lon="5.55852">
        <ele>1210.6</ele>
        <time>2016-07-29T12:35:25Z</time>
      </trkpt>
      <trkpt lat="45.15307" lon="5.55842">
        <ele>1210.6</ele>
        <time>2016-07-29T12:35:30Z</time>
      </trkpt>
      <trkpt lat="45.15316" lon="5.55837">
        <ele>1210.8</ele>
        <time>2016-07-29T12:35:34Z</time>
      </trkpt>
      <trkpt lat="45.15323" lon="5.55824">
        <ele>1208.8</ele>
        <time>2016-07-29T12:36:09Z</time>
      </trkpt>
      <trkpt lat="45.15328" lon="5.55811">
        <ele>1204.2</ele>
        <time>2016-07-29T12:36:15Z</time>
      </trkpt>
      <trkpt lat="45.15334" lon="5.55799">
        <ele>1200.2</ele>
        <time>2016-07-29T12:36:19Z</time>
      </trkpt>
      <trkpt lat="45.15341" lon="5.55792">
        <ele>1196.4</ele>
        <time>2016-07-29T12:36:24Z</time>
      </trkpt>
      <trkpt lat="45.15343" lon="5.55777">
        <ele>1192.2</ele>
        <time>2016-07-29T12:36:29Z</time>
      </trkpt>
      <trkpt lat="45.15333" lon="5.55761">
        <ele>1189.6</ele>
        <time>2016-07-29T12:36:32Z</time>
      </trkpt>
      <trkpt lat="45.15327" lon="5.55751">
        <ele>1186.6</ele>
        <time>2016-07-29T12:36:35Z</time>
      </trkpt>
      <trkpt lat="45.1532" lon="5.55739">
        <ele>1183.4</ele>
        <time>2016-07-29T12:36:38Z</time>
      </trkpt>
      <trkpt lat="45.15314" lon="5.55729">
        <ele>1179.7</ele>
        <time>2016-07-29T12:36:42Z</time>
      </trkpt>
      <trkpt lat="45.15319" lon="5.55717">
        <ele>1176</ele>
        <time>2016-07-29T12:36:46Z</time>
      </trkpt>
      <trkpt lat="45.15325" lon="5.55708">
        <ele>1172.5</ele>
        <time>2016-07-29T12:36:50Z</time>
      </trkpt>
      <trkpt lat="45.15328" lon="5.55693">
        <ele>1167.6</ele>
        <time>2016-07-29T12:36:55Z</time>
      </trkpt>
      <trkpt lat="45.1533" lon="5.5568">
        <ele>1164.8</ele>
        <time>2016-07-29T12:36:58Z</time>
      </trkpt>
      <trkpt lat="45.15335" lon="5.55666">
        <ele>1160.8</ele>
        <time>2016-07-29T12:37:02Z</time>
      </trkpt>
      <trkpt lat="45.15343" lon="5.55656">
        <ele>1158</ele>
        <time>2016-07-29T12:37:05Z</time>
      </trkpt>
      <trkpt lat="45.15348" lon="5.55644">
        <ele>1154.8</ele>
        <time>2016-07-29T12:37:08Z</time>
      </trkpt>
      <trkpt lat="45.15358" lon="5.55635">
        <ele>1151.3</ele>
        <time>2016-07-29T12:37:11Z</time>
      </trkpt>
      <trkpt lat="45.15366" lon="5.55624">
        <ele>1147.4</ele>
        <time>2016-07-29T12:37:15Z</time>
      </trkpt>
      <trkpt lat="45.15375" lon="5.55618">
        <ele>1144.1</ele>
        <time>2016-07-29T12:37:19Z</time>
      </trkpt>
      <trkpt lat="45.15385" lon="5.55612">
        <ele>1140.1</ele>
        <time>2016-07-29T12:37:23Z</time>
      </trkpt>
      <trkpt lat="45.15397" lon="5.55609">
        <ele>1136.4</ele>
        <time>2016-07-29T12:37:27Z</time>
      </trkpt>
      <trkpt lat="45.15406" lon="5.55608">
        <ele>1132.8</ele>
        <time>2016-07-29T12:37:31Z</time>
      </trkpt>
      <trkpt lat="45.15414" lon="5.55599">
        <ele>1130.6</ele>
        <time>2016-07-29T12:37:35Z</time>
      </trkpt>
      <trkpt lat="45.15426" lon="5.556">
        <ele>1128.4</ele>
        <time>2016-07-29T12:37:40Z</time>
      </trkpt>
      <trkpt lat="45.15435" lon="5.55598">
        <ele>1126.7</ele>
        <time>2016-07-29T12:37:43Z</time>
      </trkpt>
      <trkpt lat="45.15447" lon="5.55593">
        <ele>1123</ele>
        <time>2016-07-29T12:37:47Z</time>
      </trkpt>
      <trkpt lat="45.15456" lon="5.55588">
        <ele>1120.5</ele>
        <time>2016-07-29T12:37:50Z</time>
      </trkpt>
      <trkpt lat="45.15465" lon="5.55578">
        <ele>1116.2</ele>
        <time>2016-07-29T12:37:55Z</time>
      </trkpt>
      <trkpt lat="45.15466" lon="5.55564">
        <ele>1111.3</ele>
        <time>2016-07-29T12:38:02Z</time>
      </trkpt>
      <trkpt lat="45.15466" lon="5.5555">
        <ele>1106</ele>
        <time>2016-07-29T12:38:16Z</time>
      </trkpt>
      <trkpt lat="45.15474" lon="5.55545">
        <ele>1102.7</ele>
        <time>2016-07-29T12:38:23Z</time>
      </trkpt>
      <trkpt lat="45.15488" lon="5.55542">
        <ele>1098.1</ele>
        <time>2016-07-29T12:38:31Z</time>
      </trkpt>
      <trkpt lat="45.15496" lon="5.55534">
        <ele>1095.2</ele>
        <time>2016-07-29T12:38:35Z</time>
      </trkpt>
      <trkpt lat="45.15505" lon="5.55531">
        <ele>1092.2</ele>
        <time>2016-07-29T12:38:40Z</time>
      </trkpt>
      <trkpt lat="45.15514" lon="5.55526">
        <ele>1088.7</ele>
        <time>2016-07-29T12:38:45Z</time>
      </trkpt>
      <trkpt lat="45.15523" lon="5.55521">
        <ele>1084.9</ele>
        <time>2016-07-29T12:38:50Z</time>
      </trkpt>
      <trkpt lat="45.15534" lon="5.55517">
        <ele>1082.1</ele>
        <time>2016-07-29T12:38:54Z</time>
      </trkpt>
      <trkpt lat="45.15543" lon="5.55518">
        <ele>1077.8</ele>
        <time>2016-07-29T12:38:59Z</time>
      </trkpt>
      <trkpt lat="45.15552" lon="5.55514">
        <ele>1075.1</ele>
        <time>2016-07-29T12:39:03Z</time>
      </trkpt>
      <trkpt lat="45.15555" lon="5.55502">
        <ele>1070.5</ele>
        <time>2016-07-29T12:39:10Z</time>
      </trkpt>
      <trkpt lat="45.15556" lon="5.55488">
        <ele>1066.3</ele>
        <time>2016-07-29T12:39:17Z</time>
      </trkpt>
      <trkpt lat="45.15563" lon="5.5548">
        <ele>1063.3</ele>
        <time>2016-07-29T12:39:21Z</time>
      </trkpt>
      <trkpt lat="45.15572" lon="5.55475">
        <ele>1059.8</ele>
        <time>2016-07-29T12:39:26Z</time>
      </trkpt>
      <trkpt lat="45.15578" lon="5.55466">
        <ele>1056.6</ele>
        <time>2016-07-29T12:39:42Z</time>
      </trkpt>
      <trkpt lat="45.15575" lon="5.55453">
        <ele>1055.2</ele>
        <time>2016-07-29T12:39:48Z</time>
      </trkpt>
      <trkpt lat="45.15575" lon="5.5544">
        <ele>1053.6</ele>
        <time>2016-07-29T12:41:39Z</time>
      </trkpt>
      <trkpt lat="45.15581" lon="5.55429">
        <ele>1053.2</ele>
        <time>2016-07-29T12:43:15Z</time>
      </trkpt>
      <trkpt lat="45.15589" lon="5.55419">
        <ele>1052.5</ele>
        <time>2016-07-29T12:43:18Z</time>
      </trkpt>
      <trkpt lat="45.15597" lon="5.55406">
        <ele>1051.7</ele>
        <time>2016-07-29T12:43:21Z</time>
      </trkpt>
      <trkpt lat="45.15605" lon="5.55394">
        <ele>1051.3</ele>
        <time>2016-07-29T12:43:24Z</time>
      </trkpt>
      <trkpt lat="45.15614" lon="5.55384">
        <ele>1051.1</ele>
        <time>2016-07-29T12:43:27Z</time>
      </trkpt>
      <trkpt lat="45.15624" lon="5.55376">
        <ele>1050.7</ele>
        <time>2016-07-29T12:43:30Z</time>
      </trkpt>
      <trkpt lat="45.15635" lon="5.5537">
        <ele>1050.3</ele>
        <time>2016-07-29T12:43:33Z</time>
      </trkpt>
      <trkpt lat="45.15643" lon="5.55362">
        <ele>1050.2</ele>
        <time>2016-07-29T12:43:36Z</time>
      </trkpt>
      <trkpt lat="45.15652" lon="5.55353">
        <ele>1050.2</ele>
        <time>2016-07-29T12:43:40Z</time>
      </trkpt>
      <trkpt lat="45.15662" lon="5.55346">
        <ele>1050.2</ele>
        <time>2016-07-29T12:43:44Z</time>
      </trkpt>
      <trkpt lat="45.15672" lon="5.55338">
        <ele>1050.4</ele>
        <time>2016-07-29T12:43:48Z</time>
      </trkpt>
      <trkpt lat="45.15682" lon="5.55331">
        <ele>1050.3</ele>
        <time>2016-07-29T12:43:51Z</time>
      </trkpt>
      <trkpt lat="45.1569" lon="5.55324">
        <ele>1049.8</ele>
        <time>2016-07-29T12:43:53Z</time>
      </trkpt>
      <trkpt lat="45.157" lon="5.55319">
        <ele>1049.1</ele>
        <time>2016-07-29T12:43:55Z</time>
      </trkpt>
      <trkpt lat="45.1571" lon="5.55315">
        <ele>1048.5</ele>
        <time>2016-07-29T12:43:57Z</time>
      </trkpt>
      <trkpt lat="45.15721" lon="5.55312">
        <ele>1047.9</ele>
        <time>2016-07-29T12:43:59Z</time>
      </trkpt>
      <trkpt lat="45.15733" lon="5.55315">
        <ele>1047.2</ele>
        <time>2016-07-29T12:44:01Z</time>
      </trkpt>
      <trkpt lat="45.15743" lon="5.55321">
        <ele>1046.7</ele>
        <time>2016-07-29T12:44:03Z</time>
      </trkpt>
      <trkpt lat="45.15751" lon="5.55327">
        <ele>1046.7</ele>
        <time>2016-07-29T12:44:05Z</time>
      </trkpt>
      <trkpt lat="45.15762" lon="5.55334">
        <ele>1047</ele>
        <time>2016-07-29T12:44:08Z</time>
      </trkpt>
      <trkpt lat="45.1577" lon="5.55343">
        <ele>1047.7</ele>
        <time>2016-07-29T12:44:11Z</time>
      </trkpt>
      <trkpt lat="45.15778" lon="5.55352">
        <ele>1048.4</ele>
        <time>2016-07-29T12:44:14Z</time>
      </trkpt>
      <trkpt lat="45.15785" lon="5.5536">
        <ele>1049</ele>
        <time>2016-07-29T12:44:17Z</time>
      </trkpt>
      <trkpt lat="45.15793" lon="5.55372">
        <ele>1049.5</ele>
        <time>2016-07-29T12:44:21Z</time>
      </trkpt>
      <trkpt lat="45.15801" lon="5.55381">
        <ele>1049.8</ele>
        <time>2016-07-29T12:44:24Z</time>
      </trkpt>
      <trkpt lat="45.1581" lon="5.55388">
        <ele>1049.9</ele>
        <time>2016-07-29T12:44:27Z</time>
      </trkpt>
      <trkpt lat="45.15819" lon="5.55396">
        <ele>1050.1</ele>
        <time>2016-07-29T12:44:30Z</time>
      </trkpt>
      <trkpt lat="45.15828" lon="5.55403">
        <ele>1050.6</ele>
        <time>2016-07-29T12:44:33Z</time>
      </trkpt>
      <trkpt lat="45.15837" lon="5.55411">
        <ele>1050.9</ele>
        <time>2016-07-29T12:44:36Z</time>
      </trkpt>
      <trkpt lat="45.15846" lon="5.55419">
        <ele>1051.1</ele>
        <time>2016-07-29T12:44:39Z</time>
      </trkpt>
      <trkpt lat="45.15855" lon="5.55427">
        <ele>1051.3</ele>
        <time>2016-07-29T12:44:42Z</time>
      </trkpt>
      <trkpt lat="45.15863" lon="5.55436">
        <ele>1051.7</ele>
        <time>2016-07-29T12:44:45Z</time>
      </trkpt>
      <trkpt lat="45.15871" lon="5.55445">
        <ele>1052</ele>
        <time>2016-07-29T12:44:48Z</time>
      </trkpt>
      <trkpt lat="45.1588" lon="5.55454">
        <ele>1052</ele>
        <time>2016-07-29T12:44:51Z</time>
      </trkpt>
      <trkpt lat="45.15888" lon="5.55464">
        <ele>1052</ele>
        <time>2016-07-29T12:44:54Z</time>
      </trkpt>
      <trkpt lat="45.15896" lon="5.55473">
        <ele>1052.3</ele>
        <time>2016-07-29T12:44:57Z</time>
      </trkpt>
      <trkpt lat="45.15904" lon="5.5548">
        <ele>1052.7</ele>
        <time>2016-07-29T12:45:00Z</time>
      </trkpt>
      <trkpt lat="45.15914" lon="5.55487">
        <ele>1053.6</ele>
        <time>2016-07-29T12:45:04Z</time>
      </trkpt>
      <trkpt lat="45.15925" lon="5.55492">
        <ele>1054.6</ele>
        <time>2016-07-29T12:45:08Z</time>
      </trkpt>
      <trkpt lat="45.15936" lon="5.55493">
        <ele>1055.9</ele>
        <time>2016-07-29T12:45:12Z</time>
      </trkpt>
      <trkpt lat="45.15946" lon="5.55494">
        <ele>1056.1</ele>
        <time>2016-07-29T12:45:15Z</time>
      </trkpt>
      <trkpt lat="45.15955" lon="5.55495">
        <ele>1056.2</ele>
        <time>2016-07-29T12:45:18Z</time>
      </trkpt>
      <trkpt lat="45.15967" lon="5.55498">
        <ele>1056.6</ele>
        <time>2016-07-29T12:45:22Z</time>
      </trkpt>
      <trkpt lat="45.15976" lon="5.555">
        <ele>1057.4</ele>
        <time>2016-07-29T12:45:26Z</time>
      </trkpt>
      <trkpt lat="45.15986" lon="5.55502">
        <ele>1058.1</ele>
        <time>2016-07-29T12:45:30Z</time>
      </trkpt>
      <trkpt lat="45.15997" lon="5.55504">
        <ele>1058.5</ele>
        <time>2016-07-29T12:45:34Z</time>
      </trkpt>
      <trkpt lat="45.16007" lon="5.55505">
        <ele>1058.8</ele>
        <time>2016-07-29T12:45:38Z</time>
      </trkpt>
      <trkpt lat="45.16016" lon="5.55506">
        <ele>1059</ele>
        <time>2016-07-29T12:45:41Z</time>
      </trkpt>
      <trkpt lat="45.16026" lon="5.55506">
        <ele>1059.2</ele>
        <time>2016-07-29T12:45:44Z</time>
      </trkpt>
      <trkpt lat="45.16038" lon="5.55507">
        <ele>1059.5</ele>
        <time>2016-07-29T12:45:48Z</time>
      </trkpt>
      <trkpt lat="45.16047" lon="5.55507">
        <ele>1059.6</ele>
        <time>2016-07-29T12:45:51Z</time>
      </trkpt>
      <trkpt lat="45.16058" lon="5.5551">
        <ele>1059.8</ele>
        <time>2016-07-29T12:45:55Z</time>
      </trkpt>
      <trkpt lat="45.16065" lon="5.5552">
        <ele>1060.3</ele>
        <time>2016-07-29T12:45:59Z</time>
      </trkpt>
      <trkpt lat="45.1607" lon="5.55531">
        <ele>1061.2</ele>
        <time>2016-07-29T12:46:03Z</time>
      </trkpt>
      <trkpt lat="45.16076" lon="5.55543">
        <ele>1062.1</ele>
        <time>2016-07-29T12:46:08Z</time>
      </trkpt>
      <trkpt lat="45.16081" lon="5.55556">
        <ele>1063.3</ele>
        <time>2016-07-29T12:46:13Z</time>
      </trkpt>
      <trkpt lat="45.16087" lon="5.55568">
        <ele>1064.4</ele>
        <time>2016-07-29T12:46:18Z</time>
      </trkpt>
      <trkpt lat="45.16094" lon="5.55581">
        <ele>1065.4</ele>
        <time>2016-07-29T12:46:23Z</time>
      </trkpt>
      <trkpt lat="45.16102" lon="5.55589">
        <ele>1065.9</ele>
        <time>2016-07-29T12:46:27Z</time>
      </trkpt>
      <trkpt lat="45.16111" lon="5.55596">
        <ele>1066.3</ele>
        <time>2016-07-29T12:46:31Z</time>
      </trkpt>
      <trkpt lat="45.16121" lon="5.55603">
        <ele>1066.6</ele>
        <time>2016-07-29T12:46:35Z</time>
      </trkpt>
      <trkpt lat="45.16131" lon="5.55608">
        <ele>1067.3</ele>
        <time>2016-07-29T12:46:39Z</time>
      </trkpt>
      <trkpt lat="45.1614" lon="5.55613">
        <ele>1068.2</ele>
        <time>2016-07-29T12:46:43Z</time>
      </trkpt>
      <trkpt lat="45.1615" lon="5.55618">
        <ele>1069.5</ele>
        <time>2016-07-29T12:46:47Z</time>
      </trkpt>
      <trkpt lat="45.16161" lon="5.55619">
        <ele>1070.2</ele>
        <time>2016-07-29T12:46:51Z</time>
      </trkpt>
      <trkpt lat="45.16171" lon="5.55621">
        <ele>1070.8</ele>
        <time>2016-07-29T12:46:55Z</time>
      </trkpt>
      <trkpt lat="45.16182" lon="5.55625">
        <ele>1071.5</ele>
        <time>2016-07-29T12:46:59Z</time>
      </trkpt>
      <trkpt lat="45.16192" lon="5.55629">
        <ele>1071.7</ele>
        <time>2016-07-29T12:47:03Z</time>
      </trkpt>
      <trkpt lat="45.16202" lon="5.55634">
        <ele>1072.1</ele>
        <time>2016-07-29T12:47:07Z</time>
      </trkpt>
      <trkpt lat="45.16212" lon="5.55638">
        <ele>1072.5</ele>
        <time>2016-07-29T12:47:11Z</time>
      </trkpt>
      <trkpt lat="45.16222" lon="5.55642">
        <ele>1072.7</ele>
        <time>2016-07-29T12:47:15Z</time>
      </trkpt>
      <trkpt lat="45.16231" lon="5.55647">
        <ele>1073.5</ele>
        <time>2016-07-29T12:47:20Z</time>
      </trkpt>
      <trkpt lat="45.1624" lon="5.55653">
        <ele>1075.2</ele>
        <time>2016-07-29T12:47:26Z</time>
      </trkpt>
      <trkpt lat="45.1625" lon="5.5566">
        <ele>1076.6</ele>
        <time>2016-07-29T12:47:32Z</time>
      </trkpt>
      <trkpt lat="45.16258" lon="5.55666">
        <ele>1077.8</ele>
        <time>2016-07-29T12:47:37Z</time>
      </trkpt>
      <trkpt lat="45.16267" lon="5.55673">
        <ele>1078.6</ele>
        <time>2016-07-29T12:47:42Z</time>
      </trkpt>
      <trkpt lat="45.16276" lon="5.55678">
        <ele>1079.6</ele>
        <time>2016-07-29T12:47:47Z</time>
      </trkpt>
      <trkpt lat="45.16285" lon="5.55686">
        <ele>1080.4</ele>
        <time>2016-07-29T12:47:52Z</time>
      </trkpt>
      <trkpt lat="45.16294" lon="5.55696">
        <ele>1080.9</ele>
        <time>2016-07-29T12:47:57Z</time>
      </trkpt>
      <trkpt lat="45.16301" lon="5.55707">
        <ele>1081.1</ele>
        <time>2016-07-29T12:48:01Z</time>
      </trkpt>
      <trkpt lat="45.16307" lon="5.55716">
        <ele>1081.6</ele>
        <time>2016-07-29T12:48:05Z</time>
      </trkpt>
      <trkpt lat="45.16314" lon="5.55727">
        <ele>1082.3</ele>
        <time>2016-07-29T12:48:10Z</time>
      </trkpt>
      <trkpt lat="45.1632" lon="5.55737">
        <ele>1083.2</ele>
        <time>2016-07-29T12:48:14Z</time>
      </trkpt>
      <trkpt lat="45.16326" lon="5.55747">
        <ele>1083.9</ele>
        <time>2016-07-29T12:48:18Z</time>
      </trkpt>
      <trkpt lat="45.16333" lon="5.55756">
        <ele>1084.5</ele>
        <time>2016-07-29T12:48:22Z</time>
      </trkpt>
      <trkpt lat="45.16341" lon="5.55764">
        <ele>1085</ele>
        <time>2016-07-29T12:48:26Z</time>
      </trkpt>
      <trkpt lat="45.1635" lon="5.55774">
        <ele>1085.3</ele>
        <time>2016-07-29T12:48:31Z</time>
      </trkpt>
      <trkpt lat="45.1636" lon="5.55782">
        <ele>1085.8</ele>
        <time>2016-07-29T12:48:35Z</time>
      </trkpt>
      <trkpt lat="45.16369" lon="5.55784">
        <ele>1086</ele>
        <time>2016-07-29T12:48:38Z</time>
      </trkpt>
      <trkpt lat="45.1638" lon="5.55786">
        <ele>1086.5</ele>
        <time>2016-07-29T12:48:42Z</time>
      </trkpt>
      <trkpt lat="45.16391" lon="5.55787">
        <ele>1086.6</ele>
        <time>2016-07-29T12:48:46Z</time>
      </trkpt>
      <trkpt lat="45.16401" lon="5.55786">
        <ele>1087.1</ele>
        <time>2016-07-29T12:48:50Z</time>
      </trkpt>
      <trkpt lat="45.16411" lon="5.55788">
        <ele>1087.3</ele>
        <time>2016-07-29T12:48:53Z</time>
      </trkpt>
      <trkpt lat="45.1642" lon="5.55791">
        <ele>1087.5</ele>
        <time>2016-07-29T12:48:56Z</time>
      </trkpt>
      <trkpt lat="45.16431" lon="5.55796">
        <ele>1087.9</ele>
        <time>2016-07-29T12:49:00Z</time>
      </trkpt>
      <trkpt lat="45.1644" lon="5.55801">
        <ele>1088.1</ele>
        <time>2016-07-29T12:49:03Z</time>
      </trkpt>
      <trkpt lat="45.16449" lon="5.55807">
        <ele>1088</ele>
        <time>2016-07-29T12:49:06Z</time>
      </trkpt>
      <trkpt lat="45.16459" lon="5.55814">
        <ele>1088.4</ele>
        <time>2016-07-29T12:49:09Z</time>
      </trkpt>
      <trkpt lat="45.16468" lon="5.55821">
        <ele>1088.5</ele>
        <time>2016-07-29T12:49:12Z</time>
      </trkpt>
      <trkpt lat="45.16477" lon="5.55828">
        <ele>1088.4</ele>
        <time>2016-07-29T12:49:15Z</time>
      </trkpt>
      <trkpt lat="45.16487" lon="5.55833">
        <ele>1088.6</ele>
        <time>2016-07-29T12:49:18Z</time>
      </trkpt>
      <trkpt lat="45.16498" lon="5.55836">
        <ele>1088.4</ele>
        <time>2016-07-29T12:49:21Z</time>
      </trkpt>
      <trkpt lat="45.1651" lon="5.55839">
        <ele>1088</ele>
        <time>2016-07-29T12:49:24Z</time>
      </trkpt>
      <trkpt lat="45.16521" lon="5.55844">
        <ele>1087.6</ele>
        <time>2016-07-29T12:49:27Z</time>
      </trkpt>
      <trkpt lat="45.16534" lon="5.5585">
        <ele>1087.3</ele>
        <time>2016-07-29T12:49:30Z</time>
      </trkpt>
      <trkpt lat="45.16543" lon="5.55853">
        <ele>1087.3</ele>
        <time>2016-07-29T12:49:32Z</time>
      </trkpt>
      <trkpt lat="45.16552" lon="5.55858">
        <ele>1087.2</ele>
        <time>2016-07-29T12:49:34Z</time>
      </trkpt>
      <trkpt lat="45.16561" lon="5.55862">
        <ele>1087.2</ele>
        <time>2016-07-29T12:49:36Z</time>
      </trkpt>
      <trkpt lat="45.16569" lon="5.55868">
        <ele>1087.3</ele>
        <time>2016-07-29T12:49:38Z</time>
      </trkpt>
      <trkpt lat="45.16581" lon="5.55875">
        <ele>1087.4</ele>
        <time>2016-07-29T12:49:41Z</time>
      </trkpt>
      <trkpt lat="45.16592" lon="5.55881">
        <ele>1088.2</ele>
        <time>2016-07-29T12:49:44Z</time>
      </trkpt>
      <trkpt lat="45.16603" lon="5.55885">
        <ele>1088.8</ele>
        <time>2016-07-29T12:49:47Z</time>
      </trkpt>
      <trkpt lat="45.16614" lon="5.55889">
        <ele>1089.3</ele>
        <time>2016-07-29T12:49:50Z</time>
      </trkpt>
      <trkpt lat="45.16626" lon="5.55895">
        <ele>1089.3</ele>
        <time>2016-07-29T12:49:53Z</time>
      </trkpt>
      <trkpt lat="45.16638" lon="5.55902">
        <ele>1089.7</ele>
        <time>2016-07-29T12:49:56Z</time>
      </trkpt>
      <trkpt lat="45.16648" lon="5.55908">
        <ele>1090.1</ele>
        <time>2016-07-29T12:49:59Z</time>
      </trkpt>
      <trkpt lat="45.16658" lon="5.55914">
        <ele>1090.6</ele>
        <time>2016-07-29T12:50:02Z</time>
      </trkpt>
      <trkpt lat="45.16667" lon="5.55923">
        <ele>1091.5</ele>
        <time>2016-07-29T12:50:06Z</time>
      </trkpt>
      <trkpt lat="45.16675" lon="5.55933">
        <ele>1092.7</ele>
        <time>2016-07-29T12:50:11Z</time>
      </trkpt>
      <trkpt lat="45.16684" lon="5.55942">
        <ele>1094.1</ele>
        <time>2016-07-29T12:50:16Z</time>
      </trkpt>
      <trkpt lat="45.16692" lon="5.55947">
        <ele>1095</ele>
        <time>2016-07-29T12:50:20Z</time>
      </trkpt>
      <trkpt lat="45.16703" lon="5.55951">
        <ele>1095.8</ele>
        <time>2016-07-29T12:50:25Z</time>
      </trkpt>
      <trkpt lat="45.16714" lon="5.55953">
        <ele>1096.7</ele>
        <time>2016-07-29T12:50:30Z</time>
      </trkpt>
      <trkpt lat="45.16725" lon="5.55952">
        <ele>1097.4</ele>
        <time>2016-07-29T12:50:34Z</time>
      </trkpt>
      <trkpt lat="45.16735" lon="5.55947">
        <ele>1098.5</ele>
        <time>2016-07-29T12:50:39Z</time>
      </trkpt>
      <trkpt lat="45.16745" lon="5.55939">
        <ele>1099.3</ele>
        <time>2016-07-29T12:50:44Z</time>
      </trkpt>
      <trkpt lat="45.16754" lon="5.55936">
        <ele>1099.9</ele>
        <time>2016-07-29T12:50:48Z</time>
      </trkpt>
      <trkpt lat="45.16764" lon="5.55934">
        <ele>1100.9</ele>
        <time>2016-07-29T12:50:53Z</time>
      </trkpt>
      <trkpt lat="45.16775" lon="5.55937">
        <ele>1101.6</ele>
        <time>2016-07-29T12:50:58Z</time>
      </trkpt>
      <trkpt lat="45.16785" lon="5.55943">
        <ele>1102.4</ele>
        <time>2016-07-29T12:51:03Z</time>
      </trkpt>
      <trkpt lat="45.16794" lon="5.55952">
        <ele>1103.2</ele>
        <time>2016-07-29T12:51:08Z</time>
      </trkpt>
      <trkpt lat="45.16802" lon="5.5596">
        <ele>1104.4</ele>
        <time>2016-07-29T12:51:13Z</time>
      </trkpt>
      <trkpt lat="45.1681" lon="5.55968">
        <ele>1105.5</ele>
        <time>2016-07-29T12:51:18Z</time>
      </trkpt>
      <trkpt lat="45.16818" lon="5.55976">
        <ele>1106.4</ele>
        <time>2016-07-29T12:51:23Z</time>
      </trkpt>
      <trkpt lat="45.16827" lon="5.55983">
        <ele>1107.5</ele>
        <time>2016-07-29T12:51:28Z</time>
      </trkpt>
      <trkpt lat="45.16835" lon="5.55991">
        <ele>1108.4</ele>
        <time>2016-07-29T12:51:33Z</time>
      </trkpt>
      <trkpt lat="45.16842" lon="5.56">
        <ele>1108.8</ele>
        <time>2016-07-29T12:51:37Z</time>
      </trkpt>
      <trkpt lat="45.16852" lon="5.5601">
        <ele>1109</ele>
        <time>2016-07-29T12:51:41Z</time>
      </trkpt>
      <trkpt lat="45.1686" lon="5.56019">
        <ele>1109.2</ele>
        <time>2016-07-29T12:51:44Z</time>
      </trkpt>
      <trkpt lat="45.16869" lon="5.56027">
        <ele>1109.2</ele>
        <time>2016-07-29T12:51:47Z</time>
      </trkpt>
      <trkpt lat="45.16878" lon="5.56035">
        <ele>1109.1</ele>
        <time>2016-07-29T12:51:50Z</time>
      </trkpt>
      <trkpt lat="45.16889" lon="5.56039">
        <ele>1109.1</ele>
        <time>2016-07-29T12:51:53Z</time>
      </trkpt>
      <trkpt lat="45.16899" lon="5.56041">
        <ele>1109</ele>
        <time>2016-07-29T12:51:56Z</time>
      </trkpt>
      <trkpt lat="45.16908" lon="5.56042">
        <ele>1109.2</ele>
        <time>2016-07-29T12:51:59Z</time>
      </trkpt>
      <trkpt lat="45.16918" lon="5.56043">
        <ele>1109.2</ele>
        <time>2016-07-29T12:52:02Z</time>
      </trkpt>
      <trkpt lat="45.16929" lon="5.56043">
        <ele>1109.5</ele>
        <time>2016-07-29T12:52:06Z</time>
      </trkpt>
      <trkpt lat="45.16941" lon="5.56044">
        <ele>1109.3</ele>
        <time>2016-07-29T12:52:10Z</time>
      </trkpt>
      <trkpt lat="45.16952" lon="5.56045">
        <ele>1109.1</ele>
        <time>2016-07-29T12:52:13Z</time>
      </trkpt>
      <trkpt lat="45.16962" lon="5.5605">
        <ele>1109.1</ele>
        <time>2016-07-29T12:52:16Z</time>
      </trkpt>
      <trkpt lat="45.1697" lon="5.56056">
        <ele>1109.5</ele>
        <time>2016-07-29T12:52:19Z</time>
      </trkpt>
      <trkpt lat="45.16981" lon="5.56064">
        <ele>1109.8</ele>
        <time>2016-07-29T12:52:23Z</time>
      </trkpt>
      <trkpt lat="45.1699" lon="5.56069">
        <ele>1110.3</ele>
        <time>2016-07-29T12:52:26Z</time>
      </trkpt>
      <trkpt lat="45.16998" lon="5.56075">
        <ele>1110.5</ele>
        <time>2016-07-29T12:52:29Z</time>
      </trkpt>
      <trkpt lat="45.17007" lon="5.5608">
        <ele>1110.7</ele>
        <time>2016-07-29T12:52:32Z</time>
      </trkpt>
      <trkpt lat="45.17015" lon="5.56087">
        <ele>1111.1</ele>
        <time>2016-07-29T12:52:35Z</time>
      </trkpt>
      <trkpt lat="45.17023" lon="5.56095">
        <ele>1111.6</ele>
        <time>2016-07-29T12:52:38Z</time>
      </trkpt>
      <trkpt lat="45.1703" lon="5.56103">
        <ele>1112</ele>
        <time>2016-07-29T12:52:41Z</time>
      </trkpt>
      <trkpt lat="45.17039" lon="5.56114">
        <ele>1112.4</ele>
        <time>2016-07-29T12:52:45Z</time>
      </trkpt>
      <trkpt lat="45.17047" lon="5.56122">
        <ele>1112.8</ele>
        <time>2016-07-29T12:52:48Z</time>
      </trkpt>
      <trkpt lat="45.17055" lon="5.56129">
        <ele>1113.2</ele>
        <time>2016-07-29T12:52:51Z</time>
      </trkpt>
      <trkpt lat="45.17062" lon="5.56137">
        <ele>1113.3</ele>
        <time>2016-07-29T12:52:55Z</time>
      </trkpt>
      <trkpt lat="45.1706" lon="5.56151">
        <ele>1113.5</ele>
        <time>2016-07-29T12:53:01Z</time>
      </trkpt>
      <trkpt lat="45.17069" lon="5.56141">
        <ele>1113.8</ele>
        <time>2016-07-29T12:53:21Z</time>
      </trkpt>
      <trkpt lat="45.17078" lon="5.5613">
        <ele>1112.9</ele>
        <time>2016-07-29T12:53:24Z</time>
      </trkpt>
      <trkpt lat="45.17085" lon="5.5612">
        <ele>1112.3</ele>
        <time>2016-07-29T12:53:26Z</time>
      </trkpt>
      <trkpt lat="45.17091" lon="5.5611">
        <ele>1111.8</ele>
        <time>2016-07-29T12:53:28Z</time>
      </trkpt>
      <trkpt lat="45.17098" lon="5.56101">
        <ele>1111.3</ele>
        <time>2016-07-29T12:53:30Z</time>
      </trkpt>
      <trkpt lat="45.17107" lon="5.56093">
        <ele>1110.8</ele>
        <time>2016-07-29T12:53:32Z</time>
      </trkpt>
      <trkpt lat="45.17116" lon="5.56086">
        <ele>1110.2</ele>
        <time>2016-07-29T12:53:34Z</time>
      </trkpt>
      <trkpt lat="45.17126" lon="5.56078">
        <ele>1109.7</ele>
        <time>2016-07-29T12:53:36Z</time>
      </trkpt>
      <trkpt lat="45.17136" lon="5.5607">
        <ele>1109</ele>
        <time>2016-07-29T12:53:38Z</time>
      </trkpt>
      <trkpt lat="45.17147" lon="5.56062">
        <ele>1108.3</ele>
        <time>2016-07-29T12:53:40Z</time>
      </trkpt>
      <trkpt lat="45.17157" lon="5.56053">
        <ele>1107.6</ele>
        <time>2016-07-29T12:53:42Z</time>
      </trkpt>
      <trkpt lat="45.17168" lon="5.56045">
        <ele>1107.1</ele>
        <time>2016-07-29T12:53:44Z</time>
      </trkpt>
      <trkpt lat="45.17179" lon="5.56041">
        <ele>1106.9</ele>
        <time>2016-07-29T12:53:46Z</time>
      </trkpt>
      <trkpt lat="45.17191" lon="5.56038">
        <ele>1106.8</ele>
        <time>2016-07-29T12:53:48Z</time>
      </trkpt>
      <trkpt lat="45.17201" lon="5.56032">
        <ele>1106.6</ele>
        <time>2016-07-29T12:53:50Z</time>
      </trkpt>
      <trkpt lat="45.17212" lon="5.56027">
        <ele>1106</ele>
        <time>2016-07-29T12:53:52Z</time>
      </trkpt>
      <trkpt lat="45.17223" lon="5.5602">
        <ele>1105.3</ele>
        <time>2016-07-29T12:53:54Z</time>
      </trkpt>
      <trkpt lat="45.17234" lon="5.56014">
        <ele>1104.1</ele>
        <time>2016-07-29T12:53:56Z</time>
      </trkpt>
      <trkpt lat="45.17247" lon="5.56008">
        <ele>1103.1</ele>
        <time>2016-07-29T12:53:58Z</time>
      </trkpt>
      <trkpt lat="45.1726" lon="5.56001">
        <ele>1102.1</ele>
        <time>2016-07-29T12:54:00Z</time>
      </trkpt>
      <trkpt lat="45.17272" lon="5.55993">
        <ele>1101.1</ele>
        <time>2016-07-29T12:54:02Z</time>
      </trkpt>
      <trkpt lat="45.17284" lon="5.55985">
        <ele>1100.1</ele>
        <time>2016-07-29T12:54:04Z</time>
      </trkpt>
      <trkpt lat="45.17295" lon="5.55979">
        <ele>1099.2</ele>
        <time>2016-07-29T12:54:06Z</time>
      </trkpt>
      <trkpt lat="45.17307" lon="5.55978">
        <ele>1098.3</ele>
        <time>2016-07-29T12:54:08Z</time>
      </trkpt>
      <trkpt lat="45.17318" lon="5.55985">
        <ele>1097.5</ele>
        <time>2016-07-29T12:54:10Z</time>
      </trkpt>
      <trkpt lat="45.17328" lon="5.55998">
        <ele>1096.7</ele>
        <time>2016-07-29T12:54:12Z</time>
      </trkpt>
      <trkpt lat="45.17337" lon="5.56012">
        <ele>1095.9</ele>
        <time>2016-07-29T12:54:14Z</time>
      </trkpt>
      <trkpt lat="45.17346" lon="5.56025">
        <ele>1094.9</ele>
        <time>2016-07-29T12:54:16Z</time>
      </trkpt>
      <trkpt lat="45.17354" lon="5.56038">
        <ele>1093.7</ele>
        <time>2016-07-29T12:54:18Z</time>
      </trkpt>
      <trkpt lat="45.17364" lon="5.56046">
        <ele>1092.7</ele>
        <time>2016-07-29T12:54:20Z</time>
      </trkpt>
      <trkpt lat="45.17374" lon="5.56048">
        <ele>1091.8</ele>
        <time>2016-07-29T12:54:22Z</time>
      </trkpt>
      <trkpt lat="45.17384" lon="5.56046">
        <ele>1091.2</ele>
        <time>2016-07-29T12:54:24Z</time>
      </trkpt>
      <trkpt lat="45.17396" lon="5.56044">
        <ele>1091.1</ele>
        <time>2016-07-29T12:54:27Z</time>
      </trkpt>
      <trkpt lat="45.17406" lon="5.56044">
        <ele>1091.5</ele>
        <time>2016-07-29T12:54:32Z</time>
      </trkpt>
      <trkpt lat="45.1741" lon="5.56031">
        <ele>1091.4</ele>
        <time>2016-07-29T12:55:23Z</time>
      </trkpt>
      <trkpt lat="45.17419" lon="5.56025">
        <ele>1091.2</ele>
        <time>2016-07-29T12:55:28Z</time>
      </trkpt>
      <trkpt lat="45.17428" lon="5.56017">
        <ele>1091</ele>
        <time>2016-07-29T12:55:32Z</time>
      </trkpt>
      <trkpt lat="45.17435" lon="5.56009">
        <ele>1091</ele>
        <time>2016-07-29T12:55:35Z</time>
      </trkpt>
      <trkpt lat="45.17441" lon="5.55996">
        <ele>1091.1</ele>
        <time>2016-07-29T12:55:39Z</time>
      </trkpt>
      <trkpt lat="45.17444" lon="5.55981">
        <ele>1091.4</ele>
        <time>2016-07-29T12:55:43Z</time>
      </trkpt>
      <trkpt lat="45.17447" lon="5.55966">
        <ele>1092.8</ele>
        <time>2016-07-29T12:55:48Z</time>
      </trkpt>
      <trkpt lat="45.17448" lon="5.55952">
        <ele>1094.6</ele>
        <time>2016-07-29T12:55:54Z</time>
      </trkpt>
      <trkpt lat="45.17454" lon="5.55942">
        <ele>1096.2</ele>
        <time>2016-07-29T12:56:01Z</time>
      </trkpt>
      <trkpt lat="45.1746" lon="5.55953">
        <ele>1097.2</ele>
        <time>2016-07-29T12:56:07Z</time>
      </trkpt>
      <trkpt lat="45.17468" lon="5.55962">
        <ele>1097.8</ele>
        <time>2016-07-29T12:56:12Z</time>
      </trkpt>
      <trkpt lat="45.17477" lon="5.5597">
        <ele>1098.4</ele>
        <time>2016-07-29T12:56:17Z</time>
      </trkpt>
      <trkpt lat="45.17484" lon="5.55981">
        <ele>1099.4</ele>
        <time>2016-07-29T12:56:22Z</time>
      </trkpt>
      <trkpt lat="45.1749" lon="5.55992">
        <ele>1100.1</ele>
        <time>2016-07-29T12:56:27Z</time>
      </trkpt>
      <trkpt lat="45.17496" lon="5.56003">
        <ele>1101.1</ele>
        <time>2016-07-29T12:56:36Z</time>
      </trkpt>
      <trkpt lat="45.17502" lon="5.56014">
        <ele>1101.8</ele>
        <time>2016-07-29T12:56:46Z</time>
      </trkpt>
      <trkpt lat="45.17498" lon="5.56002">
        <ele>1101.4</ele>
        <time>2016-07-29T12:56:55Z</time>
      </trkpt>
      <trkpt lat="45.17493" lon="5.55991">
        <ele>1101.4</ele>
        <time>2016-07-29T12:56:59Z</time>
      </trkpt>
      <trkpt lat="45.17484" lon="5.55979">
        <ele>1100.9</ele>
        <time>2016-07-29T12:57:02Z</time>
      </trkpt>
      <trkpt lat="45.17478" lon="5.55967">
        <ele>1100.1</ele>
        <time>2016-07-29T12:57:04Z</time>
      </trkpt>
      <trkpt lat="45.17468" lon="5.55957">
        <ele>1099.2</ele>
        <time>2016-07-29T12:57:06Z</time>
      </trkpt>
      <trkpt lat="45.1746" lon="5.55945">
        <ele>1098.5</ele>
        <time>2016-07-29T12:57:08Z</time>
      </trkpt>
      <trkpt lat="45.1746" lon="5.55928">
        <ele>1097.7</ele>
        <time>2016-07-29T12:57:11Z</time>
      </trkpt>
      <trkpt lat="45.17467" lon="5.55918">
        <ele>1097.1</ele>
        <time>2016-07-29T12:57:13Z</time>
      </trkpt>
      <trkpt lat="45.17476" lon="5.55907">
        <ele>1096</ele>
        <time>2016-07-29T12:57:15Z</time>
      </trkpt>
      <trkpt lat="45.17487" lon="5.55898">
        <ele>1095</ele>
        <time>2016-07-29T12:57:17Z</time>
      </trkpt>
      <trkpt lat="45.17501" lon="5.55899">
        <ele>1093.7</ele>
        <time>2016-07-29T12:57:19Z</time>
      </trkpt>
      <trkpt lat="45.17515" lon="5.55905">
        <ele>1092.6</ele>
        <time>2016-07-29T12:57:21Z</time>
      </trkpt>
      <trkpt lat="45.17529" lon="5.55912">
        <ele>1091.6</ele>
        <time>2016-07-29T12:57:23Z</time>
      </trkpt>
      <trkpt lat="45.17544" lon="5.55918">
        <ele>1090.8</ele>
        <time>2016-07-29T12:57:25Z</time>
      </trkpt>
      <trkpt lat="45.17558" lon="5.55926">
        <ele>1089.8</ele>
        <time>2016-07-29T12:57:27Z</time>
      </trkpt>
      <trkpt lat="45.17572" lon="5.55935">
        <ele>1089.2</ele>
        <time>2016-07-29T12:57:29Z</time>
      </trkpt>
      <trkpt lat="45.17587" lon="5.55943">
        <ele>1088.6</ele>
        <time>2016-07-29T12:57:31Z</time>
      </trkpt>
      <trkpt lat="45.17602" lon="5.55949">
        <ele>1088.1</ele>
        <time>2016-07-29T12:57:33Z</time>
      </trkpt>
      <trkpt lat="45.17617" lon="5.55953">
        <ele>1087.6</ele>
        <time>2016-07-29T12:57:35Z</time>
      </trkpt>
      <trkpt lat="45.17631" lon="5.55955">
        <ele>1087.3</ele>
        <time>2016-07-29T12:57:37Z</time>
      </trkpt>
      <trkpt lat="45.17644" lon="5.55955">
        <ele>1087.2</ele>
        <time>2016-07-29T12:57:39Z</time>
      </trkpt>
      <trkpt lat="45.17658" lon="5.55955">
        <ele>1087.1</ele>
        <time>2016-07-29T12:57:41Z</time>
      </trkpt>
      <trkpt lat="45.17671" lon="5.55958">
        <ele>1086.8</ele>
        <time>2016-07-29T12:57:43Z</time>
      </trkpt>
      <trkpt lat="45.17684" lon="5.55961">
        <ele>1086.2</ele>
        <time>2016-07-29T12:57:45Z</time>
      </trkpt>
      <trkpt lat="45.17698" lon="5.55966">
        <ele>1085.6</ele>
        <time>2016-07-29T12:57:47Z</time>
      </trkpt>
      <trkpt lat="45.17712" lon="5.55974">
        <ele>1085.3</ele>
        <time>2016-07-29T12:57:49Z</time>
      </trkpt>
      <trkpt lat="45.17725" lon="5.55983">
        <ele>1084.6</ele>
        <time>2016-07-29T12:57:51Z</time>
      </trkpt>
      <trkpt lat="45.17739" lon="5.55991">
        <ele>1084.2</ele>
        <time>2016-07-29T12:57:53Z</time>
      </trkpt>
      <trkpt lat="45.17753" lon="5.55999">
        <ele>1083.6</ele>
        <time>2016-07-29T12:57:55Z</time>
      </trkpt>
      <trkpt lat="45.17767" lon="5.56008">
        <ele>1083.2</ele>
        <time>2016-07-29T12:57:57Z</time>
      </trkpt>
      <trkpt lat="45.1778" lon="5.56016">
        <ele>1082.9</ele>
        <time>2016-07-29T12:57:59Z</time>
      </trkpt>
      <trkpt lat="45.17793" lon="5.56022">
        <ele>1082.6</ele>
        <time>2016-07-29T12:58:01Z</time>
      </trkpt>
      <trkpt lat="45.17806" lon="5.56031">
        <ele>1082.4</ele>
        <time>2016-07-29T12:58:03Z</time>
      </trkpt>
      <trkpt lat="45.17818" lon="5.56038">
        <ele>1082.1</ele>
        <time>2016-07-29T12:58:05Z</time>
      </trkpt>
      <trkpt lat="45.17829" lon="5.56045">
        <ele>1082</ele>
        <time>2016-07-29T12:58:07Z</time>
      </trkpt>
      <trkpt lat="45.1784" lon="5.56052">
        <ele>1082</ele>
        <time>2016-07-29T12:58:09Z</time>
      </trkpt>
      <trkpt lat="45.17851" lon="5.56061">
        <ele>1081.7</ele>
        <time>2016-07-29T12:58:11Z</time>
      </trkpt>
      <trkpt lat="45.17861" lon="5.56069">
        <ele>1081.4</ele>
        <time>2016-07-29T12:58:13Z</time>
      </trkpt>
      <trkpt lat="45.17872" lon="5.56077">
        <ele>1081.3</ele>
        <time>2016-07-29T12:58:15Z</time>
      </trkpt>
      <trkpt lat="45.17882" lon="5.56085">
        <ele>1081.2</ele>
        <time>2016-07-29T12:58:17Z</time>
      </trkpt>
      <trkpt lat="45.17893" lon="5.56093">
        <ele>1081.2</ele>
        <time>2016-07-29T12:58:19Z</time>
      </trkpt>
      <trkpt lat="45.17904" lon="5.56101">
        <ele>1080.9</ele>
        <time>2016-07-29T12:58:21Z</time>
      </trkpt>
      <trkpt lat="45.17914" lon="5.56111">
        <ele>1080.6</ele>
        <time>2016-07-29T12:58:23Z</time>
      </trkpt>
      <trkpt lat="45.17924" lon="5.56121">
        <ele>1080.2</ele>
        <time>2016-07-29T12:58:25Z</time>
      </trkpt>
      <trkpt lat="45.17934" lon="5.56131">
        <ele>1080</ele>
        <time>2016-07-29T12:58:27Z</time>
      </trkpt>
      <trkpt lat="45.17944" lon="5.56141">
        <ele>1079.6</ele>
        <time>2016-07-29T12:58:29Z</time>
      </trkpt>
      <trkpt lat="45.17954" lon="5.5615">
        <ele>1079.3</ele>
        <time>2016-07-29T12:58:31Z</time>
      </trkpt>
      <trkpt lat="45.17963" lon="5.5616">
        <ele>1079.2</ele>
        <time>2016-07-29T12:58:33Z</time>
      </trkpt>
      <trkpt lat="45.17972" lon="5.5617">
        <ele>1079.2</ele>
        <time>2016-07-29T12:58:35Z</time>
      </trkpt>
      <trkpt lat="45.17982" lon="5.56177">
        <ele>1079.1</ele>
        <time>2016-07-29T12:58:37Z</time>
      </trkpt>
      <trkpt lat="45.17992" lon="5.56183">
        <ele>1078.7</ele>
        <time>2016-07-29T12:58:39Z</time>
      </trkpt>
      <trkpt lat="45.18003" lon="5.56188">
        <ele>1078.4</ele>
        <time>2016-07-29T12:58:41Z</time>
      </trkpt>
      <trkpt lat="45.18015" lon="5.5619">
        <ele>1078.3</ele>
        <time>2016-07-29T12:58:43Z</time>
      </trkpt>
      <trkpt lat="45.18027" lon="5.56192">
        <ele>1077.8</ele>
        <time>2016-07-29T12:58:45Z</time>
      </trkpt>
      <trkpt lat="45.18039" lon="5.56194">
        <ele>1077.4</ele>
        <time>2016-07-29T12:58:47Z</time>
      </trkpt>
      <trkpt lat="45.18051" lon="5.56195">
        <ele>1077.1</ele>
        <time>2016-07-29T12:58:49Z</time>
      </trkpt>
      <trkpt lat="45.18062" lon="5.56197">
        <ele>1077</ele>
        <time>2016-07-29T12:58:51Z</time>
      </trkpt>
      <trkpt lat="45.18074" lon="5.56198">
        <ele>1076.8</ele>
        <time>2016-07-29T12:58:53Z</time>
      </trkpt>
      <trkpt lat="45.18085" lon="5.56199">
        <ele>1076.7</ele>
        <time>2016-07-29T12:58:55Z</time>
      </trkpt>
      <trkpt lat="45.18096" lon="5.562">
        <ele>1076.6</ele>
        <time>2016-07-29T12:58:57Z</time>
      </trkpt>
      <trkpt lat="45.18107" lon="5.56202">
        <ele>1076.6</ele>
        <time>2016-07-29T12:58:59Z</time>
      </trkpt>
      <trkpt lat="45.18119" lon="5.56203">
        <ele>1076.2</ele>
        <time>2016-07-29T12:59:01Z</time>
      </trkpt>
      <trkpt lat="45.18129" lon="5.56204">
        <ele>1075.8</ele>
        <time>2016-07-29T12:59:03Z</time>
      </trkpt>
      <trkpt lat="45.1814" lon="5.56206">
        <ele>1075.6</ele>
        <time>2016-07-29T12:59:05Z</time>
      </trkpt>
      <trkpt lat="45.18152" lon="5.56206">
        <ele>1075.5</ele>
        <time>2016-07-29T12:59:07Z</time>
      </trkpt>
      <trkpt lat="45.18163" lon="5.56206">
        <ele>1075.5</ele>
        <time>2016-07-29T12:59:09Z</time>
      </trkpt>
      <trkpt lat="45.18175" lon="5.56206">
        <ele>1075.2</ele>
        <time>2016-07-29T12:59:11Z</time>
      </trkpt>
      <trkpt lat="45.18188" lon="5.56205">
        <ele>1074.9</ele>
        <time>2016-07-29T12:59:13Z</time>
      </trkpt>
      <trkpt lat="45.182" lon="5.56205">
        <ele>1074.5</ele>
        <time>2016-07-29T12:59:15Z</time>
      </trkpt>
      <trkpt lat="45.18212" lon="5.56205">
        <ele>1074.3</ele>
        <time>2016-07-29T12:59:17Z</time>
      </trkpt>
      <trkpt lat="45.18225" lon="5.56206">
        <ele>1073.8</ele>
        <time>2016-07-29T12:59:19Z</time>
      </trkpt>
      <trkpt lat="45.18236" lon="5.56209">
        <ele>1073.6</ele>
        <time>2016-07-29T12:59:21Z</time>
      </trkpt>
      <trkpt lat="45.18248" lon="5.56212">
        <ele>1073.4</ele>
        <time>2016-07-29T12:59:23Z</time>
      </trkpt>
      <trkpt lat="45.18259" lon="5.56217">
        <ele>1073.3</ele>
        <time>2016-07-29T12:59:25Z</time>
      </trkpt>
      <trkpt lat="45.18269" lon="5.56221">
        <ele>1073.1</ele>
        <time>2016-07-29T12:59:27Z</time>
      </trkpt>
      <trkpt lat="45.18278" lon="5.56226">
        <ele>1073.1</ele>
        <time>2016-07-29T12:59:29Z</time>
      </trkpt>
      <trkpt lat="45.18287" lon="5.5623">
        <ele>1073.2</ele>
        <time>2016-07-29T12:59:31Z</time>
      </trkpt>
      <trkpt lat="45.18299" lon="5.56236">
        <ele>1073.3</ele>
        <time>2016-07-29T12:59:34Z</time>
      </trkpt>
      <trkpt lat="45.1831" lon="5.56241">
        <ele>1073.9</ele>
        <time>2016-07-29T12:59:37Z</time>
      </trkpt>
      <trkpt lat="45.1832" lon="5.56246">
        <ele>1073.9</ele>
        <time>2016-07-29T12:59:40Z</time>
      </trkpt>
      <trkpt lat="45.18331" lon="5.56251">
        <ele>1073.8</ele>
        <time>2016-07-29T12:59:43Z</time>
      </trkpt>
      <trkpt lat="45.18342" lon="5.56259">
        <ele>1073.8</ele>
        <time>2016-07-29T12:59:46Z</time>
      </trkpt>
      <trkpt lat="45.18352" lon="5.56268">
        <ele>1073.6</ele>
        <time>2016-07-29T12:59:49Z</time>
      </trkpt>
      <trkpt lat="45.18362" lon="5.56276">
        <ele>1072.9</ele>
        <time>2016-07-29T12:59:52Z</time>
      </trkpt>
      <trkpt lat="45.18374" lon="5.56286">
        <ele>1073.4</ele>
        <time>2016-07-29T12:59:55Z</time>
      </trkpt>
      <trkpt lat="45.18384" lon="5.56297">
        <ele>1073.5</ele>
        <time>2016-07-29T12:59:58Z</time>
      </trkpt>
      <trkpt lat="45.18394" lon="5.56308">
        <ele>1073.8</ele>
        <time>2016-07-29T13:00:01Z</time>
      </trkpt>
      <trkpt lat="45.18404" lon="5.56317">
        <ele>1074.3</ele>
        <time>2016-07-29T13:00:04Z</time>
      </trkpt>
      <trkpt lat="45.18413" lon="5.56327">
        <ele>1074.8</ele>
        <time>2016-07-29T13:00:07Z</time>
      </trkpt>
      <trkpt lat="45.18421" lon="5.56337">
        <ele>1075.2</ele>
        <time>2016-07-29T13:00:10Z</time>
      </trkpt>
      <trkpt lat="45.1843" lon="5.56346">
        <ele>1075.7</ele>
        <time>2016-07-29T13:00:13Z</time>
      </trkpt>
      <trkpt lat="45.18438" lon="5.56354">
        <ele>1076.1</ele>
        <time>2016-07-29T13:00:16Z</time>
      </trkpt>
      <trkpt lat="45.18447" lon="5.56364">
        <ele>1076.5</ele>
        <time>2016-07-29T13:00:19Z</time>
      </trkpt>
      <trkpt lat="45.18456" lon="5.56374">
        <ele>1076.9</ele>
        <time>2016-07-29T13:00:22Z</time>
      </trkpt>
      <trkpt lat="45.18464" lon="5.56385">
        <ele>1077.1</ele>
        <time>2016-07-29T13:00:25Z</time>
      </trkpt>
      <trkpt lat="45.18472" lon="5.56397">
        <ele>1077.4</ele>
        <time>2016-07-29T13:00:28Z</time>
      </trkpt>
      <trkpt lat="45.1848" lon="5.56408">
        <ele>1077.6</ele>
        <time>2016-07-29T13:00:31Z</time>
      </trkpt>
      <trkpt lat="45.1849" lon="5.56417">
        <ele>1077.8</ele>
        <time>2016-07-29T13:00:34Z</time>
      </trkpt>
      <trkpt lat="45.18501" lon="5.56423">
        <ele>1077.8</ele>
        <time>2016-07-29T13:00:37Z</time>
      </trkpt>
      <trkpt lat="45.18512" lon="5.56425">
        <ele>1078</ele>
        <time>2016-07-29T13:00:40Z</time>
      </trkpt>
      <trkpt lat="45.18523" lon="5.56426">
        <ele>1078.3</ele>
        <time>2016-07-29T13:00:43Z</time>
      </trkpt>
      <trkpt lat="45.18535" lon="5.56425">
        <ele>1078.5</ele>
        <time>2016-07-29T13:00:46Z</time>
      </trkpt>
      <trkpt lat="45.18546" lon="5.56425">
        <ele>1078.6</ele>
        <time>2016-07-29T13:00:49Z</time>
      </trkpt>
      <trkpt lat="45.18558" lon="5.56425">
        <ele>1078.7</ele>
        <time>2016-07-29T13:00:52Z</time>
      </trkpt>
      <trkpt lat="45.18569" lon="5.56425">
        <ele>1078.9</ele>
        <time>2016-07-29T13:00:55Z</time>
      </trkpt>
      <trkpt lat="45.1858" lon="5.56427">
        <ele>1079.5</ele>
        <time>2016-07-29T13:00:58Z</time>
      </trkpt>
      <trkpt lat="45.18591" lon="5.56431">
        <ele>1079.9</ele>
        <time>2016-07-29T13:01:01Z</time>
      </trkpt>
      <trkpt lat="45.18601" lon="5.56435">
        <ele>1080.3</ele>
        <time>2016-07-29T13:01:04Z</time>
      </trkpt>
      <trkpt lat="45.18611" lon="5.56441">
        <ele>1080.6</ele>
        <time>2016-07-29T13:01:07Z</time>
      </trkpt>
      <trkpt lat="45.18622" lon="5.56447">
        <ele>1081.1</ele>
        <time>2016-07-29T13:01:10Z</time>
      </trkpt>
      <trkpt lat="45.18633" lon="5.56454">
        <ele>1081.3</ele>
        <time>2016-07-29T13:01:13Z</time>
      </trkpt>
      <trkpt lat="45.18644" lon="5.56459">
        <ele>1081.4</ele>
        <time>2016-07-29T13:01:16Z</time>
      </trkpt>
      <trkpt lat="45.18656" lon="5.56463">
        <ele>1081.5</ele>
        <time>2016-07-29T13:01:19Z</time>
      </trkpt>
      <trkpt lat="45.18667" lon="5.56465">
        <ele>1081.7</ele>
        <time>2016-07-29T13:01:22Z</time>
      </trkpt>
      <trkpt lat="45.18678" lon="5.56469">
        <ele>1082</ele>
        <time>2016-07-29T13:01:25Z</time>
      </trkpt>
      <trkpt lat="45.18689" lon="5.56473">
        <ele>1082.2</ele>
        <time>2016-07-29T13:01:28Z</time>
      </trkpt>
      <trkpt lat="45.187" lon="5.56479">
        <ele>1082.4</ele>
        <time>2016-07-29T13:01:31Z</time>
      </trkpt>
      <trkpt lat="45.18711" lon="5.56484">
        <ele>1082.4</ele>
        <time>2016-07-29T13:01:34Z</time>
      </trkpt>
      <trkpt lat="45.18723" lon="5.56492">
        <ele>1082.5</ele>
        <time>2016-07-29T13:01:37Z</time>
      </trkpt>
      <trkpt lat="45.18734" lon="5.565">
        <ele>1082.4</ele>
        <time>2016-07-29T13:01:40Z</time>
      </trkpt>
      <trkpt lat="45.18746" lon="5.56508">
        <ele>1082.4</ele>
        <time>2016-07-29T13:01:43Z</time>
      </trkpt>
      <trkpt lat="45.18758" lon="5.56515">
        <ele>1082.2</ele>
        <time>2016-07-29T13:01:46Z</time>
      </trkpt>
      <trkpt lat="45.1877" lon="5.56524">
        <ele>1082.2</ele>
        <time>2016-07-29T13:01:49Z</time>
      </trkpt>
      <trkpt lat="45.18782" lon="5.56532">
        <ele>1082.1</ele>
        <time>2016-07-29T13:01:52Z</time>
      </trkpt>
      <trkpt lat="45.1879" lon="5.56538">
        <ele>1082.2</ele>
        <time>2016-07-29T13:01:54Z</time>
      </trkpt>
      <trkpt lat="45.18799" lon="5.56543">
        <ele>1082.2</ele>
        <time>2016-07-29T13:01:56Z</time>
      </trkpt>
      <trkpt lat="45.18808" lon="5.56548">
        <ele>1082.3</ele>
        <time>2016-07-29T13:01:58Z</time>
      </trkpt>
      <trkpt lat="45.18816" lon="5.56553">
        <ele>1082.3</ele>
        <time>2016-07-29T13:02:00Z</time>
      </trkpt>
      <trkpt lat="45.18825" lon="5.56557">
        <ele>1082.4</ele>
        <time>2016-07-29T13:02:02Z</time>
      </trkpt>
      <trkpt lat="45.18834" lon="5.56561">
        <ele>1082.3</ele>
        <time>2016-07-29T13:02:04Z</time>
      </trkpt>
      <trkpt lat="45.18843" lon="5.56565">
        <ele>1082.4</ele>
        <time>2016-07-29T13:02:06Z</time>
      </trkpt>
      <trkpt lat="45.18852" lon="5.56569">
        <ele>1082.5</ele>
        <time>2016-07-29T13:02:08Z</time>
      </trkpt>
      <trkpt lat="45.1886" lon="5.56573">
        <ele>1082.7</ele>
        <time>2016-07-29T13:02:10Z</time>
      </trkpt>
      <trkpt lat="45.18869" lon="5.56576">
        <ele>1082.8</ele>
        <time>2016-07-29T13:02:12Z</time>
      </trkpt>
      <trkpt lat="45.18878" lon="5.5658">
        <ele>1082.7</ele>
        <time>2016-07-29T13:02:14Z</time>
      </trkpt>
      <trkpt lat="45.18887" lon="5.56584">
        <ele>1082.8</ele>
        <time>2016-07-29T13:02:16Z</time>
      </trkpt>
      <trkpt lat="45.18896" lon="5.56588">
        <ele>1083</ele>
        <time>2016-07-29T13:02:18Z</time>
      </trkpt>
      <trkpt lat="45.18905" lon="5.56592">
        <ele>1083</ele>
        <time>2016-07-29T13:02:20Z</time>
      </trkpt>
      <trkpt lat="45.18915" lon="5.56596">
        <ele>1083</ele>
        <time>2016-07-29T13:02:22Z</time>
      </trkpt>
      <trkpt lat="45.18924" lon="5.566">
        <ele>1083.2</ele>
        <time>2016-07-29T13:02:24Z</time>
      </trkpt>
      <trkpt lat="45.18933" lon="5.56604">
        <ele>1083.3</ele>
        <time>2016-07-29T13:02:26Z</time>
      </trkpt>
      <trkpt lat="45.18942" lon="5.56609">
        <ele>1083.3</ele>
        <time>2016-07-29T13:02:28Z</time>
      </trkpt>
      <trkpt lat="45.18951" lon="5.56614">
        <ele>1083.4</ele>
        <time>2016-07-29T13:02:30Z</time>
      </trkpt>
      <trkpt lat="45.18959" lon="5.56619">
        <ele>1083.8</ele>
        <time>2016-07-29T13:02:32Z</time>
      </trkpt>
      <trkpt lat="45.18971" lon="5.56625">
        <ele>1083.7</ele>
        <time>2016-07-29T13:02:35Z</time>
      </trkpt>
      <trkpt lat="45.18982" lon="5.56631">
        <ele>1084</ele>
        <time>2016-07-29T13:02:38Z</time>
      </trkpt>
      <trkpt lat="45.18994" lon="5.56637">
        <ele>1084.6</ele>
        <time>2016-07-29T13:02:41Z</time>
      </trkpt>
      <trkpt lat="45.19004" lon="5.56643">
        <ele>1085</ele>
        <time>2016-07-29T13:02:44Z</time>
      </trkpt>
      <trkpt lat="45.19014" lon="5.5665">
        <ele>1085.3</ele>
        <time>2016-07-29T13:02:47Z</time>
      </trkpt>
      <trkpt lat="45.19024" lon="5.56658">
        <ele>1085.7</ele>
        <time>2016-07-29T13:02:50Z</time>
      </trkpt>
      <trkpt lat="45.19033" lon="5.56668">
        <ele>1086</ele>
        <time>2016-07-29T13:02:53Z</time>
      </trkpt>
      <trkpt lat="45.19041" lon="5.56678">
        <ele>1086.3</ele>
        <time>2016-07-29T13:02:56Z</time>
      </trkpt>
      <trkpt lat="45.19049" lon="5.56687">
        <ele>1086.7</ele>
        <time>2016-07-29T13:02:59Z</time>
      </trkpt>
      <trkpt lat="45.19057" lon="5.56695">
        <ele>1087.3</ele>
        <time>2016-07-29T13:03:02Z</time>
      </trkpt>
      <trkpt lat="45.19064" lon="5.56705">
        <ele>1087.7</ele>
        <time>2016-07-29T13:03:05Z</time>
      </trkpt>
      <trkpt lat="45.1907" lon="5.56715">
        <ele>1088.1</ele>
        <time>2016-07-29T13:03:08Z</time>
      </trkpt>
      <trkpt lat="45.19076" lon="5.56725">
        <ele>1088.5</ele>
        <time>2016-07-29T13:03:11Z</time>
      </trkpt>
      <trkpt lat="45.19082" lon="5.56736">
        <ele>1088.9</ele>
        <time>2016-07-29T13:03:14Z</time>
      </trkpt>
      <trkpt lat="45.19087" lon="5.56747">
        <ele>1089.3</ele>
        <time>2016-07-29T13:03:17Z</time>
      </trkpt>
      <trkpt lat="45.19093" lon="5.56757">
        <ele>1089.7</ele>
        <time>2016-07-29T13:03:20Z</time>
      </trkpt>
      <trkpt lat="45.191" lon="5.56771">
        <ele>1090.3</ele>
        <time>2016-07-29T13:03:24Z</time>
      </trkpt>
      <trkpt lat="45.19105" lon="5.56781">
        <ele>1090.8</ele>
        <time>2016-07-29T13:03:27Z</time>
      </trkpt>
      <trkpt lat="45.1911" lon="5.56792">
        <ele>1091.4</ele>
        <time>2016-07-29T13:03:30Z</time>
      </trkpt>
      <trkpt lat="45.19115" lon="5.56803">
        <ele>1091.8</ele>
        <time>2016-07-29T13:03:33Z</time>
      </trkpt>
      <trkpt lat="45.1912" lon="5.56814">
        <ele>1092.2</ele>
        <time>2016-07-29T13:03:36Z</time>
      </trkpt>
      <trkpt lat="45.19126" lon="5.56824">
        <ele>1092.4</ele>
        <time>2016-07-29T13:03:39Z</time>
      </trkpt>
      <trkpt lat="45.19131" lon="5.56834">
        <ele>1093.1</ele>
        <time>2016-07-29T13:03:42Z</time>
      </trkpt>
      <trkpt lat="45.19138" lon="5.56843">
        <ele>1093.8</ele>
        <time>2016-07-29T13:03:45Z</time>
      </trkpt>
      <trkpt lat="45.19147" lon="5.56853">
        <ele>1094.6</ele>
        <time>2016-07-29T13:03:49Z</time>
      </trkpt>
      <trkpt lat="45.19155" lon="5.56863">
        <ele>1095.3</ele>
        <time>2016-07-29T13:03:53Z</time>
      </trkpt>
      <trkpt lat="45.19164" lon="5.56874">
        <ele>1096.2</ele>
        <time>2016-07-29T13:03:57Z</time>
      </trkpt>
      <trkpt lat="45.19171" lon="5.56882">
        <ele>1096.8</ele>
        <time>2016-07-29T13:04:00Z</time>
      </trkpt>
      <trkpt lat="45.19178" lon="5.56893">
        <ele>1097.2</ele>
        <time>2016-07-29T13:04:03Z</time>
      </trkpt>
      <trkpt lat="45.19184" lon="5.56903">
        <ele>1097.6</ele>
        <time>2016-07-29T13:04:06Z</time>
      </trkpt>
      <trkpt lat="45.19191" lon="5.56914">
        <ele>1097.8</ele>
        <time>2016-07-29T13:04:09Z</time>
      </trkpt>
      <trkpt lat="45.19198" lon="5.56924">
        <ele>1098</ele>
        <time>2016-07-29T13:04:12Z</time>
      </trkpt>
      <trkpt lat="45.19205" lon="5.56932">
        <ele>1098.3</ele>
        <time>2016-07-29T13:04:15Z</time>
      </trkpt>
      <trkpt lat="45.19214" lon="5.5694">
        <ele>1098.5</ele>
        <time>2016-07-29T13:04:18Z</time>
      </trkpt>
      <trkpt lat="45.19223" lon="5.56948">
        <ele>1098.9</ele>
        <time>2016-07-29T13:04:21Z</time>
      </trkpt>
      <trkpt lat="45.19232" lon="5.56955">
        <ele>1099</ele>
        <time>2016-07-29T13:04:24Z</time>
      </trkpt>
      <trkpt lat="45.1924" lon="5.56963">
        <ele>1099.3</ele>
        <time>2016-07-29T13:04:27Z</time>
      </trkpt>
      <trkpt lat="45.19249" lon="5.56971">
        <ele>1099.6</ele>
        <time>2016-07-29T13:04:30Z</time>
      </trkpt>
      <trkpt lat="45.19257" lon="5.56979">
        <ele>1100</ele>
        <time>2016-07-29T13:04:33Z</time>
      </trkpt>
      <trkpt lat="45.19265" lon="5.56985">
        <ele>1100.5</ele>
        <time>2016-07-29T13:04:36Z</time>
      </trkpt>
      <trkpt lat="45.19275" lon="5.56993">
        <ele>1101.2</ele>
        <time>2016-07-29T13:04:40Z</time>
      </trkpt>
      <trkpt lat="45.19286" lon="5.56998">
        <ele>1101.8</ele>
        <time>2016-07-29T13:04:44Z</time>
      </trkpt>
      <trkpt lat="45.19295" lon="5.57">
        <ele>1102.6</ele>
        <time>2016-07-29T13:04:48Z</time>
      </trkpt>
      <trkpt lat="45.19305" lon="5.56999">
        <ele>1103.4</ele>
        <time>2016-07-29T13:04:52Z</time>
      </trkpt>
      <trkpt lat="45.19315" lon="5.56994">
        <ele>1105.1</ele>
        <time>2016-07-29T13:04:57Z</time>
      </trkpt>
      <trkpt lat="45.19324" lon="5.56989">
        <ele>1105.9</ele>
        <time>2016-07-29T13:05:01Z</time>
      </trkpt>
      <trkpt lat="45.19333" lon="5.56988">
        <ele>1106.6</ele>
        <time>2016-07-29T13:05:05Z</time>
      </trkpt>
      <trkpt lat="45.19343" lon="5.56994">
        <ele>1107</ele>
        <time>2016-07-29T13:05:09Z</time>
      </trkpt>
      <trkpt lat="45.19353" lon="5.57">
        <ele>1107.1</ele>
        <time>2016-07-29T13:05:13Z</time>
      </trkpt>
      <trkpt lat="45.19364" lon="5.57007">
        <ele>1107.5</ele>
        <time>2016-07-29T13:05:17Z</time>
      </trkpt>
      <trkpt lat="45.19373" lon="5.57011">
        <ele>1107.8</ele>
        <time>2016-07-29T13:05:20Z</time>
      </trkpt>
      <trkpt lat="45.19381" lon="5.57017">
        <ele>1108</ele>
        <time>2016-07-29T13:05:23Z</time>
      </trkpt>
      <trkpt lat="45.19391" lon="5.57023">
        <ele>1108.5</ele>
        <time>2016-07-29T13:05:27Z</time>
      </trkpt>
      <trkpt lat="45.19401" lon="5.5703">
        <ele>1109</ele>
        <time>2016-07-29T13:05:31Z</time>
      </trkpt>
      <trkpt lat="45.19411" lon="5.5704">
        <ele>1109.6</ele>
        <time>2016-07-29T13:05:35Z</time>
      </trkpt>
      <trkpt lat="45.19419" lon="5.57047">
        <ele>1110.1</ele>
        <time>2016-07-29T13:05:38Z</time>
      </trkpt>
      <trkpt lat="45.19427" lon="5.57054">
        <ele>1110.6</ele>
        <time>2016-07-29T13:05:41Z</time>
      </trkpt>
      <trkpt lat="45.19435" lon="5.57062">
        <ele>1111</ele>
        <time>2016-07-29T13:05:44Z</time>
      </trkpt>
      <trkpt lat="45.19443" lon="5.57069">
        <ele>1111.5</ele>
        <time>2016-07-29T13:05:47Z</time>
      </trkpt>
      <trkpt lat="45.19451" lon="5.57077">
        <ele>1111.9</ele>
        <time>2016-07-29T13:05:50Z</time>
      </trkpt>
      <trkpt lat="45.1946" lon="5.57083">
        <ele>1112.3</ele>
        <time>2016-07-29T13:05:53Z</time>
      </trkpt>
      <trkpt lat="45.19469" lon="5.57088">
        <ele>1112.7</ele>
        <time>2016-07-29T13:05:56Z</time>
      </trkpt>
      <trkpt lat="45.19478" lon="5.57091">
        <ele>1113.1</ele>
        <time>2016-07-29T13:05:59Z</time>
      </trkpt>
      <trkpt lat="45.19487" lon="5.57093">
        <ele>1113.3</ele>
        <time>2016-07-29T13:06:02Z</time>
      </trkpt>
      <trkpt lat="45.19497" lon="5.57095">
        <ele>1113.2</ele>
        <time>2016-07-29T13:06:05Z</time>
      </trkpt>
      <trkpt lat="45.19507" lon="5.57097">
        <ele>1113</ele>
        <time>2016-07-29T13:06:08Z</time>
      </trkpt>
      <trkpt lat="45.19517" lon="5.57099">
        <ele>1113</ele>
        <time>2016-07-29T13:06:11Z</time>
      </trkpt>
      <trkpt lat="45.19528" lon="5.57101">
        <ele>1113.2</ele>
        <time>2016-07-29T13:06:14Z</time>
      </trkpt>
      <trkpt lat="45.19539" lon="5.57102">
        <ele>1113.2</ele>
        <time>2016-07-29T13:06:17Z</time>
      </trkpt>
      <trkpt lat="45.1955" lon="5.57104">
        <ele>1113.3</ele>
        <time>2016-07-29T13:06:20Z</time>
      </trkpt>
      <trkpt lat="45.19561" lon="5.57106">
        <ele>1113.3</ele>
        <time>2016-07-29T13:06:23Z</time>
      </trkpt>
      <trkpt lat="45.19573" lon="5.57108">
        <ele>1113.2</ele>
        <time>2016-07-29T13:06:26Z</time>
      </trkpt>
      <trkpt lat="45.19584" lon="5.5711">
        <ele>1113.3</ele>
        <time>2016-07-29T13:06:29Z</time>
      </trkpt>
      <trkpt lat="45.19595" lon="5.57113">
        <ele>1113.3</ele>
        <time>2016-07-29T13:06:32Z</time>
      </trkpt>
      <trkpt lat="45.19607" lon="5.57116">
        <ele>1113.1</ele>
        <time>2016-07-29T13:06:35Z</time>
      </trkpt>
      <trkpt lat="45.19618" lon="5.57119">
        <ele>1112.9</ele>
        <time>2016-07-29T13:06:38Z</time>
      </trkpt>
      <trkpt lat="45.19631" lon="5.57122">
        <ele>1112.7</ele>
        <time>2016-07-29T13:06:41Z</time>
      </trkpt>
      <trkpt lat="45.19644" lon="5.57124">
        <ele>1112.7</ele>
        <time>2016-07-29T13:06:44Z</time>
      </trkpt>
      <trkpt lat="45.19657" lon="5.57128">
        <ele>1112.3</ele>
        <time>2016-07-29T13:06:47Z</time>
      </trkpt>
      <trkpt lat="45.1967" lon="5.57131">
        <ele>1112</ele>
        <time>2016-07-29T13:06:50Z</time>
      </trkpt>
      <trkpt lat="45.19682" lon="5.57134">
        <ele>1111.6</ele>
        <time>2016-07-29T13:06:53Z</time>
      </trkpt>
      <trkpt lat="45.19673" lon="5.5713">
        <ele>1111.1</ele>
        <time>2016-07-29T13:07:14Z</time>
      </trkpt>
      <trkpt lat="45.19663" lon="5.57126">
        <ele>1111.1</ele>
        <time>2016-07-29T13:07:19Z</time>
      </trkpt>
      <trkpt lat="45.19654" lon="5.5713">
        <ele>1111.8</ele>
        <time>2016-07-29T13:08:20Z</time>
      </trkpt>
      <trkpt lat="45.19663" lon="5.5713">
        <ele>1112.2</ele>
        <time>2016-07-29T13:08:58Z</time>
      </trkpt>
      <trkpt lat="45.19672" lon="5.57132">
        <ele>1112.1</ele>
        <time>2016-07-29T13:09:02Z</time>
      </trkpt>
      <trkpt lat="45.19683" lon="5.57136">
        <ele>1111.9</ele>
        <time>2016-07-29T13:09:06Z</time>
      </trkpt>
      <trkpt lat="45.19694" lon="5.5714">
        <ele>1111.8</ele>
        <time>2016-07-29T13:09:10Z</time>
      </trkpt>
      <trkpt lat="45.19705" lon="5.57142">
        <ele>1111.7</ele>
        <time>2016-07-29T13:09:14Z</time>
      </trkpt>
      <trkpt lat="45.19716" lon="5.57146">
        <ele>1111.8</ele>
        <time>2016-07-29T13:09:18Z</time>
      </trkpt>
      <trkpt lat="45.19728" lon="5.5715">
        <ele>1111.6</ele>
        <time>2016-07-29T13:09:22Z</time>
      </trkpt>
      <trkpt lat="45.19737" lon="5.57152">
        <ele>1111.4</ele>
        <time>2016-07-29T13:09:25Z</time>
      </trkpt>
      <trkpt lat="45.19749" lon="5.57153">
        <ele>1111.4</ele>
        <time>2016-07-29T13:09:29Z</time>
      </trkpt>
      <trkpt lat="45.19758" lon="5.57152">
        <ele>1111.3</ele>
        <time>2016-07-29T13:09:32Z</time>
      </trkpt>
      <trkpt lat="45.19768" lon="5.57151">
        <ele>1111.3</ele>
        <time>2016-07-29T13:09:35Z</time>
      </trkpt>
      <trkpt lat="45.19778" lon="5.57149">
        <ele>1111.2</ele>
        <time>2016-07-29T13:09:38Z</time>
      </trkpt>
      <trkpt lat="45.19789" lon="5.57148">
        <ele>1111</ele>
        <time>2016-07-29T13:09:41Z</time>
      </trkpt>
      <trkpt lat="45.19799" lon="5.5715">
        <ele>1111.1</ele>
        <time>2016-07-29T13:09:44Z</time>
      </trkpt>
      <trkpt lat="45.19809" lon="5.57153">
        <ele>1111.2</ele>
        <time>2016-07-29T13:09:47Z</time>
      </trkpt>
      <trkpt lat="45.19818" lon="5.57155">
        <ele>1111.4</ele>
        <time>2016-07-29T13:09:50Z</time>
      </trkpt>
      <trkpt lat="45.19829" lon="5.57159">
        <ele>1111.5</ele>
        <time>2016-07-29T13:09:54Z</time>
      </trkpt>
      <trkpt lat="45.19839" lon="5.57163">
        <ele>1111.8</ele>
        <time>2016-07-29T13:09:58Z</time>
      </trkpt>
      <trkpt lat="45.1985" lon="5.57167">
        <ele>1112.3</ele>
        <time>2016-07-29T13:10:02Z</time>
      </trkpt>
      <trkpt lat="45.19861" lon="5.57171">
        <ele>1113</ele>
        <time>2016-07-29T13:10:06Z</time>
      </trkpt>
      <trkpt lat="45.19872" lon="5.57178">
        <ele>1113.2</ele>
        <time>2016-07-29T13:10:10Z</time>
      </trkpt>
      <trkpt lat="45.19882" lon="5.57186">
        <ele>1113.8</ele>
        <time>2016-07-29T13:10:14Z</time>
      </trkpt>
      <trkpt lat="45.19889" lon="5.57195">
        <ele>1114.3</ele>
        <time>2016-07-29T13:10:18Z</time>
      </trkpt>
      <trkpt lat="45.19893" lon="5.57209">
        <ele>1115</ele>
        <time>2016-07-29T13:10:23Z</time>
      </trkpt>
      <trkpt lat="45.19895" lon="5.57224">
        <ele>1115.7</ele>
        <time>2016-07-29T13:10:28Z</time>
      </trkpt>
      <trkpt lat="45.19897" lon="5.57239">
        <ele>1116.8</ele>
        <time>2016-07-29T13:10:33Z</time>
      </trkpt>
      <trkpt lat="45.19904" lon="5.57251">
        <ele>1118</ele>
        <time>2016-07-29T13:10:38Z</time>
      </trkpt>
      <trkpt lat="45.19914" lon="5.57258">
        <ele>1118.7</ele>
        <time>2016-07-29T13:10:42Z</time>
      </trkpt>
      <trkpt lat="45.19924" lon="5.57262">
        <ele>1119.1</ele>
        <time>2016-07-29T13:10:46Z</time>
      </trkpt>
      <trkpt lat="45.19934" lon="5.57265">
        <ele>1119.4</ele>
        <time>2016-07-29T13:10:50Z</time>
      </trkpt>
      <trkpt lat="45.19944" lon="5.57267">
        <ele>1119.8</ele>
        <time>2016-07-29T13:10:54Z</time>
      </trkpt>
      <trkpt lat="45.19955" lon="5.5727">
        <ele>1120.1</ele>
        <time>2016-07-29T13:10:58Z</time>
      </trkpt>
      <trkpt lat="45.19966" lon="5.57272">
        <ele>1120.3</ele>
        <time>2016-07-29T13:11:02Z</time>
      </trkpt>
      <trkpt lat="45.19976" lon="5.57274">
        <ele>1120.7</ele>
        <time>2016-07-29T13:11:06Z</time>
      </trkpt>
      <trkpt lat="45.19986" lon="5.57277">
        <ele>1121.3</ele>
        <time>2016-07-29T13:11:10Z</time>
      </trkpt>
      <trkpt lat="45.19997" lon="5.57281">
        <ele>1121.6</ele>
        <time>2016-07-29T13:11:14Z</time>
      </trkpt>
      <trkpt lat="45.20009" lon="5.57284">
        <ele>1121.9</ele>
        <time>2016-07-29T13:11:18Z</time>
      </trkpt>
      <trkpt lat="45.2002" lon="5.57289">
        <ele>1122.3</ele>
        <time>2016-07-29T13:11:22Z</time>
      </trkpt>
      <trkpt lat="45.20031" lon="5.57293">
        <ele>1122.5</ele>
        <time>2016-07-29T13:11:26Z</time>
      </trkpt>
      <trkpt lat="45.20042" lon="5.57294">
        <ele>1122.9</ele>
        <time>2016-07-29T13:11:30Z</time>
      </trkpt>
      <trkpt lat="45.20054" lon="5.57296">
        <ele>1123.2</ele>
        <time>2016-07-29T13:11:34Z</time>
      </trkpt>
      <trkpt lat="45.20065" lon="5.57296">
        <ele>1123.2</ele>
        <time>2016-07-29T13:11:38Z</time>
      </trkpt>
      <trkpt lat="45.20077" lon="5.57294">
        <ele>1123.6</ele>
        <time>2016-07-29T13:11:42Z</time>
      </trkpt>
      <trkpt lat="45.20087" lon="5.57291">
        <ele>1123.8</ele>
        <time>2016-07-29T13:11:45Z</time>
      </trkpt>
      <trkpt lat="45.20098" lon="5.57286">
        <ele>1123.6</ele>
        <time>2016-07-29T13:11:49Z</time>
      </trkpt>
      <trkpt lat="45.20109" lon="5.57282">
        <ele>1123.9</ele>
        <time>2016-07-29T13:11:53Z</time>
      </trkpt>
      <trkpt lat="45.20121" lon="5.5728">
        <ele>1124</ele>
        <time>2016-07-29T13:11:57Z</time>
      </trkpt>
      <trkpt lat="45.20131" lon="5.57279">
        <ele>1124.1</ele>
        <time>2016-07-29T13:12:00Z</time>
      </trkpt>
      <trkpt lat="45.20141" lon="5.57278">
        <ele>1124.1</ele>
        <time>2016-07-29T13:12:03Z</time>
      </trkpt>
      <trkpt lat="45.20152" lon="5.57277">
        <ele>1124.2</ele>
        <time>2016-07-29T13:12:06Z</time>
      </trkpt>
      <trkpt lat="45.20163" lon="5.57275">
        <ele>1124.1</ele>
        <time>2016-07-29T13:12:09Z</time>
      </trkpt>
      <trkpt lat="45.20174" lon="5.57275">
        <ele>1124.2</ele>
        <time>2016-07-29T13:12:12Z</time>
      </trkpt>
      <trkpt lat="45.20185" lon="5.57274">
        <ele>1124.3</ele>
        <time>2016-07-29T13:12:15Z</time>
      </trkpt>
      <trkpt lat="45.20196" lon="5.57275">
        <ele>1124.4</ele>
        <time>2016-07-29T13:12:18Z</time>
      </trkpt>
      <trkpt lat="45.20208" lon="5.57277">
        <ele>1124.5</ele>
        <time>2016-07-29T13:12:21Z</time>
      </trkpt>
      <trkpt lat="45.20219" lon="5.57279">
        <ele>1124.6</ele>
        <time>2016-07-29T13:12:24Z</time>
      </trkpt>
      <trkpt lat="45.2023" lon="5.57283">
        <ele>1124.8</ele>
        <time>2016-07-29T13:12:27Z</time>
      </trkpt>
      <trkpt lat="45.20241" lon="5.57287">
        <ele>1125.1</ele>
        <time>2016-07-29T13:12:30Z</time>
      </trkpt>
      <trkpt lat="45.20251" lon="5.57292">
        <ele>1125.2</ele>
        <time>2016-07-29T13:12:33Z</time>
      </trkpt>
      <trkpt lat="45.2026" lon="5.573">
        <ele>1125.5</ele>
        <time>2016-07-29T13:12:36Z</time>
      </trkpt>
      <trkpt lat="45.2027" lon="5.57307">
        <ele>1125.9</ele>
        <time>2016-07-29T13:12:39Z</time>
      </trkpt>
      <trkpt lat="45.20281" lon="5.57314">
        <ele>1126.2</ele>
        <time>2016-07-29T13:12:42Z</time>
      </trkpt>
      <trkpt lat="45.20292" lon="5.57315">
        <ele>1126.5</ele>
        <time>2016-07-29T13:12:45Z</time>
      </trkpt>
      <trkpt lat="45.20303" lon="5.57317">
        <ele>1126.7</ele>
        <time>2016-07-29T13:12:48Z</time>
      </trkpt>
      <trkpt lat="45.20315" lon="5.57321">
        <ele>1126.9</ele>
        <time>2016-07-29T13:12:51Z</time>
      </trkpt>
      <trkpt lat="45.20327" lon="5.57324">
        <ele>1126.9</ele>
        <time>2016-07-29T13:12:54Z</time>
      </trkpt>
      <trkpt lat="45.2034" lon="5.57328">
        <ele>1126.8</ele>
        <time>2016-07-29T13:12:57Z</time>
      </trkpt>
      <trkpt lat="45.20349" lon="5.57333">
        <ele>1126.9</ele>
        <time>2016-07-29T13:12:59Z</time>
      </trkpt>
      <trkpt lat="45.20359" lon="5.57341">
        <ele>1127.3</ele>
        <time>2016-07-29T13:13:02Z</time>
      </trkpt>
      <trkpt lat="45.20369" lon="5.57348">
        <ele>1127.8</ele>
        <time>2016-07-29T13:13:05Z</time>
      </trkpt>
      <trkpt lat="45.20379" lon="5.57357">
        <ele>1128.3</ele>
        <time>2016-07-29T13:13:08Z</time>
      </trkpt>
      <trkpt lat="45.20388" lon="5.57365">
        <ele>1128.7</ele>
        <time>2016-07-29T13:13:11Z</time>
      </trkpt>
      <trkpt lat="45.20396" lon="5.57373">
        <ele>1128.9</ele>
        <time>2016-07-29T13:13:14Z</time>
      </trkpt>
      <trkpt lat="45.20405" lon="5.57381">
        <ele>1129.3</ele>
        <time>2016-07-29T13:13:17Z</time>
      </trkpt>
      <trkpt lat="45.20414" lon="5.57391">
        <ele>1129.4</ele>
        <time>2016-07-29T13:13:20Z</time>
      </trkpt>
      <trkpt lat="45.20424" lon="5.57399">
        <ele>1129.8</ele>
        <time>2016-07-29T13:13:23Z</time>
      </trkpt>
      <trkpt lat="45.20434" lon="5.57406">
        <ele>1129.9</ele>
        <time>2016-07-29T13:13:26Z</time>
      </trkpt>
      <trkpt lat="45.20446" lon="5.5741">
        <ele>1129.8</ele>
        <time>2016-07-29T13:13:29Z</time>
      </trkpt>
      <trkpt lat="45.20458" lon="5.57411">
        <ele>1129.9</ele>
        <time>2016-07-29T13:13:32Z</time>
      </trkpt>
      <trkpt lat="45.20471" lon="5.57411">
        <ele>1129.9</ele>
        <time>2016-07-29T13:13:35Z</time>
      </trkpt>
      <trkpt lat="45.20484" lon="5.57412">
        <ele>1130.4</ele>
        <time>2016-07-29T13:13:38Z</time>
      </trkpt>
      <trkpt lat="45.20493" lon="5.57413">
        <ele>1130.4</ele>
        <time>2016-07-29T13:13:40Z</time>
      </trkpt>
      <trkpt lat="45.20506" lon="5.57415">
        <ele>1130.5</ele>
        <time>2016-07-29T13:13:43Z</time>
      </trkpt>
      <trkpt lat="45.20519" lon="5.57418">
        <ele>1131</ele>
        <time>2016-07-29T13:13:46Z</time>
      </trkpt>
      <trkpt lat="45.20529" lon="5.5742">
        <ele>1131.3</ele>
        <time>2016-07-29T13:13:49Z</time>
      </trkpt>
      <trkpt lat="45.20539" lon="5.57421">
        <ele>1131.9</ele>
        <time>2016-07-29T13:13:52Z</time>
      </trkpt>
      <trkpt lat="45.20549" lon="5.57426">
        <ele>1131.9</ele>
        <time>2016-07-29T13:13:55Z</time>
      </trkpt>
      <trkpt lat="45.20559" lon="5.57433">
        <ele>1132</ele>
        <time>2016-07-29T13:13:58Z</time>
      </trkpt>
      <trkpt lat="45.2057" lon="5.57439">
        <ele>1132.2</ele>
        <time>2016-07-29T13:14:01Z</time>
      </trkpt>
      <trkpt lat="45.20579" lon="5.57445">
        <ele>1132.4</ele>
        <time>2016-07-29T13:14:04Z</time>
      </trkpt>
      <trkpt lat="45.20589" lon="5.57451">
        <ele>1132.5</ele>
        <time>2016-07-29T13:14:07Z</time>
      </trkpt>
      <trkpt lat="45.20598" lon="5.57456">
        <ele>1132.8</ele>
        <time>2016-07-29T13:14:10Z</time>
      </trkpt>
      <trkpt lat="45.20607" lon="5.5746">
        <ele>1133.3</ele>
        <time>2016-07-29T13:14:14Z</time>
      </trkpt>
      <trkpt lat="45.20618" lon="5.57463">
        <ele>1133.5</ele>
        <time>2016-07-29T13:14:17Z</time>
      </trkpt>
      <trkpt lat="45.20628" lon="5.57465">
        <ele>1134</ele>
        <time>2016-07-29T13:14:20Z</time>
      </trkpt>
      <trkpt lat="45.20641" lon="5.57466">
        <ele>1133.8</ele>
        <time>2016-07-29T13:14:23Z</time>
      </trkpt>
      <trkpt lat="45.20653" lon="5.57462">
        <ele>1133.7</ele>
        <time>2016-07-29T13:14:26Z</time>
      </trkpt>
      <trkpt lat="45.20666" lon="5.57456">
        <ele>1133.6</ele>
        <time>2016-07-29T13:14:29Z</time>
      </trkpt>
      <trkpt lat="45.20677" lon="5.57455">
        <ele>1133.5</ele>
        <time>2016-07-29T13:14:31Z</time>
      </trkpt>
      <trkpt lat="45.2069" lon="5.57457">
        <ele>1133.2</ele>
        <time>2016-07-29T13:14:34Z</time>
      </trkpt>
      <trkpt lat="45.20699" lon="5.5746">
        <ele>1132.9</ele>
        <time>2016-07-29T13:14:36Z</time>
      </trkpt>
      <trkpt lat="45.20708" lon="5.57463">
        <ele>1133</ele>
        <time>2016-07-29T13:14:38Z</time>
      </trkpt>
      <trkpt lat="45.2072" lon="5.57468">
        <ele>1133.2</ele>
        <time>2016-07-29T13:14:41Z</time>
      </trkpt>
      <trkpt lat="45.20732" lon="5.57474">
        <ele>1133.3</ele>
        <time>2016-07-29T13:14:44Z</time>
      </trkpt>
      <trkpt lat="45.20744" lon="5.57478">
        <ele>1133.2</ele>
        <time>2016-07-29T13:14:47Z</time>
      </trkpt>
      <trkpt lat="45.20755" lon="5.57481">
        <ele>1133.8</ele>
        <time>2016-07-29T13:14:50Z</time>
      </trkpt>
      <trkpt lat="45.20766" lon="5.57486">
        <ele>1134.1</ele>
        <time>2016-07-29T13:14:53Z</time>
      </trkpt>
      <trkpt lat="45.20774" lon="5.57492">
        <ele>1134.7</ele>
        <time>2016-07-29T13:14:56Z</time>
      </trkpt>
      <trkpt lat="45.20783" lon="5.57497">
        <ele>1135.2</ele>
        <time>2016-07-29T13:14:59Z</time>
      </trkpt>
      <trkpt lat="45.20791" lon="5.57503">
        <ele>1136.1</ele>
        <time>2016-07-29T13:15:03Z</time>
      </trkpt>
      <trkpt lat="45.208" lon="5.5751">
        <ele>1137</ele>
        <time>2016-07-29T13:15:07Z</time>
      </trkpt>
      <trkpt lat="45.20809" lon="5.5752">
        <ele>1137.8</ele>
        <time>2016-07-29T13:15:11Z</time>
      </trkpt>
      <trkpt lat="45.20817" lon="5.5753">
        <ele>1138.4</ele>
        <time>2016-07-29T13:15:15Z</time>
      </trkpt>
      <trkpt lat="45.20826" lon="5.57536">
        <ele>1139.4</ele>
        <time>2016-07-29T13:15:19Z</time>
      </trkpt>
      <trkpt lat="45.20838" lon="5.57538">
        <ele>1140.2</ele>
        <time>2016-07-29T13:15:23Z</time>
      </trkpt>
      <trkpt lat="45.2085" lon="5.57537">
        <ele>1140.5</ele>
        <time>2016-07-29T13:15:27Z</time>
      </trkpt>
      <trkpt lat="45.20859" lon="5.57538">
        <ele>1140.8</ele>
        <time>2016-07-29T13:15:30Z</time>
      </trkpt>
      <trkpt lat="45.20869" lon="5.57539">
        <ele>1140.8</ele>
        <time>2016-07-29T13:15:33Z</time>
      </trkpt>
      <trkpt lat="45.20878" lon="5.57543">
        <ele>1140.7</ele>
        <time>2016-07-29T13:15:36Z</time>
      </trkpt>
      <trkpt lat="45.20888" lon="5.57547">
        <ele>1140.7</ele>
        <time>2016-07-29T13:15:39Z</time>
      </trkpt>
      <trkpt lat="45.20897" lon="5.5755">
        <ele>1140.7</ele>
        <time>2016-07-29T13:15:42Z</time>
      </trkpt>
      <trkpt lat="45.20908" lon="5.57552">
        <ele>1140.8</ele>
        <time>2016-07-29T13:15:45Z</time>
      </trkpt>
      <trkpt lat="45.20918" lon="5.57555">
        <ele>1140.8</ele>
        <time>2016-07-29T13:15:48Z</time>
      </trkpt>
      <trkpt lat="45.20927" lon="5.57559">
        <ele>1141</ele>
        <time>2016-07-29T13:15:51Z</time>
      </trkpt>
      <trkpt lat="45.20936" lon="5.57563">
        <ele>1141.1</ele>
        <time>2016-07-29T13:15:54Z</time>
      </trkpt>
      <trkpt lat="45.20945" lon="5.57571">
        <ele>1141.1</ele>
        <time>2016-07-29T13:15:57Z</time>
      </trkpt>
      <trkpt lat="45.20951" lon="5.5758">
        <ele>1141.5</ele>
        <time>2016-07-29T13:16:00Z</time>
      </trkpt>
      <trkpt lat="45.20956" lon="5.57593">
        <ele>1142.2</ele>
        <time>2016-07-29T13:16:04Z</time>
      </trkpt>
      <trkpt lat="45.2096" lon="5.57606">
        <ele>1142.9</ele>
        <time>2016-07-29T13:16:08Z</time>
      </trkpt>
      <trkpt lat="45.20962" lon="5.57619">
        <ele>1143.7</ele>
        <time>2016-07-29T13:16:12Z</time>
      </trkpt>
      <trkpt lat="45.20963" lon="5.57633">
        <ele>1144.9</ele>
        <time>2016-07-29T13:16:17Z</time>
      </trkpt>
      <trkpt lat="45.20964" lon="5.57648">
        <ele>1146.2</ele>
        <time>2016-07-29T13:16:22Z</time>
      </trkpt>
      <trkpt lat="45.20972" lon="5.57659">
        <ele>1147.6</ele>
        <time>2016-07-29T13:16:27Z</time>
      </trkpt>
      <trkpt lat="45.20981" lon="5.5766">
        <ele>1148.4</ele>
        <time>2016-07-29T13:16:31Z</time>
      </trkpt>
      <trkpt lat="45.20991" lon="5.57662">
        <ele>1148.8</ele>
        <time>2016-07-29T13:16:35Z</time>
      </trkpt>
      <trkpt lat="45.21" lon="5.57664">
        <ele>1149.6</ele>
        <time>2016-07-29T13:16:39Z</time>
      </trkpt>
      <trkpt lat="45.21009" lon="5.57665">
        <ele>1150.2</ele>
        <time>2016-07-29T13:16:43Z</time>
      </trkpt>
      <trkpt lat="45.21019" lon="5.57665">
        <ele>1150.7</ele>
        <time>2016-07-29T13:16:48Z</time>
      </trkpt>
      <trkpt lat="45.2103" lon="5.57664">
        <ele>1150.8</ele>
        <time>2016-07-29T13:16:52Z</time>
      </trkpt>
      <trkpt lat="45.2104" lon="5.57663">
        <ele>1151.2</ele>
        <time>2016-07-29T13:16:57Z</time>
      </trkpt>
      <trkpt lat="45.21049" lon="5.57665">
        <ele>1151.2</ele>
        <time>2016-07-29T13:17:01Z</time>
      </trkpt>
      <trkpt lat="45.21059" lon="5.57665">
        <ele>1151.4</ele>
        <time>2016-07-29T13:17:04Z</time>
      </trkpt>
      <trkpt lat="45.21071" lon="5.57666">
        <ele>1151.7</ele>
        <time>2016-07-29T13:17:08Z</time>
      </trkpt>
      <trkpt lat="45.21081" lon="5.57666">
        <ele>1151.9</ele>
        <time>2016-07-29T13:17:11Z</time>
      </trkpt>
      <trkpt lat="45.21091" lon="5.57667">
        <ele>1152</ele>
        <time>2016-07-29T13:17:15Z</time>
      </trkpt>
      <trkpt lat="45.211" lon="5.5767">
        <ele>1152.3</ele>
        <time>2016-07-29T13:17:18Z</time>
      </trkpt>
      <trkpt lat="45.2111" lon="5.5767">
        <ele>1152.5</ele>
        <time>2016-07-29T13:17:21Z</time>
      </trkpt>
      <trkpt lat="45.2112" lon="5.57667">
        <ele>1153</ele>
        <time>2016-07-29T13:17:24Z</time>
      </trkpt>
      <trkpt lat="45.21132" lon="5.57667">
        <ele>1153.3</ele>
        <time>2016-07-29T13:17:28Z</time>
      </trkpt>
      <trkpt lat="45.21142" lon="5.57664">
        <ele>1153.4</ele>
        <time>2016-07-29T13:17:32Z</time>
      </trkpt>
      <trkpt lat="45.21151" lon="5.57659">
        <ele>1153.8</ele>
        <time>2016-07-29T13:17:35Z</time>
      </trkpt>
      <trkpt lat="45.21161" lon="5.57656">
        <ele>1154.1</ele>
        <time>2016-07-29T13:17:38Z</time>
      </trkpt>
      <trkpt lat="45.2117" lon="5.57654">
        <ele>1154.3</ele>
        <time>2016-07-29T13:17:41Z</time>
      </trkpt>
      <trkpt lat="45.21179" lon="5.57654">
        <ele>1154.5</ele>
        <time>2016-07-29T13:17:44Z</time>
      </trkpt>
      <trkpt lat="45.21188" lon="5.57658">
        <ele>1154.8</ele>
        <time>2016-07-29T13:17:47Z</time>
      </trkpt>
      <trkpt lat="45.21198" lon="5.57662">
        <ele>1155.1</ele>
        <time>2016-07-29T13:17:51Z</time>
      </trkpt>
      <trkpt lat="45.21208" lon="5.57669">
        <ele>1155.4</ele>
        <time>2016-07-29T13:17:55Z</time>
      </trkpt>
      <trkpt lat="45.21217" lon="5.57675">
        <ele>1156.2</ele>
        <time>2016-07-29T13:17:59Z</time>
      </trkpt>
      <trkpt lat="45.21228" lon="5.57679">
        <ele>1156.5</ele>
        <time>2016-07-29T13:18:03Z</time>
      </trkpt>
      <trkpt lat="45.21238" lon="5.57681">
        <ele>1156.6</ele>
        <time>2016-07-29T13:18:07Z</time>
      </trkpt>
      <trkpt lat="45.21248" lon="5.57681">
        <ele>1157.1</ele>
        <time>2016-07-29T13:18:11Z</time>
      </trkpt>
      <trkpt lat="45.21259" lon="5.57679">
        <ele>1157.7</ele>
        <time>2016-07-29T13:18:15Z</time>
      </trkpt>
      <trkpt lat="45.2127" lon="5.57676">
        <ele>1158.2</ele>
        <time>2016-07-29T13:18:19Z</time>
      </trkpt>
      <trkpt lat="45.21281" lon="5.57674">
        <ele>1158.6</ele>
        <time>2016-07-29T13:18:23Z</time>
      </trkpt>
      <trkpt lat="45.21292" lon="5.57673">
        <ele>1158.9</ele>
        <time>2016-07-29T13:18:27Z</time>
      </trkpt>
      <trkpt lat="45.21302" lon="5.57671">
        <ele>1159.4</ele>
        <time>2016-07-29T13:18:31Z</time>
      </trkpt>
      <trkpt lat="45.21313" lon="5.57673">
        <ele>1159.9</ele>
        <time>2016-07-29T13:18:35Z</time>
      </trkpt>
      <trkpt lat="45.21324" lon="5.57676">
        <ele>1160.4</ele>
        <time>2016-07-29T13:18:39Z</time>
      </trkpt>
      <trkpt lat="45.21335" lon="5.57679">
        <ele>1160.8</ele>
        <time>2016-07-29T13:18:43Z</time>
      </trkpt>
      <trkpt lat="45.21345" lon="5.57682">
        <ele>1161.2</ele>
        <time>2016-07-29T13:18:47Z</time>
      </trkpt>
      <trkpt lat="45.21355" lon="5.57686">
        <ele>1161.7</ele>
        <time>2016-07-29T13:18:51Z</time>
      </trkpt>
      <trkpt lat="45.21365" lon="5.57689">
        <ele>1162.2</ele>
        <time>2016-07-29T13:18:55Z</time>
      </trkpt>
      <trkpt lat="45.21376" lon="5.57691">
        <ele>1163</ele>
        <time>2016-07-29T13:18:59Z</time>
      </trkpt>
      <trkpt lat="45.21385" lon="5.57693">
        <ele>1163.5</ele>
        <time>2016-07-29T13:19:03Z</time>
      </trkpt>
      <trkpt lat="45.21394" lon="5.57694">
        <ele>1164</ele>
        <time>2016-07-29T13:19:07Z</time>
      </trkpt>
      <trkpt lat="45.21403" lon="5.57692">
        <ele>1164.6</ele>
        <time>2016-07-29T13:19:11Z</time>
      </trkpt>
      <trkpt lat="45.21414" lon="5.57691">
        <ele>1165.4</ele>
        <time>2016-07-29T13:19:16Z</time>
      </trkpt>
      <trkpt lat="45.21424" lon="5.57694">
        <ele>1166.3</ele>
        <time>2016-07-29T13:19:21Z</time>
      </trkpt>
      <trkpt lat="45.21433" lon="5.57694">
        <ele>1166.9</ele>
        <time>2016-07-29T13:19:26Z</time>
      </trkpt>
      <trkpt lat="45.21444" lon="5.57695">
        <ele>1167.6</ele>
        <time>2016-07-29T13:19:31Z</time>
      </trkpt>
      <trkpt lat="45.21453" lon="5.57697">
        <ele>1168.1</ele>
        <time>2016-07-29T13:19:35Z</time>
      </trkpt>
      <trkpt lat="45.21464" lon="5.57698">
        <ele>1168.6</ele>
        <time>2016-07-29T13:19:40Z</time>
      </trkpt>
      <trkpt lat="45.21474" lon="5.57703">
        <ele>1169.5</ele>
        <time>2016-07-29T13:19:45Z</time>
      </trkpt>
      <trkpt lat="45.21483" lon="5.57706">
        <ele>1170.3</ele>
        <time>2016-07-29T13:19:49Z</time>
      </trkpt>
      <trkpt lat="45.21492" lon="5.5771">
        <ele>1171.2</ele>
        <time>2016-07-29T13:19:54Z</time>
      </trkpt>
      <trkpt lat="45.21502" lon="5.57714">
        <ele>1172.3</ele>
        <time>2016-07-29T13:19:59Z</time>
      </trkpt>
      <trkpt lat="45.21512" lon="5.57714">
        <ele>1173.1</ele>
        <time>2016-07-29T13:20:05Z</time>
      </trkpt>
      <trkpt lat="45.21521" lon="5.57716">
        <ele>1174</ele>
        <time>2016-07-29T13:20:11Z</time>
      </trkpt>
      <trkpt lat="45.2153" lon="5.57723">
        <ele>1174.5</ele>
        <time>2016-07-29T13:20:16Z</time>
      </trkpt>
      <trkpt lat="45.21539" lon="5.57728">
        <ele>1174.8</ele>
        <time>2016-07-29T13:20:21Z</time>
      </trkpt>
      <trkpt lat="45.21548" lon="5.57733">
        <ele>1175.4</ele>
        <time>2016-07-29T13:20:26Z</time>
      </trkpt>
      <trkpt lat="45.21557" lon="5.57738">
        <ele>1176</ele>
        <time>2016-07-29T13:20:31Z</time>
      </trkpt>
      <trkpt lat="45.21566" lon="5.57743">
        <ele>1176.4</ele>
        <time>2016-07-29T13:20:35Z</time>
      </trkpt>
      <trkpt lat="45.21576" lon="5.57748">
        <ele>1177.1</ele>
        <time>2016-07-29T13:20:40Z</time>
      </trkpt>
      <trkpt lat="45.21586" lon="5.57752">
        <ele>1177.5</ele>
        <time>2016-07-29T13:20:44Z</time>
      </trkpt>
      <trkpt lat="45.21595" lon="5.57756">
        <ele>1178.2</ele>
        <time>2016-07-29T13:20:48Z</time>
      </trkpt>
      <trkpt lat="45.21606" lon="5.57762">
        <ele>1178.7</ele>
        <time>2016-07-29T13:20:52Z</time>
      </trkpt>
      <trkpt lat="45.21616" lon="5.57766">
        <ele>1179.3</ele>
        <time>2016-07-29T13:20:56Z</time>
      </trkpt>
      <trkpt lat="45.21626" lon="5.57771">
        <ele>1179.9</ele>
        <time>2016-07-29T13:21:00Z</time>
      </trkpt>
      <trkpt lat="45.21636" lon="5.57776">
        <ele>1180.6</ele>
        <time>2016-07-29T13:21:04Z</time>
      </trkpt>
      <trkpt lat="45.21646" lon="5.5778">
        <ele>1181.3</ele>
        <time>2016-07-29T13:21:08Z</time>
      </trkpt>
      <trkpt lat="45.21656" lon="5.57786">
        <ele>1181.9</ele>
        <time>2016-07-29T13:21:12Z</time>
      </trkpt>
      <trkpt lat="45.21666" lon="5.57791">
        <ele>1182.6</ele>
        <time>2016-07-29T13:21:16Z</time>
      </trkpt>
      <trkpt lat="45.21677" lon="5.57796">
        <ele>1183.4</ele>
        <time>2016-07-29T13:21:20Z</time>
      </trkpt>
      <trkpt lat="45.21687" lon="5.57801">
        <ele>1184</ele>
        <time>2016-07-29T13:21:24Z</time>
      </trkpt>
      <trkpt lat="45.21698" lon="5.57806">
        <ele>1184.5</ele>
        <time>2016-07-29T13:21:28Z</time>
      </trkpt>
      <trkpt lat="45.21709" lon="5.57811">
        <ele>1185</ele>
        <time>2016-07-29T13:21:32Z</time>
      </trkpt>
      <trkpt lat="45.2172" lon="5.57817">
        <ele>1185.9</ele>
        <time>2016-07-29T13:21:36Z</time>
      </trkpt>
      <trkpt lat="45.2173" lon="5.57822">
        <ele>1186.4</ele>
        <time>2016-07-29T13:21:40Z</time>
      </trkpt>
      <trkpt lat="45.21741" lon="5.57827">
        <ele>1187.1</ele>
        <time>2016-07-29T13:21:44Z</time>
      </trkpt>
      <trkpt lat="45.21752" lon="5.57833">
        <ele>1187.9</ele>
        <time>2016-07-29T13:21:48Z</time>
      </trkpt>
      <trkpt lat="45.21763" lon="5.57838">
        <ele>1188.6</ele>
        <time>2016-07-29T13:21:52Z</time>
      </trkpt>
      <trkpt lat="45.21771" lon="5.57842">
        <ele>1189.1</ele>
        <time>2016-07-29T13:21:55Z</time>
      </trkpt>
      <trkpt lat="45.2178" lon="5.57846">
        <ele>1189.7</ele>
        <time>2016-07-29T13:21:58Z</time>
      </trkpt>
      <trkpt lat="45.21791" lon="5.57852">
        <ele>1190.4</ele>
        <time>2016-07-29T13:22:02Z</time>
      </trkpt>
      <trkpt lat="45.21802" lon="5.57857">
        <ele>1191</ele>
        <time>2016-07-29T13:22:06Z</time>
      </trkpt>
      <trkpt lat="45.21814" lon="5.57861">
        <ele>1191.4</ele>
        <time>2016-07-29T13:22:10Z</time>
      </trkpt>
      <trkpt lat="45.21823" lon="5.57864">
        <ele>1191.8</ele>
        <time>2016-07-29T13:22:13Z</time>
      </trkpt>
      <trkpt lat="45.21834" lon="5.57868">
        <ele>1192.4</ele>
        <time>2016-07-29T13:22:17Z</time>
      </trkpt>
      <trkpt lat="45.21846" lon="5.57872">
        <ele>1192.9</ele>
        <time>2016-07-29T13:22:21Z</time>
      </trkpt>
      <trkpt lat="45.21855" lon="5.57873">
        <ele>1193.1</ele>
        <time>2016-07-29T13:22:24Z</time>
      </trkpt>
      <trkpt lat="45.21864" lon="5.57874">
        <ele>1193.4</ele>
        <time>2016-07-29T13:22:27Z</time>
      </trkpt>
      <trkpt lat="45.21874" lon="5.57877">
        <ele>1193.8</ele>
        <time>2016-07-29T13:22:30Z</time>
      </trkpt>
      <trkpt lat="45.21884" lon="5.5788">
        <ele>1194</ele>
        <time>2016-07-29T13:22:33Z</time>
      </trkpt>
      <trkpt lat="45.21893" lon="5.57883">
        <ele>1194.3</ele>
        <time>2016-07-29T13:22:36Z</time>
      </trkpt>
      <trkpt lat="45.21902" lon="5.57886">
        <ele>1194.5</ele>
        <time>2016-07-29T13:22:39Z</time>
      </trkpt>
      <trkpt lat="45.21912" lon="5.57889">
        <ele>1194.9</ele>
        <time>2016-07-29T13:22:42Z</time>
      </trkpt>
      <trkpt lat="45.21922" lon="5.57892">
        <ele>1195.3</ele>
        <time>2016-07-29T13:22:45Z</time>
      </trkpt>
      <trkpt lat="45.21931" lon="5.57896">
        <ele>1195.5</ele>
        <time>2016-07-29T13:22:48Z</time>
      </trkpt>
      <trkpt lat="45.21941" lon="5.57899">
        <ele>1196.1</ele>
        <time>2016-07-29T13:22:51Z</time>
      </trkpt>
      <trkpt lat="45.2195" lon="5.57903">
        <ele>1196.5</ele>
        <time>2016-07-29T13:22:54Z</time>
      </trkpt>
      <trkpt lat="45.21959" lon="5.57906">
        <ele>1197.2</ele>
        <time>2016-07-29T13:22:57Z</time>
      </trkpt>
      <trkpt lat="45.21968" lon="5.5791">
        <ele>1197.8</ele>
        <time>2016-07-29T13:23:00Z</time>
      </trkpt>
      <trkpt lat="45.21977" lon="5.57913">
        <ele>1198.6</ele>
        <time>2016-07-29T13:23:03Z</time>
      </trkpt>
      <trkpt lat="45.21988" lon="5.57917">
        <ele>1199.5</ele>
        <time>2016-07-29T13:23:07Z</time>
      </trkpt>
      <trkpt lat="45.21999" lon="5.57921">
        <ele>1200.7</ele>
        <time>2016-07-29T13:23:11Z</time>
      </trkpt>
      <trkpt lat="45.22009" lon="5.57925">
        <ele>1201.8</ele>
        <time>2016-07-29T13:23:15Z</time>
      </trkpt>
      <trkpt lat="45.22018" lon="5.57929">
        <ele>1202.4</ele>
        <time>2016-07-29T13:23:19Z</time>
      </trkpt>
      <trkpt lat="45.22029" lon="5.57932">
        <ele>1203.1</ele>
        <time>2016-07-29T13:23:23Z</time>
      </trkpt>
      <trkpt lat="45.2204" lon="5.57935">
        <ele>1204</ele>
        <time>2016-07-29T13:23:27Z</time>
      </trkpt>
      <trkpt lat="45.2205" lon="5.57938">
        <ele>1204.7</ele>
        <time>2016-07-29T13:23:31Z</time>
      </trkpt>
      <trkpt lat="45.22062" lon="5.5794">
        <ele>1205.4</ele>
        <time>2016-07-29T13:23:35Z</time>
      </trkpt>
      <trkpt lat="45.22071" lon="5.57943">
        <ele>1205.8</ele>
        <time>2016-07-29T13:23:38Z</time>
      </trkpt>
      <trkpt lat="45.22081" lon="5.57944">
        <ele>1206.2</ele>
        <time>2016-07-29T13:23:41Z</time>
      </trkpt>
      <trkpt lat="45.2209" lon="5.57946">
        <ele>1206.7</ele>
        <time>2016-07-29T13:23:44Z</time>
      </trkpt>
      <trkpt lat="45.22099" lon="5.57946">
        <ele>1207.2</ele>
        <time>2016-07-29T13:23:47Z</time>
      </trkpt>
      <trkpt lat="45.22109" lon="5.57946">
        <ele>1207.5</ele>
        <time>2016-07-29T13:23:50Z</time>
      </trkpt>
      <trkpt lat="45.22118" lon="5.57947">
        <ele>1207.7</ele>
        <time>2016-07-29T13:23:53Z</time>
      </trkpt>
      <trkpt lat="45.22128" lon="5.57947">
        <ele>1207.8</ele>
        <time>2016-07-29T13:23:56Z</time>
      </trkpt>
      <trkpt lat="45.22137" lon="5.57948">
        <ele>1208.2</ele>
        <time>2016-07-29T13:23:59Z</time>
      </trkpt>
      <trkpt lat="45.22147" lon="5.57948">
        <ele>1208.5</ele>
        <time>2016-07-29T13:24:02Z</time>
      </trkpt>
      <trkpt lat="45.22157" lon="5.57948">
        <ele>1208.7</ele>
        <time>2016-07-29T13:24:05Z</time>
      </trkpt>
      <trkpt lat="45.22167" lon="5.57949">
        <ele>1209</ele>
        <time>2016-07-29T13:24:08Z</time>
      </trkpt>
      <trkpt lat="45.22176" lon="5.57951">
        <ele>1209.5</ele>
        <time>2016-07-29T13:24:11Z</time>
      </trkpt>
      <trkpt lat="45.22186" lon="5.57953">
        <ele>1209.7</ele>
        <time>2016-07-29T13:24:14Z</time>
      </trkpt>
      <trkpt lat="45.22197" lon="5.57955">
        <ele>1210.7</ele>
        <time>2016-07-29T13:24:18Z</time>
      </trkpt>
      <trkpt lat="45.22207" lon="5.57956">
        <ele>1211.1</ele>
        <time>2016-07-29T13:24:22Z</time>
      </trkpt>
      <trkpt lat="45.22218" lon="5.57959">
        <ele>1211.8</ele>
        <time>2016-07-29T13:24:26Z</time>
      </trkpt>
      <trkpt lat="45.22229" lon="5.57962">
        <ele>1212.4</ele>
        <time>2016-07-29T13:24:30Z</time>
      </trkpt>
      <trkpt lat="45.2224" lon="5.57965">
        <ele>1213</ele>
        <time>2016-07-29T13:24:34Z</time>
      </trkpt>
      <trkpt lat="45.22251" lon="5.57968">
        <ele>1213.7</ele>
        <time>2016-07-29T13:24:38Z</time>
      </trkpt>
      <trkpt lat="45.2226" lon="5.5797">
        <ele>1214.7</ele>
        <time>2016-07-29T13:24:42Z</time>
      </trkpt>
      <trkpt lat="45.2227" lon="5.57973">
        <ele>1215.7</ele>
        <time>2016-07-29T13:24:47Z</time>
      </trkpt>
      <trkpt lat="45.22281" lon="5.57975">
        <ele>1216.5</ele>
        <time>2016-07-29T13:24:52Z</time>
      </trkpt>
      <trkpt lat="45.22291" lon="5.57977">
        <ele>1217.4</ele>
        <time>2016-07-29T13:24:57Z</time>
      </trkpt>
      <trkpt lat="45.22302" lon="5.57981">
        <ele>1218.3</ele>
        <time>2016-07-29T13:25:02Z</time>
      </trkpt>
      <trkpt lat="45.2231" lon="5.57983">
        <ele>1219.2</ele>
        <time>2016-07-29T13:25:06Z</time>
      </trkpt>
      <trkpt lat="45.22321" lon="5.57986">
        <ele>1220.3</ele>
        <time>2016-07-29T13:25:11Z</time>
      </trkpt>
      <trkpt lat="45.22332" lon="5.57988">
        <ele>1221.1</ele>
        <time>2016-07-29T13:25:16Z</time>
      </trkpt>
      <trkpt lat="45.22341" lon="5.57991">
        <ele>1221.7</ele>
        <time>2016-07-29T13:25:20Z</time>
      </trkpt>
      <trkpt lat="45.22352" lon="5.57993">
        <ele>1222.6</ele>
        <time>2016-07-29T13:25:25Z</time>
      </trkpt>
      <trkpt lat="45.22361" lon="5.57996">
        <ele>1223.5</ele>
        <time>2016-07-29T13:25:29Z</time>
      </trkpt>
      <trkpt lat="45.22372" lon="5.57998">
        <ele>1224.4</ele>
        <time>2016-07-29T13:25:34Z</time>
      </trkpt>
      <trkpt lat="45.22383" lon="5.58001">
        <ele>1225.4</ele>
        <time>2016-07-29T13:25:39Z</time>
      </trkpt>
      <trkpt lat="45.22394" lon="5.58004">
        <ele>1226.4</ele>
        <time>2016-07-29T13:25:44Z</time>
      </trkpt>
      <trkpt lat="45.22404" lon="5.58007">
        <ele>1227.6</ele>
        <time>2016-07-29T13:25:49Z</time>
      </trkpt>
      <trkpt lat="45.22413" lon="5.58009">
        <ele>1228.3</ele>
        <time>2016-07-29T13:25:53Z</time>
      </trkpt>
      <trkpt lat="45.22424" lon="5.58012">
        <ele>1229.3</ele>
        <time>2016-07-29T13:25:58Z</time>
      </trkpt>
      <trkpt lat="45.22435" lon="5.58017">
        <ele>1230.1</ele>
        <time>2016-07-29T13:26:03Z</time>
      </trkpt>
      <trkpt lat="45.22443" lon="5.58021">
        <ele>1230.8</ele>
        <time>2016-07-29T13:26:07Z</time>
      </trkpt>
      <trkpt lat="45.22453" lon="5.58026">
        <ele>1231.7</ele>
        <time>2016-07-29T13:26:12Z</time>
      </trkpt>
      <trkpt lat="45.22463" lon="5.58031">
        <ele>1232.7</ele>
        <time>2016-07-29T13:26:17Z</time>
      </trkpt>
      <trkpt lat="45.22473" lon="5.58036">
        <ele>1233.6</ele>
        <time>2016-07-29T13:26:22Z</time>
      </trkpt>
      <trkpt lat="45.22482" lon="5.58038">
        <ele>1234.9</ele>
        <time>2016-07-29T13:26:27Z</time>
      </trkpt>
      <trkpt lat="45.22491" lon="5.5804">
        <ele>1236.1</ele>
        <time>2016-07-29T13:26:32Z</time>
      </trkpt>
      <trkpt lat="45.22502" lon="5.58043">
        <ele>1237.7</ele>
        <time>2016-07-29T13:26:38Z</time>
      </trkpt>
      <trkpt lat="45.22512" lon="5.58043">
        <ele>1239.2</ele>
        <time>2016-07-29T13:26:44Z</time>
      </trkpt>
      <trkpt lat="45.22522" lon="5.58044">
        <ele>1240.1</ele>
        <time>2016-07-29T13:26:49Z</time>
      </trkpt>
      <trkpt lat="45.22533" lon="5.5804">
        <ele>1241</ele>
        <time>2016-07-29T13:26:54Z</time>
      </trkpt>
      <trkpt lat="45.22542" lon="5.58038">
        <ele>1241.6</ele>
        <time>2016-07-29T13:26:58Z</time>
      </trkpt>
      <trkpt lat="45.22553" lon="5.5804">
        <ele>1242.5</ele>
        <time>2016-07-29T13:27:02Z</time>
      </trkpt>
      <trkpt lat="45.22564" lon="5.5804">
        <ele>1243.3</ele>
        <time>2016-07-29T13:27:06Z</time>
      </trkpt>
      <trkpt lat="45.22574" lon="5.58041">
        <ele>1244.1</ele>
        <time>2016-07-29T13:27:10Z</time>
      </trkpt>
      <trkpt lat="45.22583" lon="5.58044">
        <ele>1245</ele>
        <time>2016-07-29T13:27:14Z</time>
      </trkpt>
      <trkpt lat="45.22594" lon="5.58048">
        <ele>1245.7</ele>
        <time>2016-07-29T13:27:19Z</time>
      </trkpt>
      <trkpt lat="45.22602" lon="5.58054">
        <ele>1246.3</ele>
        <time>2016-07-29T13:27:23Z</time>
      </trkpt>
      <trkpt lat="45.22606" lon="5.58068">
        <ele>1247.1</ele>
        <time>2016-07-29T13:27:28Z</time>
      </trkpt>
      <trkpt lat="45.22604" lon="5.58082">
        <ele>1247.8</ele>
        <time>2016-07-29T13:27:33Z</time>
      </trkpt>
      <trkpt lat="45.22602" lon="5.58095">
        <ele>1248.2</ele>
        <time>2016-07-29T13:28:34Z</time>
      </trkpt>
      <trkpt lat="45.22598" lon="5.58108">
        <ele>1249</ele>
        <time>2016-07-29T13:34:32Z</time>
      </trkpt>
      <trkpt lat="45.22589" lon="5.58115">
        <ele>1249.5</ele>
        <time>2016-07-29T13:34:38Z</time>
      </trkpt>
      <trkpt lat="45.22579" lon="5.58121">
        <ele>1250.1</ele>
        <time>2016-07-29T13:34:44Z</time>
      </trkpt>
      <trkpt lat="45.22569" lon="5.58125">
        <ele>1250.8</ele>
        <time>2016-07-29T13:34:50Z</time>
      </trkpt>
      <trkpt lat="45.22559" lon="5.58129">
        <ele>1251.5</ele>
        <time>2016-07-29T13:34:55Z</time>
      </trkpt>
      <trkpt lat="45.2255" lon="5.58128">
        <ele>1251.6</ele>
        <time>2016-07-29T13:35:00Z</time>
      </trkpt>
      <trkpt lat="45.22539" lon="5.58132">
        <ele>1251.4</ele>
        <time>2016-07-29T13:35:05Z</time>
      </trkpt>
      <trkpt lat="45.22527" lon="5.58132">
        <ele>1251</ele>
        <time>2016-07-29T13:35:09Z</time>
      </trkpt>
      <trkpt lat="45.22517" lon="5.58133">
        <ele>1250.7</ele>
        <time>2016-07-29T13:35:12Z</time>
      </trkpt>
      <trkpt lat="45.22504" lon="5.58136">
        <ele>1250.4</ele>
        <time>2016-07-29T13:35:15Z</time>
      </trkpt>
      <trkpt lat="45.22491" lon="5.58134">
        <ele>1250</ele>
        <time>2016-07-29T13:35:18Z</time>
      </trkpt>
      <trkpt lat="45.22478" lon="5.58131">
        <ele>1249.7</ele>
        <time>2016-07-29T13:35:21Z</time>
      </trkpt>
      <trkpt lat="45.22469" lon="5.58134">
        <ele>1249.5</ele>
        <time>2016-07-29T13:35:23Z</time>
      </trkpt>
      <trkpt lat="45.22459" lon="5.58135">
        <ele>1249.3</ele>
        <time>2016-07-29T13:35:25Z</time>
      </trkpt>
      <trkpt lat="45.22446" lon="5.58138">
        <ele>1249.5</ele>
        <time>2016-07-29T13:35:28Z</time>
      </trkpt>
      <trkpt lat="45.22435" lon="5.5814">
        <ele>1250.1</ele>
        <time>2016-07-29T13:35:31Z</time>
      </trkpt>
      <trkpt lat="45.22425" lon="5.58142">
        <ele>1250.5</ele>
        <time>2016-07-29T13:35:34Z</time>
      </trkpt>
      <trkpt lat="45.22415" lon="5.58141">
        <ele>1250.9</ele>
        <time>2016-07-29T13:35:37Z</time>
      </trkpt>
      <trkpt lat="45.22405" lon="5.58141">
        <ele>1251.4</ele>
        <time>2016-07-29T13:35:40Z</time>
      </trkpt>
      <trkpt lat="45.22396" lon="5.5814">
        <ele>1251.9</ele>
        <time>2016-07-29T13:35:43Z</time>
      </trkpt>
      <trkpt lat="45.22385" lon="5.58142">
        <ele>1252.5</ele>
        <time>2016-07-29T13:35:47Z</time>
      </trkpt>
      <trkpt lat="45.22376" lon="5.58143">
        <ele>1253</ele>
        <time>2016-07-29T13:35:50Z</time>
      </trkpt>
      <trkpt lat="45.22365" lon="5.58142">
        <ele>1253.7</ele>
        <time>2016-07-29T13:35:54Z</time>
      </trkpt>
      <trkpt lat="45.22355" lon="5.58142">
        <ele>1254.4</ele>
        <time>2016-07-29T13:35:58Z</time>
      </trkpt>
      <trkpt lat="45.22344" lon="5.58139">
        <ele>1255.2</ele>
        <time>2016-07-29T13:36:02Z</time>
      </trkpt>
      <trkpt lat="45.22333" lon="5.5814">
        <ele>1256</ele>
        <time>2016-07-29T13:36:06Z</time>
      </trkpt>
      <trkpt lat="45.22322" lon="5.5814">
        <ele>1256.4</ele>
        <time>2016-07-29T13:36:10Z</time>
      </trkpt>
      <trkpt lat="45.22313" lon="5.58142">
        <ele>1256.6</ele>
        <time>2016-07-29T13:36:13Z</time>
      </trkpt>
      <trkpt lat="45.22304" lon="5.58148">
        <ele>1256.7</ele>
        <time>2016-07-29T13:36:16Z</time>
      </trkpt>
      <trkpt lat="45.22294" lon="5.58151">
        <ele>1256.8</ele>
        <time>2016-07-29T13:36:19Z</time>
      </trkpt>
      <trkpt lat="45.22284" lon="5.58155">
        <ele>1256.6</ele>
        <time>2016-07-29T13:36:22Z</time>
      </trkpt>
      <trkpt lat="45.22272" lon="5.58161">
        <ele>1255.8</ele>
        <time>2016-07-29T13:36:25Z</time>
      </trkpt>
      <trkpt lat="45.22263" lon="5.58163">
        <ele>1254.9</ele>
        <time>2016-07-29T13:36:27Z</time>
      </trkpt>
      <trkpt lat="45.22252" lon="5.58163">
        <ele>1254</ele>
        <time>2016-07-29T13:36:29Z</time>
      </trkpt>
      <trkpt lat="45.22241" lon="5.58161">
        <ele>1253.4</ele>
        <time>2016-07-29T13:36:31Z</time>
      </trkpt>
      <trkpt lat="45.22231" lon="5.58159">
        <ele>1252.7</ele>
        <time>2016-07-29T13:36:33Z</time>
      </trkpt>
      <trkpt lat="45.2222" lon="5.58157">
        <ele>1252.3</ele>
        <time>2016-07-29T13:36:35Z</time>
      </trkpt>
      <trkpt lat="45.22208" lon="5.58155">
        <ele>1251.7</ele>
        <time>2016-07-29T13:36:37Z</time>
      </trkpt>
      <trkpt lat="45.22194" lon="5.58158">
        <ele>1251.1</ele>
        <time>2016-07-29T13:36:39Z</time>
      </trkpt>
      <trkpt lat="45.22182" lon="5.58167">
        <ele>1250.1</ele>
        <time>2016-07-29T13:36:41Z</time>
      </trkpt>
      <trkpt lat="45.22171" lon="5.58175">
        <ele>1249.6</ele>
        <time>2016-07-29T13:36:43Z</time>
      </trkpt>
      <trkpt lat="45.22161" lon="5.58173">
        <ele>1249.7</ele>
        <time>2016-07-29T13:36:45Z</time>
      </trkpt>
      <trkpt lat="45.22152" lon="5.58167">
        <ele>1250.1</ele>
        <time>2016-07-29T13:36:48Z</time>
      </trkpt>
      <trkpt lat="45.22142" lon="5.58162">
        <ele>1250.8</ele>
        <time>2016-07-29T13:36:51Z</time>
      </trkpt>
      <trkpt lat="45.22132" lon="5.58162">
        <ele>1251.5</ele>
        <time>2016-07-29T13:36:54Z</time>
      </trkpt>
      <trkpt lat="45.22123" lon="5.5816">
        <ele>1252</ele>
        <time>2016-07-29T13:36:57Z</time>
      </trkpt>
      <trkpt lat="45.22114" lon="5.58161">
        <ele>1252.5</ele>
        <time>2016-07-29T13:37:01Z</time>
      </trkpt>
      <trkpt lat="45.22103" lon="5.58164">
        <ele>1253.5</ele>
        <time>2016-07-29T13:37:06Z</time>
      </trkpt>
      <trkpt lat="45.22093" lon="5.58164">
        <ele>1254.7</ele>
        <time>2016-07-29T13:37:11Z</time>
      </trkpt>
      <trkpt lat="45.22083" lon="5.58164">
        <ele>1255.5</ele>
        <time>2016-07-29T13:37:16Z</time>
      </trkpt>
      <trkpt lat="45.22073" lon="5.58165">
        <ele>1256.3</ele>
        <time>2016-07-29T13:37:21Z</time>
      </trkpt>
      <trkpt lat="45.22063" lon="5.58168">
        <ele>1256.8</ele>
        <time>2016-07-29T13:37:26Z</time>
      </trkpt>
      <trkpt lat="45.22052" lon="5.58168">
        <ele>1257.4</ele>
        <time>2016-07-29T13:37:31Z</time>
      </trkpt>
      <trkpt lat="45.22042" lon="5.58171">
        <ele>1258</ele>
        <time>2016-07-29T13:37:36Z</time>
      </trkpt>
      <trkpt lat="45.22031" lon="5.58171">
        <ele>1258.7</ele>
        <time>2016-07-29T13:37:41Z</time>
      </trkpt>
      <trkpt lat="45.2202" lon="5.58173">
        <ele>1259.5</ele>
        <time>2016-07-29T13:37:46Z</time>
      </trkpt>
      <trkpt lat="45.22011" lon="5.58177">
        <ele>1260.2</ele>
        <time>2016-07-29T13:37:51Z</time>
      </trkpt>
      <trkpt lat="45.22001" lon="5.58178">
        <ele>1260.9</ele>
        <time>2016-07-29T13:37:56Z</time>
      </trkpt>
      <trkpt lat="45.2199" lon="5.58177">
        <ele>1262</ele>
        <time>2016-07-29T13:38:02Z</time>
      </trkpt>
      <trkpt lat="45.21981" lon="5.58176">
        <ele>1262.7</ele>
        <time>2016-07-29T13:38:07Z</time>
      </trkpt>
      <trkpt lat="45.2197" lon="5.58178">
        <ele>1263.8</ele>
        <time>2016-07-29T13:38:13Z</time>
      </trkpt>
      <trkpt lat="45.2196" lon="5.58178">
        <ele>1264.7</ele>
        <time>2016-07-29T13:38:18Z</time>
      </trkpt>
      <trkpt lat="45.2195" lon="5.58179">
        <ele>1265.9</ele>
        <time>2016-07-29T13:38:24Z</time>
      </trkpt>
      <trkpt lat="45.2194" lon="5.58178">
        <ele>1266.8</ele>
        <time>2016-07-29T13:38:29Z</time>
      </trkpt>
      <trkpt lat="45.2193" lon="5.5818">
        <ele>1267.7</ele>
        <time>2016-07-29T13:38:34Z</time>
      </trkpt>
      <trkpt lat="45.2192" lon="5.58183">
        <ele>1268.7</ele>
        <time>2016-07-29T13:38:39Z</time>
      </trkpt>
      <trkpt lat="45.21912" lon="5.5819">
        <ele>1269.7</ele>
        <time>2016-07-29T13:38:44Z</time>
      </trkpt>
      <trkpt lat="45.21902" lon="5.58193">
        <ele>1270.6</ele>
        <time>2016-07-29T13:38:49Z</time>
      </trkpt>
      <trkpt lat="45.21893" lon="5.582">
        <ele>1271.4</ele>
        <time>2016-07-29T13:38:54Z</time>
      </trkpt>
      <trkpt lat="45.21885" lon="5.58207">
        <ele>1272.2</ele>
        <time>2016-07-29T13:38:59Z</time>
      </trkpt>
      <trkpt lat="45.21876" lon="5.58212">
        <ele>1272.4</ele>
        <time>2016-07-29T13:39:04Z</time>
      </trkpt>
      <trkpt lat="45.21869" lon="5.58221">
        <ele>1273.1</ele>
        <time>2016-07-29T13:39:08Z</time>
      </trkpt>
      <trkpt lat="45.2186" lon="5.58226">
        <ele>1274</ele>
        <time>2016-07-29T13:39:13Z</time>
      </trkpt>
      <trkpt lat="45.2185" lon="5.5823">
        <ele>1274.8</ele>
        <time>2016-07-29T13:39:18Z</time>
      </trkpt>
      <trkpt lat="45.21841" lon="5.58233">
        <ele>1275.3</ele>
        <time>2016-07-29T13:39:23Z</time>
      </trkpt>
      <trkpt lat="45.21831" lon="5.58235">
        <ele>1275.9</ele>
        <time>2016-07-29T13:39:28Z</time>
      </trkpt>
      <trkpt lat="45.2182" lon="5.58237">
        <ele>1276.6</ele>
        <time>2016-07-29T13:39:33Z</time>
      </trkpt>
      <trkpt lat="45.2181" lon="5.58239">
        <ele>1276.9</ele>
        <time>2016-07-29T13:39:37Z</time>
      </trkpt>
      <trkpt lat="45.218" lon="5.58241">
        <ele>1277.3</ele>
        <time>2016-07-29T13:39:41Z</time>
      </trkpt>
      <trkpt lat="45.21789" lon="5.58242">
        <ele>1277.7</ele>
        <time>2016-07-29T13:39:45Z</time>
      </trkpt>
      <trkpt lat="45.21779" lon="5.58243">
        <ele>1278</ele>
        <time>2016-07-29T13:39:49Z</time>
      </trkpt>
      <trkpt lat="45.21768" lon="5.58244">
        <ele>1278.4</ele>
        <time>2016-07-29T13:39:53Z</time>
      </trkpt>
      <trkpt lat="45.21757" lon="5.58245">
        <ele>1278.8</ele>
        <time>2016-07-29T13:39:57Z</time>
      </trkpt>
      <trkpt lat="45.21746" lon="5.58246">
        <ele>1278.9</ele>
        <time>2016-07-29T13:40:01Z</time>
      </trkpt>
      <trkpt lat="45.21736" lon="5.58248">
        <ele>1279.2</ele>
        <time>2016-07-29T13:40:05Z</time>
      </trkpt>
      <trkpt lat="45.21726" lon="5.58248">
        <ele>1279.4</ele>
        <time>2016-07-29T13:40:09Z</time>
      </trkpt>
      <trkpt lat="45.21715" lon="5.58247">
        <ele>1279.8</ele>
        <time>2016-07-29T13:40:13Z</time>
      </trkpt>
      <trkpt lat="45.21705" lon="5.58246">
        <ele>1280.4</ele>
        <time>2016-07-29T13:40:17Z</time>
      </trkpt>
      <trkpt lat="45.21695" lon="5.5824">
        <ele>1281.3</ele>
        <time>2016-07-29T13:40:21Z</time>
      </trkpt>
      <trkpt lat="45.21686" lon="5.58236">
        <ele>1281.9</ele>
        <time>2016-07-29T13:40:25Z</time>
      </trkpt>
      <trkpt lat="45.21676" lon="5.58234">
        <ele>1283</ele>
        <time>2016-07-29T13:40:30Z</time>
      </trkpt>
      <trkpt lat="45.21666" lon="5.58232">
        <ele>1283.9</ele>
        <time>2016-07-29T13:40:34Z</time>
      </trkpt>
      <trkpt lat="45.21656" lon="5.58234">
        <ele>1284.8</ele>
        <time>2016-07-29T13:40:39Z</time>
      </trkpt>
      <trkpt lat="45.21646" lon="5.58233">
        <ele>1285.7</ele>
        <time>2016-07-29T13:40:44Z</time>
      </trkpt>
      <trkpt lat="45.21636" lon="5.58231">
        <ele>1286.5</ele>
        <time>2016-07-29T13:40:49Z</time>
      </trkpt>
      <trkpt lat="45.21625" lon="5.58226">
        <ele>1287</ele>
        <time>2016-07-29T13:40:54Z</time>
      </trkpt>
      <trkpt lat="45.21616" lon="5.58223">
        <ele>1287.5</ele>
        <time>2016-07-29T13:40:59Z</time>
      </trkpt>
      <trkpt lat="45.21605" lon="5.58216">
        <ele>1287.9</ele>
        <time>2016-07-29T13:41:05Z</time>
      </trkpt>
      <trkpt lat="45.21596" lon="5.58206">
        <ele>1288.7</ele>
        <time>2016-07-29T13:41:10Z</time>
      </trkpt>
      <trkpt lat="45.21588" lon="5.58196">
        <ele>1289.5</ele>
        <time>2016-07-29T13:41:15Z</time>
      </trkpt>
      <trkpt lat="45.21579" lon="5.58187">
        <ele>1290.5</ele>
        <time>2016-07-29T13:41:20Z</time>
      </trkpt>
      <trkpt lat="45.2157" lon="5.58184">
        <ele>1291.3</ele>
        <time>2016-07-29T13:41:24Z</time>
      </trkpt>
      <trkpt lat="45.21563" lon="5.58194">
        <ele>1292.1</ele>
        <time>2016-07-29T13:41:29Z</time>
      </trkpt>
      <trkpt lat="45.21572" lon="5.58203">
        <ele>1292.8</ele>
        <time>2016-07-29T13:41:35Z</time>
      </trkpt>
      <trkpt lat="45.21581" lon="5.58209">
        <ele>1293.3</ele>
        <time>2016-07-29T13:41:40Z</time>
      </trkpt>
      <trkpt lat="45.21589" lon="5.58217">
        <ele>1294.5</ele>
        <time>2016-07-29T13:41:46Z</time>
      </trkpt>
      <trkpt lat="45.21598" lon="5.58224">
        <ele>1295.6</ele>
        <time>2016-07-29T13:41:53Z</time>
      </trkpt>
      <trkpt lat="45.21606" lon="5.58231">
        <ele>1296.5</ele>
        <time>2016-07-29T13:41:58Z</time>
      </trkpt>
      <trkpt lat="45.21614" lon="5.58237">
        <ele>1297.7</ele>
        <time>2016-07-29T13:42:05Z</time>
      </trkpt>
      <trkpt lat="45.21624" lon="5.58241">
        <ele>1298.7</ele>
        <time>2016-07-29T13:42:11Z</time>
      </trkpt>
      <trkpt lat="45.21632" lon="5.58245">
        <ele>1300</ele>
        <time>2016-07-29T13:42:18Z</time>
      </trkpt>
      <trkpt lat="45.21641" lon="5.58251">
        <ele>1301.1</ele>
        <time>2016-07-29T13:42:24Z</time>
      </trkpt>
      <trkpt lat="45.21651" lon="5.58258">
        <ele>1302.4</ele>
        <time>2016-07-29T13:42:31Z</time>
      </trkpt>
      <trkpt lat="45.21658" lon="5.58266">
        <ele>1303.7</ele>
        <time>2016-07-29T13:42:38Z</time>
      </trkpt>
      <trkpt lat="45.21666" lon="5.58276">
        <ele>1304.3</ele>
        <time>2016-07-29T13:42:43Z</time>
      </trkpt>
      <trkpt lat="45.21674" lon="5.58283">
        <ele>1305.7</ele>
        <time>2016-07-29T13:42:50Z</time>
      </trkpt>
      <trkpt lat="45.21682" lon="5.58289">
        <ele>1307.1</ele>
        <time>2016-07-29T13:42:57Z</time>
      </trkpt>
      <trkpt lat="45.2169" lon="5.58296">
        <ele>1308.3</ele>
        <time>2016-07-29T13:43:04Z</time>
      </trkpt>
      <trkpt lat="45.21698" lon="5.58303">
        <ele>1309.6</ele>
        <time>2016-07-29T13:43:11Z</time>
      </trkpt>
      <trkpt lat="45.21706" lon="5.5831">
        <ele>1310.9</ele>
        <time>2016-07-29T13:43:18Z</time>
      </trkpt>
      <trkpt lat="45.21714" lon="5.58318">
        <ele>1312.1</ele>
        <time>2016-07-29T13:43:25Z</time>
      </trkpt>
      <trkpt lat="45.21722" lon="5.58324">
        <ele>1312.8</ele>
        <time>2016-07-29T13:43:31Z</time>
      </trkpt>
      <trkpt lat="45.21731" lon="5.58331">
        <ele>1313.8</ele>
        <time>2016-07-29T13:43:37Z</time>
      </trkpt>
      <trkpt lat="45.21739" lon="5.58337">
        <ele>1315.1</ele>
        <time>2016-07-29T13:43:43Z</time>
      </trkpt>
      <trkpt lat="45.21747" lon="5.58344">
        <ele>1316</ele>
        <time>2016-07-29T13:43:49Z</time>
      </trkpt>
      <trkpt lat="45.21754" lon="5.58355">
        <ele>1317.2</ele>
        <time>2016-07-29T13:43:56Z</time>
      </trkpt>
      <trkpt lat="45.21747" lon="5.58363">
        <ele>1319</ele>
        <time>2016-07-29T13:44:05Z</time>
      </trkpt>
      <trkpt lat="45.21737" lon="5.58358">
        <ele>1320.4</ele>
        <time>2016-07-29T13:44:12Z</time>
      </trkpt>
      <trkpt lat="45.21728" lon="5.58354">
        <ele>1321.8</ele>
        <time>2016-07-29T13:44:19Z</time>
      </trkpt>
      <trkpt lat="45.21718" lon="5.58352">
        <ele>1322.9</ele>
        <time>2016-07-29T13:44:25Z</time>
      </trkpt>
      <trkpt lat="45.21709" lon="5.5835">
        <ele>1323.6</ele>
        <time>2016-07-29T13:44:30Z</time>
      </trkpt>
      <trkpt lat="45.217" lon="5.58345">
        <ele>1324.2</ele>
        <time>2016-07-29T13:44:35Z</time>
      </trkpt>
      <trkpt lat="45.2169" lon="5.58342">
        <ele>1324.7</ele>
        <time>2016-07-29T13:44:40Z</time>
      </trkpt>
      <trkpt lat="45.2168" lon="5.58339">
        <ele>1325.6</ele>
        <time>2016-07-29T13:44:46Z</time>
      </trkpt>
      <trkpt lat="45.21671" lon="5.58337">
        <ele>1326.5</ele>
        <time>2016-07-29T13:44:52Z</time>
      </trkpt>
      <trkpt lat="45.21661" lon="5.58332">
        <ele>1327</ele>
        <time>2016-07-29T13:44:58Z</time>
      </trkpt>
      <trkpt lat="45.21649" lon="5.58329">
        <ele>1327.8</ele>
        <time>2016-07-29T13:45:05Z</time>
      </trkpt>
      <trkpt lat="45.21639" lon="5.58325">
        <ele>1328.7</ele>
        <time>2016-07-29T13:45:10Z</time>
      </trkpt>
      <trkpt lat="45.21625" lon="5.58321">
        <ele>1329.5</ele>
        <time>2016-07-29T13:45:18Z</time>
      </trkpt>
      <trkpt lat="45.21615" lon="5.58317">
        <ele>1329.9</ele>
        <time>2016-07-29T13:45:23Z</time>
      </trkpt>
      <trkpt lat="45.21606" lon="5.58312">
        <ele>1330.1</ele>
        <time>2016-07-29T13:45:27Z</time>
      </trkpt>
      <trkpt lat="45.21597" lon="5.58306">
        <ele>1330.5</ele>
        <time>2016-07-29T13:45:31Z</time>
      </trkpt>
      <trkpt lat="45.21589" lon="5.58302">
        <ele>1330.9</ele>
        <time>2016-07-29T13:45:35Z</time>
      </trkpt>
      <trkpt lat="45.21579" lon="5.58297">
        <ele>1331.3</ele>
        <time>2016-07-29T13:45:39Z</time>
      </trkpt>
      <trkpt lat="45.21568" lon="5.58293">
        <ele>1332.1</ele>
        <time>2016-07-29T13:45:44Z</time>
      </trkpt>
      <trkpt lat="45.2156" lon="5.5829">
        <ele>1332.7</ele>
        <time>2016-07-29T13:45:48Z</time>
      </trkpt>
      <trkpt lat="45.21548" lon="5.58288">
        <ele>1333.8</ele>
        <time>2016-07-29T13:45:53Z</time>
      </trkpt>
      <trkpt lat="45.21537" lon="5.58288">
        <ele>1334.7</ele>
        <time>2016-07-29T13:45:58Z</time>
      </trkpt>
      <trkpt lat="45.21527" lon="5.58289">
        <ele>1335.6</ele>
        <time>2016-07-29T13:46:03Z</time>
      </trkpt>
      <trkpt lat="45.21517" lon="5.58289">
        <ele>1336.4</ele>
        <time>2016-07-29T13:46:08Z</time>
      </trkpt>
      <trkpt lat="45.21507" lon="5.58291">
        <ele>1336.9</ele>
        <time>2016-07-29T13:46:13Z</time>
      </trkpt>
      <trkpt lat="45.21497" lon="5.58292">
        <ele>1337.6</ele>
        <time>2016-07-29T13:46:18Z</time>
      </trkpt>
      <trkpt lat="45.21488" lon="5.58289">
        <ele>1338.1</ele>
        <time>2016-07-29T13:46:23Z</time>
      </trkpt>
      <trkpt lat="45.21477" lon="5.58286">
        <ele>1338.7</ele>
        <time>2016-07-29T13:46:28Z</time>
      </trkpt>
      <trkpt lat="45.21467" lon="5.58285">
        <ele>1339.7</ele>
        <time>2016-07-29T13:46:34Z</time>
      </trkpt>
      <trkpt lat="45.21458" lon="5.58283">
        <ele>1340.4</ele>
        <time>2016-07-29T13:46:39Z</time>
      </trkpt>
      <trkpt lat="45.21448" lon="5.58281">
        <ele>1341.2</ele>
        <time>2016-07-29T13:46:44Z</time>
      </trkpt>
      <trkpt lat="45.21438" lon="5.5828">
        <ele>1341.8</ele>
        <time>2016-07-29T13:46:49Z</time>
      </trkpt>
      <trkpt lat="45.21428" lon="5.58277">
        <ele>1342.6</ele>
        <time>2016-07-29T13:46:55Z</time>
      </trkpt>
      <trkpt lat="45.21419" lon="5.58272">
        <ele>1343.2</ele>
        <time>2016-07-29T13:46:59Z</time>
      </trkpt>
      <trkpt lat="45.2141" lon="5.58267">
        <ele>1344</ele>
        <time>2016-07-29T13:47:04Z</time>
      </trkpt>
      <trkpt lat="45.214" lon="5.58263">
        <ele>1345.1</ele>
        <time>2016-07-29T13:47:09Z</time>
      </trkpt>
      <trkpt lat="45.2139" lon="5.58261">
        <ele>1345.6</ele>
        <time>2016-07-29T13:47:14Z</time>
      </trkpt>
      <trkpt lat="45.2138" lon="5.58261">
        <ele>1346.4</ele>
        <time>2016-07-29T13:47:19Z</time>
      </trkpt>
      <trkpt lat="45.21368" lon="5.58262">
        <ele>1346</ele>
        <time>2016-07-29T13:47:25Z</time>
      </trkpt>
      <trkpt lat="45.21359" lon="5.58261">
        <ele>1346.8</ele>
        <time>2016-07-29T13:47:29Z</time>
      </trkpt>
      <trkpt lat="45.21348" lon="5.58263">
        <ele>1347.3</ele>
        <time>2016-07-29T13:47:33Z</time>
      </trkpt>
      <trkpt lat="45.21338" lon="5.58263">
        <ele>1347.6</ele>
        <time>2016-07-29T13:47:38Z</time>
      </trkpt>
      <trkpt lat="45.21328" lon="5.58265">
        <ele>1347.8</ele>
        <time>2016-07-29T13:47:42Z</time>
      </trkpt>
      <trkpt lat="45.21318" lon="5.5827">
        <ele>1348</ele>
        <time>2016-07-29T13:47:46Z</time>
      </trkpt>
      <trkpt lat="45.21308" lon="5.58273">
        <ele>1348.6</ele>
        <time>2016-07-29T13:47:50Z</time>
      </trkpt>
      <trkpt lat="45.213" lon="5.58276">
        <ele>1347.4</ele>
        <time>2016-07-29T13:47:54Z</time>
      </trkpt>
      <trkpt lat="45.2129" lon="5.58277">
        <ele>1348.8</ele>
        <time>2016-07-29T13:47:58Z</time>
      </trkpt>
      <trkpt lat="45.21279" lon="5.58273">
        <ele>1349.9</ele>
        <time>2016-07-29T13:48:03Z</time>
      </trkpt>
      <trkpt lat="45.2127" lon="5.58266">
        <ele>1350.2</ele>
        <time>2016-07-29T13:48:07Z</time>
      </trkpt>
      <trkpt lat="45.2126" lon="5.58264">
        <ele>1350.3</ele>
        <time>2016-07-29T13:48:12Z</time>
      </trkpt>
      <trkpt lat="45.2125" lon="5.58262">
        <ele>1350.2</ele>
        <time>2016-07-29T13:48:15Z</time>
      </trkpt>
      <trkpt lat="45.21238" lon="5.58256">
        <ele>1350.8</ele>
        <time>2016-07-29T13:48:19Z</time>
      </trkpt>
      <trkpt lat="45.21228" lon="5.58253">
        <ele>1351.4</ele>
        <time>2016-07-29T13:48:23Z</time>
      </trkpt>
      <trkpt lat="45.21217" lon="5.5825">
        <ele>1351.8</ele>
        <time>2016-07-29T13:48:27Z</time>
      </trkpt>
      <trkpt lat="45.21208" lon="5.58248">
        <ele>1352.3</ele>
        <time>2016-07-29T13:48:31Z</time>
      </trkpt>
      <trkpt lat="45.21197" lon="5.58245">
        <ele>1353</ele>
        <time>2016-07-29T13:48:35Z</time>
      </trkpt>
      <trkpt lat="45.21188" lon="5.58239">
        <ele>1353.5</ele>
        <time>2016-07-29T13:48:38Z</time>
      </trkpt>
      <trkpt lat="45.21178" lon="5.58238">
        <ele>1353.9</ele>
        <time>2016-07-29T13:48:42Z</time>
      </trkpt>
      <trkpt lat="45.21168" lon="5.58235">
        <ele>1354.2</ele>
        <time>2016-07-29T13:48:46Z</time>
      </trkpt>
      <trkpt lat="45.21158" lon="5.58233">
        <ele>1354.6</ele>
        <time>2016-07-29T13:48:50Z</time>
      </trkpt>
      <trkpt lat="45.21149" lon="5.58234">
        <ele>1355</ele>
        <time>2016-07-29T13:48:54Z</time>
      </trkpt>
      <trkpt lat="45.21139" lon="5.58234">
        <ele>1355.3</ele>
        <time>2016-07-29T13:48:58Z</time>
      </trkpt>
      <trkpt lat="45.2113" lon="5.5823">
        <ele>1355.3</ele>
        <time>2016-07-29T13:49:01Z</time>
      </trkpt>
      <trkpt lat="45.21119" lon="5.58226">
        <ele>1355.4</ele>
        <time>2016-07-29T13:49:05Z</time>
      </trkpt>
      <trkpt lat="45.21109" lon="5.5822">
        <ele>1355.5</ele>
        <time>2016-07-29T13:49:09Z</time>
      </trkpt>
      <trkpt lat="45.21099" lon="5.58218">
        <ele>1356</ele>
        <time>2016-07-29T13:49:13Z</time>
      </trkpt>
      <trkpt lat="45.21089" lon="5.58215">
        <ele>1356.6</ele>
        <time>2016-07-29T13:49:17Z</time>
      </trkpt>
      <trkpt lat="45.2108" lon="5.58212">
        <ele>1357.1</ele>
        <time>2016-07-29T13:49:21Z</time>
      </trkpt>
      <trkpt lat="45.2107" lon="5.58207">
        <ele>1357.5</ele>
        <time>2016-07-29T13:49:25Z</time>
      </trkpt>
      <trkpt lat="45.21059" lon="5.58201">
        <ele>1358.3</ele>
        <time>2016-07-29T13:49:30Z</time>
      </trkpt>
      <trkpt lat="45.2105" lon="5.58196">
        <ele>1358.9</ele>
        <time>2016-07-29T13:49:35Z</time>
      </trkpt>
      <trkpt lat="45.21041" lon="5.58188">
        <ele>1359.3</ele>
        <time>2016-07-29T13:49:39Z</time>
      </trkpt>
      <trkpt lat="45.21032" lon="5.58186">
        <ele>1359.6</ele>
        <time>2016-07-29T13:49:42Z</time>
      </trkpt>
      <trkpt lat="45.21022" lon="5.58183">
        <ele>1360.6</ele>
        <time>2016-07-29T13:49:46Z</time>
      </trkpt>
      <trkpt lat="45.21013" lon="5.58181">
        <ele>1361.2</ele>
        <time>2016-07-29T13:49:50Z</time>
      </trkpt>
      <trkpt lat="45.21002" lon="5.58179">
        <ele>1362.2</ele>
        <time>2016-07-29T13:49:55Z</time>
      </trkpt>
      <trkpt lat="45.2099" lon="5.5818">
        <ele>1362.8</ele>
        <time>2016-07-29T13:50:00Z</time>
      </trkpt>
      <trkpt lat="45.20981" lon="5.58179">
        <ele>1363.1</ele>
        <time>2016-07-29T13:50:04Z</time>
      </trkpt>
      <trkpt lat="45.20971" lon="5.58177">
        <ele>1363.6</ele>
        <time>2016-07-29T13:50:08Z</time>
      </trkpt>
      <trkpt lat="45.2096" lon="5.58177">
        <ele>1364.3</ele>
        <time>2016-07-29T13:50:13Z</time>
      </trkpt>
      <trkpt lat="45.2095" lon="5.58176">
        <ele>1364.8</ele>
        <time>2016-07-29T13:50:18Z</time>
      </trkpt>
      <trkpt lat="45.2094" lon="5.58175">
        <ele>1365.4</ele>
        <time>2016-07-29T13:50:23Z</time>
      </trkpt>
      <trkpt lat="45.20929" lon="5.58169">
        <ele>1366.1</ele>
        <time>2016-07-29T13:50:27Z</time>
      </trkpt>
      <trkpt lat="45.2092" lon="5.58165">
        <ele>1367.1</ele>
        <time>2016-07-29T13:50:32Z</time>
      </trkpt>
      <trkpt lat="45.2091" lon="5.58162">
        <ele>1367.5</ele>
        <time>2016-07-29T13:50:36Z</time>
      </trkpt>
      <trkpt lat="45.209" lon="5.5816">
        <ele>1368.2</ele>
        <time>2016-07-29T13:50:41Z</time>
      </trkpt>
      <trkpt lat="45.2089" lon="5.58155">
        <ele>1368.8</ele>
        <time>2016-07-29T13:50:45Z</time>
      </trkpt>
      <trkpt lat="45.2088" lon="5.58151">
        <ele>1369.4</ele>
        <time>2016-07-29T13:50:49Z</time>
      </trkpt>
      <trkpt lat="45.20869" lon="5.58149">
        <ele>1370.2</ele>
        <time>2016-07-29T13:50:54Z</time>
      </trkpt>
      <trkpt lat="45.20859" lon="5.5815">
        <ele>1371</ele>
        <time>2016-07-29T13:50:59Z</time>
      </trkpt>
      <trkpt lat="45.20849" lon="5.5815">
        <ele>1371.2</ele>
        <time>2016-07-29T13:51:03Z</time>
      </trkpt>
      <trkpt lat="45.20839" lon="5.58153">
        <ele>1372.2</ele>
        <time>2016-07-29T13:51:08Z</time>
      </trkpt>
      <trkpt lat="45.20827" lon="5.58154">
        <ele>1373.4</ele>
        <time>2016-07-29T13:51:13Z</time>
      </trkpt>
      <trkpt lat="45.20819" lon="5.58159">
        <ele>1374.1</ele>
        <time>2016-07-29T13:51:17Z</time>
      </trkpt>
      <trkpt lat="45.20809" lon="5.58165">
        <ele>1374.8</ele>
        <time>2016-07-29T13:51:22Z</time>
      </trkpt>
      <trkpt lat="45.20802" lon="5.58172">
        <ele>1375.6</ele>
        <time>2016-07-29T13:51:27Z</time>
      </trkpt>
      <trkpt lat="45.20796" lon="5.58182">
        <ele>1376.6</ele>
        <time>2016-07-29T13:51:32Z</time>
      </trkpt>
      <trkpt lat="45.2079" lon="5.58195">
        <ele>1377.2</ele>
        <time>2016-07-29T13:51:37Z</time>
      </trkpt>
      <trkpt lat="45.20785" lon="5.58207">
        <ele>1377.7</ele>
        <time>2016-07-29T13:51:42Z</time>
      </trkpt>
      <trkpt lat="45.20777" lon="5.58216">
        <ele>1378.3</ele>
        <time>2016-07-29T13:51:47Z</time>
      </trkpt>
      <trkpt lat="45.20767" lon="5.58223">
        <ele>1378.8</ele>
        <time>2016-07-29T13:51:52Z</time>
      </trkpt>
      <trkpt lat="45.20758" lon="5.58227">
        <ele>1379.3</ele>
        <time>2016-07-29T13:51:56Z</time>
      </trkpt>
      <trkpt lat="45.20747" lon="5.5823">
        <ele>1379.3</ele>
        <time>2016-07-29T13:52:00Z</time>
      </trkpt>
      <trkpt lat="45.20737" lon="5.58227">
        <ele>1379</ele>
        <time>2016-07-29T13:52:04Z</time>
      </trkpt>
      <trkpt lat="45.20726" lon="5.58227">
        <ele>1378.4</ele>
        <time>2016-07-29T13:52:09Z</time>
      </trkpt>
      <trkpt lat="45.20718" lon="5.58219">
        <ele>1377.5</ele>
        <time>2016-07-29T13:52:13Z</time>
      </trkpt>
      <trkpt lat="45.20711" lon="5.58206">
        <ele>1377.2</ele>
        <time>2016-07-29T13:52:15Z</time>
      </trkpt>
      <trkpt lat="45.20705" lon="5.5819">
        <ele>1376.8</ele>
        <time>2016-07-29T13:52:17Z</time>
      </trkpt>
      <trkpt lat="45.20699" lon="5.58177">
        <ele>1376.4</ele>
        <time>2016-07-29T13:52:19Z</time>
      </trkpt>
      <trkpt lat="45.20695" lon="5.58163">
        <ele>1375.9</ele>
        <time>2016-07-29T13:52:21Z</time>
      </trkpt>
      <trkpt lat="45.20691" lon="5.58149">
        <ele>1375.5</ele>
        <time>2016-07-29T13:52:23Z</time>
      </trkpt>
      <trkpt lat="45.20685" lon="5.58139">
        <ele>1374.4</ele>
        <time>2016-07-29T13:52:25Z</time>
      </trkpt>
      <trkpt lat="45.20677" lon="5.5813">
        <ele>1373.7</ele>
        <time>2016-07-29T13:52:27Z</time>
      </trkpt>
      <trkpt lat="45.20668" lon="5.58124">
        <ele>1373</ele>
        <time>2016-07-29T13:52:29Z</time>
      </trkpt>
      <trkpt lat="45.20658" lon="5.5812">
        <ele>1372.6</ele>
        <time>2016-07-29T13:52:31Z</time>
      </trkpt>
      <trkpt lat="45.20647" lon="5.58119">
        <ele>1372</ele>
        <time>2016-07-29T13:52:34Z</time>
      </trkpt>
      <trkpt lat="45.20638" lon="5.58125">
        <ele>1371.5</ele>
        <time>2016-07-29T13:52:37Z</time>
      </trkpt>
      <trkpt lat="45.20633" lon="5.58139">
        <ele>1370.6</ele>
        <time>2016-07-29T13:52:40Z</time>
      </trkpt>
      <trkpt lat="45.20627" lon="5.58156">
        <ele>1369.6</ele>
        <time>2016-07-29T13:52:43Z</time>
      </trkpt>
      <trkpt lat="45.20623" lon="5.58169">
        <ele>1368.8</ele>
        <time>2016-07-29T13:52:45Z</time>
      </trkpt>
      <trkpt lat="45.2062" lon="5.58182">
        <ele>1368.2</ele>
        <time>2016-07-29T13:52:47Z</time>
      </trkpt>
      <trkpt lat="45.20617" lon="5.58197">
        <ele>1367.3</ele>
        <time>2016-07-29T13:52:49Z</time>
      </trkpt>
      <trkpt lat="45.20613" lon="5.58211">
        <ele>1366.2</ele>
        <time>2016-07-29T13:52:51Z</time>
      </trkpt>
      <trkpt lat="45.20608" lon="5.58223">
        <ele>1365.6</ele>
        <time>2016-07-29T13:52:53Z</time>
      </trkpt>
      <trkpt lat="45.20601" lon="5.58231">
        <ele>1364.8</ele>
        <time>2016-07-29T13:52:55Z</time>
      </trkpt>
      <trkpt lat="45.20592" lon="5.58239">
        <ele>1364.2</ele>
        <time>2016-07-29T13:52:57Z</time>
      </trkpt>
      <trkpt lat="45.20582" lon="5.58244">
        <ele>1363.7</ele>
        <time>2016-07-29T13:52:59Z</time>
      </trkpt>
      <trkpt lat="45.20574" lon="5.58252">
        <ele>1363.2</ele>
        <time>2016-07-29T13:53:01Z</time>
      </trkpt>
      <trkpt lat="45.20563" lon="5.58257">
        <ele>1362.6</ele>
        <time>2016-07-29T13:53:03Z</time>
      </trkpt>
      <trkpt lat="45.20552" lon="5.58262">
        <ele>1361.9</ele>
        <time>2016-07-29T13:53:05Z</time>
      </trkpt>
      <trkpt lat="45.20542" lon="5.58267">
        <ele>1361.4</ele>
        <time>2016-07-29T13:53:07Z</time>
      </trkpt>
      <trkpt lat="45.20533" lon="5.58273">
        <ele>1361.3</ele>
        <time>2016-07-29T13:53:09Z</time>
      </trkpt>
      <trkpt lat="45.20525" lon="5.58285">
        <ele>1361</ele>
        <time>2016-07-29T13:53:12Z</time>
      </trkpt>
      <trkpt lat="45.20518" lon="5.58293">
        <ele>1360.7</ele>
        <time>2016-07-29T13:53:14Z</time>
      </trkpt>
      <trkpt lat="45.20511" lon="5.58302">
        <ele>1360.2</ele>
        <time>2016-07-29T13:53:16Z</time>
      </trkpt>
      <trkpt lat="45.20497" lon="5.58306">
        <ele>1359.2</ele>
        <time>2016-07-29T13:53:19Z</time>
      </trkpt>
      <trkpt lat="45.20485" lon="5.58311">
        <ele>1358.6</ele>
        <time>2016-07-29T13:53:21Z</time>
      </trkpt>
      <trkpt lat="45.20473" lon="5.58311">
        <ele>1357.9</ele>
        <time>2016-07-29T13:53:23Z</time>
      </trkpt>
      <trkpt lat="45.2046" lon="5.58307">
        <ele>1357.5</ele>
        <time>2016-07-29T13:53:25Z</time>
      </trkpt>
      <trkpt lat="45.20449" lon="5.58305">
        <ele>1357.1</ele>
        <time>2016-07-29T13:53:27Z</time>
      </trkpt>
      <trkpt lat="45.20439" lon="5.58303">
        <ele>1357</ele>
        <time>2016-07-29T13:53:29Z</time>
      </trkpt>
      <trkpt lat="45.20426" lon="5.58302">
        <ele>1357.1</ele>
        <time>2016-07-29T13:53:32Z</time>
      </trkpt>
      <trkpt lat="45.20417" lon="5.583">
        <ele>1357.6</ele>
        <time>2016-07-29T13:53:35Z</time>
      </trkpt>
      <trkpt lat="45.20406" lon="5.58293">
        <ele>1358.5</ele>
        <time>2016-07-29T13:53:39Z</time>
      </trkpt>
      <trkpt lat="45.20398" lon="5.58284">
        <ele>1359.1</ele>
        <time>2016-07-29T13:53:43Z</time>
      </trkpt>
      <trkpt lat="45.20393" lon="5.58272">
        <ele>1360.2</ele>
        <time>2016-07-29T13:53:48Z</time>
      </trkpt>
      <trkpt lat="45.2039" lon="5.58258">
        <ele>1360.9</ele>
        <time>2016-07-29T13:53:53Z</time>
      </trkpt>
      <trkpt lat="45.20386" lon="5.58243">
        <ele>1361.5</ele>
        <time>2016-07-29T13:53:56Z</time>
      </trkpt>
      <trkpt lat="45.20384" lon="5.5823">
        <ele>1362.3</ele>
        <time>2016-07-29T13:54:00Z</time>
      </trkpt>
      <trkpt lat="45.20383" lon="5.58217">
        <ele>1363.1</ele>
        <time>2016-07-29T13:54:04Z</time>
      </trkpt>
      <trkpt lat="45.20379" lon="5.58204">
        <ele>1364.2</ele>
        <time>2016-07-29T13:54:10Z</time>
      </trkpt>
      <trkpt lat="45.20372" lon="5.58192">
        <ele>1364.7</ele>
        <time>2016-07-29T13:54:14Z</time>
      </trkpt>
      <trkpt lat="45.20364" lon="5.58185">
        <ele>1365.4</ele>
        <time>2016-07-29T13:54:19Z</time>
      </trkpt>
      <trkpt lat="45.20357" lon="5.58175">
        <ele>1366</ele>
        <time>2016-07-29T13:54:23Z</time>
      </trkpt>
      <trkpt lat="45.20347" lon="5.58163">
        <ele>1366</ele>
        <time>2016-07-29T13:54:29Z</time>
      </trkpt>
      <trkpt lat="45.20339" lon="5.58155">
        <ele>1366.1</ele>
        <time>2016-07-29T13:54:36Z</time>
      </trkpt>
      <trkpt lat="45.20333" lon="5.58141">
        <ele>1366.2</ele>
        <time>2016-07-29T13:54:40Z</time>
      </trkpt>
      <trkpt lat="45.2033" lon="5.58125">
        <ele>1366.5</ele>
        <time>2016-07-29T13:54:43Z</time>
      </trkpt>
      <trkpt lat="45.20329" lon="5.58105">
        <ele>1367</ele>
        <time>2016-07-29T13:54:48Z</time>
      </trkpt>
      <trkpt lat="45.20327" lon="5.58091">
        <ele>1367.2</ele>
        <time>2016-07-29T13:54:51Z</time>
      </trkpt>
      <trkpt lat="45.20325" lon="5.58077">
        <ele>1367.4</ele>
        <time>2016-07-29T13:54:54Z</time>
      </trkpt>
      <trkpt lat="45.20323" lon="5.5806">
        <ele>1367.5</ele>
        <time>2016-07-29T13:54:58Z</time>
      </trkpt>
      <trkpt lat="45.2032" lon="5.58046">
        <ele>1367.3</ele>
        <time>2016-07-29T13:55:01Z</time>
      </trkpt>
      <trkpt lat="45.20316" lon="5.58033">
        <ele>1367.2</ele>
        <time>2016-07-29T13:55:04Z</time>
      </trkpt>
      <trkpt lat="45.20309" lon="5.58022">
        <ele>1366.9</ele>
        <time>2016-07-29T13:55:07Z</time>
      </trkpt>
      <trkpt lat="45.203" lon="5.58015">
        <ele>1366.6</ele>
        <time>2016-07-29T13:55:10Z</time>
      </trkpt>
      <trkpt lat="45.2029" lon="5.58011">
        <ele>1366.3</ele>
        <time>2016-07-29T13:55:13Z</time>
      </trkpt>
      <trkpt lat="45.20278" lon="5.58009">
        <ele>1366.5</ele>
        <time>2016-07-29T13:55:17Z</time>
      </trkpt>
      <trkpt lat="45.20267" lon="5.58004">
        <ele>1366.8</ele>
        <time>2016-07-29T13:55:21Z</time>
      </trkpt>
      <trkpt lat="45.20257" lon="5.58002">
        <ele>1367.5</ele>
        <time>2016-07-29T13:55:25Z</time>
      </trkpt>
      <trkpt lat="45.20247" lon="5.58001">
        <ele>1368.2</ele>
        <time>2016-07-29T13:55:29Z</time>
      </trkpt>
      <trkpt lat="45.20238" lon="5.57998">
        <ele>1369.1</ele>
        <time>2016-07-29T13:55:33Z</time>
      </trkpt>
      <trkpt lat="45.20228" lon="5.57997">
        <ele>1369.9</ele>
        <time>2016-07-29T13:55:37Z</time>
      </trkpt>
      <trkpt lat="45.20218" lon="5.57997">
        <ele>1370.3</ele>
        <time>2016-07-29T13:55:41Z</time>
      </trkpt>
      <trkpt lat="45.20206" lon="5.57997">
        <ele>1371</ele>
        <time>2016-07-29T13:55:45Z</time>
      </trkpt>
      <trkpt lat="45.20196" lon="5.57997">
        <ele>1371.5</ele>
        <time>2016-07-29T13:55:49Z</time>
      </trkpt>
      <trkpt lat="45.20185" lon="5.57996">
        <ele>1371.8</ele>
        <time>2016-07-29T13:55:53Z</time>
      </trkpt>
      <trkpt lat="45.20174" lon="5.57997">
        <ele>1372</ele>
        <time>2016-07-29T13:55:57Z</time>
      </trkpt>
      <trkpt lat="45.20164" lon="5.57997">
        <ele>1372.8</ele>
        <time>2016-07-29T13:56:01Z</time>
      </trkpt>
      <trkpt lat="45.20155" lon="5.57996">
        <ele>1372.3</ele>
        <time>2016-07-29T13:56:05Z</time>
      </trkpt>
      <trkpt lat="45.20145" lon="5.57991">
        <ele>1372.2</ele>
        <time>2016-07-29T13:56:10Z</time>
      </trkpt>
      <trkpt lat="45.20135" lon="5.57983">
        <ele>1372.2</ele>
        <time>2016-07-29T13:56:14Z</time>
      </trkpt>
      <trkpt lat="45.20124" lon="5.57976">
        <ele>1372.8</ele>
        <time>2016-07-29T13:56:18Z</time>
      </trkpt>
      <trkpt lat="45.20114" lon="5.57972">
        <ele>1373.3</ele>
        <time>2016-07-29T13:56:22Z</time>
      </trkpt>
      <trkpt lat="45.20105" lon="5.57966">
        <ele>1374</ele>
        <time>2016-07-29T13:56:25Z</time>
      </trkpt>
      <trkpt lat="45.20096" lon="5.57964">
        <ele>1374.9</ele>
        <time>2016-07-29T13:56:29Z</time>
      </trkpt>
      <trkpt lat="45.20085" lon="5.57965">
        <ele>1375</ele>
        <time>2016-07-29T13:56:34Z</time>
      </trkpt>
      <trkpt lat="45.20075" lon="5.57967">
        <ele>1376.9</ele>
        <time>2016-07-29T13:56:39Z</time>
      </trkpt>
      <trkpt lat="45.20065" lon="5.57969">
        <ele>1378.1</ele>
        <time>2016-07-29T13:56:44Z</time>
      </trkpt>
      <trkpt lat="45.20056" lon="5.57971">
        <ele>1379.4</ele>
        <time>2016-07-29T13:56:49Z</time>
      </trkpt>
      <trkpt lat="45.20047" lon="5.57973">
        <ele>1380.4</ele>
        <time>2016-07-29T13:56:54Z</time>
      </trkpt>
      <trkpt lat="45.20033" lon="5.57975">
        <ele>1381.2</ele>
        <time>2016-07-29T13:57:01Z</time>
      </trkpt>
      <trkpt lat="45.20023" lon="5.57978">
        <ele>1381.8</ele>
        <time>2016-07-29T13:57:06Z</time>
      </trkpt>
      <trkpt lat="45.20013" lon="5.57975">
        <ele>1382.4</ele>
        <time>2016-07-29T13:57:11Z</time>
      </trkpt>
      <trkpt lat="45.20001" lon="5.57973">
        <ele>1382</ele>
        <time>2016-07-29T13:57:17Z</time>
      </trkpt>
      <trkpt lat="45.19992" lon="5.57969">
        <ele>1382.7</ele>
        <time>2016-07-29T13:57:21Z</time>
      </trkpt>
      <trkpt lat="45.19983" lon="5.57964">
        <ele>1382.6</ele>
        <time>2016-07-29T13:57:24Z</time>
      </trkpt>
      <trkpt lat="45.19973" lon="5.57958">
        <ele>1382.2</ele>
        <time>2016-07-29T13:57:27Z</time>
      </trkpt>
      <trkpt lat="45.19964" lon="5.57952">
        <ele>1381.8</ele>
        <time>2016-07-29T13:57:29Z</time>
      </trkpt>
      <trkpt lat="45.19952" lon="5.57942">
        <ele>1381.5</ele>
        <time>2016-07-29T13:57:32Z</time>
      </trkpt>
      <trkpt lat="45.19941" lon="5.5794">
        <ele>1381.1</ele>
        <time>2016-07-29T13:57:35Z</time>
      </trkpt>
      <trkpt lat="45.19932" lon="5.57936">
        <ele>1381</ele>
        <time>2016-07-29T13:57:38Z</time>
      </trkpt>
      <trkpt lat="45.19921" lon="5.5793">
        <ele>1381.1</ele>
        <time>2016-07-29T13:57:42Z</time>
      </trkpt>
      <trkpt lat="45.19912" lon="5.57928">
        <ele>1381.4</ele>
        <time>2016-07-29T13:57:46Z</time>
      </trkpt>
      <trkpt lat="45.19904" lon="5.57922">
        <ele>1382</ele>
        <time>2016-07-29T13:57:49Z</time>
      </trkpt>
      <trkpt lat="45.19894" lon="5.57917">
        <ele>1382.7</ele>
        <time>2016-07-29T13:57:53Z</time>
      </trkpt>
      <trkpt lat="45.19886" lon="5.57914">
        <ele>1383.5</ele>
        <time>2016-07-29T13:57:57Z</time>
      </trkpt>
      <trkpt lat="45.19877" lon="5.57907">
        <ele>1384.2</ele>
        <time>2016-07-29T13:58:01Z</time>
      </trkpt>
      <trkpt lat="45.19867" lon="5.57902">
        <ele>1384.7</ele>
        <time>2016-07-29T13:58:05Z</time>
      </trkpt>
      <trkpt lat="45.19857" lon="5.579">
        <ele>1385.6</ele>
        <time>2016-07-29T13:58:09Z</time>
      </trkpt>
      <trkpt lat="45.19846" lon="5.57897">
        <ele>1386.1</ele>
        <time>2016-07-29T13:58:13Z</time>
      </trkpt>
      <trkpt lat="45.19837" lon="5.579">
        <ele>1386.7</ele>
        <time>2016-07-29T13:58:17Z</time>
      </trkpt>
      <trkpt lat="45.19826" lon="5.57897">
        <ele>1387.3</ele>
        <time>2016-07-29T13:58:21Z</time>
      </trkpt>
      <trkpt lat="45.19817" lon="5.57896">
        <ele>1388</ele>
        <time>2016-07-29T13:58:25Z</time>
      </trkpt>
      <trkpt lat="45.19807" lon="5.57895">
        <ele>1388.5</ele>
        <time>2016-07-29T13:58:29Z</time>
      </trkpt>
      <trkpt lat="45.19797" lon="5.57894">
        <ele>1389.5</ele>
        <time>2016-07-29T13:58:33Z</time>
      </trkpt>
      <trkpt lat="45.19787" lon="5.57893">
        <ele>1390.4</ele>
        <time>2016-07-29T13:58:37Z</time>
      </trkpt>
      <trkpt lat="45.19778" lon="5.57891">
        <ele>1391</ele>
        <time>2016-07-29T13:58:41Z</time>
      </trkpt>
      <trkpt lat="45.19768" lon="5.57889">
        <ele>1391.7</ele>
        <time>2016-07-29T13:58:45Z</time>
      </trkpt>
      <trkpt lat="45.19757" lon="5.57889">
        <ele>1392.5</ele>
        <time>2016-07-29T13:58:50Z</time>
      </trkpt>
      <trkpt lat="45.19747" lon="5.57888">
        <ele>1392.8</ele>
        <time>2016-07-29T13:58:54Z</time>
      </trkpt>
      <trkpt lat="45.19736" lon="5.57887">
        <ele>1393.3</ele>
        <time>2016-07-29T13:58:58Z</time>
      </trkpt>
      <trkpt lat="45.19725" lon="5.57887">
        <ele>1393.6</ele>
        <time>2016-07-29T13:59:02Z</time>
      </trkpt>
      <trkpt lat="45.19715" lon="5.57889">
        <ele>1394</ele>
        <time>2016-07-29T13:59:06Z</time>
      </trkpt>
      <trkpt lat="45.19704" lon="5.57892">
        <ele>1394.4</ele>
        <time>2016-07-29T13:59:10Z</time>
      </trkpt>
      <trkpt lat="45.19694" lon="5.57899">
        <ele>1394.6</ele>
        <time>2016-07-29T13:59:14Z</time>
      </trkpt>
      <trkpt lat="45.19685" lon="5.57904">
        <ele>1394.3</ele>
        <time>2016-07-29T13:59:17Z</time>
      </trkpt>
      <trkpt lat="45.19676" lon="5.57909">
        <ele>1394</ele>
        <time>2016-07-29T13:59:20Z</time>
      </trkpt>
      <trkpt lat="45.19667" lon="5.57913">
        <ele>1393.8</ele>
        <time>2016-07-29T13:59:23Z</time>
      </trkpt>
      <trkpt lat="45.19658" lon="5.57919">
        <ele>1393.6</ele>
        <time>2016-07-29T13:59:26Z</time>
      </trkpt>
      <trkpt lat="45.19648" lon="5.5793">
        <ele>1393.5</ele>
        <time>2016-07-29T13:59:30Z</time>
      </trkpt>
      <trkpt lat="45.19644" lon="5.57942">
        <ele>1393.7</ele>
        <time>2016-07-29T13:59:33Z</time>
      </trkpt>
      <trkpt lat="45.19643" lon="5.57958">
        <ele>1394.1</ele>
        <time>2016-07-29T13:59:37Z</time>
      </trkpt>
      <trkpt lat="45.19643" lon="5.57971">
        <ele>1394.4</ele>
        <time>2016-07-29T13:59:40Z</time>
      </trkpt>
      <trkpt lat="45.19643" lon="5.57985">
        <ele>1394.4</ele>
        <time>2016-07-29T13:59:43Z</time>
      </trkpt>
      <trkpt lat="45.19638" lon="5.58">
        <ele>1394.6</ele>
        <time>2016-07-29T13:59:47Z</time>
      </trkpt>
      <trkpt lat="45.1963" lon="5.58009">
        <ele>1394.8</ele>
        <time>2016-07-29T13:59:51Z</time>
      </trkpt>
      <trkpt lat="45.19622" lon="5.58019">
        <ele>1395</ele>
        <time>2016-07-29T13:59:55Z</time>
      </trkpt>
      <trkpt lat="45.19614" lon="5.58031">
        <ele>1395.7</ele>
        <time>2016-07-29T13:59:59Z</time>
      </trkpt>
      <trkpt lat="45.19611" lon="5.58043">
        <ele>1395.9</ele>
        <time>2016-07-29T14:00:02Z</time>
      </trkpt>
      <trkpt lat="45.19609" lon="5.58059">
        <ele>1396.1</ele>
        <time>2016-07-29T14:00:06Z</time>
      </trkpt>
      <trkpt lat="45.19611" lon="5.58073">
        <ele>1396.1</ele>
        <time>2016-07-29T14:00:09Z</time>
      </trkpt>
      <trkpt lat="45.19613" lon="5.58086">
        <ele>1396</ele>
        <time>2016-07-29T14:00:12Z</time>
      </trkpt>
      <trkpt lat="45.19614" lon="5.58099">
        <ele>1396</ele>
        <time>2016-07-29T14:00:15Z</time>
      </trkpt>
      <trkpt lat="45.19614" lon="5.58113">
        <ele>1395.9</ele>
        <time>2016-07-29T14:00:18Z</time>
      </trkpt>
      <trkpt lat="45.19608" lon="5.58127">
        <ele>1395.3</ele>
        <time>2016-07-29T14:00:21Z</time>
      </trkpt>
      <trkpt lat="45.19598" lon="5.58133">
        <ele>1394.9</ele>
        <time>2016-07-29T14:00:25Z</time>
      </trkpt>
      <trkpt lat="45.19589" lon="5.5814">
        <ele>1395.3</ele>
        <time>2016-07-29T14:01:04Z</time>
      </trkpt>
      <trkpt lat="45.19581" lon="5.58146">
        <ele>1395.7</ele>
        <time>2016-07-29T14:01:29Z</time>
      </trkpt>
      <trkpt lat="45.19571" lon="5.58146">
        <ele>1395.7</ele>
        <time>2016-07-29T14:02:25Z</time>
      </trkpt>
      <trkpt lat="45.19563" lon="5.58153">
        <ele>1396</ele>
        <time>2016-07-29T14:02:29Z</time>
      </trkpt>
      <trkpt lat="45.19553" lon="5.5816">
        <ele>1396</ele>
        <time>2016-07-29T14:02:33Z</time>
      </trkpt>
      <trkpt lat="45.19547" lon="5.58173">
        <ele>1395.8</ele>
        <time>2016-07-29T14:02:37Z</time>
      </trkpt>
      <trkpt lat="45.19536" lon="5.58177">
        <ele>1395.6</ele>
        <time>2016-07-29T14:02:41Z</time>
      </trkpt>
      <trkpt lat="45.19525" lon="5.58175">
        <ele>1395.9</ele>
        <time>2016-07-29T14:02:45Z</time>
      </trkpt>
      <trkpt lat="45.19514" lon="5.58173">
        <ele>1396.5</ele>
        <time>2016-07-29T14:02:50Z</time>
      </trkpt>
      <trkpt lat="45.19505" lon="5.58171">
        <ele>1397.5</ele>
        <time>2016-07-29T14:02:54Z</time>
      </trkpt>
      <trkpt lat="45.19495" lon="5.58167">
        <ele>1398.3</ele>
        <time>2016-07-29T14:02:58Z</time>
      </trkpt>
      <trkpt lat="45.19485" lon="5.58164">
        <ele>1399</ele>
        <time>2016-07-29T14:03:02Z</time>
      </trkpt>
      <trkpt lat="45.19476" lon="5.58163">
        <ele>1399.5</ele>
        <time>2016-07-29T14:03:06Z</time>
      </trkpt>
      <trkpt lat="45.19465" lon="5.58159">
        <ele>1400.2</ele>
        <time>2016-07-29T14:03:10Z</time>
      </trkpt>
      <trkpt lat="45.19455" lon="5.58157">
        <ele>1400.9</ele>
        <time>2016-07-29T14:03:14Z</time>
      </trkpt>
      <trkpt lat="45.19445" lon="5.58155">
        <ele>1401.3</ele>
        <time>2016-07-29T14:03:18Z</time>
      </trkpt>
      <trkpt lat="45.19435" lon="5.58154">
        <ele>1401.8</ele>
        <time>2016-07-29T14:03:22Z</time>
      </trkpt>
      <trkpt lat="45.19424" lon="5.58151">
        <ele>1402</ele>
        <time>2016-07-29T14:03:26Z</time>
      </trkpt>
      <trkpt lat="45.19412" lon="5.58147">
        <ele>1402.1</ele>
        <time>2016-07-29T14:03:30Z</time>
      </trkpt>
      <trkpt lat="45.19403" lon="5.58145">
        <ele>1402.2</ele>
        <time>2016-07-29T14:03:33Z</time>
      </trkpt>
      <trkpt lat="45.19392" lon="5.58144">
        <ele>1402.3</ele>
        <time>2016-07-29T14:03:37Z</time>
      </trkpt>
      <trkpt lat="45.1938" lon="5.58142">
        <ele>1402.7</ele>
        <time>2016-07-29T14:03:41Z</time>
      </trkpt>
      <trkpt lat="45.19369" lon="5.58142">
        <ele>1403.4</ele>
        <time>2016-07-29T14:03:45Z</time>
      </trkpt>
      <trkpt lat="45.19358" lon="5.58143">
        <ele>1403.8</ele>
        <time>2016-07-29T14:03:49Z</time>
      </trkpt>
      <trkpt lat="45.19347" lon="5.58147">
        <ele>1404.4</ele>
        <time>2016-07-29T14:03:53Z</time>
      </trkpt>
      <trkpt lat="45.19336" lon="5.58155">
        <ele>1404.8</ele>
        <time>2016-07-29T14:03:57Z</time>
      </trkpt>
      <trkpt lat="45.19326" lon="5.58164">
        <ele>1405.1</ele>
        <time>2016-07-29T14:04:01Z</time>
      </trkpt>
      <trkpt lat="45.19318" lon="5.58169">
        <ele>1405.1</ele>
        <time>2016-07-29T14:04:04Z</time>
      </trkpt>
      <trkpt lat="45.19307" lon="5.58167">
        <ele>1405.9</ele>
        <time>2016-07-29T14:04:08Z</time>
      </trkpt>
      <trkpt lat="45.19296" lon="5.58161">
        <ele>1406.9</ele>
        <time>2016-07-29T14:04:13Z</time>
      </trkpt>
      <trkpt lat="45.19287" lon="5.58153">
        <ele>1407.4</ele>
        <time>2016-07-29T14:04:17Z</time>
      </trkpt>
      <trkpt lat="45.19278" lon="5.58149">
        <ele>1408.3</ele>
        <time>2016-07-29T14:04:21Z</time>
      </trkpt>
      <trkpt lat="45.19269" lon="5.58146">
        <ele>1409.1</ele>
        <time>2016-07-29T14:04:25Z</time>
      </trkpt>
      <trkpt lat="45.19258" lon="5.58144">
        <ele>1409.7</ele>
        <time>2016-07-29T14:04:29Z</time>
      </trkpt>
      <trkpt lat="45.19247" lon="5.58144">
        <ele>1410.5</ele>
        <time>2016-07-29T14:04:33Z</time>
      </trkpt>
      <trkpt lat="45.19237" lon="5.58142">
        <ele>1411.3</ele>
        <time>2016-07-29T14:04:37Z</time>
      </trkpt>
      <trkpt lat="45.19227" lon="5.58142">
        <ele>1411.8</ele>
        <time>2016-07-29T14:04:41Z</time>
      </trkpt>
      <trkpt lat="45.19218" lon="5.58142">
        <ele>1412.6</ele>
        <time>2016-07-29T14:04:45Z</time>
      </trkpt>
      <trkpt lat="45.19207" lon="5.58143">
        <ele>1413.7</ele>
        <time>2016-07-29T14:04:50Z</time>
      </trkpt>
      <trkpt lat="45.19198" lon="5.58145">
        <ele>1414.2</ele>
        <time>2016-07-29T14:04:54Z</time>
      </trkpt>
      <trkpt lat="45.19188" lon="5.58145">
        <ele>1414.7</ele>
        <time>2016-07-29T14:04:59Z</time>
      </trkpt>
      <trkpt lat="45.19181" lon="5.58134">
        <ele>1414.8</ele>
        <time>2016-07-29T14:05:03Z</time>
      </trkpt>
      <trkpt lat="45.19178" lon="5.58121">
        <ele>1415.1</ele>
        <time>2016-07-29T14:05:07Z</time>
      </trkpt>
      <trkpt lat="45.19174" lon="5.58107">
        <ele>1415.1</ele>
        <time>2016-07-29T14:05:11Z</time>
      </trkpt>
      <trkpt lat="45.19172" lon="5.58092">
        <ele>1415.3</ele>
        <time>2016-07-29T14:05:15Z</time>
      </trkpt>
      <trkpt lat="45.19169" lon="5.58079">
        <ele>1415.5</ele>
        <time>2016-07-29T14:05:18Z</time>
      </trkpt>
      <trkpt lat="45.19165" lon="5.58066">
        <ele>1415.3</ele>
        <time>2016-07-29T14:05:22Z</time>
      </trkpt>
      <trkpt lat="45.19159" lon="5.58055">
        <ele>1415.1</ele>
        <time>2016-07-29T14:05:26Z</time>
      </trkpt>
      <trkpt lat="45.1915" lon="5.58042">
        <ele>1414.1</ele>
        <time>2016-07-29T14:05:29Z</time>
      </trkpt>
      <trkpt lat="45.19139" lon="5.58034">
        <ele>1413.9</ele>
        <time>2016-07-29T14:05:32Z</time>
      </trkpt>
      <trkpt lat="45.19132" lon="5.58026">
        <ele>1413.3</ele>
        <time>2016-07-29T14:05:35Z</time>
      </trkpt>
      <trkpt lat="45.19125" lon="5.58015">
        <ele>1412.9</ele>
        <time>2016-07-29T14:05:37Z</time>
      </trkpt>
      <trkpt lat="45.19121" lon="5.58002">
        <ele>1412.7</ele>
        <time>2016-07-29T14:05:39Z</time>
      </trkpt>
      <trkpt lat="45.19116" lon="5.57989">
        <ele>1412.7</ele>
        <time>2016-07-29T14:05:41Z</time>
      </trkpt>
      <trkpt lat="45.19112" lon="5.57973">
        <ele>1412.7</ele>
        <time>2016-07-29T14:05:44Z</time>
      </trkpt>
      <trkpt lat="45.19109" lon="5.57957">
        <ele>1412.9</ele>
        <time>2016-07-29T14:05:47Z</time>
      </trkpt>
      <trkpt lat="45.19105" lon="5.57944">
        <ele>1413.1</ele>
        <time>2016-07-29T14:05:50Z</time>
      </trkpt>
      <trkpt lat="45.19102" lon="5.57932">
        <ele>1413.3</ele>
        <time>2016-07-29T14:05:53Z</time>
      </trkpt>
      <trkpt lat="45.19099" lon="5.57915">
        <ele>1413.7</ele>
        <time>2016-07-29T14:05:57Z</time>
      </trkpt>
      <trkpt lat="45.19095" lon="5.579">
        <ele>1414.3</ele>
        <time>2016-07-29T14:06:01Z</time>
      </trkpt>
      <trkpt lat="45.19092" lon="5.57888">
        <ele>1414.7</ele>
        <time>2016-07-29T14:06:04Z</time>
      </trkpt>
      <trkpt lat="45.19088" lon="5.57873">
        <ele>1415.2</ele>
        <time>2016-07-29T14:06:08Z</time>
      </trkpt>
      <trkpt lat="45.19083" lon="5.57859">
        <ele>1415.7</ele>
        <time>2016-07-29T14:06:12Z</time>
      </trkpt>
      <trkpt lat="45.19073" lon="5.57857">
        <ele>1416.5</ele>
        <time>2016-07-29T14:06:16Z</time>
      </trkpt>
      <trkpt lat="45.19068" lon="5.57869">
        <ele>1417.4</ele>
        <time>2016-07-29T14:06:21Z</time>
      </trkpt>
      <trkpt lat="45.1907" lon="5.57882">
        <ele>1418</ele>
        <time>2016-07-29T14:06:26Z</time>
      </trkpt>
      <trkpt lat="45.19073" lon="5.57896">
        <ele>1419.4</ele>
        <time>2016-07-29T14:06:32Z</time>
      </trkpt>
      <trkpt lat="45.19076" lon="5.57909">
        <ele>1420.6</ele>
        <time>2016-07-29T14:06:38Z</time>
      </trkpt>
      <trkpt lat="45.19079" lon="5.57924">
        <ele>1421.3</ele>
        <time>2016-07-29T14:06:44Z</time>
      </trkpt>
      <trkpt lat="45.19081" lon="5.57939">
        <ele>1422.4</ele>
        <time>2016-07-29T14:06:50Z</time>
      </trkpt>
      <trkpt lat="45.19083" lon="5.57952">
        <ele>1423.5</ele>
        <time>2016-07-29T14:06:56Z</time>
      </trkpt>
      <trkpt lat="45.19085" lon="5.57967">
        <ele>1425</ele>
        <time>2016-07-29T14:07:02Z</time>
      </trkpt>
      <trkpt lat="45.19086" lon="5.57981">
        <ele>1425.9</ele>
        <time>2016-07-29T14:07:08Z</time>
      </trkpt>
      <trkpt lat="45.19089" lon="5.57996">
        <ele>1426.9</ele>
        <time>2016-07-29T14:07:14Z</time>
      </trkpt>
      <trkpt lat="45.19091" lon="5.58009">
        <ele>1428.2</ele>
        <time>2016-07-29T14:07:20Z</time>
      </trkpt>
      <trkpt lat="45.19093" lon="5.58022">
        <ele>1429</ele>
        <time>2016-07-29T14:07:25Z</time>
      </trkpt>
      <trkpt lat="45.19097" lon="5.58035">
        <ele>1430</ele>
        <time>2016-07-29T14:07:31Z</time>
      </trkpt>
      <trkpt lat="45.19102" lon="5.58047">
        <ele>1430.9</ele>
        <time>2016-07-29T14:07:36Z</time>
      </trkpt>
      <trkpt lat="45.19108" lon="5.58057">
        <ele>1431.8</ele>
        <time>2016-07-29T14:07:41Z</time>
      </trkpt>
      <trkpt lat="45.19114" lon="5.58067">
        <ele>1432.9</ele>
        <time>2016-07-29T14:07:46Z</time>
      </trkpt>
      <trkpt lat="45.19121" lon="5.58077">
        <ele>1433.5</ele>
        <time>2016-07-29T14:07:51Z</time>
      </trkpt>
      <trkpt lat="45.19125" lon="5.58089">
        <ele>1434.4</ele>
        <time>2016-07-29T14:07:56Z</time>
      </trkpt>
      <trkpt lat="45.19129" lon="5.581">
        <ele>1435</ele>
        <time>2016-07-29T14:08:01Z</time>
      </trkpt>
      <trkpt lat="45.19132" lon="5.58114">
        <ele>1435.9</ele>
        <time>2016-07-29T14:08:06Z</time>
      </trkpt>
      <trkpt lat="45.19134" lon="5.58128">
        <ele>1436.9</ele>
        <time>2016-07-29T14:08:11Z</time>
      </trkpt>
      <trkpt lat="45.19135" lon="5.58141">
        <ele>1438</ele>
        <time>2016-07-29T14:08:16Z</time>
      </trkpt>
      <trkpt lat="45.19135" lon="5.58153">
        <ele>1438.9</ele>
        <time>2016-07-29T14:08:21Z</time>
      </trkpt>
      <trkpt lat="45.19136" lon="5.58167">
        <ele>1439.6</ele>
        <time>2016-07-29T14:08:26Z</time>
      </trkpt>
      <trkpt lat="45.19137" lon="5.5818">
        <ele>1440.5</ele>
        <time>2016-07-29T14:08:31Z</time>
      </trkpt>
      <trkpt lat="45.19137" lon="5.58194">
        <ele>1441.2</ele>
        <time>2016-07-29T14:08:36Z</time>
      </trkpt>
      <trkpt lat="45.19138" lon="5.58207">
        <ele>1441.8</ele>
        <time>2016-07-29T14:08:41Z</time>
      </trkpt>
      <trkpt lat="45.19139" lon="5.58221">
        <ele>1442.2</ele>
        <time>2016-07-29T14:08:46Z</time>
      </trkpt>
      <trkpt lat="45.19143" lon="5.58233">
        <ele>1442.9</ele>
        <time>2016-07-29T14:08:51Z</time>
      </trkpt>
      <trkpt lat="45.1915" lon="5.58242">
        <ele>1443.6</ele>
        <time>2016-07-29T14:08:56Z</time>
      </trkpt>
      <trkpt lat="45.19159" lon="5.58247">
        <ele>1444</ele>
        <time>2016-07-29T14:09:01Z</time>
      </trkpt>
      <trkpt lat="45.19169" lon="5.5825">
        <ele>1444.7</ele>
        <time>2016-07-29T14:09:06Z</time>
      </trkpt>
      <trkpt lat="45.19179" lon="5.58254">
        <ele>1445.7</ele>
        <time>2016-07-29T14:09:11Z</time>
      </trkpt>
      <trkpt lat="45.19188" lon="5.58259">
        <ele>1446.4</ele>
        <time>2016-07-29T14:09:16Z</time>
      </trkpt>
      <trkpt lat="45.19197" lon="5.58263">
        <ele>1447.4</ele>
        <time>2016-07-29T14:09:21Z</time>
      </trkpt>
      <trkpt lat="45.19206" lon="5.58267">
        <ele>1448.4</ele>
        <time>2016-07-29T14:09:26Z</time>
      </trkpt>
      <trkpt lat="45.19216" lon="5.58271">
        <ele>1449.3</ele>
        <time>2016-07-29T14:09:31Z</time>
      </trkpt>
      <trkpt lat="45.19226" lon="5.58276">
        <ele>1449.9</ele>
        <time>2016-07-29T14:09:36Z</time>
      </trkpt>
      <trkpt lat="45.19234" lon="5.58282">
        <ele>1450.7</ele>
        <time>2016-07-29T14:09:41Z</time>
      </trkpt>
      <trkpt lat="45.19243" lon="5.58287">
        <ele>1451.6</ele>
        <time>2016-07-29T14:09:46Z</time>
      </trkpt>
      <trkpt lat="45.19252" lon="5.58293">
        <ele>1452.5</ele>
        <time>2016-07-29T14:09:51Z</time>
      </trkpt>
      <trkpt lat="45.1926" lon="5.583">
        <ele>1453.1</ele>
        <time>2016-07-29T14:09:56Z</time>
      </trkpt>
      <trkpt lat="45.19268" lon="5.58307">
        <ele>1453.9</ele>
        <time>2016-07-29T14:10:01Z</time>
      </trkpt>
      <trkpt lat="45.19276" lon="5.58316">
        <ele>1454.9</ele>
        <time>2016-07-29T14:10:06Z</time>
      </trkpt>
      <trkpt lat="45.19282" lon="5.58325">
        <ele>1456.5</ele>
        <time>2016-07-29T14:10:11Z</time>
      </trkpt>
      <trkpt lat="45.19289" lon="5.58336">
        <ele>1456.3</ele>
        <time>2016-07-29T14:10:15Z</time>
      </trkpt>
      <trkpt lat="45.19298" lon="5.58341">
        <ele>1455.8</ele>
        <time>2016-07-29T14:10:19Z</time>
      </trkpt>
      <trkpt lat="45.19309" lon="5.5834">
        <ele>1455.5</ele>
        <time>2016-07-29T14:10:23Z</time>
      </trkpt>
      <trkpt lat="45.19318" lon="5.58339">
        <ele>1455.4</ele>
        <time>2016-07-29T14:10:27Z</time>
      </trkpt>
      <trkpt lat="45.19329" lon="5.58337">
        <ele>1456.2</ele>
        <time>2016-07-29T14:10:32Z</time>
      </trkpt>
      <trkpt lat="45.19338" lon="5.58337">
        <ele>1456.8</ele>
        <time>2016-07-29T14:10:37Z</time>
      </trkpt>
      <trkpt lat="45.19348" lon="5.58338">
        <ele>1457.8</ele>
        <time>2016-07-29T14:10:43Z</time>
      </trkpt>
      <trkpt lat="45.19357" lon="5.5834">
        <ele>1458.7</ele>
        <time>2016-07-29T14:10:49Z</time>
      </trkpt>
      <trkpt lat="45.19367" lon="5.58342">
        <ele>1460.4</ele>
        <time>2016-07-29T14:10:55Z</time>
      </trkpt>
      <trkpt lat="45.19377" lon="5.58345">
        <ele>1461.3</ele>
        <time>2016-07-29T14:11:02Z</time>
      </trkpt>
      <trkpt lat="45.19386" lon="5.58348">
        <ele>1462.4</ele>
        <time>2016-07-29T14:11:07Z</time>
      </trkpt>
      <trkpt lat="45.19395" lon="5.58351">
        <ele>1463.5</ele>
        <time>2016-07-29T14:11:12Z</time>
      </trkpt>
      <trkpt lat="45.19405" lon="5.58355">
        <ele>1464.5</ele>
        <time>2016-07-29T14:11:18Z</time>
      </trkpt>
      <trkpt lat="45.19415" lon="5.58359">
        <ele>1465.7</ele>
        <time>2016-07-29T14:11:25Z</time>
      </trkpt>
      <trkpt lat="45.19424" lon="5.58364">
        <ele>1466.9</ele>
        <time>2016-07-29T14:11:32Z</time>
      </trkpt>
      <trkpt lat="45.19433" lon="5.58371">
        <ele>1468.2</ele>
        <time>2016-07-29T14:11:38Z</time>
      </trkpt>
      <trkpt lat="45.19442" lon="5.58376">
        <ele>1469.1</ele>
        <time>2016-07-29T14:11:44Z</time>
      </trkpt>
      <trkpt lat="45.19451" lon="5.58382">
        <ele>1470.2</ele>
        <time>2016-07-29T14:11:51Z</time>
      </trkpt>
      <trkpt lat="45.19459" lon="5.58385">
        <ele>1471</ele>
        <time>2016-07-29T14:11:56Z</time>
      </trkpt>
      <trkpt lat="45.19468" lon="5.58393">
        <ele>1472.2</ele>
        <time>2016-07-29T14:12:03Z</time>
      </trkpt>
      <trkpt lat="45.19477" lon="5.58401">
        <ele>1473.1</ele>
        <time>2016-07-29T14:12:09Z</time>
      </trkpt>
      <trkpt lat="45.19484" lon="5.58411">
        <ele>1473.9</ele>
        <time>2016-07-29T14:12:14Z</time>
      </trkpt>
      <trkpt lat="45.19491" lon="5.5842">
        <ele>1474.9</ele>
        <time>2016-07-29T14:12:19Z</time>
      </trkpt>
      <trkpt lat="45.19497" lon="5.58429">
        <ele>1475.6</ele>
        <time>2016-07-29T14:12:24Z</time>
      </trkpt>
      <trkpt lat="45.19504" lon="5.5844">
        <ele>1476.9</ele>
        <time>2016-07-29T14:12:30Z</time>
      </trkpt>
      <trkpt lat="45.1951" lon="5.5845">
        <ele>1478</ele>
        <time>2016-07-29T14:12:35Z</time>
      </trkpt>
      <trkpt lat="45.19518" lon="5.5846">
        <ele>1478.9</ele>
        <time>2016-07-29T14:12:40Z</time>
      </trkpt>
      <trkpt lat="45.19528" lon="5.58465">
        <ele>1480.1</ele>
        <time>2016-07-29T14:12:45Z</time>
      </trkpt>
      <trkpt lat="45.19538" lon="5.58459">
        <ele>1481.2</ele>
        <time>2016-07-29T14:12:51Z</time>
      </trkpt>
      <trkpt lat="45.19548" lon="5.58454">
        <ele>1482.6</ele>
        <time>2016-07-29T14:12:57Z</time>
      </trkpt>
      <trkpt lat="45.19557" lon="5.58452">
        <ele>1483.5</ele>
        <time>2016-07-29T14:13:02Z</time>
      </trkpt>
      <trkpt lat="45.19567" lon="5.58453">
        <ele>1484.3</ele>
        <time>2016-07-29T14:13:07Z</time>
      </trkpt>
      <trkpt lat="45.19577" lon="5.58455">
        <ele>1485.1</ele>
        <time>2016-07-29T14:13:13Z</time>
      </trkpt>
      <trkpt lat="45.19587" lon="5.58458">
        <ele>1485.8</ele>
        <time>2016-07-29T14:13:18Z</time>
      </trkpt>
      <trkpt lat="45.19597" lon="5.58463">
        <ele>1486.7</ele>
        <time>2016-07-29T14:13:23Z</time>
      </trkpt>
      <trkpt lat="45.19606" lon="5.58467">
        <ele>1487.4</ele>
        <time>2016-07-29T14:13:28Z</time>
      </trkpt>
      <trkpt lat="45.19615" lon="5.58471">
        <ele>1488.5</ele>
        <time>2016-07-29T14:13:33Z</time>
      </trkpt>
      <trkpt lat="45.19624" lon="5.58476">
        <ele>1489.7</ele>
        <time>2016-07-29T14:13:38Z</time>
      </trkpt>
      <trkpt lat="45.19633" lon="5.58481">
        <ele>1490.7</ele>
        <time>2016-07-29T14:13:43Z</time>
      </trkpt>
      <trkpt lat="45.19642" lon="5.58487">
        <ele>1491.8</ele>
        <time>2016-07-29T14:13:48Z</time>
      </trkpt>
      <trkpt lat="45.19649" lon="5.58494">
        <ele>1493</ele>
        <time>2016-07-29T14:13:53Z</time>
      </trkpt>
      <trkpt lat="45.19657" lon="5.58502">
        <ele>1493.9</ele>
        <time>2016-07-29T14:13:58Z</time>
      </trkpt>
      <trkpt lat="45.19666" lon="5.58511">
        <ele>1494.9</ele>
        <time>2016-07-29T14:14:04Z</time>
      </trkpt>
      <trkpt lat="45.19673" lon="5.58518">
        <ele>1495.8</ele>
        <time>2016-07-29T14:14:09Z</time>
      </trkpt>
      <trkpt lat="45.19681" lon="5.58526">
        <ele>1496.8</ele>
        <time>2016-07-29T14:14:14Z</time>
      </trkpt>
      <trkpt lat="45.19691" lon="5.58534">
        <ele>1497.7</ele>
        <time>2016-07-29T14:14:19Z</time>
      </trkpt>
      <trkpt lat="45.19699" lon="5.58541">
        <ele>1498.8</ele>
        <time>2016-07-29T14:14:24Z</time>
      </trkpt>
      <trkpt lat="45.19708" lon="5.58548">
        <ele>1499.9</ele>
        <time>2016-07-29T14:14:29Z</time>
      </trkpt>
      <trkpt lat="45.19717" lon="5.58557">
        <ele>1501.2</ele>
        <time>2016-07-29T14:14:35Z</time>
      </trkpt>
      <trkpt lat="45.19726" lon="5.58565">
        <ele>1502.1</ele>
        <time>2016-07-29T14:14:40Z</time>
      </trkpt>
      <trkpt lat="45.19733" lon="5.58576">
        <ele>1503</ele>
        <time>2016-07-29T14:14:45Z</time>
      </trkpt>
      <trkpt lat="45.1974" lon="5.58587">
        <ele>1504.3</ele>
        <time>2016-07-29T14:14:50Z</time>
      </trkpt>
      <trkpt lat="45.19746" lon="5.58598">
        <ele>1505.2</ele>
        <time>2016-07-29T14:14:55Z</time>
      </trkpt>
      <trkpt lat="45.19753" lon="5.58608">
        <ele>1505.9</ele>
        <time>2016-07-29T14:14:59Z</time>
      </trkpt>
      <trkpt lat="45.19763" lon="5.58615">
        <ele>1507.1</ele>
        <time>2016-07-29T14:15:04Z</time>
      </trkpt>
      <trkpt lat="45.19774" lon="5.58618">
        <ele>1508.3</ele>
        <time>2016-07-29T14:15:09Z</time>
      </trkpt>
      <trkpt lat="45.19784" lon="5.5862">
        <ele>1509</ele>
        <time>2016-07-29T14:15:14Z</time>
      </trkpt>
      <trkpt lat="45.19793" lon="5.58618">
        <ele>1509.9</ele>
        <time>2016-07-29T14:15:19Z</time>
      </trkpt>
      <trkpt lat="45.19802" lon="5.58614">
        <ele>1510.9</ele>
        <time>2016-07-29T14:15:24Z</time>
      </trkpt>
      <trkpt lat="45.19812" lon="5.58609">
        <ele>1512.4</ele>
        <time>2016-07-29T14:15:30Z</time>
      </trkpt>
      <trkpt lat="45.19822" lon="5.58609">
        <ele>1514.4</ele>
        <time>2016-07-29T14:15:37Z</time>
      </trkpt>
      <trkpt lat="45.19831" lon="5.58609">
        <ele>1515.5</ele>
        <time>2016-07-29T14:15:43Z</time>
      </trkpt>
      <trkpt lat="45.1984" lon="5.58611">
        <ele>1516.6</ele>
        <time>2016-07-29T14:15:49Z</time>
      </trkpt>
      <trkpt lat="45.1985" lon="5.58614">
        <ele>1517.9</ele>
        <time>2016-07-29T14:15:55Z</time>
      </trkpt>
      <trkpt lat="45.1986" lon="5.58617">
        <ele>1519.1</ele>
        <time>2016-07-29T14:16:01Z</time>
      </trkpt>
      <trkpt lat="45.19869" lon="5.58622">
        <ele>1520.1</ele>
        <time>2016-07-29T14:16:07Z</time>
      </trkpt>
      <trkpt lat="45.19879" lon="5.58626">
        <ele>1521.2</ele>
        <time>2016-07-29T14:16:13Z</time>
      </trkpt>
      <trkpt lat="45.1989" lon="5.58624">
        <ele>1522.2</ele>
        <time>2016-07-29T14:16:19Z</time>
      </trkpt>
      <trkpt lat="45.19899" lon="5.58619">
        <ele>1523.2</ele>
        <time>2016-07-29T14:16:24Z</time>
      </trkpt>
      <trkpt lat="45.19908" lon="5.58613">
        <ele>1524.3</ele>
        <time>2016-07-29T14:16:29Z</time>
      </trkpt>
      <trkpt lat="45.19915" lon="5.58604">
        <ele>1525.4</ele>
        <time>2016-07-29T14:16:34Z</time>
      </trkpt>
      <trkpt lat="45.1991" lon="5.58615">
        <ele>1527.3</ele>
        <time>2016-07-29T14:22:48Z</time>
      </trkpt>
      <trkpt lat="45.19901" lon="5.58624">
        <ele>1527</ele>
        <time>2016-07-29T14:22:53Z</time>
      </trkpt>
      <trkpt lat="45.19892" lon="5.58632">
        <ele>1526.4</ele>
        <time>2016-07-29T14:22:57Z</time>
      </trkpt>
      <trkpt lat="45.19883" lon="5.58638">
        <ele>1526.1</ele>
        <time>2016-07-29T14:23:01Z</time>
      </trkpt>
      <trkpt lat="45.19874" lon="5.58641">
        <ele>1526</ele>
        <time>2016-07-29T14:23:06Z</time>
      </trkpt>
      <trkpt lat="45.19864" lon="5.58643">
        <ele>1525.4</ele>
        <time>2016-07-29T14:23:13Z</time>
      </trkpt>
      <trkpt lat="45.19854" lon="5.58645">
        <ele>1525.1</ele>
        <time>2016-07-29T14:23:19Z</time>
      </trkpt>
      <trkpt lat="45.19845" lon="5.58647">
        <ele>1524.7</ele>
        <time>2016-07-29T14:23:36Z</time>
      </trkpt>
      <trkpt lat="45.19835" lon="5.58647">
        <ele>1524.8</ele>
        <time>2016-07-29T14:23:49Z</time>
      </trkpt>
      <trkpt lat="45.19826" lon="5.5865">
        <ele>1524.5</ele>
        <time>2016-07-29T14:23:53Z</time>
      </trkpt>
      <trkpt lat="45.19816" lon="5.58652">
        <ele>1524.1</ele>
        <time>2016-07-29T14:23:56Z</time>
      </trkpt>
      <trkpt lat="45.19806" lon="5.58656">
        <ele>1523.7</ele>
        <time>2016-07-29T14:24:00Z</time>
      </trkpt>
      <trkpt lat="45.19815" lon="5.58662">
        <ele>1526</ele>
        <time>2016-07-29T14:24:38Z</time>
      </trkpt>
      <trkpt lat="45.19823" lon="5.58667">
        <ele>1527.7</ele>
        <time>2016-07-29T14:24:49Z</time>
      </trkpt>
      <trkpt lat="45.19832" lon="5.58671">
        <ele>1529.9</ele>
        <time>2016-07-29T14:25:02Z</time>
      </trkpt>
      <trkpt lat="45.19841" lon="5.58677">
        <ele>1531</ele>
        <time>2016-07-29T14:25:11Z</time>
      </trkpt>
      <trkpt lat="45.1985" lon="5.58681">
        <ele>1533.3</ele>
        <time>2016-07-29T14:25:28Z</time>
      </trkpt>
      <trkpt lat="45.19857" lon="5.5869">
        <ele>1534.6</ele>
        <time>2016-07-29T14:25:39Z</time>
      </trkpt>
      <trkpt lat="45.19864" lon="5.58699">
        <ele>1536.5</ele>
        <time>2016-07-29T14:25:50Z</time>
      </trkpt>
      <trkpt lat="45.19869" lon="5.58709">
        <ele>1538.4</ele>
        <time>2016-07-29T14:26:01Z</time>
      </trkpt>
      <trkpt lat="45.19875" lon="5.58719">
        <ele>1540.5</ele>
        <time>2016-07-29T14:26:14Z</time>
      </trkpt>
      <trkpt lat="45.1988" lon="5.58731">
        <ele>1543</ele>
        <time>2016-07-29T14:26:27Z</time>
      </trkpt>
      <trkpt lat="45.19878" lon="5.58743">
        <ele>1546.5</ele>
        <time>2016-07-29T14:27:16Z</time>
      </trkpt>
      <trkpt lat="45.19874" lon="5.58755">
        <ele>1548.2</ele>
        <time>2016-07-29T14:27:25Z</time>
      </trkpt>
      <trkpt lat="45.19869" lon="5.58768">
        <ele>1550.2</ele>
        <time>2016-07-29T14:27:33Z</time>
      </trkpt>
      <trkpt lat="45.19866" lon="5.58781">
        <ele>1552.3</ele>
        <time>2016-07-29T14:27:42Z</time>
      </trkpt>
      <trkpt lat="45.19862" lon="5.58793">
        <ele>1553.8</ele>
        <time>2016-07-29T14:27:49Z</time>
      </trkpt>
      <trkpt lat="45.19863" lon="5.58808">
        <ele>1556.1</ele>
        <time>2016-07-29T14:27:59Z</time>
      </trkpt>
      <trkpt lat="45.19866" lon="5.58822">
        <ele>1558.3</ele>
        <time>2016-07-29T14:28:08Z</time>
      </trkpt>
      <trkpt lat="45.19869" lon="5.58834">
        <ele>1559.9</ele>
        <time>2016-07-29T14:28:17Z</time>
      </trkpt>
      <trkpt lat="45.19871" lon="5.58848">
        <ele>1561.7</ele>
        <time>2016-07-29T14:28:26Z</time>
      </trkpt>
      <trkpt lat="45.19869" lon="5.58861">
        <ele>1563.9</ele>
        <time>2016-07-29T14:28:37Z</time>
      </trkpt>
      <trkpt lat="45.1987" lon="5.58875">
        <ele>1565.4</ele>
        <time>2016-07-29T14:28:45Z</time>
      </trkpt>
      <trkpt lat="45.19873" lon="5.58887">
        <ele>1566.2</ele>
        <time>2016-07-29T14:28:52Z</time>
      </trkpt>
      <trkpt lat="45.19873" lon="5.589">
        <ele>1567.2</ele>
        <time>2016-07-29T14:29:00Z</time>
      </trkpt>
      <trkpt lat="45.19875" lon="5.58913">
        <ele>1568.8</ele>
        <time>2016-07-29T14:29:11Z</time>
      </trkpt>
      <trkpt lat="45.19879" lon="5.58927">
        <ele>1570.8</ele>
        <time>2016-07-29T14:29:20Z</time>
      </trkpt>
      <trkpt lat="45.19878" lon="5.5894">
        <ele>1572.7</ele>
        <time>2016-07-29T14:29:27Z</time>
      </trkpt>
      <trkpt lat="45.19877" lon="5.58955">
        <ele>1574.8</ele>
        <time>2016-07-29T14:29:35Z</time>
      </trkpt>
      <trkpt lat="45.19881" lon="5.58967">
        <ele>1577.3</ele>
        <time>2016-07-29T14:29:43Z</time>
      </trkpt>
      <trkpt lat="45.19885" lon="5.58978">
        <ele>1578.8</ele>
        <time>2016-07-29T14:29:52Z</time>
      </trkpt>
      <trkpt lat="45.1988" lon="5.5899">
        <ele>1579.3</ele>
        <time>2016-07-29T14:29:59Z</time>
      </trkpt>
      <trkpt lat="45.19875" lon="5.59001">
        <ele>1580.4</ele>
        <time>2016-07-29T14:30:09Z</time>
      </trkpt>
      <trkpt lat="45.19869" lon="5.59013">
        <ele>1581.5</ele>
        <time>2016-07-29T14:30:16Z</time>
      </trkpt>
      <trkpt lat="45.19863" lon="5.59022">
        <ele>1583.1</ele>
        <time>2016-07-29T14:30:23Z</time>
      </trkpt>
      <trkpt lat="45.19858" lon="5.59033">
        <ele>1585.6</ele>
        <time>2016-07-29T14:30:32Z</time>
      </trkpt>
      <trkpt lat="45.19851" lon="5.59042">
        <ele>1587.4</ele>
        <time>2016-07-29T14:30:42Z</time>
      </trkpt>
      <trkpt lat="45.19844" lon="5.59051">
        <ele>1589.4</ele>
        <time>2016-07-29T14:30:53Z</time>
      </trkpt>
      <trkpt lat="45.19835" lon="5.59059">
        <ele>1590.5</ele>
        <time>2016-07-29T14:31:02Z</time>
      </trkpt>
      <trkpt lat="45.19832" lon="5.59072">
        <ele>1592.1</ele>
        <time>2016-07-29T14:31:09Z</time>
      </trkpt>
      <trkpt lat="45.19838" lon="5.59083">
        <ele>1592.6</ele>
        <time>2016-07-29T14:31:16Z</time>
      </trkpt>
      <trkpt lat="45.19841" lon="5.59096">
        <ele>1593</ele>
        <time>2016-07-29T14:31:23Z</time>
      </trkpt>
      <trkpt lat="45.19838" lon="5.5911">
        <ele>1594</ele>
        <time>2016-07-29T14:31:30Z</time>
      </trkpt>
      <trkpt lat="45.19831" lon="5.59119">
        <ele>1595</ele>
        <time>2016-07-29T14:31:37Z</time>
      </trkpt>
      <trkpt lat="45.19821" lon="5.59121">
        <ele>1596</ele>
        <time>2016-07-29T14:31:43Z</time>
      </trkpt>
      <trkpt lat="45.19813" lon="5.59117">
        <ele>1596.4</ele>
        <time>2016-07-29T14:31:49Z</time>
      </trkpt>
      <trkpt lat="45.19803" lon="5.59112">
        <ele>1596.7</ele>
        <time>2016-07-29T14:31:55Z</time>
      </trkpt>
      <trkpt lat="45.19793" lon="5.59107">
        <ele>1596.9</ele>
        <time>2016-07-29T14:32:01Z</time>
      </trkpt>
      <trkpt lat="45.19787" lon="5.59117">
        <ele>1598</ele>
        <time>2016-07-29T14:32:07Z</time>
      </trkpt>
      <trkpt lat="45.19789" lon="5.59131">
        <ele>1599.3</ele>
        <time>2016-07-29T14:32:13Z</time>
      </trkpt>
      <trkpt lat="45.19789" lon="5.59146">
        <ele>1600.4</ele>
        <time>2016-07-29T14:32:19Z</time>
      </trkpt>
      <trkpt lat="45.1979" lon="5.59161">
        <ele>1601.6</ele>
        <time>2016-07-29T14:32:24Z</time>
      </trkpt>
      <trkpt lat="45.1979" lon="5.59174">
        <ele>1602.8</ele>
        <time>2016-07-29T14:32:29Z</time>
      </trkpt>
      <trkpt lat="45.19787" lon="5.59187">
        <ele>1603.5</ele>
        <time>2016-07-29T14:32:35Z</time>
      </trkpt>
      <trkpt lat="45.19784" lon="5.59199">
        <ele>1603.8</ele>
        <time>2016-07-29T14:32:41Z</time>
      </trkpt>
      <trkpt lat="45.19774" lon="5.59201">
        <ele>1603.9</ele>
        <time>2016-07-29T14:37:18Z</time>
      </trkpt>
      <trkpt lat="45.19765" lon="5.59209">
        <ele>1604.2</ele>
        <time>2016-07-29T14:37:24Z</time>
      </trkpt>
      <trkpt lat="45.19757" lon="5.59215">
        <ele>1604.2</ele>
        <time>2016-07-29T14:37:28Z</time>
      </trkpt>
      <trkpt lat="45.19748" lon="5.5922">
        <ele>1604.1</ele>
        <time>2016-07-29T14:37:33Z</time>
      </trkpt>
      <trkpt lat="45.19739" lon="5.59224">
        <ele>1604</ele>
        <time>2016-07-29T14:37:38Z</time>
      </trkpt>
      <trkpt lat="45.19729" lon="5.59228">
        <ele>1603.8</ele>
        <time>2016-07-29T14:37:45Z</time>
      </trkpt>
      <trkpt lat="45.19718" lon="5.5923">
        <ele>1603.4</ele>
        <time>2016-07-29T14:37:50Z</time>
      </trkpt>
      <trkpt lat="45.19707" lon="5.5923">
        <ele>1603.1</ele>
        <time>2016-07-29T14:37:54Z</time>
      </trkpt>
      <trkpt lat="45.19696" lon="5.5923">
        <ele>1602.6</ele>
        <time>2016-07-29T14:37:58Z</time>
      </trkpt>
      <trkpt lat="45.19685" lon="5.59228">
        <ele>1602.3</ele>
        <time>2016-07-29T14:38:02Z</time>
      </trkpt>
      <trkpt lat="45.19674" lon="5.59224">
        <ele>1601.8</ele>
        <time>2016-07-29T14:38:06Z</time>
      </trkpt>
      <trkpt lat="45.19663" lon="5.59221">
        <ele>1601.4</ele>
        <time>2016-07-29T14:38:10Z</time>
      </trkpt>
      <trkpt lat="45.19654" lon="5.59224">
        <ele>1601</ele>
        <time>2016-07-29T14:38:13Z</time>
      </trkpt>
      <trkpt lat="45.19644" lon="5.59229">
        <ele>1600.3</ele>
        <time>2016-07-29T14:38:16Z</time>
      </trkpt>
      <trkpt lat="45.19634" lon="5.59229">
        <ele>1599.3</ele>
        <time>2016-07-29T14:38:19Z</time>
      </trkpt>
      <trkpt lat="45.19625" lon="5.59231">
        <ele>1599.2</ele>
        <time>2016-07-29T14:38:22Z</time>
      </trkpt>
      <trkpt lat="45.19614" lon="5.59233">
        <ele>1598.7</ele>
        <time>2016-07-29T14:38:26Z</time>
      </trkpt>
      <trkpt lat="45.19604" lon="5.59238">
        <ele>1598.4</ele>
        <time>2016-07-29T14:38:30Z</time>
      </trkpt>
      <trkpt lat="45.19595" lon="5.59243">
        <ele>1598</ele>
        <time>2016-07-29T14:38:33Z</time>
      </trkpt>
      <trkpt lat="45.19585" lon="5.59251">
        <ele>1597.3</ele>
        <time>2016-07-29T14:38:36Z</time>
      </trkpt>
      <trkpt lat="45.19575" lon="5.5926">
        <ele>1596.5</ele>
        <time>2016-07-29T14:38:39Z</time>
      </trkpt>
      <trkpt lat="45.19564" lon="5.59269">
        <ele>1595.5</ele>
        <time>2016-07-29T14:38:42Z</time>
      </trkpt>
      <trkpt lat="45.19554" lon="5.59275">
        <ele>1595</ele>
        <time>2016-07-29T14:38:45Z</time>
      </trkpt>
      <trkpt lat="45.19545" lon="5.59281">
        <ele>1594.5</ele>
        <time>2016-07-29T14:38:49Z</time>
      </trkpt>
      <trkpt lat="45.19537" lon="5.5929">
        <ele>1594.2</ele>
        <time>2016-07-29T14:38:52Z</time>
      </trkpt>
      <trkpt lat="45.19527" lon="5.59296">
        <ele>1593.9</ele>
        <time>2016-07-29T14:38:55Z</time>
      </trkpt>
      <trkpt lat="45.1952" lon="5.59306">
        <ele>1593.8</ele>
        <time>2016-07-29T14:38:58Z</time>
      </trkpt>
      <trkpt lat="45.19512" lon="5.59316">
        <ele>1593.5</ele>
        <time>2016-07-29T14:39:01Z</time>
      </trkpt>
      <trkpt lat="45.19502" lon="5.59321">
        <ele>1593</ele>
        <time>2016-07-29T14:39:04Z</time>
      </trkpt>
      <trkpt lat="45.19494" lon="5.59331">
        <ele>1592.5</ele>
        <time>2016-07-29T14:39:07Z</time>
      </trkpt>
      <trkpt lat="45.19484" lon="5.59344">
        <ele>1591.8</ele>
        <time>2016-07-29T14:39:10Z</time>
      </trkpt>
      <trkpt lat="45.19474" lon="5.5935">
        <ele>1591.4</ele>
        <time>2016-07-29T14:39:12Z</time>
      </trkpt>
      <trkpt lat="45.19463" lon="5.59357">
        <ele>1590.2</ele>
        <time>2016-07-29T14:39:14Z</time>
      </trkpt>
      <trkpt lat="45.19451" lon="5.59368">
        <ele>1589</ele>
        <time>2016-07-29T14:39:16Z</time>
      </trkpt>
      <trkpt lat="45.1944" lon="5.59375">
        <ele>1588.2</ele>
        <time>2016-07-29T14:39:18Z</time>
      </trkpt>
      <trkpt lat="45.19431" lon="5.59379">
        <ele>1587.5</ele>
        <time>2016-07-29T14:39:20Z</time>
      </trkpt>
      <trkpt lat="45.19418" lon="5.59384">
        <ele>1586.9</ele>
        <time>2016-07-29T14:39:23Z</time>
      </trkpt>
      <trkpt lat="45.19409" lon="5.59392">
        <ele>1586.6</ele>
        <time>2016-07-29T14:39:26Z</time>
      </trkpt>
      <trkpt lat="45.19403" lon="5.59404">
        <ele>1586.2</ele>
        <time>2016-07-29T14:39:31Z</time>
      </trkpt>
      <trkpt lat="45.19407" lon="5.59418">
        <ele>1585.6</ele>
        <time>2016-07-29T14:45:05Z</time>
      </trkpt>
      <trkpt lat="45.19417" lon="5.59429">
        <ele>1584.3</ele>
        <time>2016-07-29T14:45:09Z</time>
      </trkpt>
      <trkpt lat="45.19426" lon="5.59438">
        <ele>1583.2</ele>
        <time>2016-07-29T14:45:12Z</time>
      </trkpt>
      <trkpt lat="45.1943" lon="5.59451">
        <ele>1582</ele>
        <time>2016-07-29T14:45:17Z</time>
      </trkpt>
      <trkpt lat="45.19433" lon="5.59467">
        <ele>1581.2</ele>
        <time>2016-07-29T14:45:22Z</time>
      </trkpt>
      <trkpt lat="45.19435" lon="5.59481">
        <ele>1579.8</ele>
        <time>2016-07-29T14:45:26Z</time>
      </trkpt>
      <trkpt lat="45.19437" lon="5.59495">
        <ele>1578</ele>
        <time>2016-07-29T14:45:29Z</time>
      </trkpt>
      <trkpt lat="45.1944" lon="5.59507">
        <ele>1575.8</ele>
        <time>2016-07-29T14:45:33Z</time>
      </trkpt>
      <trkpt lat="45.19442" lon="5.59522">
        <ele>1573.7</ele>
        <time>2016-07-29T14:45:38Z</time>
      </trkpt>
      <trkpt lat="45.19441" lon="5.59535">
        <ele>1572.4</ele>
        <time>2016-07-29T14:45:43Z</time>
      </trkpt>
      <trkpt lat="45.1944" lon="5.59549">
        <ele>1571.2</ele>
        <time>2016-07-29T14:45:48Z</time>
      </trkpt>
      <trkpt lat="45.19443" lon="5.59563">
        <ele>1569.6</ele>
        <time>2016-07-29T14:45:52Z</time>
      </trkpt>
      <trkpt lat="45.19442" lon="5.59577">
        <ele>1567.9</ele>
        <time>2016-07-29T14:45:56Z</time>
      </trkpt>
      <trkpt lat="45.19443" lon="5.59591">
        <ele>1566.2</ele>
        <time>2016-07-29T14:46:00Z</time>
      </trkpt>
      <trkpt lat="45.19441" lon="5.59605">
        <ele>1564.4</ele>
        <time>2016-07-29T14:46:04Z</time>
      </trkpt>
      <trkpt lat="45.19437" lon="5.59618">
        <ele>1563.3</ele>
        <time>2016-07-29T14:46:08Z</time>
      </trkpt>
      <trkpt lat="45.19439" lon="5.59633">
        <ele>1561.7</ele>
        <time>2016-07-29T14:46:13Z</time>
      </trkpt>
      <trkpt lat="45.19442" lon="5.59646">
        <ele>1560.7</ele>
        <time>2016-07-29T14:46:17Z</time>
      </trkpt>
      <trkpt lat="45.19437" lon="5.59659">
        <ele>1559.4</ele>
        <time>2016-07-29T14:46:21Z</time>
      </trkpt>
      <trkpt lat="45.19431" lon="5.59671">
        <ele>1558.1</ele>
        <time>2016-07-29T14:46:24Z</time>
      </trkpt>
      <trkpt lat="45.19423" lon="5.59685">
        <ele>1556.6</ele>
        <time>2016-07-29T14:46:27Z</time>
      </trkpt>
      <trkpt lat="45.19416" lon="5.59696">
        <ele>1555.6</ele>
        <time>2016-07-29T14:46:29Z</time>
      </trkpt>
      <trkpt lat="45.19408" lon="5.59706">
        <ele>1554.4</ele>
        <time>2016-07-29T14:46:31Z</time>
      </trkpt>
      <trkpt lat="45.19398" lon="5.59718">
        <ele>1552.6</ele>
        <time>2016-07-29T14:46:34Z</time>
      </trkpt>
      <trkpt lat="45.19388" lon="5.59728">
        <ele>1551.2</ele>
        <time>2016-07-29T14:46:37Z</time>
      </trkpt>
      <trkpt lat="45.19381" lon="5.59736">
        <ele>1550.2</ele>
        <time>2016-07-29T14:46:39Z</time>
      </trkpt>
      <trkpt lat="45.19373" lon="5.59744">
        <ele>1549</ele>
        <time>2016-07-29T14:46:41Z</time>
      </trkpt>
      <trkpt lat="45.19363" lon="5.59756">
        <ele>1547.4</ele>
        <time>2016-07-29T14:46:44Z</time>
      </trkpt>
      <trkpt lat="45.19354" lon="5.59769">
        <ele>1545.1</ele>
        <time>2016-07-29T14:46:47Z</time>
      </trkpt>
      <trkpt lat="45.19349" lon="5.5978">
        <ele>1543</ele>
        <time>2016-07-29T14:46:50Z</time>
      </trkpt>
      <trkpt lat="45.19345" lon="5.59793">
        <ele>1541.1</ele>
        <time>2016-07-29T14:46:53Z</time>
      </trkpt>
      <trkpt lat="45.1934" lon="5.59806">
        <ele>1539.2</ele>
        <time>2016-07-29T14:46:56Z</time>
      </trkpt>
      <trkpt lat="45.19335" lon="5.59816">
        <ele>1537.9</ele>
        <time>2016-07-29T14:46:58Z</time>
      </trkpt>
      <trkpt lat="45.1933" lon="5.59828">
        <ele>1536.2</ele>
        <time>2016-07-29T14:47:00Z</time>
      </trkpt>
      <trkpt lat="45.19326" lon="5.59843">
        <ele>1533.5</ele>
        <time>2016-07-29T14:47:03Z</time>
      </trkpt>
      <trkpt lat="45.19321" lon="5.59859">
        <ele>1530.2</ele>
        <time>2016-07-29T14:47:06Z</time>
      </trkpt>
      <trkpt lat="45.19316" lon="5.5987">
        <ele>1527.4</ele>
        <time>2016-07-29T14:47:09Z</time>
      </trkpt>
      <trkpt lat="45.19317" lon="5.59887">
        <ele>1524.6</ele>
        <time>2016-07-29T14:47:13Z</time>
      </trkpt>
      <trkpt lat="45.19315" lon="5.59902">
        <ele>1522.6</ele>
        <time>2016-07-29T14:47:16Z</time>
      </trkpt>
      <trkpt lat="45.19309" lon="5.59916">
        <ele>1520.6</ele>
        <time>2016-07-29T14:47:19Z</time>
      </trkpt>
      <trkpt lat="45.19309" lon="5.59929">
        <ele>1518.4</ele>
        <time>2016-07-29T14:47:21Z</time>
      </trkpt>
      <trkpt lat="45.19308" lon="5.59942">
        <ele>1512.6</ele>
        <time>2016-07-29T14:48:24Z</time>
      </trkpt>
      <trkpt lat="45.19308" lon="5.59957">
        <ele>1511.9</ele>
        <time>2016-07-29T14:48:58Z</time>
      </trkpt>
      <trkpt lat="45.19313" lon="5.59968">
        <ele>1510.2</ele>
        <time>2016-07-29T14:49:01Z</time>
      </trkpt>
      <trkpt lat="45.19313" lon="5.59987">
        <ele>1507.6</ele>
        <time>2016-07-29T14:49:04Z</time>
      </trkpt>
      <trkpt lat="45.19315" lon="5.6">
        <ele>1505.2</ele>
        <time>2016-07-29T14:49:06Z</time>
      </trkpt>
      <trkpt lat="45.19315" lon="5.60018">
        <ele>1501.6</ele>
        <time>2016-07-29T14:49:09Z</time>
      </trkpt>
      <trkpt lat="45.19315" lon="5.60037">
        <ele>1498.3</ele>
        <time>2016-07-29T14:49:12Z</time>
      </trkpt>
      <trkpt lat="45.19316" lon="5.60051">
        <ele>1495.2</ele>
        <time>2016-07-29T14:49:15Z</time>
      </trkpt>
      <trkpt lat="45.19315" lon="5.60066">
        <ele>1490.9</ele>
        <time>2016-07-29T14:49:19Z</time>
      </trkpt>
      <trkpt lat="45.19308" lon="5.60079">
        <ele>1487</ele>
        <time>2016-07-29T14:49:23Z</time>
      </trkpt>
      <trkpt lat="45.19299" lon="5.60088">
        <ele>1483.9</ele>
        <time>2016-07-29T14:49:27Z</time>
      </trkpt>
      <trkpt lat="45.19295" lon="5.60099">
        <ele>1480.8</ele>
        <time>2016-07-29T14:49:32Z</time>
      </trkpt>
      <trkpt lat="45.193" lon="5.6011">
        <ele>1474.9</ele>
        <time>2016-07-29T14:49:48Z</time>
      </trkpt>
      <trkpt lat="45.19308" lon="5.60118">
        <ele>1473</ele>
        <time>2016-07-29T14:49:55Z</time>
      </trkpt>
      <trkpt lat="45.19312" lon="5.60129">
        <ele>1468.3</ele>
        <time>2016-07-29T14:50:21Z</time>
      </trkpt>
      <trkpt lat="45.19321" lon="5.60125">
        <ele>1467.8</ele>
        <time>2016-07-29T14:50:55Z</time>
      </trkpt>
      <trkpt lat="45.19328" lon="5.60134">
        <ele>1464.9</ele>
        <time>2016-07-29T14:51:02Z</time>
      </trkpt>
      <trkpt lat="45.19337" lon="5.60144">
        <ele>1462.5</ele>
        <time>2016-07-29T14:51:05Z</time>
      </trkpt>
      <trkpt lat="45.19346" lon="5.60149">
        <ele>1460.5</ele>
        <time>2016-07-29T14:51:08Z</time>
      </trkpt>
      <trkpt lat="45.19356" lon="5.60152">
        <ele>1457.8</ele>
        <time>2016-07-29T14:51:12Z</time>
      </trkpt>
      <trkpt lat="45.19366" lon="5.60157">
        <ele>1455.1</ele>
        <time>2016-07-29T14:51:16Z</time>
      </trkpt>
      <trkpt lat="45.19375" lon="5.60163">
        <ele>1453.2</ele>
        <time>2016-07-29T14:51:19Z</time>
      </trkpt>
      <trkpt lat="45.19386" lon="5.60171">
        <ele>1451.2</ele>
        <time>2016-07-29T14:51:23Z</time>
      </trkpt>
      <trkpt lat="45.19395" lon="5.60178">
        <ele>1449.6</ele>
        <time>2016-07-29T14:51:27Z</time>
      </trkpt>
      <trkpt lat="45.19405" lon="5.60182">
        <ele>1448</ele>
        <time>2016-07-29T14:51:31Z</time>
      </trkpt>
      <trkpt lat="45.19414" lon="5.6019">
        <ele>1446.4</ele>
        <time>2016-07-29T14:51:36Z</time>
      </trkpt>
      <trkpt lat="45.1942" lon="5.602">
        <ele>1444.3</ele>
        <time>2016-07-29T14:51:41Z</time>
      </trkpt>
      <trkpt lat="45.19429" lon="5.60208">
        <ele>1441.4</ele>
        <time>2016-07-29T14:51:46Z</time>
      </trkpt>
      <trkpt lat="45.19437" lon="5.60217">
        <ele>1438.6</ele>
        <time>2016-07-29T14:51:51Z</time>
      </trkpt>
      <trkpt lat="45.19445" lon="5.60224">
        <ele>1436.3</ele>
        <time>2016-07-29T14:51:55Z</time>
      </trkpt>
      <trkpt lat="45.19454" lon="5.60226">
        <ele>1433.6</ele>
        <time>2016-07-29T14:52:08Z</time>
      </trkpt>
      <trkpt lat="45.19464" lon="5.60228">
        <ele>1433.2</ele>
        <time>2016-07-29T14:52:14Z</time>
      </trkpt>
      <trkpt lat="45.19473" lon="5.60231">
        <ele>1433</ele>
        <time>2016-07-29T14:52:18Z</time>
      </trkpt>
      <trkpt lat="45.19483" lon="5.60232">
        <ele>1433</ele>
        <time>2016-07-29T14:52:23Z</time>
      </trkpt>
      <trkpt lat="45.19493" lon="5.60235">
        <ele>1432.8</ele>
        <time>2016-07-29T14:52:28Z</time>
      </trkpt>
      <trkpt lat="45.19502" lon="5.60241">
        <ele>1431.2</ele>
        <time>2016-07-29T14:52:32Z</time>
      </trkpt>
      <trkpt lat="45.19511" lon="5.60246">
        <ele>1430.1</ele>
        <time>2016-07-29T14:52:38Z</time>
      </trkpt>
      <trkpt lat="45.19519" lon="5.60252">
        <ele>1429.9</ele>
        <time>2016-07-29T14:52:45Z</time>
      </trkpt>
      <trkpt lat="45.19528" lon="5.60257">
        <ele>1430</ele>
        <time>2016-07-29T14:53:19Z</time>
      </trkpt>
      <trkpt lat="45.19536" lon="5.60264">
        <ele>1429.1</ele>
        <time>2016-07-29T14:53:26Z</time>
      </trkpt>
      <trkpt lat="45.19545" lon="5.60271">
        <ele>1428.3</ele>
        <time>2016-07-29T14:53:33Z</time>
      </trkpt>
      <trkpt lat="45.19554" lon="5.60277">
        <ele>1426.3</ele>
        <time>2016-07-29T14:54:02Z</time>
      </trkpt>
      <trkpt lat="45.19561" lon="5.60288">
        <ele>1424.5</ele>
        <time>2016-07-29T14:54:15Z</time>
      </trkpt>
      <trkpt lat="45.19568" lon="5.60298">
        <ele>1422.4</ele>
        <time>2016-07-29T14:54:22Z</time>
      </trkpt>
      <trkpt lat="45.19574" lon="5.60308">
        <ele>1419.7</ele>
        <time>2016-07-29T14:54:27Z</time>
      </trkpt>
      <trkpt lat="45.19581" lon="5.60318">
        <ele>1417.7</ele>
        <time>2016-07-29T14:54:31Z</time>
      </trkpt>
      <trkpt lat="45.19589" lon="5.60328">
        <ele>1416.2</ele>
        <time>2016-07-29T14:54:35Z</time>
      </trkpt>
      <trkpt lat="45.19596" lon="5.60339">
        <ele>1414.2</ele>
        <time>2016-07-29T14:54:39Z</time>
      </trkpt>
      <trkpt lat="45.19604" lon="5.6035">
        <ele>1411.6</ele>
        <time>2016-07-29T14:54:44Z</time>
      </trkpt>
      <trkpt lat="45.19612" lon="5.6036">
        <ele>1409.3</ele>
        <time>2016-07-29T14:54:49Z</time>
      </trkpt>
      <trkpt lat="45.19621" lon="5.60368">
        <ele>1407.3</ele>
        <time>2016-07-29T14:54:54Z</time>
      </trkpt>
      <trkpt lat="45.19614" lon="5.60379">
        <ele>1402.5</ele>
        <time>2016-07-29T14:55:03Z</time>
      </trkpt>
      <trkpt lat="45.19605" lon="5.60382">
        <ele>1399.1</ele>
        <time>2016-07-29T14:55:09Z</time>
      </trkpt>
      <trkpt lat="45.19594" lon="5.60385">
        <ele>1395.5</ele>
        <time>2016-07-29T14:55:15Z</time>
      </trkpt>
      <trkpt lat="45.19583" lon="5.60382">
        <ele>1391.5</ele>
        <time>2016-07-29T14:55:45Z</time>
      </trkpt>
      <trkpt lat="45.19574" lon="5.60383">
        <ele>1388.6</ele>
        <time>2016-07-29T14:55:51Z</time>
      </trkpt>
      <trkpt lat="45.19564" lon="5.60387">
        <ele>1385.7</ele>
        <time>2016-07-29T14:55:56Z</time>
      </trkpt>
      <trkpt lat="45.19556" lon="5.60392">
        <ele>1381.8</ele>
        <time>2016-07-29T14:56:06Z</time>
      </trkpt>
      <trkpt lat="45.19547" lon="5.60393">
        <ele>1379.5</ele>
        <time>2016-07-29T14:57:38Z</time>
      </trkpt>
      <trkpt lat="45.19537" lon="5.604">
        <ele>1376.4</ele>
        <time>2016-07-29T14:57:45Z</time>
      </trkpt>
      <trkpt lat="45.19526" lon="5.60403">
        <ele>1373.7</ele>
        <time>2016-07-29T14:57:50Z</time>
      </trkpt>
      <trkpt lat="45.19517" lon="5.60409">
        <ele>1371</ele>
        <time>2016-07-29T14:57:54Z</time>
      </trkpt>
      <trkpt lat="45.19509" lon="5.60416">
        <ele>1368.7</ele>
        <time>2016-07-29T14:57:57Z</time>
      </trkpt>
      <trkpt lat="45.195" lon="5.60419">
        <ele>1366.6</ele>
        <time>2016-07-29T14:58:00Z</time>
      </trkpt>
      <trkpt lat="45.19491" lon="5.60426">
        <ele>1363.1</ele>
        <time>2016-07-29T14:58:05Z</time>
      </trkpt>
      <trkpt lat="45.19482" lon="5.6043">
        <ele>1360.8</ele>
        <time>2016-07-29T14:58:09Z</time>
      </trkpt>
      <trkpt lat="45.19472" lon="5.60433">
        <ele>1358.1</ele>
        <time>2016-07-29T14:58:14Z</time>
      </trkpt>
      <trkpt lat="45.19461" lon="5.60438">
        <ele>1355.7</ele>
        <time>2016-07-29T14:58:19Z</time>
      </trkpt>
      <trkpt lat="45.19451" lon="5.60441">
        <ele>1351.8</ele>
        <time>2016-07-29T14:58:26Z</time>
      </trkpt>
      <trkpt lat="45.19444" lon="5.60451">
        <ele>1349.3</ele>
        <time>2016-07-29T14:58:31Z</time>
      </trkpt>
      <trkpt lat="45.19436" lon="5.60461">
        <ele>1346.2</ele>
        <time>2016-07-29T14:58:36Z</time>
      </trkpt>
      <trkpt lat="45.19425" lon="5.60458">
        <ele>1342.9</ele>
        <time>2016-07-29T14:58:42Z</time>
      </trkpt>
      <trkpt lat="45.19414" lon="5.60456">
        <ele>1340.5</ele>
        <time>2016-07-29T14:58:48Z</time>
      </trkpt>
      <trkpt lat="45.19401" lon="5.60455">
        <ele>1337.7</ele>
        <time>2016-07-29T14:58:53Z</time>
      </trkpt>
      <trkpt lat="45.19391" lon="5.60455">
        <ele>1336.1</ele>
        <time>2016-07-29T14:58:56Z</time>
      </trkpt>
      <trkpt lat="45.19382" lon="5.60456">
        <ele>1333.9</ele>
        <time>2016-07-29T14:59:01Z</time>
      </trkpt>
      <trkpt lat="45.19374" lon="5.60465">
        <ele>1330.8</ele>
        <time>2016-07-29T14:59:05Z</time>
      </trkpt>
      <trkpt lat="45.19367" lon="5.60474">
        <ele>1328.8</ele>
        <time>2016-07-29T14:59:08Z</time>
      </trkpt>
      <trkpt lat="45.19356" lon="5.6048">
        <ele>1325.9</ele>
        <time>2016-07-29T14:59:11Z</time>
      </trkpt>
      <trkpt lat="45.19347" lon="5.60484">
        <ele>1323.2</ele>
        <time>2016-07-29T14:59:14Z</time>
      </trkpt>
      <trkpt lat="45.19337" lon="5.6049">
        <ele>1319.9</ele>
        <time>2016-07-29T14:59:18Z</time>
      </trkpt>
      <trkpt lat="45.19328" lon="5.60497">
        <ele>1317.3</ele>
        <time>2016-07-29T14:59:21Z</time>
      </trkpt>
      <trkpt lat="45.19317" lon="5.60504">
        <ele>1314.6</ele>
        <time>2016-07-29T14:59:25Z</time>
      </trkpt>
      <trkpt lat="45.19308" lon="5.60511">
        <ele>1312.3</ele>
        <time>2016-07-29T14:59:28Z</time>
      </trkpt>
      <trkpt lat="45.193" lon="5.60521">
        <ele>1310.1</ele>
        <time>2016-07-29T14:59:31Z</time>
      </trkpt>
      <trkpt lat="45.19291" lon="5.60528">
        <ele>1308.1</ele>
        <time>2016-07-29T14:59:34Z</time>
      </trkpt>
      <trkpt lat="45.19285" lon="5.60538">
        <ele>1306.3</ele>
        <time>2016-07-29T14:59:37Z</time>
      </trkpt>
      <trkpt lat="45.19278" lon="5.60547">
        <ele>1304.1</ele>
        <time>2016-07-29T14:59:40Z</time>
      </trkpt>
      <trkpt lat="45.19274" lon="5.60562">
        <ele>1301</ele>
        <time>2016-07-29T14:59:44Z</time>
      </trkpt>
      <trkpt lat="45.19269" lon="5.60576">
        <ele>1297.3</ele>
        <time>2016-07-29T14:59:48Z</time>
      </trkpt>
      <trkpt lat="45.19262" lon="5.60585">
        <ele>1293</ele>
        <time>2016-07-29T14:59:52Z</time>
      </trkpt>
      <trkpt lat="45.19256" lon="5.60597">
        <ele>1290.2</ele>
        <time>2016-07-29T14:59:57Z</time>
      </trkpt>
      <trkpt lat="45.19251" lon="5.6061">
        <ele>1286.8</ele>
        <time>2016-07-29T15:00:01Z</time>
      </trkpt>
      <trkpt lat="45.19244" lon="5.60623">
        <ele>1283.3</ele>
        <time>2016-07-29T15:00:05Z</time>
      </trkpt>
      <trkpt lat="45.1924" lon="5.60635">
        <ele>1280.6</ele>
        <time>2016-07-29T15:00:08Z</time>
      </trkpt>
      <trkpt lat="45.19247" lon="5.60642">
        <ele>1274.3</ele>
        <time>2016-07-29T15:01:42Z</time>
      </trkpt>
      <trkpt lat="45.19255" lon="5.60649">
        <ele>1272.7</ele>
        <time>2016-07-29T15:02:02Z</time>
      </trkpt>
      <trkpt lat="45.19264" lon="5.60653">
        <ele>1271.8</ele>
        <time>2016-07-29T15:02:15Z</time>
      </trkpt>
      <trkpt lat="45.19273" lon="5.60659">
        <ele>1269</ele>
        <time>2016-07-29T15:02:21Z</time>
      </trkpt>
      <trkpt lat="45.19274" lon="5.60674">
        <ele>1264.4</ele>
        <time>2016-07-29T15:02:28Z</time>
      </trkpt>
      <trkpt lat="45.1927" lon="5.60688">
        <ele>1260</ele>
        <time>2016-07-29T15:02:35Z</time>
      </trkpt>
      <trkpt lat="45.19264" lon="5.60698">
        <ele>1256.6</ele>
        <time>2016-07-29T15:02:40Z</time>
      </trkpt>
      <trkpt lat="45.19256" lon="5.60708">
        <ele>1253.2</ele>
        <time>2016-07-29T15:02:45Z</time>
      </trkpt>
      <trkpt lat="45.19246" lon="5.60713">
        <ele>1249.9</ele>
        <time>2016-07-29T15:02:58Z</time>
      </trkpt>
      <trkpt lat="45.19241" lon="5.60723">
        <ele>1247.3</ele>
        <time>2016-07-29T15:03:04Z</time>
      </trkpt>
      <trkpt lat="45.19244" lon="5.60735">
        <ele>1243.9</ele>
        <time>2016-07-29T15:03:20Z</time>
      </trkpt>
      <trkpt lat="45.19252" lon="5.60742">
        <ele>1241.9</ele>
        <time>2016-07-29T15:03:25Z</time>
      </trkpt>
      <trkpt lat="45.19255" lon="5.60755">
        <ele>1238.9</ele>
        <time>2016-07-29T15:03:31Z</time>
      </trkpt>
      <trkpt lat="45.19256" lon="5.60769">
        <ele>1236.2</ele>
        <time>2016-07-29T15:03:35Z</time>
      </trkpt>
      <trkpt lat="45.19257" lon="5.60783">
        <ele>1233</ele>
        <time>2016-07-29T15:03:39Z</time>
      </trkpt>
      <trkpt lat="45.19257" lon="5.60796">
        <ele>1230.9</ele>
        <time>2016-07-29T15:03:42Z</time>
      </trkpt>
      <trkpt lat="45.19253" lon="5.60811">
        <ele>1228</ele>
        <time>2016-07-29T15:03:46Z</time>
      </trkpt>
      <trkpt lat="45.19254" lon="5.60824">
        <ele>1225.9</ele>
        <time>2016-07-29T15:03:49Z</time>
      </trkpt>
      <trkpt lat="45.19252" lon="5.60838">
        <ele>1223.6</ele>
        <time>2016-07-29T15:03:53Z</time>
      </trkpt>
      <trkpt lat="45.19254" lon="5.60855">
        <ele>1221.1</ele>
        <time>2016-07-29T15:04:04Z</time>
      </trkpt>
      <trkpt lat="45.19247" lon="5.60865">
        <ele>1221.3</ele>
        <time>2016-07-29T15:05:04Z</time>
      </trkpt>
      <trkpt lat="45.19247" lon="5.6088">
        <ele>1218</ele>
        <time>2016-07-29T15:05:10Z</time>
      </trkpt>
      <trkpt lat="45.19242" lon="5.60892">
        <ele>1215</ele>
        <time>2016-07-29T15:05:15Z</time>
      </trkpt>
      <trkpt lat="45.1924" lon="5.60907">
        <ele>1212.1</ele>
        <time>2016-07-29T15:05:19Z</time>
      </trkpt>
      <trkpt lat="45.19239" lon="5.60921">
        <ele>1208.2</ele>
        <time>2016-07-29T15:05:24Z</time>
      </trkpt>
      <trkpt lat="45.19236" lon="5.60934">
        <ele>1205.5</ele>
        <time>2016-07-29T15:05:27Z</time>
      </trkpt>
      <trkpt lat="45.19233" lon="5.60947">
        <ele>1203.8</ele>
        <time>2016-07-29T15:05:29Z</time>
      </trkpt>
      <trkpt lat="45.19231" lon="5.60962">
        <ele>1201.2</ele>
        <time>2016-07-29T15:05:32Z</time>
      </trkpt>
      <trkpt lat="45.19228" lon="5.60974">
        <ele>1197.8</ele>
        <time>2016-07-29T15:06:07Z</time>
      </trkpt>
      <trkpt lat="45.19235" lon="5.60986">
        <ele>1197</ele>
        <time>2016-07-29T15:06:16Z</time>
      </trkpt>
      <trkpt lat="45.19236" lon="5.60999">
        <ele>1195.3</ele>
        <time>2016-07-29T15:06:20Z</time>
      </trkpt>
      <trkpt lat="45.19241" lon="5.61014">
        <ele>1192.8</ele>
        <time>2016-07-29T15:06:24Z</time>
      </trkpt>
      <trkpt lat="45.19243" lon="5.61026">
        <ele>1190.6</ele>
        <time>2016-07-29T15:06:28Z</time>
      </trkpt>
      <trkpt lat="45.19243" lon="5.6104">
        <ele>1187.4</ele>
        <time>2016-07-29T15:06:34Z</time>
      </trkpt>
      <trkpt lat="45.19243" lon="5.61056">
        <ele>1184.9</ele>
        <time>2016-07-29T15:06:37Z</time>
      </trkpt>
      <trkpt lat="45.1924" lon="5.6107">
        <ele>1183.3</ele>
        <time>2016-07-29T15:06:39Z</time>
      </trkpt>
      <trkpt lat="45.1924" lon="5.61085">
        <ele>1179.6</ele>
        <time>2016-07-29T15:07:17Z</time>
      </trkpt>
      <trkpt lat="45.19235" lon="5.61097">
        <ele>1179.2</ele>
        <time>2016-07-29T15:07:22Z</time>
      </trkpt>
      <trkpt lat="45.19229" lon="5.61112">
        <ele>1178.5</ele>
        <time>2016-07-29T15:07:27Z</time>
      </trkpt>
      <trkpt lat="45.19226" lon="5.61124">
        <ele>1177.8</ele>
        <time>2016-07-29T15:07:35Z</time>
      </trkpt>
      <trkpt lat="45.1922" lon="5.61136">
        <ele>1177.1</ele>
        <time>2016-07-29T15:11:00Z</time>
      </trkpt>
      <trkpt lat="45.19213" lon="5.61145">
        <ele>1175.3</ele>
        <time>2016-07-29T15:11:05Z</time>
      </trkpt>
      <trkpt lat="45.19205" lon="5.61152">
        <ele>1171.7</ele>
        <time>2016-07-29T15:11:14Z</time>
      </trkpt>
      <trkpt lat="45.19199" lon="5.61162">
        <ele>1168.7</ele>
        <time>2016-07-29T15:11:20Z</time>
      </trkpt>
      <trkpt lat="45.19193" lon="5.61174">
        <ele>1165</ele>
        <time>2016-07-29T15:11:27Z</time>
      </trkpt>
      <trkpt lat="45.19202" lon="5.61179">
        <ele>1163.3</ele>
        <time>2016-07-29T15:12:00Z</time>
      </trkpt>
      <trkpt lat="45.19211" lon="5.61185">
        <ele>1163.2</ele>
        <time>2016-07-29T15:12:05Z</time>
      </trkpt>
      <trkpt lat="45.19221" lon="5.61182">
        <ele>1163.5</ele>
        <time>2016-07-29T15:12:11Z</time>
      </trkpt>
      <trkpt lat="45.1923" lon="5.61181">
        <ele>1164.7</ele>
        <time>2016-07-29T15:12:17Z</time>
      </trkpt>
      <trkpt lat="45.19237" lon="5.61191">
        <ele>1163.6</ele>
        <time>2016-07-29T15:12:29Z</time>
      </trkpt>
      <trkpt lat="45.19234" lon="5.61203">
        <ele>1161</ele>
        <time>2016-07-29T15:12:34Z</time>
      </trkpt>
      <trkpt lat="45.19228" lon="5.61214">
        <ele>1158.7</ele>
        <time>2016-07-29T15:12:37Z</time>
      </trkpt>
      <trkpt lat="45.19221" lon="5.61225">
        <ele>1154.6</ele>
        <time>2016-07-29T15:12:41Z</time>
      </trkpt>
      <trkpt lat="45.19215" lon="5.61235">
        <ele>1152.1</ele>
        <time>2016-07-29T15:12:44Z</time>
      </trkpt>
      <trkpt lat="45.1921" lon="5.61248">
        <ele>1149.5</ele>
        <time>2016-07-29T15:12:47Z</time>
      </trkpt>
      <trkpt lat="45.19202" lon="5.61258">
        <ele>1145.7</ele>
        <time>2016-07-29T15:12:52Z</time>
      </trkpt>
      <trkpt lat="45.19199" lon="5.6127">
        <ele>1142.6</ele>
        <time>2016-07-29T15:12:55Z</time>
      </trkpt>
      <trkpt lat="45.19194" lon="5.61285">
        <ele>1138.8</ele>
        <time>2016-07-29T15:12:58Z</time>
      </trkpt>
      <trkpt lat="45.19187" lon="5.61296">
        <ele>1135.3</ele>
        <time>2016-07-29T15:13:01Z</time>
      </trkpt>
      <trkpt lat="45.1918" lon="5.61306">
        <ele>1131.5</ele>
        <time>2016-07-29T15:13:04Z</time>
      </trkpt>
      <trkpt lat="45.19171" lon="5.61317">
        <ele>1126.8</ele>
        <time>2016-07-29T15:13:08Z</time>
      </trkpt>
      <trkpt lat="45.19165" lon="5.61333">
        <ele>1123.2</ele>
        <time>2016-07-29T15:13:11Z</time>
      </trkpt>
      <trkpt lat="45.19157" lon="5.61347">
        <ele>1119.7</ele>
        <time>2016-07-29T15:13:14Z</time>
      </trkpt>
      <trkpt lat="45.1915" lon="5.61356">
        <ele>1117.4</ele>
        <time>2016-07-29T15:13:16Z</time>
      </trkpt>
      <trkpt lat="45.19145" lon="5.61369">
        <ele>1113.9</ele>
        <time>2016-07-29T15:13:19Z</time>
      </trkpt>
      <trkpt lat="45.19141" lon="5.61385">
        <ele>1110</ele>
        <time>2016-07-29T15:13:22Z</time>
      </trkpt>
      <trkpt lat="45.19134" lon="5.61401">
        <ele>1106.1</ele>
        <time>2016-07-29T15:13:25Z</time>
      </trkpt>
      <trkpt lat="45.19128" lon="5.61411">
        <ele>1103.5</ele>
        <time>2016-07-29T15:13:27Z</time>
      </trkpt>
      <trkpt lat="45.19124" lon="5.61429">
        <ele>1099.7</ele>
        <time>2016-07-29T15:13:30Z</time>
      </trkpt>
      <trkpt lat="45.19121" lon="5.61445">
        <ele>1097.2</ele>
        <time>2016-07-29T15:13:32Z</time>
      </trkpt>
      <trkpt lat="45.19118" lon="5.61462">
        <ele>1093.1</ele>
        <time>2016-07-29T15:13:35Z</time>
      </trkpt>
      <trkpt lat="45.19118" lon="5.61477">
        <ele>1089.4</ele>
        <time>2016-07-29T15:13:38Z</time>
      </trkpt>
      <trkpt lat="45.19121" lon="5.61491">
        <ele>1085.9</ele>
        <time>2016-07-29T15:13:41Z</time>
      </trkpt>
      <trkpt lat="45.19124" lon="5.61506">
        <ele>1082.6</ele>
        <time>2016-07-29T15:13:44Z</time>
      </trkpt>
      <trkpt lat="45.19123" lon="5.61522">
        <ele>1078.8</ele>
        <time>2016-07-29T15:13:47Z</time>
      </trkpt>
      <trkpt lat="45.19125" lon="5.61537">
        <ele>1074.2</ele>
        <time>2016-07-29T15:13:51Z</time>
      </trkpt>
      <trkpt lat="45.19129" lon="5.6155">
        <ele>1069.9</ele>
        <time>2016-07-29T15:13:55Z</time>
      </trkpt>
      <trkpt lat="45.19137" lon="5.6156">
        <ele>1066.9</ele>
        <time>2016-07-29T15:13:58Z</time>
      </trkpt>
      <trkpt lat="45.19145" lon="5.61572">
        <ele>1063.9</ele>
        <time>2016-07-29T15:14:01Z</time>
      </trkpt>
      <trkpt lat="45.19154" lon="5.61578">
        <ele>1061.3</ele>
        <time>2016-07-29T15:14:04Z</time>
      </trkpt>
      <trkpt lat="45.19163" lon="5.61589">
        <ele>1058.1</ele>
        <time>2016-07-29T15:14:07Z</time>
      </trkpt>
      <trkpt lat="45.19175" lon="5.61597">
        <ele>1054.1</ele>
        <time>2016-07-29T15:14:10Z</time>
      </trkpt>
      <trkpt lat="45.19183" lon="5.61602">
        <ele>1049.3</ele>
        <time>2016-07-29T15:14:16Z</time>
      </trkpt>
      <trkpt lat="45.19192" lon="5.61601">
        <ele>1047</ele>
        <time>2016-07-29T15:15:05Z</time>
      </trkpt>
      <trkpt lat="45.19202" lon="5.61601">
        <ele>1044.8</ele>
        <time>2016-07-29T15:15:25Z</time>
      </trkpt>
      <trkpt lat="45.19212" lon="5.61598">
        <ele>1041.5</ele>
        <time>2016-07-29T15:15:29Z</time>
      </trkpt>
      <trkpt lat="45.19221" lon="5.6159">
        <ele>1038.7</ele>
        <time>2016-07-29T15:15:32Z</time>
      </trkpt>
      <trkpt lat="45.1923" lon="5.61587">
        <ele>1034.6</ele>
        <time>2016-07-29T15:15:36Z</time>
      </trkpt>
      <trkpt lat="45.19239" lon="5.61578">
        <ele>1031.5</ele>
        <time>2016-07-29T15:15:39Z</time>
      </trkpt>
      <trkpt lat="45.1925" lon="5.61573">
        <ele>1027.2</ele>
        <time>2016-07-29T15:15:43Z</time>
      </trkpt>
      <trkpt lat="45.19261" lon="5.61566">
        <ele>1023</ele>
        <time>2016-07-29T15:15:47Z</time>
      </trkpt>
      <trkpt lat="45.19271" lon="5.61568">
        <ele>1021</ele>
        <time>2016-07-29T15:15:49Z</time>
      </trkpt>
      <trkpt lat="45.1928" lon="5.61572">
        <ele>1017.7</ele>
        <time>2016-07-29T15:15:52Z</time>
      </trkpt>
      <trkpt lat="45.19288" lon="5.61579">
        <ele>1013.8</ele>
        <time>2016-07-29T15:15:56Z</time>
      </trkpt>
      <trkpt lat="45.19299" lon="5.61587">
        <ele>1011.8</ele>
        <time>2016-07-29T15:15:58Z</time>
      </trkpt>
      <trkpt lat="45.19309" lon="5.61599">
        <ele>1008.6</ele>
        <time>2016-07-29T15:16:01Z</time>
      </trkpt>
      <trkpt lat="45.19316" lon="5.61609">
        <ele>1006.5</ele>
        <time>2016-07-29T15:16:03Z</time>
      </trkpt>
      <trkpt lat="45.19323" lon="5.61622">
        <ele>1003.4</ele>
        <time>2016-07-29T15:16:06Z</time>
      </trkpt>
      <trkpt lat="45.19323" lon="5.61639">
        <ele>999.2</ele>
        <time>2016-07-29T15:16:10Z</time>
      </trkpt>
      <trkpt lat="45.19324" lon="5.61654">
        <ele>996.2</ele>
        <time>2016-07-29T15:16:13Z</time>
      </trkpt>
      <trkpt lat="45.19327" lon="5.61667">
        <ele>993.5</ele>
        <time>2016-07-29T15:16:16Z</time>
      </trkpt>
      <trkpt lat="45.19332" lon="5.61679">
        <ele>989.9</ele>
        <time>2016-07-29T15:16:20Z</time>
      </trkpt>
      <trkpt lat="45.19331" lon="5.61693">
        <ele>987</ele>
        <time>2016-07-29T15:16:23Z</time>
      </trkpt>
      <trkpt lat="45.19329" lon="5.61706">
        <ele>984.6</ele>
        <time>2016-07-29T15:16:26Z</time>
      </trkpt>
      <trkpt lat="45.19326" lon="5.61722">
        <ele>981.8</ele>
        <time>2016-07-29T15:16:29Z</time>
      </trkpt>
      <trkpt lat="45.19327" lon="5.61738">
        <ele>978.5</ele>
        <time>2016-07-29T15:16:33Z</time>
      </trkpt>
      <trkpt lat="45.19332" lon="5.61754">
        <ele>975.3</ele>
        <time>2016-07-29T15:16:37Z</time>
      </trkpt>
      <trkpt lat="45.19333" lon="5.61767">
        <ele>972.2</ele>
        <time>2016-07-29T15:16:40Z</time>
      </trkpt>
      <trkpt lat="45.19327" lon="5.61781">
        <ele>968.3</ele>
        <time>2016-07-29T15:16:44Z</time>
      </trkpt>
      <trkpt lat="45.19318" lon="5.61791">
        <ele>965</ele>
        <time>2016-07-29T15:16:48Z</time>
      </trkpt>
      <trkpt lat="45.19319" lon="5.61804">
        <ele>960.8</ele>
        <time>2016-07-29T15:16:54Z</time>
      </trkpt>
      <trkpt lat="45.19322" lon="5.61816">
        <ele>958.9</ele>
        <time>2016-07-29T15:19:18Z</time>
      </trkpt>
      <trkpt lat="45.1932" lon="5.6183">
        <ele>958</ele>
        <time>2016-07-29T15:19:23Z</time>
      </trkpt>
      <trkpt lat="45.19319" lon="5.61844">
        <ele>956.1</ele>
        <time>2016-07-29T15:19:28Z</time>
      </trkpt>
      <trkpt lat="45.19321" lon="5.6186">
        <ele>953.6</ele>
        <time>2016-07-29T15:19:38Z</time>
      </trkpt>
      <trkpt lat="45.19322" lon="5.61876">
        <ele>952.1</ele>
        <time>2016-07-29T15:19:41Z</time>
      </trkpt>
      <trkpt lat="45.19324" lon="5.61891">
        <ele>950.4</ele>
        <time>2016-07-29T15:19:44Z</time>
      </trkpt>
      <trkpt lat="45.19325" lon="5.61905">
        <ele>948.5</ele>
        <time>2016-07-29T15:19:47Z</time>
      </trkpt>
      <trkpt lat="45.19323" lon="5.6192">
        <ele>946.3</ele>
        <time>2016-07-29T15:19:50Z</time>
      </trkpt>
      <trkpt lat="45.19319" lon="5.61939">
        <ele>944.1</ele>
        <time>2016-07-29T15:19:53Z</time>
      </trkpt>
      <trkpt lat="45.19315" lon="5.61952">
        <ele>942.2</ele>
        <time>2016-07-29T15:19:55Z</time>
      </trkpt>
      <trkpt lat="45.19309" lon="5.61967">
        <ele>939.7</ele>
        <time>2016-07-29T15:19:58Z</time>
      </trkpt>
      <trkpt lat="45.19299" lon="5.61972">
        <ele>937.4</ele>
        <time>2016-07-29T15:20:01Z</time>
      </trkpt>
      <trkpt lat="45.1929" lon="5.61967">
        <ele>936.3</ele>
        <time>2016-07-29T15:20:03Z</time>
      </trkpt>
      <trkpt lat="45.19282" lon="5.6196">
        <ele>935.3</ele>
        <time>2016-07-29T15:20:05Z</time>
      </trkpt>
      <trkpt lat="45.19271" lon="5.61951">
        <ele>934.2</ele>
        <time>2016-07-29T15:20:08Z</time>
      </trkpt>
      <trkpt lat="45.1926" lon="5.61948">
        <ele>933.5</ele>
        <time>2016-07-29T15:20:11Z</time>
      </trkpt>
      <trkpt lat="45.19249" lon="5.61949">
        <ele>932.7</ele>
        <time>2016-07-29T15:20:14Z</time>
      </trkpt>
      <trkpt lat="45.19239" lon="5.61949">
        <ele>932.1</ele>
        <time>2016-07-29T15:20:16Z</time>
      </trkpt>
      <trkpt lat="45.1923" lon="5.61949">
        <ele>931.5</ele>
        <time>2016-07-29T15:20:18Z</time>
      </trkpt>
      <trkpt lat="45.1922" lon="5.61949">
        <ele>930.7</ele>
        <time>2016-07-29T15:20:20Z</time>
      </trkpt>
      <trkpt lat="45.19211" lon="5.61948">
        <ele>930.1</ele>
        <time>2016-07-29T15:20:22Z</time>
      </trkpt>
      <trkpt lat="45.192" lon="5.61948">
        <ele>929.4</ele>
        <time>2016-07-29T15:20:24Z</time>
      </trkpt>
      <trkpt lat="45.1919" lon="5.61948">
        <ele>928.6</ele>
        <time>2016-07-29T15:20:26Z</time>
      </trkpt>
      <trkpt lat="45.19178" lon="5.61948">
        <ele>927.9</ele>
        <time>2016-07-29T15:20:28Z</time>
      </trkpt>
      <trkpt lat="45.19165" lon="5.61947">
        <ele>926.9</ele>
        <time>2016-07-29T15:20:30Z</time>
      </trkpt>
      <trkpt lat="45.19152" lon="5.61947">
        <ele>926.3</ele>
        <time>2016-07-29T15:20:32Z</time>
      </trkpt>
      <trkpt lat="45.19139" lon="5.61947">
        <ele>925.8</ele>
        <time>2016-07-29T15:20:34Z</time>
      </trkpt>
      <trkpt lat="45.19124" lon="5.61946">
        <ele>925</ele>
        <time>2016-07-29T15:20:36Z</time>
      </trkpt>
      <trkpt lat="45.1911" lon="5.61948">
        <ele>924.3</ele>
        <time>2016-07-29T15:20:38Z</time>
      </trkpt>
      <trkpt lat="45.19095" lon="5.61951">
        <ele>923.6</ele>
        <time>2016-07-29T15:20:40Z</time>
      </trkpt>
      <trkpt lat="45.1908" lon="5.61953">
        <ele>923.3</ele>
        <time>2016-07-29T15:20:42Z</time>
      </trkpt>
      <trkpt lat="45.19064" lon="5.61956">
        <ele>922.8</ele>
        <time>2016-07-29T15:20:44Z</time>
      </trkpt>
      <trkpt lat="45.19049" lon="5.61958">
        <ele>922.2</ele>
        <time>2016-07-29T15:20:46Z</time>
      </trkpt>
      <trkpt lat="45.19034" lon="5.61961">
        <ele>921.6</ele>
        <time>2016-07-29T15:20:48Z</time>
      </trkpt>
      <trkpt lat="45.19019" lon="5.61965">
        <ele>921.2</ele>
        <time>2016-07-29T15:20:50Z</time>
      </trkpt>
      <trkpt lat="45.19005" lon="5.61968">
        <ele>921</ele>
        <time>2016-07-29T15:20:52Z</time>
      </trkpt>
      <trkpt lat="45.18991" lon="5.61971">
        <ele>920.8</ele>
        <time>2016-07-29T15:20:54Z</time>
      </trkpt>
      <trkpt lat="45.18979" lon="5.61974">
        <ele>920.6</ele>
        <time>2016-07-29T15:20:56Z</time>
      </trkpt>
      <trkpt lat="45.18967" lon="5.61975">
        <ele>920.3</ele>
        <time>2016-07-29T15:20:58Z</time>
      </trkpt>
      <trkpt lat="45.18955" lon="5.61977">
        <ele>920</ele>
        <time>2016-07-29T15:21:00Z</time>
      </trkpt>
      <trkpt lat="45.18943" lon="5.61978">
        <ele>919.8</ele>
        <time>2016-07-29T15:21:02Z</time>
      </trkpt>
      <trkpt lat="45.18932" lon="5.61978">
        <ele>919.6</ele>
        <time>2016-07-29T15:21:04Z</time>
      </trkpt>
      <trkpt lat="45.18921" lon="5.61977">
        <ele>919.4</ele>
        <time>2016-07-29T15:21:06Z</time>
      </trkpt>
      <trkpt lat="45.18911" lon="5.61975">
        <ele>919.3</ele>
        <time>2016-07-29T15:21:08Z</time>
      </trkpt>
      <trkpt lat="45.18899" lon="5.61971">
        <ele>919.7</ele>
        <time>2016-07-29T15:21:11Z</time>
      </trkpt>
      <trkpt lat="45.1889" lon="5.61966">
        <ele>920.1</ele>
        <time>2016-07-29T15:21:14Z</time>
      </trkpt>
      <trkpt lat="45.18881" lon="5.61962">
        <ele>920.7</ele>
        <time>2016-07-29T15:21:17Z</time>
      </trkpt>
      <trkpt lat="45.18872" lon="5.61954">
        <ele>921.4</ele>
        <time>2016-07-29T15:21:21Z</time>
      </trkpt>
      <trkpt lat="45.18863" lon="5.61945">
        <ele>922.4</ele>
        <time>2016-07-29T15:21:25Z</time>
      </trkpt>
      <trkpt lat="45.18856" lon="5.61935">
        <ele>923.4</ele>
        <time>2016-07-29T15:21:29Z</time>
      </trkpt>
      <trkpt lat="45.18848" lon="5.61923">
        <ele>924.4</ele>
        <time>2016-07-29T15:21:33Z</time>
      </trkpt>
      <trkpt lat="45.18842" lon="5.61911">
        <ele>925.2</ele>
        <time>2016-07-29T15:21:37Z</time>
      </trkpt>
      <trkpt lat="45.18836" lon="5.61897">
        <ele>926</ele>
        <time>2016-07-29T15:21:41Z</time>
      </trkpt>
      <trkpt lat="45.18831" lon="5.61883">
        <ele>926.9</ele>
        <time>2016-07-29T15:21:45Z</time>
      </trkpt>
      <trkpt lat="45.18828" lon="5.6187">
        <ele>927.9</ele>
        <time>2016-07-29T15:21:49Z</time>
      </trkpt>
      <trkpt lat="45.18824" lon="5.61856">
        <ele>929</ele>
        <time>2016-07-29T15:21:54Z</time>
      </trkpt>
      <trkpt lat="45.18821" lon="5.61843">
        <ele>929.3</ele>
        <time>2016-07-29T15:21:58Z</time>
      </trkpt>
      <trkpt lat="45.18817" lon="5.61828">
        <ele>929.1</ele>
        <time>2016-07-29T15:22:02Z</time>
      </trkpt>
      <trkpt lat="45.18815" lon="5.61812">
        <ele>928.7</ele>
        <time>2016-07-29T15:22:05Z</time>
      </trkpt>
      <trkpt lat="45.18813" lon="5.61799">
        <ele>928.4</ele>
        <time>2016-07-29T15:22:07Z</time>
      </trkpt>
      <trkpt lat="45.18811" lon="5.61785">
        <ele>928</ele>
        <time>2016-07-29T15:22:09Z</time>
      </trkpt>
      <trkpt lat="45.1881" lon="5.61771">
        <ele>927.5</ele>
        <time>2016-07-29T15:22:11Z</time>
      </trkpt>
      <trkpt lat="45.18808" lon="5.61757">
        <ele>927.2</ele>
        <time>2016-07-29T15:22:13Z</time>
      </trkpt>
      <trkpt lat="45.18806" lon="5.61742">
        <ele>926.9</ele>
        <time>2016-07-29T15:22:15Z</time>
      </trkpt>
      <trkpt lat="45.18803" lon="5.6173">
        <ele>926.8</ele>
        <time>2016-07-29T15:22:17Z</time>
      </trkpt>
      <trkpt lat="45.18801" lon="5.61717">
        <ele>926.7</ele>
        <time>2016-07-29T15:22:19Z</time>
      </trkpt>
      <trkpt lat="45.18798" lon="5.61705">
        <ele>926.5</ele>
        <time>2016-07-29T15:22:21Z</time>
      </trkpt>
      <trkpt lat="45.18794" lon="5.61692">
        <ele>926.3</ele>
        <time>2016-07-29T15:22:23Z</time>
      </trkpt>
      <trkpt lat="45.18791" lon="5.61679">
        <ele>926</ele>
        <time>2016-07-29T15:22:25Z</time>
      </trkpt>
      <trkpt lat="45.18788" lon="5.61667">
        <ele>925.8</ele>
        <time>2016-07-29T15:22:27Z</time>
      </trkpt>
      <trkpt lat="45.18785" lon="5.61654">
        <ele>925.6</ele>
        <time>2016-07-29T15:22:29Z</time>
      </trkpt>
      <trkpt lat="45.18783" lon="5.61641">
        <ele>925.4</ele>
        <time>2016-07-29T15:22:31Z</time>
      </trkpt>
      <trkpt lat="45.18782" lon="5.61627">
        <ele>925.3</ele>
        <time>2016-07-29T15:22:34Z</time>
      </trkpt>
      <trkpt lat="45.1878" lon="5.61612">
        <ele>925.3</ele>
        <time>2016-07-29T15:22:38Z</time>
      </trkpt>
      <trkpt lat="45.18778" lon="5.61599">
        <ele>925.3</ele>
        <time>2016-07-29T15:22:41Z</time>
      </trkpt>
      <trkpt lat="45.18774" lon="5.61587">
        <ele>925.2</ele>
        <time>2016-07-29T15:22:44Z</time>
      </trkpt>
      <trkpt lat="45.18767" lon="5.61574">
        <ele>925.3</ele>
        <time>2016-07-29T15:22:48Z</time>
      </trkpt>
      <trkpt lat="45.18762" lon="5.61563">
        <ele>925.3</ele>
        <time>2016-07-29T15:22:51Z</time>
      </trkpt>
      <trkpt lat="45.18757" lon="5.6155">
        <ele>925</ele>
        <time>2016-07-29T15:22:54Z</time>
      </trkpt>
      <trkpt lat="45.1875" lon="5.61537">
        <ele>924.8</ele>
        <time>2016-07-29T15:22:57Z</time>
      </trkpt>
      <trkpt lat="45.18745" lon="5.61524">
        <ele>924.6</ele>
        <time>2016-07-29T15:23:00Z</time>
      </trkpt>
      <trkpt lat="45.18739" lon="5.61513">
        <ele>924.6</ele>
        <time>2016-07-29T15:23:03Z</time>
      </trkpt>
      <trkpt lat="45.18733" lon="5.615">
        <ele>924.4</ele>
        <time>2016-07-29T15:23:06Z</time>
      </trkpt>
      <trkpt lat="45.18724" lon="5.61489">
        <ele>924.1</ele>
        <time>2016-07-29T15:23:09Z</time>
      </trkpt>
      <trkpt lat="45.18715" lon="5.61486">
        <ele>923.7</ele>
        <time>2016-07-29T15:23:11Z</time>
      </trkpt>
      <trkpt lat="45.18706" lon="5.61487">
        <ele>923.3</ele>
        <time>2016-07-29T15:23:13Z</time>
      </trkpt>
      <trkpt lat="45.18696" lon="5.61495">
        <ele>922.9</ele>
        <time>2016-07-29T15:23:15Z</time>
      </trkpt>
      <trkpt lat="45.1869" lon="5.61508">
        <ele>922.5</ele>
        <time>2016-07-29T15:23:17Z</time>
      </trkpt>
      <trkpt lat="45.18687" lon="5.61522">
        <ele>922.1</ele>
        <time>2016-07-29T15:23:19Z</time>
      </trkpt>
      <trkpt lat="45.18685" lon="5.61538">
        <ele>922.1</ele>
        <time>2016-07-29T15:23:21Z</time>
      </trkpt>
      <trkpt lat="45.18682" lon="5.61554">
        <ele>921.8</ele>
        <time>2016-07-29T15:23:23Z</time>
      </trkpt>
      <trkpt lat="45.18677" lon="5.61567">
        <ele>921.5</ele>
        <time>2016-07-29T15:23:25Z</time>
      </trkpt>
      <trkpt lat="45.18673" lon="5.6158">
        <ele>921.3</ele>
        <time>2016-07-29T15:23:27Z</time>
      </trkpt>
      <trkpt lat="45.18667" lon="5.61592">
        <ele>921.2</ele>
        <time>2016-07-29T15:23:29Z</time>
      </trkpt>
      <trkpt lat="45.18662" lon="5.61602">
        <ele>921.2</ele>
        <time>2016-07-29T15:23:31Z</time>
      </trkpt>
      <trkpt lat="45.18654" lon="5.61616">
        <ele>921.2</ele>
        <time>2016-07-29T15:23:34Z</time>
      </trkpt>
      <trkpt lat="45.18646" lon="5.61627">
        <ele>921.2</ele>
        <time>2016-07-29T15:23:37Z</time>
      </trkpt>
      <trkpt lat="45.18639" lon="5.61636">
        <ele>921.4</ele>
        <time>2016-07-29T15:23:40Z</time>
      </trkpt>
      <trkpt lat="45.18632" lon="5.61644">
        <ele>921.8</ele>
        <time>2016-07-29T15:23:43Z</time>
      </trkpt>
      <trkpt lat="45.18623" lon="5.61652">
        <ele>922</ele>
        <time>2016-07-29T15:23:46Z</time>
      </trkpt>
      <trkpt lat="45.18614" lon="5.61659">
        <ele>922.2</ele>
        <time>2016-07-29T15:23:49Z</time>
      </trkpt>
      <trkpt lat="45.18605" lon="5.61666">
        <ele>922.3</ele>
        <time>2016-07-29T15:23:52Z</time>
      </trkpt>
      <trkpt lat="45.18596" lon="5.61676">
        <ele>922.3</ele>
        <time>2016-07-29T15:23:55Z</time>
      </trkpt>
      <trkpt lat="45.18586" lon="5.61687">
        <ele>922</ele>
        <time>2016-07-29T15:23:58Z</time>
      </trkpt>
      <trkpt lat="45.18579" lon="5.61696">
        <ele>921.8</ele>
        <time>2016-07-29T15:24:00Z</time>
      </trkpt>
      <trkpt lat="45.18571" lon="5.61704">
        <ele>921.6</ele>
        <time>2016-07-29T15:24:02Z</time>
      </trkpt>
      <trkpt lat="45.18564" lon="5.61713">
        <ele>921.4</ele>
        <time>2016-07-29T15:24:04Z</time>
      </trkpt>
      <trkpt lat="45.18556" lon="5.61723">
        <ele>921.1</ele>
        <time>2016-07-29T15:24:06Z</time>
      </trkpt>
      <trkpt lat="45.18549" lon="5.61732">
        <ele>921.1</ele>
        <time>2016-07-29T15:24:08Z</time>
      </trkpt>
      <trkpt lat="45.18539" lon="5.61744">
        <ele>921</ele>
        <time>2016-07-29T15:24:11Z</time>
      </trkpt>
      <trkpt lat="45.18532" lon="5.61755">
        <ele>921.1</ele>
        <time>2016-07-29T15:24:14Z</time>
      </trkpt>
      <trkpt lat="45.18525" lon="5.61766">
        <ele>921.2</ele>
        <time>2016-07-29T15:24:17Z</time>
      </trkpt>
      <trkpt lat="45.18519" lon="5.61778">
        <ele>921.5</ele>
        <time>2016-07-29T15:24:20Z</time>
      </trkpt>
      <trkpt lat="45.18513" lon="5.61794">
        <ele>921.6</ele>
        <time>2016-07-29T15:24:23Z</time>
      </trkpt>
      <trkpt lat="45.18506" lon="5.61809">
        <ele>921.5</ele>
        <time>2016-07-29T15:24:26Z</time>
      </trkpt>
      <trkpt lat="45.185" lon="5.61823">
        <ele>921.5</ele>
        <time>2016-07-29T15:24:29Z</time>
      </trkpt>
      <trkpt lat="45.18494" lon="5.61836">
        <ele>921.8</ele>
        <time>2016-07-29T15:24:32Z</time>
      </trkpt>
      <trkpt lat="45.18487" lon="5.61849">
        <ele>921.9</ele>
        <time>2016-07-29T15:24:35Z</time>
      </trkpt>
      <trkpt lat="45.18481" lon="5.61859">
        <ele>921.7</ele>
        <time>2016-07-29T15:24:37Z</time>
      </trkpt>
      <trkpt lat="45.18474" lon="5.61867">
        <ele>921.5</ele>
        <time>2016-07-29T15:24:39Z</time>
      </trkpt>
      <trkpt lat="45.18465" lon="5.61872">
        <ele>921.2</ele>
        <time>2016-07-29T15:24:41Z</time>
      </trkpt>
      <trkpt lat="45.18454" lon="5.61875">
        <ele>920.9</ele>
        <time>2016-07-29T15:24:43Z</time>
      </trkpt>
      <trkpt lat="45.18442" lon="5.61877">
        <ele>920.7</ele>
        <time>2016-07-29T15:24:45Z</time>
      </trkpt>
      <trkpt lat="45.18432" lon="5.61876">
        <ele>920.5</ele>
        <time>2016-07-29T15:24:47Z</time>
      </trkpt>
      <trkpt lat="45.18419" lon="5.61873">
        <ele>920.4</ele>
        <time>2016-07-29T15:24:50Z</time>
      </trkpt>
      <trkpt lat="45.18407" lon="5.61866">
        <ele>920.8</ele>
        <time>2016-07-29T15:24:53Z</time>
      </trkpt>
      <trkpt lat="45.18397" lon="5.6186">
        <ele>921.3</ele>
        <time>2016-07-29T15:24:56Z</time>
      </trkpt>
      <trkpt lat="45.18387" lon="5.61853">
        <ele>921.5</ele>
        <time>2016-07-29T15:24:59Z</time>
      </trkpt>
      <trkpt lat="45.18376" lon="5.61846">
        <ele>921.8</ele>
        <time>2016-07-29T15:25:02Z</time>
      </trkpt>
      <trkpt lat="45.18366" lon="5.61839">
        <ele>922.4</ele>
        <time>2016-07-29T15:25:05Z</time>
      </trkpt>
      <trkpt lat="45.18356" lon="5.61832">
        <ele>922.7</ele>
        <time>2016-07-29T15:25:08Z</time>
      </trkpt>
      <trkpt lat="45.18346" lon="5.61826">
        <ele>923</ele>
        <time>2016-07-29T15:25:11Z</time>
      </trkpt>
      <trkpt lat="45.18333" lon="5.6182">
        <ele>923.1</ele>
        <time>2016-07-29T15:25:14Z</time>
      </trkpt>
      <trkpt lat="45.18325" lon="5.61816">
        <ele>922.8</ele>
        <time>2016-07-29T15:25:16Z</time>
      </trkpt>
      <trkpt lat="45.18316" lon="5.61811">
        <ele>922.5</ele>
        <time>2016-07-29T15:25:18Z</time>
      </trkpt>
      <trkpt lat="45.18304" lon="5.61806">
        <ele>922.1</ele>
        <time>2016-07-29T15:25:21Z</time>
      </trkpt>
      <trkpt lat="45.18293" lon="5.61803">
        <ele>921.6</ele>
        <time>2016-07-29T15:25:24Z</time>
      </trkpt>
      <trkpt lat="45.18279" lon="5.61804">
        <ele>921.2</ele>
        <time>2016-07-29T15:25:27Z</time>
      </trkpt>
      <trkpt lat="45.18269" lon="5.61804">
        <ele>920.6</ele>
        <time>2016-07-29T15:25:29Z</time>
      </trkpt>
      <trkpt lat="45.18257" lon="5.61799">
        <ele>919.9</ele>
        <time>2016-07-29T15:25:31Z</time>
      </trkpt>
      <trkpt lat="45.18244" lon="5.61793">
        <ele>919.1</ele>
        <time>2016-07-29T15:25:33Z</time>
      </trkpt>
      <trkpt lat="45.1823" lon="5.61786">
        <ele>918.1</ele>
        <time>2016-07-29T15:25:35Z</time>
      </trkpt>
      <trkpt lat="45.18215" lon="5.61778">
        <ele>916.7</ele>
        <time>2016-07-29T15:25:37Z</time>
      </trkpt>
      <trkpt lat="45.18196" lon="5.61773">
        <ele>914.7</ele>
        <time>2016-07-29T15:25:39Z</time>
      </trkpt>
      <trkpt lat="45.18186" lon="5.61775">
        <ele>913.6</ele>
        <time>2016-07-29T15:25:40Z</time>
      </trkpt>
      <trkpt lat="45.18169" lon="5.61779">
        <ele>911.4</ele>
        <time>2016-07-29T15:25:42Z</time>
      </trkpt>
      <trkpt lat="45.1815" lon="5.61784">
        <ele>909.3</ele>
        <time>2016-07-29T15:25:44Z</time>
      </trkpt>
      <trkpt lat="45.18138" lon="5.61788">
        <ele>908.1</ele>
        <time>2016-07-29T15:25:45Z</time>
      </trkpt>
      <trkpt lat="45.18126" lon="5.61791">
        <ele>906.9</ele>
        <time>2016-07-29T15:25:46Z</time>
      </trkpt>
      <trkpt lat="45.18113" lon="5.61795">
        <ele>905.9</ele>
        <time>2016-07-29T15:25:47Z</time>
      </trkpt>
      <trkpt lat="45.18101" lon="5.61797">
        <ele>904.8</ele>
        <time>2016-07-29T15:25:48Z</time>
      </trkpt>
      <trkpt lat="45.18088" lon="5.61802">
        <ele>903.7</ele>
        <time>2016-07-29T15:25:49Z</time>
      </trkpt>
      <trkpt lat="45.18075" lon="5.61803">
        <ele>902.7</ele>
        <time>2016-07-29T15:25:50Z</time>
      </trkpt>
      <trkpt lat="45.18063" lon="5.61803">
        <ele>901.9</ele>
        <time>2016-07-29T15:25:51Z</time>
      </trkpt>
      <trkpt lat="45.18051" lon="5.61805">
        <ele>901.2</ele>
        <time>2016-07-29T15:25:52Z</time>
      </trkpt>
      <trkpt lat="45.18039" lon="5.61809">
        <ele>900.3</ele>
        <time>2016-07-29T15:25:53Z</time>
      </trkpt>
      <trkpt lat="45.18028" lon="5.61813">
        <ele>899.6</ele>
        <time>2016-07-29T15:25:54Z</time>
      </trkpt>
      <trkpt lat="45.18014" lon="5.61821">
        <ele>898.9</ele>
        <time>2016-07-29T15:25:55Z</time>
      </trkpt>
      <trkpt lat="45.18002" lon="5.61825">
        <ele>897.9</ele>
        <time>2016-07-29T15:25:56Z</time>
      </trkpt>
      <trkpt lat="45.17989" lon="5.61828">
        <ele>897.1</ele>
        <time>2016-07-29T15:25:57Z</time>
      </trkpt>
      <trkpt lat="45.17976" lon="5.61831">
        <ele>896.2</ele>
        <time>2016-07-29T15:25:58Z</time>
      </trkpt>
      <trkpt lat="45.17964" lon="5.61834">
        <ele>895.3</ele>
        <time>2016-07-29T15:25:59Z</time>
      </trkpt>
      <trkpt lat="45.17951" lon="5.61836">
        <ele>894.3</ele>
        <time>2016-07-29T15:26:00Z</time>
      </trkpt>
      <trkpt lat="45.17937" lon="5.61836">
        <ele>893.4</ele>
        <time>2016-07-29T15:26:01Z</time>
      </trkpt>
      <trkpt lat="45.17925" lon="5.61835">
        <ele>892.6</ele>
        <time>2016-07-29T15:26:02Z</time>
      </trkpt>
      <trkpt lat="45.17912" lon="5.61835">
        <ele>891.5</ele>
        <time>2016-07-29T15:26:03Z</time>
      </trkpt>
      <trkpt lat="45.179" lon="5.61836">
        <ele>890.7</ele>
        <time>2016-07-29T15:26:04Z</time>
      </trkpt>
      <trkpt lat="45.17887" lon="5.6184">
        <ele>889.7</ele>
        <time>2016-07-29T15:26:05Z</time>
      </trkpt>
      <trkpt lat="45.17874" lon="5.61844">
        <ele>888.7</ele>
        <time>2016-07-29T15:26:06Z</time>
      </trkpt>
      <trkpt lat="45.17862" lon="5.61847">
        <ele>887.6</ele>
        <time>2016-07-29T15:26:07Z</time>
      </trkpt>
      <trkpt lat="45.17851" lon="5.61849">
        <ele>886.6</ele>
        <time>2016-07-29T15:26:08Z</time>
      </trkpt>
      <trkpt lat="45.17841" lon="5.61849">
        <ele>885.5</ele>
        <time>2016-07-29T15:26:09Z</time>
      </trkpt>
      <trkpt lat="45.17831" lon="5.61847">
        <ele>884.5</ele>
        <time>2016-07-29T15:26:10Z</time>
      </trkpt>
      <trkpt lat="45.17821" lon="5.61844">
        <ele>883.5</ele>
        <time>2016-07-29T15:26:11Z</time>
      </trkpt>
      <trkpt lat="45.17804" lon="5.61841">
        <ele>882</ele>
        <time>2016-07-29T15:26:13Z</time>
      </trkpt>
      <trkpt lat="45.1779" lon="5.61844">
        <ele>880.4</ele>
        <time>2016-07-29T15:26:15Z</time>
      </trkpt>
      <trkpt lat="45.17777" lon="5.61852">
        <ele>879</ele>
        <time>2016-07-29T15:26:17Z</time>
      </trkpt>
      <trkpt lat="45.17767" lon="5.61859">
        <ele>877.6</ele>
        <time>2016-07-29T15:26:19Z</time>
      </trkpt>
      <trkpt lat="45.17757" lon="5.61865">
        <ele>876.4</ele>
        <time>2016-07-29T15:26:21Z</time>
      </trkpt>
      <trkpt lat="45.17747" lon="5.61868">
        <ele>875.4</ele>
        <time>2016-07-29T15:26:23Z</time>
      </trkpt>
      <trkpt lat="45.17734" lon="5.61868">
        <ele>874.4</ele>
        <time>2016-07-29T15:26:25Z</time>
      </trkpt>
      <trkpt lat="45.17723" lon="5.61867">
        <ele>873.5</ele>
        <time>2016-07-29T15:26:27Z</time>
      </trkpt>
      <trkpt lat="45.17711" lon="5.61865">
        <ele>872.5</ele>
        <time>2016-07-29T15:26:30Z</time>
      </trkpt>
      <trkpt lat="45.17701" lon="5.61866">
        <ele>872</ele>
        <time>2016-07-29T15:26:34Z</time>
      </trkpt>
      <trkpt lat="45.17695" lon="5.61858">
        <ele>872.1</ele>
        <time>2016-07-29T15:27:29Z</time>
      </trkpt>
      <trkpt lat="45.17692" lon="5.6187">
        <ele>872</ele>
        <time>2016-07-29T15:29:48Z</time>
      </trkpt>
      <trkpt lat="45.17694" lon="5.61885">
        <ele>871.7</ele>
        <time>2016-07-29T15:29:54Z</time>
      </trkpt>
      <trkpt lat="45.17703" lon="5.61894">
        <ele>871.8</ele>
        <time>2016-07-29T15:30:00Z</time>
      </trkpt>
      <trkpt lat="45.17715" lon="5.61897">
        <ele>871.6</ele>
        <time>2016-07-29T15:30:04Z</time>
      </trkpt>
      <trkpt lat="45.17736" lon="5.61896">
        <ele>870</ele>
        <time>2016-07-29T15:30:10Z</time>
      </trkpt>
      <trkpt lat="45.17747" lon="5.61895">
        <ele>870.8</ele>
        <time>2016-07-29T15:30:13Z</time>
      </trkpt>
      <trkpt lat="45.17762" lon="5.61893">
        <ele>870</ele>
        <time>2016-07-29T15:30:17Z</time>
      </trkpt>
      <trkpt lat="45.17777" lon="5.61891">
        <ele>869</ele>
        <time>2016-07-29T15:30:21Z</time>
      </trkpt>
      <trkpt lat="45.17793" lon="5.61893">
        <ele>868</ele>
        <time>2016-07-29T15:30:25Z</time>
      </trkpt>
      <trkpt lat="45.17809" lon="5.61901">
        <ele>867</ele>
        <time>2016-07-29T15:30:29Z</time>
      </trkpt>
      <trkpt lat="45.17822" lon="5.61908">
        <ele>867.3</ele>
        <time>2016-07-29T15:30:32Z</time>
      </trkpt>
      <trkpt lat="45.17831" lon="5.61914">
        <ele>867</ele>
        <time>2016-07-29T15:30:34Z</time>
      </trkpt>
      <trkpt lat="45.17839" lon="5.61918">
        <ele>866.6</ele>
        <time>2016-07-29T15:30:36Z</time>
      </trkpt>
      <trkpt lat="45.17852" lon="5.61923">
        <ele>866.1</ele>
        <time>2016-07-29T15:30:39Z</time>
      </trkpt>
      <trkpt lat="45.17868" lon="5.61929">
        <ele>865</ele>
        <time>2016-07-29T15:30:43Z</time>
      </trkpt>
      <trkpt lat="45.17879" lon="5.61934">
        <ele>865.3</ele>
        <time>2016-07-29T15:30:46Z</time>
      </trkpt>
      <trkpt lat="45.17888" lon="5.61943">
        <ele>864.3</ele>
        <time>2016-07-29T15:30:50Z</time>
      </trkpt>
      <trkpt lat="45.179" lon="5.61953">
        <ele>862.1</ele>
        <time>2016-07-29T15:30:53Z</time>
      </trkpt>
      <trkpt lat="45.17909" lon="5.61959">
        <ele>860.5</ele>
        <time>2016-07-29T15:30:55Z</time>
      </trkpt>
      <trkpt lat="45.17919" lon="5.61964">
        <ele>859.1</ele>
        <time>2016-07-29T15:30:57Z</time>
      </trkpt>
      <trkpt lat="45.17928" lon="5.61969">
        <ele>858.1</ele>
        <time>2016-07-29T15:30:59Z</time>
      </trkpt>
      <trkpt lat="45.17937" lon="5.61976">
        <ele>856.5</ele>
        <time>2016-07-29T15:31:02Z</time>
      </trkpt>
      <trkpt lat="45.17943" lon="5.61985">
        <ele>854.9</ele>
        <time>2016-07-29T15:31:06Z</time>
      </trkpt>
      <trkpt lat="45.17942" lon="5.61999">
        <ele>851.2</ele>
        <time>2016-07-29T15:31:20Z</time>
      </trkpt>
      <trkpt lat="45.17936" lon="5.62009">
        <ele>851</ele>
        <time>2016-07-29T15:31:23Z</time>
      </trkpt>
      <trkpt lat="45.17929" lon="5.62023">
        <ele>850.7</ele>
        <time>2016-07-29T15:31:27Z</time>
      </trkpt>
      <trkpt lat="45.17927" lon="5.62036">
        <ele>850.3</ele>
        <time>2016-07-29T15:31:30Z</time>
      </trkpt>
      <trkpt lat="45.17928" lon="5.6205">
        <ele>850.1</ele>
        <time>2016-07-29T15:31:33Z</time>
      </trkpt>
      <trkpt lat="45.17934" lon="5.62062">
        <ele>850.2</ele>
        <time>2016-07-29T15:31:37Z</time>
      </trkpt>
      <trkpt lat="45.17947" lon="5.62068">
        <ele>850.2</ele>
        <time>2016-07-29T15:31:45Z</time>
      </trkpt>
      <trkpt lat="45.17957" lon="5.62068">
        <ele>850.6</ele>
        <time>2016-07-29T15:31:52Z</time>
      </trkpt>
      <trkpt lat="45.17966" lon="5.62072">
        <ele>850.8</ele>
        <time>2016-07-29T15:31:56Z</time>
      </trkpt>
      <trkpt lat="45.17975" lon="5.6207">
        <ele>850.7</ele>
        <time>2016-07-29T15:33:48Z</time>
      </trkpt>
      <trkpt lat="45.17984" lon="5.62068">
        <ele>851</ele>
        <time>2016-07-29T15:33:57Z</time>
      </trkpt>
      <trkpt lat="45.17994" lon="5.62064">
        <ele>851.4</ele>
        <time>2016-07-29T15:34:05Z</time>
      </trkpt>
      <trkpt lat="45.18004" lon="5.62062">
        <ele>851.6</ele>
        <time>2016-07-29T15:34:11Z</time>
      </trkpt>
      <trkpt lat="45.18013" lon="5.62064">
        <ele>851.9</ele>
        <time>2016-07-29T15:34:15Z</time>
      </trkpt>
      <trkpt lat="45.18023" lon="5.6207">
        <ele>852.4</ele>
        <time>2016-07-29T15:34:20Z</time>
      </trkpt>
      <trkpt lat="45.18031" lon="5.62078">
        <ele>853</ele>
        <time>2016-07-29T15:34:24Z</time>
      </trkpt>
      <trkpt lat="45.18039" lon="5.62087">
        <ele>854.3</ele>
        <time>2016-07-29T15:34:29Z</time>
      </trkpt>
      <trkpt lat="45.18046" lon="5.62095">
        <ele>855.5</ele>
        <time>2016-07-29T15:34:34Z</time>
      </trkpt>
      <trkpt lat="45.18053" lon="5.62104">
        <ele>856.7</ele>
        <time>2016-07-29T15:34:40Z</time>
      </trkpt>
      <trkpt lat="45.1806" lon="5.62115">
        <ele>857.8</ele>
        <time>2016-07-29T15:34:47Z</time>
      </trkpt>
      <trkpt lat="45.18067" lon="5.62124">
        <ele>858.8</ele>
        <time>2016-07-29T15:34:53Z</time>
      </trkpt>
      <trkpt lat="45.18075" lon="5.6213">
        <ele>860.2</ele>
        <time>2016-07-29T15:35:00Z</time>
      </trkpt>
      <trkpt lat="45.18084" lon="5.62135">
        <ele>861.6</ele>
        <time>2016-07-29T15:35:06Z</time>
      </trkpt>
      <trkpt lat="45.18095" lon="5.62137">
        <ele>862.7</ele>
        <time>2016-07-29T15:35:12Z</time>
      </trkpt>
      <trkpt lat="45.18105" lon="5.62142">
        <ele>863.2</ele>
        <time>2016-07-29T15:35:17Z</time>
      </trkpt>
      <trkpt lat="45.18114" lon="5.62145">
        <ele>863.8</ele>
        <time>2016-07-29T15:35:22Z</time>
      </trkpt>
      <trkpt lat="45.18124" lon="5.62148">
        <ele>864.5</ele>
        <time>2016-07-29T15:35:27Z</time>
      </trkpt>
      <trkpt lat="45.18133" lon="5.62153">
        <ele>865.2</ele>
        <time>2016-07-29T15:35:33Z</time>
      </trkpt>
      <trkpt lat="45.18141" lon="5.62163">
        <ele>865.7</ele>
        <time>2016-07-29T15:35:38Z</time>
      </trkpt>
      <trkpt lat="45.18144" lon="5.62175">
        <ele>866</ele>
        <time>2016-07-29T15:35:43Z</time>
      </trkpt>
      <trkpt lat="45.18146" lon="5.62189">
        <ele>866</ele>
        <time>2016-07-29T15:35:47Z</time>
      </trkpt>
      <trkpt lat="45.1815" lon="5.62202">
        <ele>866.1</ele>
        <time>2016-07-29T15:35:50Z</time>
      </trkpt>
      <trkpt lat="45.18155" lon="5.62217">
        <ele>865.9</ele>
        <time>2016-07-29T15:35:53Z</time>
      </trkpt>
      <trkpt lat="45.18158" lon="5.62229">
        <ele>865.6</ele>
        <time>2016-07-29T15:35:56Z</time>
      </trkpt>
      <trkpt lat="45.18162" lon="5.62241">
        <ele>865.4</ele>
        <time>2016-07-29T15:36:00Z</time>
      </trkpt>
      <trkpt lat="45.18169" lon="5.62254">
        <ele>865.4</ele>
        <time>2016-07-29T15:36:04Z</time>
      </trkpt>
      <trkpt lat="45.18176" lon="5.62265">
        <ele>865.6</ele>
        <time>2016-07-29T15:36:07Z</time>
      </trkpt>
      <trkpt lat="45.18184" lon="5.62273">
        <ele>865.7</ele>
        <time>2016-07-29T15:36:10Z</time>
      </trkpt>
      <trkpt lat="45.18191" lon="5.62283">
        <ele>866.2</ele>
        <time>2016-07-29T15:36:13Z</time>
      </trkpt>
      <trkpt lat="45.18197" lon="5.62294">
        <ele>866.8</ele>
        <time>2016-07-29T15:36:16Z</time>
      </trkpt>
      <trkpt lat="45.18204" lon="5.62303">
        <ele>867.4</ele>
        <time>2016-07-29T15:36:19Z</time>
      </trkpt>
      <trkpt lat="45.18213" lon="5.62311">
        <ele>868.1</ele>
        <time>2016-07-29T15:36:22Z</time>
      </trkpt>
      <trkpt lat="45.18226" lon="5.62324">
        <ele>869.3</ele>
        <time>2016-07-29T15:36:27Z</time>
      </trkpt>
      <trkpt lat="45.18234" lon="5.62333">
        <ele>870.2</ele>
        <time>2016-07-29T15:36:31Z</time>
      </trkpt>
      <trkpt lat="45.18241" lon="5.62347">
        <ele>870.4</ele>
        <time>2016-07-29T15:36:35Z</time>
      </trkpt>
      <trkpt lat="45.1825" lon="5.62355">
        <ele>870.1</ele>
        <time>2016-07-29T15:36:37Z</time>
      </trkpt>
      <trkpt lat="45.18258" lon="5.62363">
        <ele>869.7</ele>
        <time>2016-07-29T15:36:39Z</time>
      </trkpt>
      <trkpt lat="45.18268" lon="5.62371">
        <ele>869.3</ele>
        <time>2016-07-29T15:36:41Z</time>
      </trkpt>
      <trkpt lat="45.18276" lon="5.62382">
        <ele>868.9</ele>
        <time>2016-07-29T15:36:43Z</time>
      </trkpt>
      <trkpt lat="45.18284" lon="5.62395">
        <ele>868.5</ele>
        <time>2016-07-29T15:36:45Z</time>
      </trkpt>
      <trkpt lat="45.18291" lon="5.62409">
        <ele>868.2</ele>
        <time>2016-07-29T15:36:47Z</time>
      </trkpt>
      <trkpt lat="45.18299" lon="5.62423">
        <ele>868</ele>
        <time>2016-07-29T15:36:49Z</time>
      </trkpt>
      <trkpt lat="45.18302" lon="5.62437">
        <ele>867.7</ele>
        <time>2016-07-29T15:36:51Z</time>
      </trkpt>
      <trkpt lat="45.18304" lon="5.6245">
        <ele>867.5</ele>
        <time>2016-07-29T15:36:53Z</time>
      </trkpt>
      <trkpt lat="45.18305" lon="5.62463">
        <ele>867.4</ele>
        <time>2016-07-29T15:36:55Z</time>
      </trkpt>
      <trkpt lat="45.1831" lon="5.62476">
        <ele>867.4</ele>
        <time>2016-07-29T15:36:57Z</time>
      </trkpt>
      <trkpt lat="45.1832" lon="5.62486">
        <ele>867.5</ele>
        <time>2016-07-29T15:37:00Z</time>
      </trkpt>
      <trkpt lat="45.18331" lon="5.62488">
        <ele>868.1</ele>
        <time>2016-07-29T15:37:04Z</time>
      </trkpt>
      <trkpt lat="45.18342" lon="5.62485">
        <ele>869.2</ele>
        <time>2016-07-29T15:37:08Z</time>
      </trkpt>
      <trkpt lat="45.18352" lon="5.62482">
        <ele>869.9</ele>
        <time>2016-07-29T15:37:12Z</time>
      </trkpt>
      <trkpt lat="45.18361" lon="5.62478">
        <ele>870.5</ele>
        <time>2016-07-29T15:37:16Z</time>
      </trkpt>
      <trkpt lat="45.18372" lon="5.62474">
        <ele>871.6</ele>
        <time>2016-07-29T15:37:21Z</time>
      </trkpt>
      <trkpt lat="45.18381" lon="5.62469">
        <ele>872.3</ele>
        <time>2016-07-29T15:37:25Z</time>
      </trkpt>
      <trkpt lat="45.18389" lon="5.62463">
        <ele>873.4</ele>
        <time>2016-07-29T15:37:30Z</time>
      </trkpt>
      <trkpt lat="45.18396" lon="5.62455">
        <ele>874.2</ele>
        <time>2016-07-29T15:37:35Z</time>
      </trkpt>
      <trkpt lat="45.18403" lon="5.62446">
        <ele>875.4</ele>
        <time>2016-07-29T15:37:40Z</time>
      </trkpt>
      <trkpt lat="45.18412" lon="5.62439">
        <ele>876.4</ele>
        <time>2016-07-29T15:37:45Z</time>
      </trkpt>
      <trkpt lat="45.18422" lon="5.62442">
        <ele>877.3</ele>
        <time>2016-07-29T15:37:50Z</time>
      </trkpt>
      <trkpt lat="45.18423" lon="5.62455">
        <ele>878.1</ele>
        <time>2016-07-29T15:37:55Z</time>
      </trkpt>
      <trkpt lat="45.18421" lon="5.6247">
        <ele>879</ele>
        <time>2016-07-29T15:38:00Z</time>
      </trkpt>
      <trkpt lat="45.1842" lon="5.62485">
        <ele>879.9</ele>
        <time>2016-07-29T15:38:05Z</time>
      </trkpt>
      <trkpt lat="45.1842" lon="5.62498">
        <ele>880.4</ele>
        <time>2016-07-29T15:38:09Z</time>
      </trkpt>
      <trkpt lat="45.18423" lon="5.62512">
        <ele>881</ele>
        <time>2016-07-29T15:38:13Z</time>
      </trkpt>
      <trkpt lat="45.18428" lon="5.62525">
        <ele>881.6</ele>
        <time>2016-07-29T15:38:17Z</time>
      </trkpt>
      <trkpt lat="45.18433" lon="5.62537">
        <ele>881.9</ele>
        <time>2016-07-29T15:38:21Z</time>
      </trkpt>
      <trkpt lat="45.18439" lon="5.62549">
        <ele>882.4</ele>
        <time>2016-07-29T15:38:25Z</time>
      </trkpt>
      <trkpt lat="45.18444" lon="5.62562">
        <ele>883</ele>
        <time>2016-07-29T15:38:29Z</time>
      </trkpt>
      <trkpt lat="45.1845" lon="5.62574">
        <ele>883.5</ele>
        <time>2016-07-29T15:38:33Z</time>
      </trkpt>
      <trkpt lat="45.18458" lon="5.62584">
        <ele>883.7</ele>
        <time>2016-07-29T15:38:37Z</time>
      </trkpt>
      <trkpt lat="45.18465" lon="5.62596">
        <ele>883.8</ele>
        <time>2016-07-29T15:38:41Z</time>
      </trkpt>
      <trkpt lat="45.18471" lon="5.62609">
        <ele>883.5</ele>
        <time>2016-07-29T15:38:45Z</time>
      </trkpt>
      <trkpt lat="45.18474" lon="5.62626">
        <ele>883.1</ele>
        <time>2016-07-29T15:38:48Z</time>
      </trkpt>
      <trkpt lat="45.1848" lon="5.6264">
        <ele>882.7</ele>
        <time>2016-07-29T15:38:51Z</time>
      </trkpt>
      <trkpt lat="45.18488" lon="5.62653">
        <ele>882.3</ele>
        <time>2016-07-29T15:38:54Z</time>
      </trkpt>
      <trkpt lat="45.18498" lon="5.62667">
        <ele>882</ele>
        <time>2016-07-29T15:38:57Z</time>
      </trkpt>
      <trkpt lat="45.18507" lon="5.62675">
        <ele>881.6</ele>
        <time>2016-07-29T15:38:59Z</time>
      </trkpt>
      <trkpt lat="45.18515" lon="5.62684">
        <ele>881.1</ele>
        <time>2016-07-29T15:39:01Z</time>
      </trkpt>
      <trkpt lat="45.18523" lon="5.62694">
        <ele>881</ele>
        <time>2016-07-29T15:39:03Z</time>
      </trkpt>
      <trkpt lat="45.18529" lon="5.62704">
        <ele>880.7</ele>
        <time>2016-07-29T15:39:05Z</time>
      </trkpt>
      <trkpt lat="45.18536" lon="5.62715">
        <ele>880.4</ele>
        <time>2016-07-29T15:39:08Z</time>
      </trkpt>
      <trkpt lat="45.18544" lon="5.62722">
        <ele>880.1</ele>
        <time>2016-07-29T15:39:12Z</time>
      </trkpt>
      <trkpt lat="45.18552" lon="5.6273">
        <ele>880.3</ele>
        <time>2016-07-29T15:39:16Z</time>
      </trkpt>
      <trkpt lat="45.18559" lon="5.6274">
        <ele>880.1</ele>
        <time>2016-07-29T15:39:19Z</time>
      </trkpt>
      <trkpt lat="45.18566" lon="5.62749">
        <ele>879.8</ele>
        <time>2016-07-29T15:39:22Z</time>
      </trkpt>
      <trkpt lat="45.18573" lon="5.62756">
        <ele>879.5</ele>
        <time>2016-07-29T15:39:26Z</time>
      </trkpt>
      <trkpt lat="45.18583" lon="5.62769">
        <ele>879.2</ele>
        <time>2016-07-29T15:39:29Z</time>
      </trkpt>
      <trkpt lat="45.18593" lon="5.62775">
        <ele>878.6</ele>
        <time>2016-07-29T15:39:33Z</time>
      </trkpt>
      <trkpt lat="45.18603" lon="5.62783">
        <ele>878.8</ele>
        <time>2016-07-29T15:39:37Z</time>
      </trkpt>
      <trkpt lat="45.18615" lon="5.62791">
        <ele>879.2</ele>
        <time>2016-07-29T15:39:39Z</time>
      </trkpt>
      <trkpt lat="45.18623" lon="5.62799">
        <ele>879.9</ele>
        <time>2016-07-29T15:39:43Z</time>
      </trkpt>
      <trkpt lat="45.18634" lon="5.62807">
        <ele>880.7</ele>
        <time>2016-07-29T15:39:48Z</time>
      </trkpt>
      <trkpt lat="45.18643" lon="5.62815">
        <ele>881.3</ele>
        <time>2016-07-29T15:39:52Z</time>
      </trkpt>
      <trkpt lat="45.18651" lon="5.62829">
        <ele>882</ele>
        <time>2016-07-29T15:40:00Z</time>
      </trkpt>
      <trkpt lat="45.1866" lon="5.62833">
        <ele>883.6</ele>
        <time>2016-07-29T15:40:03Z</time>
      </trkpt>
      <trkpt lat="45.1867" lon="5.62839">
        <ele>884.5</ele>
        <time>2016-07-29T15:40:06Z</time>
      </trkpt>
      <trkpt lat="45.18678" lon="5.62846">
        <ele>885.3</ele>
        <time>2016-07-29T15:40:09Z</time>
      </trkpt>
      <trkpt lat="45.18686" lon="5.62853">
        <ele>886.5</ele>
        <time>2016-07-29T15:40:12Z</time>
      </trkpt>
      <trkpt lat="45.18694" lon="5.6286">
        <ele>887.7</ele>
        <time>2016-07-29T15:40:16Z</time>
      </trkpt>
      <trkpt lat="45.18702" lon="5.62867">
        <ele>888.9</ele>
        <time>2016-07-29T15:40:20Z</time>
      </trkpt>
      <trkpt lat="45.1871" lon="5.62873">
        <ele>889.6</ele>
        <time>2016-07-29T15:40:23Z</time>
      </trkpt>
      <trkpt lat="45.1872" lon="5.62881">
        <ele>890.7</ele>
        <time>2016-07-29T15:40:28Z</time>
      </trkpt>
      <trkpt lat="45.18729" lon="5.62888">
        <ele>891.3</ele>
        <time>2016-07-29T15:40:33Z</time>
      </trkpt>
      <trkpt lat="45.18736" lon="5.629">
        <ele>891.7</ele>
        <time>2016-07-29T15:40:37Z</time>
      </trkpt>
      <trkpt lat="45.18747" lon="5.62907">
        <ele>891.6</ele>
        <time>2016-07-29T15:40:40Z</time>
      </trkpt>
      <trkpt lat="45.18755" lon="5.62914">
        <ele>891.3</ele>
        <time>2016-07-29T15:40:45Z</time>
      </trkpt>
      <trkpt lat="45.18765" lon="5.62922">
        <ele>890.9</ele>
        <time>2016-07-29T15:40:49Z</time>
      </trkpt>
      <trkpt lat="45.18773" lon="5.62933">
        <ele>890.7</ele>
        <time>2016-07-29T15:40:52Z</time>
      </trkpt>
      <trkpt lat="45.18781" lon="5.62941">
        <ele>890.4</ele>
        <time>2016-07-29T15:40:55Z</time>
      </trkpt>
      <trkpt lat="45.18786" lon="5.62951">
        <ele>890.5</ele>
        <time>2016-07-29T15:40:57Z</time>
      </trkpt>
      <trkpt lat="45.18796" lon="5.6296">
        <ele>890.6</ele>
        <time>2016-07-29T15:41:01Z</time>
      </trkpt>
      <trkpt lat="45.18806" lon="5.62967">
        <ele>890.9</ele>
        <time>2016-07-29T15:41:04Z</time>
      </trkpt>
      <trkpt lat="45.18814" lon="5.62974">
        <ele>891.4</ele>
        <time>2016-07-29T15:41:09Z</time>
      </trkpt>
      <trkpt lat="45.18822" lon="5.62982">
        <ele>892.1</ele>
        <time>2016-07-29T15:41:13Z</time>
      </trkpt>
      <trkpt lat="45.18831" lon="5.62993">
        <ele>893.5</ele>
        <time>2016-07-29T15:41:17Z</time>
      </trkpt>
      <trkpt lat="45.18842" lon="5.63004">
        <ele>894.5</ele>
        <time>2016-07-29T15:41:20Z</time>
      </trkpt>
      <trkpt lat="45.18851" lon="5.6301">
        <ele>895.8</ele>
        <time>2016-07-29T15:41:24Z</time>
      </trkpt>
      <trkpt lat="45.18859" lon="5.63018">
        <ele>897.8</ele>
        <time>2016-07-29T15:41:29Z</time>
      </trkpt>
      <trkpt lat="45.18867" lon="5.63025">
        <ele>900.9</ele>
        <time>2016-07-29T15:41:36Z</time>
      </trkpt>
      <trkpt lat="45.18874" lon="5.63035">
        <ele>903.7</ele>
        <time>2016-07-29T15:41:44Z</time>
      </trkpt>
      <trkpt lat="45.18884" lon="5.63043">
        <ele>905.3</ele>
        <time>2016-07-29T15:41:49Z</time>
      </trkpt>
      <trkpt lat="45.18894" lon="5.63051">
        <ele>906.9</ele>
        <time>2016-07-29T15:41:54Z</time>
      </trkpt>
      <trkpt lat="45.18903" lon="5.63057">
        <ele>908.1</ele>
        <time>2016-07-29T15:41:58Z</time>
      </trkpt>
      <trkpt lat="45.18915" lon="5.63062">
        <ele>909.7</ele>
        <time>2016-07-29T15:42:03Z</time>
      </trkpt>
      <trkpt lat="45.18924" lon="5.63066">
        <ele>911.6</ele>
        <time>2016-07-29T15:42:10Z</time>
      </trkpt>
      <trkpt lat="45.18934" lon="5.63072">
        <ele>913.7</ele>
        <time>2016-07-29T15:42:17Z</time>
      </trkpt>
      <trkpt lat="45.18945" lon="5.63081">
        <ele>915.8</ele>
        <time>2016-07-29T15:42:26Z</time>
      </trkpt>
      <trkpt lat="45.18954" lon="5.63088">
        <ele>916.7</ele>
        <time>2016-07-29T15:42:31Z</time>
      </trkpt>
      <trkpt lat="45.18963" lon="5.6309">
        <ele>918.7</ele>
        <time>2016-07-29T15:42:40Z</time>
      </trkpt>
      <trkpt lat="45.18971" lon="5.63094">
        <ele>920.1</ele>
        <time>2016-07-29T15:42:46Z</time>
      </trkpt>
      <trkpt lat="45.18981" lon="5.63096">
        <ele>921.9</ele>
        <time>2016-07-29T15:42:55Z</time>
      </trkpt>
      <trkpt lat="45.18989" lon="5.63106">
        <ele>923.4</ele>
        <time>2016-07-29T15:43:03Z</time>
      </trkpt>
      <trkpt lat="45.18997" lon="5.63114">
        <ele>924.2</ele>
        <time>2016-07-29T15:43:10Z</time>
      </trkpt>
      <trkpt lat="45.19004" lon="5.63124">
        <ele>925.3</ele>
        <time>2016-07-29T15:43:17Z</time>
      </trkpt>
      <trkpt lat="45.19012" lon="5.63131">
        <ele>925.9</ele>
        <time>2016-07-29T15:43:22Z</time>
      </trkpt>
      <trkpt lat="45.19021" lon="5.63141">
        <ele>926.3</ele>
        <time>2016-07-29T15:43:27Z</time>
      </trkpt>
      <trkpt lat="45.19029" lon="5.6315">
        <ele>926.5</ele>
        <time>2016-07-29T15:43:33Z</time>
      </trkpt>
      <trkpt lat="45.19036" lon="5.63159">
        <ele>926.2</ele>
        <time>2016-07-29T15:43:38Z</time>
      </trkpt>
      <trkpt lat="45.1904" lon="5.63173">
        <ele>925.8</ele>
        <time>2016-07-29T15:43:42Z</time>
      </trkpt>
      <trkpt lat="45.19047" lon="5.63181">
        <ele>925.2</ele>
        <time>2016-07-29T15:43:44Z</time>
      </trkpt>
      <trkpt lat="45.19059" lon="5.63196">
        <ele>923</ele>
        <time>2016-07-29T15:43:48Z</time>
      </trkpt>
      <trkpt lat="45.19069" lon="5.63204">
        <ele>923</ele>
        <time>2016-07-29T15:43:52Z</time>
      </trkpt>
      <trkpt lat="45.1908" lon="5.63209">
        <ele>924.7</ele>
        <time>2016-07-29T15:44:02Z</time>
      </trkpt>
      <trkpt lat="45.19088" lon="5.63215">
        <ele>925</ele>
        <time>2016-07-29T15:44:05Z</time>
      </trkpt>
      <trkpt lat="45.19096" lon="5.63226">
        <ele>925</ele>
        <time>2016-07-29T15:44:09Z</time>
      </trkpt>
      <trkpt lat="45.19104" lon="5.63236">
        <ele>925.7</ele>
        <time>2016-07-29T15:44:17Z</time>
      </trkpt>
      <trkpt lat="45.19114" lon="5.63243">
        <ele>926.9</ele>
        <time>2016-07-29T15:44:26Z</time>
      </trkpt>
      <trkpt lat="45.19125" lon="5.63244">
        <ele>928.1</ele>
        <time>2016-07-29T15:44:31Z</time>
      </trkpt>
      <trkpt lat="45.19134" lon="5.63245">
        <ele>929.4</ele>
        <time>2016-07-29T15:44:36Z</time>
      </trkpt>
      <trkpt lat="45.19144" lon="5.63247">
        <ele>930.2</ele>
        <time>2016-07-29T15:44:41Z</time>
      </trkpt>
      <trkpt lat="45.19154" lon="5.63253">
        <ele>930.5</ele>
        <time>2016-07-29T15:44:44Z</time>
      </trkpt>
      <trkpt lat="45.19162" lon="5.63261">
        <ele>931.8</ele>
        <time>2016-07-29T15:45:01Z</time>
      </trkpt>
      <trkpt lat="45.19166" lon="5.63273">
        <ele>935.3</ele>
        <time>2016-07-29T15:45:18Z</time>
      </trkpt>
      <trkpt lat="45.19174" lon="5.63282">
        <ele>936.9</ele>
        <time>2016-07-29T15:45:36Z</time>
      </trkpt>
      <trkpt lat="45.19183" lon="5.63288">
        <ele>937.5</ele>
        <time>2016-07-29T15:45:43Z</time>
      </trkpt>
      <trkpt lat="45.19192" lon="5.63295">
        <ele>938.3</ele>
        <time>2016-07-29T15:45:50Z</time>
      </trkpt>
      <trkpt lat="45.19199" lon="5.63303">
        <ele>939.6</ele>
        <time>2016-07-29T15:45:57Z</time>
      </trkpt>
      <trkpt lat="45.19206" lon="5.63314">
        <ele>940.8</ele>
        <time>2016-07-29T15:46:06Z</time>
      </trkpt>
      <trkpt lat="45.19212" lon="5.63324">
        <ele>942</ele>
        <time>2016-07-29T15:46:13Z</time>
      </trkpt>
      <trkpt lat="45.1922" lon="5.63336">
        <ele>942.7</ele>
        <time>2016-07-29T15:46:17Z</time>
      </trkpt>
      <trkpt lat="45.19228" lon="5.63343">
        <ele>943.7</ele>
        <time>2016-07-29T15:46:21Z</time>
      </trkpt>
      <trkpt lat="45.19237" lon="5.63351">
        <ele>944.7</ele>
        <time>2016-07-29T15:46:27Z</time>
      </trkpt>
      <trkpt lat="45.19244" lon="5.63359">
        <ele>944.9</ele>
        <time>2016-07-29T15:46:32Z</time>
      </trkpt>
      <trkpt lat="45.19251" lon="5.63367">
        <ele>945.2</ele>
        <time>2016-07-29T15:46:36Z</time>
      </trkpt>
      <trkpt lat="45.19259" lon="5.63376">
        <ele>945.7</ele>
        <time>2016-07-29T15:46:41Z</time>
      </trkpt>
      <trkpt lat="45.19266" lon="5.63384">
        <ele>945.9</ele>
        <time>2016-07-29T15:46:45Z</time>
      </trkpt>
      <trkpt lat="45.19274" lon="5.63395">
        <ele>946.2</ele>
        <time>2016-07-29T15:46:50Z</time>
      </trkpt>
      <trkpt lat="45.19281" lon="5.63403">
        <ele>946.6</ele>
        <time>2016-07-29T15:46:55Z</time>
      </trkpt>
      <trkpt lat="45.19287" lon="5.63415">
        <ele>947.1</ele>
        <time>2016-07-29T15:47:00Z</time>
      </trkpt>
      <trkpt lat="45.19296" lon="5.63423">
        <ele>947.8</ele>
        <time>2016-07-29T15:47:06Z</time>
      </trkpt>
      <trkpt lat="45.19302" lon="5.63435">
        <ele>948.6</ele>
        <time>2016-07-29T15:47:12Z</time>
      </trkpt>
      <trkpt lat="45.19306" lon="5.63447">
        <ele>949.4</ele>
        <time>2016-07-29T15:47:17Z</time>
      </trkpt>
      <trkpt lat="45.1931" lon="5.63459">
        <ele>950.6</ele>
        <time>2016-07-29T15:47:22Z</time>
      </trkpt>
      <trkpt lat="45.19314" lon="5.63471">
        <ele>952</ele>
        <time>2016-07-29T15:47:27Z</time>
      </trkpt>
      <trkpt lat="45.19319" lon="5.63483">
        <ele>953.5</ele>
        <time>2016-07-29T15:47:37Z</time>
      </trkpt>
      <trkpt lat="45.19329" lon="5.6349">
        <ele>954.4</ele>
        <time>2016-07-29T15:47:46Z</time>
      </trkpt>
      <trkpt lat="45.19333" lon="5.63503">
        <ele>954.6</ele>
        <time>2016-07-29T15:47:51Z</time>
      </trkpt>
      <trkpt lat="45.19335" lon="5.63517">
        <ele>955.1</ele>
        <time>2016-07-29T15:47:58Z</time>
      </trkpt>
      <trkpt lat="45.19335" lon="5.63531">
        <ele>955.5</ele>
        <time>2016-07-29T15:48:04Z</time>
      </trkpt>
      <trkpt lat="45.19339" lon="5.63544">
        <ele>956.4</ele>
        <time>2016-07-29T15:48:10Z</time>
      </trkpt>
      <trkpt lat="45.19341" lon="5.63557">
        <ele>957.6</ele>
        <time>2016-07-29T15:48:17Z</time>
      </trkpt>
      <trkpt lat="45.19344" lon="5.63571">
        <ele>958.5</ele>
        <time>2016-07-29T15:48:23Z</time>
      </trkpt>
      <trkpt lat="45.19349" lon="5.63583">
        <ele>958.8</ele>
        <time>2016-07-29T15:48:28Z</time>
      </trkpt>
      <trkpt lat="45.19353" lon="5.63597">
        <ele>959.1</ele>
        <time>2016-07-29T15:48:34Z</time>
      </trkpt>
      <trkpt lat="45.19356" lon="5.6361">
        <ele>959.8</ele>
        <time>2016-07-29T15:48:41Z</time>
      </trkpt>
      <trkpt lat="45.19361" lon="5.63623">
        <ele>961.2</ele>
        <time>2016-07-29T15:48:48Z</time>
      </trkpt>
      <trkpt lat="45.19364" lon="5.63638">
        <ele>962.4</ele>
        <time>2016-07-29T15:48:55Z</time>
      </trkpt>
      <trkpt lat="45.19368" lon="5.63651">
        <ele>963.5</ele>
        <time>2016-07-29T15:49:02Z</time>
      </trkpt>
      <trkpt lat="45.1937" lon="5.63665">
        <ele>963.9</ele>
        <time>2016-07-29T15:49:09Z</time>
      </trkpt>
      <trkpt lat="45.1937" lon="5.63681">
        <ele>965.3</ele>
        <time>2016-07-29T15:49:19Z</time>
      </trkpt>
      <trkpt lat="45.19371" lon="5.63694">
        <ele>965.7</ele>
        <time>2016-07-29T15:49:22Z</time>
      </trkpt>
      <trkpt lat="45.19372" lon="5.63707">
        <ele>966.2</ele>
        <time>2016-07-29T15:49:28Z</time>
      </trkpt>
      <trkpt lat="45.19373" lon="5.6372">
        <ele>966.8</ele>
        <time>2016-07-29T15:49:33Z</time>
      </trkpt>
      <trkpt lat="45.19374" lon="5.63733">
        <ele>967.5</ele>
        <time>2016-07-29T15:49:40Z</time>
      </trkpt>
      <trkpt lat="45.19372" lon="5.63746">
        <ele>968.1</ele>
        <time>2016-07-29T15:49:46Z</time>
      </trkpt>
      <trkpt lat="45.19377" lon="5.63759">
        <ele>968.5</ele>
        <time>2016-07-29T15:49:51Z</time>
      </trkpt>
      <trkpt lat="45.19382" lon="5.63771">
        <ele>968.8</ele>
        <time>2016-07-29T15:49:57Z</time>
      </trkpt>
      <trkpt lat="45.19382" lon="5.63785">
        <ele>969.2</ele>
        <time>2016-07-29T15:50:04Z</time>
      </trkpt>
      <trkpt lat="45.19381" lon="5.63798">
        <ele>969.9</ele>
        <time>2016-07-29T15:50:09Z</time>
      </trkpt>
      <trkpt lat="45.19383" lon="5.63811">
        <ele>970.5</ele>
        <time>2016-07-29T15:50:15Z</time>
      </trkpt>
      <trkpt lat="45.19383" lon="5.63824">
        <ele>970.7</ele>
        <time>2016-07-29T15:50:20Z</time>
      </trkpt>
      <trkpt lat="45.19387" lon="5.63836">
        <ele>970.9</ele>
        <time>2016-07-29T15:50:25Z</time>
      </trkpt>
      <trkpt lat="45.19391" lon="5.63849">
        <ele>971.5</ele>
        <time>2016-07-29T15:50:30Z</time>
      </trkpt>
      <trkpt lat="45.19395" lon="5.63862">
        <ele>972.6</ele>
        <time>2016-07-29T15:50:36Z</time>
      </trkpt>
      <trkpt lat="45.19403" lon="5.63873">
        <ele>974.2</ele>
        <time>2016-07-29T15:50:46Z</time>
      </trkpt>
      <trkpt lat="45.19411" lon="5.63878">
        <ele>974.7</ele>
        <time>2016-07-29T15:50:53Z</time>
      </trkpt>
      <trkpt lat="45.19421" lon="5.63883">
        <ele>974.6</ele>
        <time>2016-07-29T15:50:58Z</time>
      </trkpt>
      <trkpt lat="45.1943" lon="5.63888">
        <ele>974.7</ele>
        <time>2016-07-29T15:51:04Z</time>
      </trkpt>
      <trkpt lat="45.19438" lon="5.63894">
        <ele>975.2</ele>
        <time>2016-07-29T15:51:08Z</time>
      </trkpt>
      <trkpt lat="45.19445" lon="5.63906">
        <ele>975.2</ele>
        <time>2016-07-29T15:51:13Z</time>
      </trkpt>
      <trkpt lat="45.19449" lon="5.63917">
        <ele>975.3</ele>
        <time>2016-07-29T15:51:17Z</time>
      </trkpt>
      <trkpt lat="45.19455" lon="5.63928">
        <ele>975.4</ele>
        <time>2016-07-29T15:51:21Z</time>
      </trkpt>
      <trkpt lat="45.1946" lon="5.63939">
        <ele>975.4</ele>
        <time>2016-07-29T15:51:26Z</time>
      </trkpt>
      <trkpt lat="45.19466" lon="5.6395">
        <ele>975.3</ele>
        <time>2016-07-29T15:51:30Z</time>
      </trkpt>
      <trkpt lat="45.19472" lon="5.63963">
        <ele>975.6</ele>
        <time>2016-07-29T15:51:34Z</time>
      </trkpt>
      <trkpt lat="45.19476" lon="5.63976">
        <ele>975.7</ele>
        <time>2016-07-29T15:51:38Z</time>
      </trkpt>
      <trkpt lat="45.19483" lon="5.63987">
        <ele>976</ele>
        <time>2016-07-29T15:51:43Z</time>
      </trkpt>
      <trkpt lat="45.19488" lon="5.63998">
        <ele>976.5</ele>
        <time>2016-07-29T15:51:47Z</time>
      </trkpt>
      <trkpt lat="45.19495" lon="5.64009">
        <ele>977.3</ele>
        <time>2016-07-29T15:51:52Z</time>
      </trkpt>
      <trkpt lat="45.19501" lon="5.64019">
        <ele>978.2</ele>
        <time>2016-07-29T15:51:57Z</time>
      </trkpt>
      <trkpt lat="45.19507" lon="5.64032">
        <ele>978.8</ele>
        <time>2016-07-29T15:52:02Z</time>
      </trkpt>
      <trkpt lat="45.19512" lon="5.64044">
        <ele>979.1</ele>
        <time>2016-07-29T15:52:07Z</time>
      </trkpt>
      <trkpt lat="45.19519" lon="5.64056">
        <ele>979.3</ele>
        <time>2016-07-29T15:52:12Z</time>
      </trkpt>
      <trkpt lat="45.19524" lon="5.64067">
        <ele>979.3</ele>
        <time>2016-07-29T15:52:16Z</time>
      </trkpt>
      <trkpt lat="45.1953" lon="5.6408">
        <ele>979.3</ele>
        <time>2016-07-29T15:52:21Z</time>
      </trkpt>
      <trkpt lat="45.19537" lon="5.6409">
        <ele>979.7</ele>
        <time>2016-07-29T15:52:26Z</time>
      </trkpt>
      <trkpt lat="45.19543" lon="5.64103">
        <ele>980</ele>
        <time>2016-07-29T15:52:31Z</time>
      </trkpt>
      <trkpt lat="45.19547" lon="5.64114">
        <ele>980.4</ele>
        <time>2016-07-29T15:52:35Z</time>
      </trkpt>
      <trkpt lat="45.1955" lon="5.64128">
        <ele>980.6</ele>
        <time>2016-07-29T15:52:40Z</time>
      </trkpt>
      <trkpt lat="45.19551" lon="5.64142">
        <ele>981.1</ele>
        <time>2016-07-29T15:52:45Z</time>
      </trkpt>
      <trkpt lat="45.19549" lon="5.64156">
        <ele>982.2</ele>
        <time>2016-07-29T15:52:52Z</time>
      </trkpt>
      <trkpt lat="45.19546" lon="5.6417">
        <ele>982.5</ele>
        <time>2016-07-29T15:52:58Z</time>
      </trkpt>
      <trkpt lat="45.19542" lon="5.64183">
        <ele>983.2</ele>
        <time>2016-07-29T15:53:06Z</time>
      </trkpt>
      <trkpt lat="45.19538" lon="5.64195">
        <ele>984.3</ele>
        <time>2016-07-29T15:54:45Z</time>
      </trkpt>
      <trkpt lat="45.19544" lon="5.64185">
        <ele>985.2</ele>
        <time>2016-07-29T15:59:52Z</time>
      </trkpt>
      <trkpt lat="45.19553" lon="5.64183">
        <ele>986.1</ele>
        <time>2016-07-29T16:00:08Z</time>
      </trkpt>
      <trkpt lat="45.19563" lon="5.64184">
        <ele>988.6</ele>
        <time>2016-07-29T16:00:21Z</time>
      </trkpt>
      <trkpt lat="45.19573" lon="5.64184">
        <ele>990.5</ele>
        <time>2016-07-29T16:00:31Z</time>
      </trkpt>
      <trkpt lat="45.19582" lon="5.64183">
        <ele>993</ele>
        <time>2016-07-29T16:00:48Z</time>
      </trkpt>
      <trkpt lat="45.1959" lon="5.64174">
        <ele>992.6</ele>
        <time>2016-07-29T16:01:03Z</time>
      </trkpt>
      <trkpt lat="45.196" lon="5.64171">
        <ele>990.2</ele>
        <time>2016-07-29T16:01:07Z</time>
      </trkpt>
      <trkpt lat="45.1961" lon="5.64167">
        <ele>986.1</ele>
        <time>2016-07-29T16:01:12Z</time>
      </trkpt>
      <trkpt lat="45.19621" lon="5.64162">
        <ele>980</ele>
        <time>2016-07-29T16:01:19Z</time>
      </trkpt>
      <trkpt lat="45.19628" lon="5.64154">
        <ele>974.8</ele>
        <time>2016-07-29T16:01:25Z</time>
      </trkpt>
      <trkpt lat="45.19637" lon="5.64147">
        <ele>969</ele>
        <time>2016-07-29T16:01:32Z</time>
      </trkpt>
      <trkpt lat="45.19647" lon="5.64143">
        <ele>962.5</ele>
        <time>2016-07-29T16:01:39Z</time>
      </trkpt>
      <trkpt lat="45.19656" lon="5.64139">
        <ele>958.2</ele>
        <time>2016-07-29T16:01:43Z</time>
      </trkpt>
      <trkpt lat="45.19665" lon="5.64136">
        <ele>953.9</ele>
        <time>2016-07-29T16:01:47Z</time>
      </trkpt>
      <trkpt lat="45.19674" lon="5.64131">
        <ele>951.2</ele>
        <time>2016-07-29T16:01:50Z</time>
      </trkpt>
      <trkpt lat="45.19683" lon="5.64129">
        <ele>946.9</ele>
        <time>2016-07-29T16:01:55Z</time>
      </trkpt>
      <trkpt lat="45.19694" lon="5.64129">
        <ele>941.5</ele>
        <time>2016-07-29T16:02:01Z</time>
      </trkpt>
      <trkpt lat="45.19704" lon="5.64129">
        <ele>937.6</ele>
        <time>2016-07-29T16:02:05Z</time>
      </trkpt>
      <trkpt lat="45.19716" lon="5.64129">
        <ele>932.1</ele>
        <time>2016-07-29T16:02:11Z</time>
      </trkpt>
      <trkpt lat="45.19726" lon="5.64128">
        <ele>927.8</ele>
        <time>2016-07-29T16:02:16Z</time>
      </trkpt>
      <trkpt lat="45.19736" lon="5.64127">
        <ele>923.7</ele>
        <time>2016-07-29T16:02:21Z</time>
      </trkpt>
      <trkpt lat="45.19747" lon="5.64127">
        <ele>920</ele>
        <time>2016-07-29T16:02:26Z</time>
      </trkpt>
      <trkpt lat="45.19757" lon="5.64126">
        <ele>916.4</ele>
        <time>2016-07-29T16:02:31Z</time>
      </trkpt>
      <trkpt lat="45.19767" lon="5.64123">
        <ele>913.6</ele>
        <time>2016-07-29T16:02:36Z</time>
      </trkpt>
      <trkpt lat="45.19777" lon="5.64121">
        <ele>909.1</ele>
        <time>2016-07-29T16:02:42Z</time>
      </trkpt>
      <trkpt lat="45.19788" lon="5.64118">
        <ele>905.2</ele>
        <time>2016-07-29T16:02:46Z</time>
      </trkpt>
      <trkpt lat="45.19798" lon="5.64118">
        <ele>900.9</ele>
        <time>2016-07-29T16:02:51Z</time>
      </trkpt>
      <trkpt lat="45.1981" lon="5.64116">
        <ele>895.1</ele>
        <time>2016-07-29T16:02:57Z</time>
      </trkpt>
      <trkpt lat="45.19821" lon="5.64112">
        <ele>890.9</ele>
        <time>2016-07-29T16:03:01Z</time>
      </trkpt>
      <trkpt lat="45.1983" lon="5.6411">
        <ele>887.1</ele>
        <time>2016-07-29T16:03:05Z</time>
      </trkpt>
      <trkpt lat="45.19839" lon="5.64104">
        <ele>884.7</ele>
        <time>2016-07-29T16:03:08Z</time>
      </trkpt>
      <trkpt lat="45.19848" lon="5.64102">
        <ele>882.2</ele>
        <time>2016-07-29T16:03:11Z</time>
      </trkpt>
      <trkpt lat="45.19857" lon="5.64098">
        <ele>879.1</ele>
        <time>2016-07-29T16:03:15Z</time>
      </trkpt>
      <trkpt lat="45.19866" lon="5.64091">
        <ele>876.1</ele>
        <time>2016-07-29T16:03:19Z</time>
      </trkpt>
      <trkpt lat="45.19876" lon="5.64088">
        <ele>873.2</ele>
        <time>2016-07-29T16:03:23Z</time>
      </trkpt>
      <trkpt lat="45.19887" lon="5.64084">
        <ele>869.8</ele>
        <time>2016-07-29T16:03:27Z</time>
      </trkpt>
      <trkpt lat="45.19896" lon="5.64081">
        <ele>866.3</ele>
        <time>2016-07-29T16:03:31Z</time>
      </trkpt>
      <trkpt lat="45.19905" lon="5.64074">
        <ele>863.1</ele>
        <time>2016-07-29T16:03:35Z</time>
      </trkpt>
      <trkpt lat="45.19913" lon="5.64067">
        <ele>859.3</ele>
        <time>2016-07-29T16:03:51Z</time>
      </trkpt>
      <trkpt lat="45.19923" lon="5.64064">
        <ele>857.5</ele>
        <time>2016-07-29T16:04:12Z</time>
      </trkpt>
      <trkpt lat="45.19933" lon="5.64065">
        <ele>853.5</ele>
        <time>2016-07-29T16:04:17Z</time>
      </trkpt>
      <trkpt lat="45.19944" lon="5.64069">
        <ele>850.2</ele>
        <time>2016-07-29T16:04:21Z</time>
      </trkpt>
      <trkpt lat="45.19955" lon="5.64076">
        <ele>846</ele>
        <time>2016-07-29T16:04:26Z</time>
      </trkpt>
      <trkpt lat="45.19965" lon="5.64084">
        <ele>842.8</ele>
        <time>2016-07-29T16:04:30Z</time>
      </trkpt>
      <trkpt lat="45.19971" lon="5.64093">
        <ele>840.6</ele>
        <time>2016-07-29T16:04:34Z</time>
      </trkpt>
      <trkpt lat="45.19978" lon="5.64104">
        <ele>838.5</ele>
        <time>2016-07-29T16:04:38Z</time>
      </trkpt>
      <trkpt lat="45.19984" lon="5.64117">
        <ele>836.5</ele>
        <time>2016-07-29T16:04:43Z</time>
      </trkpt>
      <trkpt lat="45.19989" lon="5.64128">
        <ele>835</ele>
        <time>2016-07-29T16:04:46Z</time>
      </trkpt>
      <trkpt lat="45.19994" lon="5.64139">
        <ele>833.9</ele>
        <time>2016-07-29T16:04:53Z</time>
      </trkpt>
      <trkpt lat="45.19999" lon="5.64149">
        <ele>833.9</ele>
        <time>2016-07-29T16:04:58Z</time>
      </trkpt>
      <trkpt lat="45.20006" lon="5.64158">
        <ele>834.1</ele>
        <time>2016-07-29T16:05:03Z</time>
      </trkpt>
      <trkpt lat="45.20013" lon="5.64168">
        <ele>832.6</ele>
        <time>2016-07-29T16:05:21Z</time>
      </trkpt>
      <trkpt lat="45.20019" lon="5.64177">
        <ele>830.7</ele>
        <time>2016-07-29T16:05:27Z</time>
      </trkpt>
      <trkpt lat="45.20027" lon="5.64188">
        <ele>829.4</ele>
        <time>2016-07-29T16:05:32Z</time>
      </trkpt>
      <trkpt lat="45.20032" lon="5.64201">
        <ele>828.8</ele>
        <time>2016-07-29T16:05:37Z</time>
      </trkpt>
      <trkpt lat="45.20036" lon="5.64214">
        <ele>828.7</ele>
        <time>2016-07-29T16:05:42Z</time>
      </trkpt>
      <trkpt lat="45.20043" lon="5.64227">
        <ele>828.4</ele>
        <time>2016-07-29T16:05:48Z</time>
      </trkpt>
      <trkpt lat="45.20054" lon="5.64233">
        <ele>826.8</ele>
        <time>2016-07-29T16:05:51Z</time>
      </trkpt>
      <trkpt lat="45.20064" lon="5.64237">
        <ele>825.8</ele>
        <time>2016-07-29T16:05:54Z</time>
      </trkpt>
      <trkpt lat="45.20068" lon="5.64251">
        <ele>824.9</ele>
        <time>2016-07-29T16:05:58Z</time>
      </trkpt>
      <trkpt lat="45.20075" lon="5.64265">
        <ele>823.8</ele>
        <time>2016-07-29T16:06:02Z</time>
      </trkpt>
      <trkpt lat="45.2008" lon="5.64275">
        <ele>823.2</ele>
        <time>2016-07-29T16:06:05Z</time>
      </trkpt>
      <trkpt lat="45.20089" lon="5.64285">
        <ele>822.4</ele>
        <time>2016-07-29T16:06:08Z</time>
      </trkpt>
      <trkpt lat="45.20095" lon="5.64299">
        <ele>821.2</ele>
        <time>2016-07-29T16:06:11Z</time>
      </trkpt>
      <trkpt lat="45.20101" lon="5.64309">
        <ele>820.2</ele>
        <time>2016-07-29T16:06:14Z</time>
      </trkpt>
      <trkpt lat="45.20107" lon="5.64322">
        <ele>819.6</ele>
        <time>2016-07-29T16:06:18Z</time>
      </trkpt>
      <trkpt lat="45.20111" lon="5.64334">
        <ele>818.8</ele>
        <time>2016-07-29T16:06:23Z</time>
      </trkpt>
      <trkpt lat="45.20118" lon="5.64343">
        <ele>819</ele>
        <time>2016-07-29T16:06:29Z</time>
      </trkpt>
      <trkpt lat="45.20127" lon="5.64345">
        <ele>820</ele>
        <time>2016-07-29T16:06:44Z</time>
      </trkpt>
      <trkpt lat="45.20137" lon="5.64348">
        <ele>819.4</ele>
        <time>2016-07-29T16:07:01Z</time>
      </trkpt>
      <trkpt lat="45.20144" lon="5.64356">
        <ele>819.1</ele>
        <time>2016-07-29T16:07:12Z</time>
      </trkpt>
      <trkpt lat="45.20152" lon="5.64363">
        <ele>819.2</ele>
        <time>2016-07-29T16:07:22Z</time>
      </trkpt>
      <trkpt lat="45.20159" lon="5.64372">
        <ele>819</ele>
        <time>2016-07-29T16:07:30Z</time>
      </trkpt>
      <trkpt lat="45.20168" lon="5.64379">
        <ele>820.2</ele>
        <time>2016-07-29T16:07:36Z</time>
      </trkpt>
      <trkpt lat="45.20177" lon="5.64386">
        <ele>820.5</ele>
        <time>2016-07-29T16:07:40Z</time>
      </trkpt>
      <trkpt lat="45.20185" lon="5.64393">
        <ele>820.6</ele>
        <time>2016-07-29T16:07:46Z</time>
      </trkpt>
      <trkpt lat="45.20195" lon="5.64397">
        <ele>819.7</ele>
        <time>2016-07-29T16:07:51Z</time>
      </trkpt>
      <trkpt lat="45.20205" lon="5.64403">
        <ele>817.8</ele>
        <time>2016-07-29T16:07:57Z</time>
      </trkpt>
      <trkpt lat="45.20214" lon="5.64406">
        <ele>816.3</ele>
        <time>2016-07-29T16:08:01Z</time>
      </trkpt>
      <trkpt lat="45.20222" lon="5.64414">
        <ele>815.4</ele>
        <time>2016-07-29T16:08:05Z</time>
      </trkpt>
      <trkpt lat="45.20231" lon="5.64417">
        <ele>813.7</ele>
        <time>2016-07-29T16:08:09Z</time>
      </trkpt>
      <trkpt lat="45.2024" lon="5.64422">
        <ele>811.4</ele>
        <time>2016-07-29T16:08:14Z</time>
      </trkpt>
      <trkpt lat="45.20249" lon="5.64427">
        <ele>809.7</ele>
        <time>2016-07-29T16:08:17Z</time>
      </trkpt>
      <trkpt lat="45.20259" lon="5.6443">
        <ele>808.5</ele>
        <time>2016-07-29T16:08:20Z</time>
      </trkpt>
      <trkpt lat="45.20268" lon="5.64431">
        <ele>807</ele>
        <time>2016-07-29T16:08:28Z</time>
      </trkpt>
      <trkpt lat="45.20277" lon="5.64438">
        <ele>805.3</ele>
        <time>2016-07-29T16:08:34Z</time>
      </trkpt>
      <trkpt lat="45.20285" lon="5.64444">
        <ele>804.1</ele>
        <time>2016-07-29T16:08:37Z</time>
      </trkpt>
      <trkpt lat="45.20294" lon="5.64447">
        <ele>802.1</ele>
        <time>2016-07-29T16:08:42Z</time>
      </trkpt>
      <trkpt lat="45.20303" lon="5.64453">
        <ele>799.6</ele>
        <time>2016-07-29T16:08:46Z</time>
      </trkpt>
      <trkpt lat="45.20313" lon="5.64461">
        <ele>797</ele>
        <time>2016-07-29T16:08:49Z</time>
      </trkpt>
      <trkpt lat="45.20321" lon="5.64476">
        <ele>794.7</ele>
        <time>2016-07-29T16:08:52Z</time>
      </trkpt>
      <trkpt lat="45.20325" lon="5.64491">
        <ele>792.8</ele>
        <time>2016-07-29T16:08:55Z</time>
      </trkpt>
      <trkpt lat="45.20335" lon="5.645">
        <ele>791.8</ele>
        <time>2016-07-29T16:08:58Z</time>
      </trkpt>
      <trkpt lat="45.20341" lon="5.64512">
        <ele>789.4</ele>
        <time>2016-07-29T16:09:02Z</time>
      </trkpt>
      <trkpt lat="45.2035" lon="5.64518">
        <ele>787</ele>
        <time>2016-07-29T16:09:05Z</time>
      </trkpt>
      <trkpt lat="45.2036" lon="5.64525">
        <ele>783.3</ele>
        <time>2016-07-29T16:09:10Z</time>
      </trkpt>
      <trkpt lat="45.20371" lon="5.64529">
        <ele>776.5</ele>
        <time>2016-07-29T16:09:17Z</time>
      </trkpt>
      <trkpt lat="45.2038" lon="5.6453">
        <ele>774</ele>
        <time>2016-07-29T16:09:20Z</time>
      </trkpt>
      <trkpt lat="45.20391" lon="5.6453">
        <ele>772.8</ele>
        <time>2016-07-29T16:09:22Z</time>
      </trkpt>
      <trkpt lat="45.20402" lon="5.6453">
        <ele>771.8</ele>
        <time>2016-07-29T16:09:24Z</time>
      </trkpt>
      <trkpt lat="45.20411" lon="5.6453">
        <ele>769.4</ele>
        <time>2016-07-29T16:09:33Z</time>
      </trkpt>
      <trkpt lat="45.20421" lon="5.64531">
        <ele>768.3</ele>
        <time>2016-07-29T16:09:58Z</time>
      </trkpt>
      <trkpt lat="45.20429" lon="5.64537">
        <ele>765.8</ele>
        <time>2016-07-29T16:10:06Z</time>
      </trkpt>
      <trkpt lat="45.20438" lon="5.64543">
        <ele>764.3</ele>
        <time>2016-07-29T16:10:23Z</time>
      </trkpt>
      <trkpt lat="45.20446" lon="5.64552">
        <ele>761.2</ele>
        <time>2016-07-29T16:10:31Z</time>
      </trkpt>
      <trkpt lat="45.20455" lon="5.6456">
        <ele>757.8</ele>
        <time>2016-07-29T16:10:36Z</time>
      </trkpt>
      <trkpt lat="45.20466" lon="5.64568">
        <ele>754.5</ele>
        <time>2016-07-29T16:10:41Z</time>
      </trkpt>
      <trkpt lat="45.20473" lon="5.64576">
        <ele>750.6</ele>
        <time>2016-07-29T16:10:46Z</time>
      </trkpt>
      <trkpt lat="45.20483" lon="5.64585">
        <ele>746.6</ele>
        <time>2016-07-29T16:10:51Z</time>
      </trkpt>
      <trkpt lat="45.20491" lon="5.64593">
        <ele>742.3</ele>
        <time>2016-07-29T16:10:56Z</time>
      </trkpt>
      <trkpt lat="45.20501" lon="5.64598">
        <ele>739.8</ele>
        <time>2016-07-29T16:10:59Z</time>
      </trkpt>
      <trkpt lat="45.20508" lon="5.64606">
        <ele>736.5</ele>
        <time>2016-07-29T16:11:03Z</time>
      </trkpt>
      <trkpt lat="45.20516" lon="5.64612">
        <ele>731.3</ele>
        <time>2016-07-29T16:11:10Z</time>
      </trkpt>
      <trkpt lat="45.20525" lon="5.64615">
        <ele>727</ele>
        <time>2016-07-29T16:11:14Z</time>
      </trkpt>
      <trkpt lat="45.20534" lon="5.64618">
        <ele>720.6</ele>
        <time>2016-07-29T16:11:19Z</time>
      </trkpt>
      <trkpt lat="45.20543" lon="5.64622">
        <ele>716</ele>
        <time>2016-07-29T16:11:23Z</time>
      </trkpt>
      <trkpt lat="45.20551" lon="5.64629">
        <ele>712.8</ele>
        <time>2016-07-29T16:11:26Z</time>
      </trkpt>
      <trkpt lat="45.20559" lon="5.64637">
        <ele>709.5</ele>
        <time>2016-07-29T16:11:29Z</time>
      </trkpt>
      <trkpt lat="45.20569" lon="5.64641">
        <ele>706.2</ele>
        <time>2016-07-29T16:11:33Z</time>
      </trkpt>
      <trkpt lat="45.20578" lon="5.64647">
        <ele>702.9</ele>
        <time>2016-07-29T16:11:52Z</time>
      </trkpt>
      <trkpt lat="45.20587" lon="5.64652">
        <ele>700.5</ele>
        <time>2016-07-29T16:11:58Z</time>
      </trkpt>
      <trkpt lat="45.20595" lon="5.64656">
        <ele>697.9</ele>
        <time>2016-07-29T16:12:14Z</time>
      </trkpt>
      <trkpt lat="45.20603" lon="5.6465">
        <ele>696.6</ele>
        <time>2016-07-29T16:12:46Z</time>
      </trkpt>
      <trkpt lat="45.20602" lon="5.64635">
        <ele>693.2</ele>
        <time>2016-07-29T16:12:52Z</time>
      </trkpt>
      <trkpt lat="45.20602" lon="5.64619">
        <ele>689.3</ele>
        <time>2016-07-29T16:12:58Z</time>
      </trkpt>
      <trkpt lat="45.20604" lon="5.64603">
        <ele>684</ele>
        <time>2016-07-29T16:13:04Z</time>
      </trkpt>
      <trkpt lat="45.20606" lon="5.6459">
        <ele>680.2</ele>
        <time>2016-07-29T16:13:08Z</time>
      </trkpt>
      <trkpt lat="45.20607" lon="5.64576">
        <ele>675.8</ele>
        <time>2016-07-29T16:13:13Z</time>
      </trkpt>
      <trkpt lat="45.20605" lon="5.64564">
        <ele>673</ele>
        <time>2016-07-29T16:13:17Z</time>
      </trkpt>
      <trkpt lat="45.20599" lon="5.64551">
        <ele>669.5</ele>
        <time>2016-07-29T16:13:21Z</time>
      </trkpt>
      <trkpt lat="45.20597" lon="5.64537">
        <ele>666.4</ele>
        <time>2016-07-29T16:13:25Z</time>
      </trkpt>
      <trkpt lat="45.20593" lon="5.64525">
        <ele>664.3</ele>
        <time>2016-07-29T16:13:28Z</time>
      </trkpt>
      <trkpt lat="45.20593" lon="5.64509">
        <ele>662.2</ele>
        <time>2016-07-29T16:13:31Z</time>
      </trkpt>
      <trkpt lat="45.2059" lon="5.64495">
        <ele>659.9</ele>
        <time>2016-07-29T16:13:34Z</time>
      </trkpt>
      <trkpt lat="45.20589" lon="5.64481">
        <ele>657.8</ele>
        <time>2016-07-29T16:13:37Z</time>
      </trkpt>
      <trkpt lat="45.20582" lon="5.64466">
        <ele>656.2</ele>
        <time>2016-07-29T16:13:40Z</time>
      </trkpt>
      <trkpt lat="45.20576" lon="5.64455">
        <ele>654.7</ele>
        <time>2016-07-29T16:13:43Z</time>
      </trkpt>
      <trkpt lat="45.20569" lon="5.64442">
        <ele>652.7</ele>
        <time>2016-07-29T16:13:48Z</time>
      </trkpt>
      <trkpt lat="45.20562" lon="5.64431">
        <ele>650.1</ele>
        <time>2016-07-29T16:13:52Z</time>
      </trkpt>
      <trkpt lat="45.20561" lon="5.64416">
        <ele>646.8</ele>
        <time>2016-07-29T16:13:56Z</time>
      </trkpt>
      <trkpt lat="45.20566" lon="5.64402">
        <ele>644</ele>
        <time>2016-07-29T16:13:59Z</time>
      </trkpt>
      <trkpt lat="45.20576" lon="5.64402">
        <ele>637</ele>
        <time>2016-07-29T16:14:10Z</time>
      </trkpt>
      <trkpt lat="45.20577" lon="5.64415">
        <ele>635.4</ele>
        <time>2016-07-29T16:14:30Z</time>
      </trkpt>
      <trkpt lat="45.20585" lon="5.64421">
        <ele>633.6</ele>
        <time>2016-07-29T16:14:51Z</time>
      </trkpt>
      <trkpt lat="45.20592" lon="5.6443">
        <ele>632.7</ele>
        <time>2016-07-29T16:15:02Z</time>
      </trkpt>
      <trkpt lat="45.20601" lon="5.64434">
        <ele>631.4</ele>
        <time>2016-07-29T16:15:15Z</time>
      </trkpt>
      <trkpt lat="45.20607" lon="5.64445">
        <ele>630.4</ele>
        <time>2016-07-29T16:15:23Z</time>
      </trkpt>
      <trkpt lat="45.20617" lon="5.6445">
        <ele>629.5</ele>
        <time>2016-07-29T16:15:34Z</time>
      </trkpt>
      <trkpt lat="45.20626" lon="5.64454">
        <ele>627.9</ele>
        <time>2016-07-29T16:15:40Z</time>
      </trkpt>
      <trkpt lat="45.20634" lon="5.64465">
        <ele>624.5</ele>
        <time>2016-07-29T16:15:48Z</time>
      </trkpt>
      <trkpt lat="45.20638" lon="5.64477">
        <ele>622</ele>
        <time>2016-07-29T16:15:55Z</time>
      </trkpt>
      <trkpt lat="45.20646" lon="5.64482">
        <ele>619.4</ele>
        <time>2016-07-29T16:16:03Z</time>
      </trkpt>
      <trkpt lat="45.20653" lon="5.6449">
        <ele>617</ele>
        <time>2016-07-29T16:16:09Z</time>
      </trkpt>
      <trkpt lat="45.20661" lon="5.64497">
        <ele>613.9</ele>
        <time>2016-07-29T16:16:16Z</time>
      </trkpt>
      <trkpt lat="45.20668" lon="5.64507">
        <ele>610.7</ele>
        <time>2016-07-29T16:16:25Z</time>
      </trkpt>
      <trkpt lat="45.20677" lon="5.64517">
        <ele>608.3</ele>
        <time>2016-07-29T16:16:31Z</time>
      </trkpt>
      <trkpt lat="45.20686" lon="5.64518">
        <ele>605.8</ele>
        <time>2016-07-29T16:16:35Z</time>
      </trkpt>
      <trkpt lat="45.20695" lon="5.64516">
        <ele>604.1</ele>
        <time>2016-07-29T16:16:40Z</time>
      </trkpt>
      <trkpt lat="45.20703" lon="5.64522">
        <ele>600.6</ele>
        <time>2016-07-29T16:16:48Z</time>
      </trkpt>
      <trkpt lat="45.20712" lon="5.64526">
        <ele>597.2</ele>
        <time>2016-07-29T16:16:58Z</time>
      </trkpt>
      <trkpt lat="45.20717" lon="5.64538">
        <ele>595.3</ele>
        <time>2016-07-29T16:17:18Z</time>
      </trkpt>
      <trkpt lat="45.20725" lon="5.64546">
        <ele>592.8</ele>
        <time>2016-07-29T16:17:28Z</time>
      </trkpt>
      <trkpt lat="45.20727" lon="5.64558">
        <ele>590</ele>
        <time>2016-07-29T16:17:53Z</time>
      </trkpt>
      <trkpt lat="45.20733" lon="5.64569">
        <ele>588.7</ele>
        <time>2016-07-29T16:18:17Z</time>
      </trkpt>
      <trkpt lat="45.20743" lon="5.64566">
        <ele>587.2</ele>
        <time>2016-07-29T16:18:29Z</time>
      </trkpt>
      <trkpt lat="45.20752" lon="5.6456">
        <ele>586.8</ele>
        <time>2016-07-29T16:18:48Z</time>
      </trkpt>
      <trkpt lat="45.20761" lon="5.64554">
        <ele>586.3</ele>
        <time>2016-07-29T16:18:54Z</time>
      </trkpt>
      <trkpt lat="45.20769" lon="5.64544">
        <ele>585.7</ele>
        <time>2016-07-29T16:18:59Z</time>
      </trkpt>
      <trkpt lat="45.20774" lon="5.64532">
        <ele>585.2</ele>
        <time>2016-07-29T16:19:02Z</time>
      </trkpt>
      <trkpt lat="45.20778" lon="5.64518">
        <ele>584.7</ele>
        <time>2016-07-29T16:19:06Z</time>
      </trkpt>
      <trkpt lat="45.20782" lon="5.64504">
        <ele>584.2</ele>
        <time>2016-07-29T16:19:10Z</time>
      </trkpt>
      <trkpt lat="45.20787" lon="5.64492">
        <ele>583.6</ele>
        <time>2016-07-29T16:19:13Z</time>
      </trkpt>
      <trkpt lat="45.20789" lon="5.64478">
        <ele>582.5</ele>
        <time>2016-07-29T16:19:18Z</time>
      </trkpt>
      <trkpt lat="45.20789" lon="5.64464">
        <ele>581.7</ele>
        <time>2016-07-29T16:19:22Z</time>
      </trkpt>
      <trkpt lat="45.20783" lon="5.64453">
        <ele>580</ele>
        <time>2016-07-29T16:19:26Z</time>
      </trkpt>
      <trkpt lat="45.2078" lon="5.6444">
        <ele>578.9</ele>
        <time>2016-07-29T16:19:31Z</time>
      </trkpt>
      <trkpt lat="45.20774" lon="5.6443">
        <ele>578.2</ele>
        <time>2016-07-29T16:20:06Z</time>
      </trkpt>
      <trkpt lat="45.20781" lon="5.64422">
        <ele>574.5</ele>
        <time>2016-07-29T16:20:25Z</time>
      </trkpt>
      <trkpt lat="45.2079" lon="5.64415">
        <ele>571</ele>
        <time>2016-07-29T16:20:40Z</time>
      </trkpt>
      <trkpt lat="45.20798" lon="5.64418">
        <ele>569.5</ele>
        <time>2016-07-29T16:20:45Z</time>
      </trkpt>
      <trkpt lat="45.20796" lon="5.64402">
        <ele>563.2</ele>
        <time>2016-07-29T16:20:55Z</time>
      </trkpt>
      <trkpt lat="45.20797" lon="5.64387">
        <ele>560</ele>
        <time>2016-07-29T16:21:00Z</time>
      </trkpt>
      <trkpt lat="45.208" lon="5.64375">
        <ele>557.1</ele>
        <time>2016-07-29T16:21:05Z</time>
      </trkpt>
      <trkpt lat="45.20801" lon="5.64361">
        <ele>553.6</ele>
        <time>2016-07-29T16:21:11Z</time>
      </trkpt>
      <trkpt lat="45.20811" lon="5.64353">
        <ele>549.5</ele>
        <time>2016-07-29T16:21:18Z</time>
      </trkpt>
      <trkpt lat="45.20818" lon="5.64342">
        <ele>548</ele>
        <time>2016-07-29T16:21:21Z</time>
      </trkpt>
      <trkpt lat="45.20814" lon="5.64328">
        <ele>544.6</ele>
        <time>2016-07-29T16:21:27Z</time>
      </trkpt>
      <trkpt lat="45.20806" lon="5.64319">
        <ele>541.1</ele>
        <time>2016-07-29T16:21:33Z</time>
      </trkpt>
      <trkpt lat="45.20794" lon="5.64312">
        <ele>537.4</ele>
        <time>2016-07-29T16:21:37Z</time>
      </trkpt>
      <trkpt lat="45.20787" lon="5.64304">
        <ele>533.1</ele>
        <time>2016-07-29T16:21:43Z</time>
      </trkpt>
      <trkpt lat="45.20781" lon="5.64289">
        <ele>530.3</ele>
        <time>2016-07-29T16:21:47Z</time>
      </trkpt>
      <trkpt lat="45.20779" lon="5.64276">
        <ele>528.3</ele>
        <time>2016-07-29T16:21:50Z</time>
      </trkpt>
      <trkpt lat="45.20776" lon="5.6426">
        <ele>524.9</ele>
        <time>2016-07-29T16:21:56Z</time>
      </trkpt>
      <trkpt lat="45.20772" lon="5.64243">
        <ele>522.8</ele>
        <time>2016-07-29T16:22:01Z</time>
      </trkpt>
      <trkpt lat="45.20779" lon="5.64234">
        <ele>518.5</ele>
        <time>2016-07-29T16:22:15Z</time>
      </trkpt>
      <trkpt lat="45.2079" lon="5.6424">
        <ele>517.8</ele>
        <time>2016-07-29T16:22:28Z</time>
      </trkpt>
      <trkpt lat="45.20799" lon="5.64245">
        <ele>516.4</ele>
        <time>2016-07-29T16:22:31Z</time>
      </trkpt>
      <trkpt lat="45.20812" lon="5.64247">
        <ele>514.9</ele>
        <time>2016-07-29T16:22:34Z</time>
      </trkpt>
      <trkpt lat="45.20821" lon="5.64245">
        <ele>514</ele>
        <time>2016-07-29T16:22:36Z</time>
      </trkpt>
      <trkpt lat="45.20834" lon="5.64246">
        <ele>512.8</ele>
        <time>2016-07-29T16:22:39Z</time>
      </trkpt>
      <trkpt lat="45.20842" lon="5.64251">
        <ele>511.8</ele>
        <time>2016-07-29T16:22:41Z</time>
      </trkpt>
      <trkpt lat="45.20855" lon="5.64257">
        <ele>510.3</ele>
        <time>2016-07-29T16:22:44Z</time>
      </trkpt>
      <trkpt lat="45.20864" lon="5.64261">
        <ele>509.4</ele>
        <time>2016-07-29T16:22:46Z</time>
      </trkpt>
      <trkpt lat="45.20877" lon="5.64263">
        <ele>508</ele>
        <time>2016-07-29T16:22:49Z</time>
      </trkpt>
      <trkpt lat="45.20886" lon="5.64264">
        <ele>506.7</ele>
        <time>2016-07-29T16:22:51Z</time>
      </trkpt>
      <trkpt lat="45.20899" lon="5.64262">
        <ele>505.3</ele>
        <time>2016-07-29T16:22:54Z</time>
      </trkpt>
      <trkpt lat="45.20909" lon="5.64259">
        <ele>503.8</ele>
        <time>2016-07-29T16:22:56Z</time>
      </trkpt>
      <trkpt lat="45.20921" lon="5.64258">
        <ele>501.8</ele>
        <time>2016-07-29T16:22:58Z</time>
      </trkpt>
      <trkpt lat="45.20933" lon="5.64255">
        <ele>500.8</ele>
        <time>2016-07-29T16:23:00Z</time>
      </trkpt>
      <trkpt lat="45.20943" lon="5.64249">
        <ele>499.2</ele>
        <time>2016-07-29T16:23:02Z</time>
      </trkpt>
      <trkpt lat="45.20954" lon="5.64243">
        <ele>498.2</ele>
        <time>2016-07-29T16:23:04Z</time>
      </trkpt>
      <trkpt lat="45.20965" lon="5.64236">
        <ele>497.5</ele>
        <time>2016-07-29T16:23:06Z</time>
      </trkpt>
      <trkpt lat="45.20976" lon="5.64227">
        <ele>496.3</ele>
        <time>2016-07-29T16:23:08Z</time>
      </trkpt>
      <trkpt lat="45.20985" lon="5.64217">
        <ele>496</ele>
        <time>2016-07-29T16:23:10Z</time>
      </trkpt>
      <trkpt lat="45.20991" lon="5.64206">
        <ele>496</ele>
        <time>2016-07-29T16:23:13Z</time>
      </trkpt>
      <trkpt lat="45.20998" lon="5.64195">
        <ele>496.3</ele>
        <time>2016-07-29T16:23:17Z</time>
      </trkpt>
      <trkpt lat="45.21006" lon="5.64184">
        <ele>496.7</ele>
        <time>2016-07-29T16:23:21Z</time>
      </trkpt>
      <trkpt lat="45.21015" lon="5.64175">
        <ele>497</ele>
        <time>2016-07-29T16:23:25Z</time>
      </trkpt>
      <trkpt lat="45.21025" lon="5.64168">
        <ele>497.8</ele>
        <time>2016-07-29T16:23:30Z</time>
      </trkpt>
      <trkpt lat="45.21033" lon="5.6416">
        <ele>498.7</ele>
        <time>2016-07-29T16:23:36Z</time>
      </trkpt>
      <trkpt lat="45.21039" lon="5.6415">
        <ele>500</ele>
        <time>2016-07-29T16:23:45Z</time>
      </trkpt>
      <trkpt lat="45.21044" lon="5.64139">
        <ele>501.6</ele>
        <time>2016-07-29T16:24:47Z</time>
      </trkpt>
      <trkpt lat="45.21053" lon="5.64131">
        <ele>502.2</ele>
        <time>2016-07-29T16:24:53Z</time>
      </trkpt>
      <trkpt lat="45.21059" lon="5.64122">
        <ele>502.7</ele>
        <time>2016-07-29T16:24:58Z</time>
      </trkpt>
      <trkpt lat="45.21068" lon="5.64113">
        <ele>503.6</ele>
        <time>2016-07-29T16:25:05Z</time>
      </trkpt>
      <trkpt lat="45.21073" lon="5.64101">
        <ele>504.3</ele>
        <time>2016-07-29T16:25:13Z</time>
      </trkpt>
      <trkpt lat="45.2108" lon="5.6409">
        <ele>505.1</ele>
        <time>2016-07-29T16:25:19Z</time>
      </trkpt>
      <trkpt lat="45.21084" lon="5.64078">
        <ele>506.4</ele>
        <time>2016-07-29T16:25:26Z</time>
      </trkpt>
      <trkpt lat="45.21085" lon="5.64065">
        <ele>508.4</ele>
        <time>2016-07-29T16:25:48Z</time>
      </trkpt>
      <trkpt lat="45.21086" lon="5.64051">
        <ele>509.9</ele>
        <time>2016-07-29T16:25:59Z</time>
      </trkpt>
      <trkpt lat="45.21087" lon="5.64038">
        <ele>512.6</ele>
        <time>2016-07-29T16:26:14Z</time>
      </trkpt>
      <trkpt lat="45.2109" lon="5.64025">
        <ele>515.7</ele>
        <time>2016-07-29T16:26:29Z</time>
      </trkpt>
      <trkpt lat="45.21091" lon="5.64012">
        <ele>520.1</ele>
        <time>2016-07-29T16:27:17Z</time>
      </trkpt>
      <trkpt lat="45.21082" lon="5.64012">
        <ele>521.8</ele>
        <time>2016-07-29T16:27:45Z</time>
      </trkpt>
      <trkpt lat="45.21081" lon="5.63999">
        <ele>528</ele>
        <time>2016-07-29T16:29:02Z</time>
      </trkpt>
      <trkpt lat="45.21089" lon="5.63991">
        <ele>526.6</ele>
        <time>2016-07-29T16:30:07Z</time>
      </trkpt>
      <trkpt lat="45.21098" lon="5.63989">
        <ele>525.7</ele>
        <time>2016-07-29T16:30:25Z</time>
      </trkpt>
      <trkpt lat="45.21106" lon="5.63982">
        <ele>527.5</ele>
        <time>2016-07-29T16:30:50Z</time>
      </trkpt>
      <trkpt lat="45.21111" lon="5.63971">
        <ele>529.4</ele>
        <time>2016-07-29T16:31:03Z</time>
      </trkpt>
      <trkpt lat="45.21118" lon="5.63961">
        <ele>529.3</ele>
        <time>2016-07-29T16:31:15Z</time>
      </trkpt>
      <trkpt lat="45.21126" lon="5.63955">
        <ele>529.6</ele>
        <time>2016-07-29T16:31:32Z</time>
      </trkpt>
      <trkpt lat="45.21135" lon="5.63951">
        <ele>530.4</ele>
        <time>2016-07-29T16:31:45Z</time>
      </trkpt>
      <trkpt lat="45.21144" lon="5.6395">
        <ele>530</ele>
        <time>2016-07-29T16:32:00Z</time>
      </trkpt>
      <trkpt lat="45.21154" lon="5.63951">
        <ele>530.5</ele>
        <time>2016-07-29T16:32:09Z</time>
      </trkpt>
      <trkpt lat="45.21163" lon="5.6395">
        <ele>530.9</ele>
        <time>2016-07-29T16:32:21Z</time>
      </trkpt>
      <trkpt lat="45.21173" lon="5.63949">
        <ele>532</ele>
        <time>2016-07-29T16:32:32Z</time>
      </trkpt>
      <trkpt lat="45.21181" lon="5.63943">
        <ele>533.2</ele>
        <time>2016-07-29T16:32:50Z</time>
      </trkpt>
      <trkpt lat="45.21186" lon="5.63932">
        <ele>536.5</ele>
        <time>2016-07-29T16:33:20Z</time>
      </trkpt>
      <trkpt lat="45.21196" lon="5.63932">
        <ele>537.2</ele>
        <time>2016-07-29T16:33:36Z</time>
      </trkpt>
      <trkpt lat="45.21206" lon="5.63932">
        <ele>536.6</ele>
        <time>2016-07-29T16:33:46Z</time>
      </trkpt>
      <trkpt lat="45.21215" lon="5.63929">
        <ele>536.1</ele>
        <time>2016-07-29T16:33:57Z</time>
      </trkpt>
      <trkpt lat="45.21223" lon="5.63922">
        <ele>536.2</ele>
        <time>2016-07-29T16:34:07Z</time>
      </trkpt>
      <trkpt lat="45.21232" lon="5.63919">
        <ele>537.1</ele>
        <time>2016-07-29T16:34:30Z</time>
      </trkpt>
      <trkpt lat="45.21238" lon="5.63909">
        <ele>538.9</ele>
        <time>2016-07-29T16:35:21Z</time>
      </trkpt>
      <trkpt lat="45.2125" lon="5.63905">
        <ele>538.5</ele>
        <time>2016-07-29T16:35:25Z</time>
      </trkpt>
      <trkpt lat="45.21263" lon="5.63904">
        <ele>537.9</ele>
        <time>2016-07-29T16:35:28Z</time>
      </trkpt>
      <trkpt lat="45.21276" lon="5.63903">
        <ele>537.3</ele>
        <time>2016-07-29T16:35:31Z</time>
      </trkpt>
      <trkpt lat="45.21287" lon="5.63904">
        <ele>536.7</ele>
        <time>2016-07-29T16:35:34Z</time>
      </trkpt>
      <trkpt lat="45.21296" lon="5.63905">
        <ele>536.2</ele>
        <time>2016-07-29T16:35:36Z</time>
      </trkpt>
      <trkpt lat="45.21307" lon="5.63905">
        <ele>535.5</ele>
        <time>2016-07-29T16:35:39Z</time>
      </trkpt>
      <trkpt lat="45.21319" lon="5.63908">
        <ele>534.9</ele>
        <time>2016-07-29T16:35:42Z</time>
      </trkpt>
      <trkpt lat="45.2133" lon="5.63911">
        <ele>534.3</ele>
        <time>2016-07-29T16:35:45Z</time>
      </trkpt>
      <trkpt lat="45.21339" lon="5.63915">
        <ele>534</ele>
        <time>2016-07-29T16:35:48Z</time>
      </trkpt>
      <trkpt lat="45.21347" lon="5.63921">
        <ele>533.3</ele>
        <time>2016-07-29T16:35:56Z</time>
      </trkpt>
      <trkpt lat="45.21344" lon="5.63908">
        <ele>533.1</ele>
        <time>2016-07-29T16:36:18Z</time>
      </trkpt>
      <trkpt lat="45.21334" lon="5.63904">
        <ele>533.5</ele>
        <time>2016-07-29T16:36:23Z</time>
      </trkpt>
      <trkpt lat="45.21324" lon="5.63901">
        <ele>534.1</ele>
        <time>2016-07-29T16:36:28Z</time>
      </trkpt>
      <trkpt lat="45.21314" lon="5.639">
        <ele>534.9</ele>
        <time>2016-07-29T16:36:33Z</time>
      </trkpt>
      <trkpt lat="45.21305" lon="5.63899">
        <ele>535.2</ele>
        <time>2016-07-29T16:36:38Z</time>
      </trkpt>
      <trkpt lat="45.21294" lon="5.63898">
        <ele>535.9</ele>
        <time>2016-07-29T16:36:44Z</time>
      </trkpt>
      <trkpt lat="45.21285" lon="5.63898">
        <ele>536</ele>
        <time>2016-07-29T16:36:49Z</time>
      </trkpt>
      <trkpt lat="45.21275" lon="5.63898">
        <ele>537</ele>
        <time>2016-07-29T16:36:55Z</time>
      </trkpt>
      <trkpt lat="45.21265" lon="5.63897">
        <ele>537.3</ele>
        <time>2016-07-29T16:37:01Z</time>
      </trkpt>
      <trkpt lat="45.21256" lon="5.63898">
        <ele>537.7</ele>
        <time>2016-07-29T16:37:06Z</time>
      </trkpt>
      <trkpt lat="45.21245" lon="5.639">
        <ele>538.2</ele>
        <time>2016-07-29T16:37:11Z</time>
      </trkpt>
      <trkpt lat="45.21236" lon="5.63902">
        <ele>538.6</ele>
        <time>2016-07-29T16:37:16Z</time>
      </trkpt>
      <trkpt lat="45.21226" lon="5.63903">
        <ele>539</ele>
        <time>2016-07-29T16:37:21Z</time>
      </trkpt>
      <trkpt lat="45.21216" lon="5.63905">
        <ele>539.5</ele>
        <time>2016-07-29T16:37:26Z</time>
      </trkpt>
      <trkpt lat="45.21207" lon="5.63904">
        <ele>540</ele>
        <time>2016-07-29T16:37:30Z</time>
      </trkpt>
      <trkpt lat="45.21196" lon="5.63902">
        <ele>540.6</ele>
        <time>2016-07-29T16:37:35Z</time>
      </trkpt>
      <trkpt lat="45.21186" lon="5.639">
        <ele>541.6</ele>
        <time>2016-07-29T16:37:40Z</time>
      </trkpt>
      <trkpt lat="45.21192" lon="5.63911">
        <ele>541.9</ele>
        <time>2016-07-29T16:37:47Z</time>
      </trkpt>
      <trkpt lat="45.21203" lon="5.6391">
        <ele>541.6</ele>
        <time>2016-07-29T16:39:17Z</time>
      </trkpt>
      <trkpt lat="45.21215" lon="5.63911">
        <ele>541.3</ele>
        <time>2016-07-29T16:39:20Z</time>
      </trkpt>
      <trkpt lat="45.21224" lon="5.6391">
        <ele>540.8</ele>
        <time>2016-07-29T16:39:22Z</time>
      </trkpt>
      <trkpt lat="45.21234" lon="5.63908">
        <ele>540.3</ele>
        <time>2016-07-29T16:39:24Z</time>
      </trkpt>
      <trkpt lat="45.21246" lon="5.63906">
        <ele>539.6</ele>
        <time>2016-07-29T16:39:26Z</time>
      </trkpt>
      <trkpt lat="45.21259" lon="5.63905">
        <ele>538.8</ele>
        <time>2016-07-29T16:39:28Z</time>
      </trkpt>
      <trkpt lat="45.21273" lon="5.63904">
        <ele>538</ele>
        <time>2016-07-29T16:39:30Z</time>
      </trkpt>
      <trkpt lat="45.21287" lon="5.63904">
        <ele>537.1</ele>
        <time>2016-07-29T16:39:32Z</time>
      </trkpt>
      <trkpt lat="45.21303" lon="5.63906">
        <ele>536.3</ele>
        <time>2016-07-29T16:39:34Z</time>
      </trkpt>
      <trkpt lat="45.2132" lon="5.6391">
        <ele>535.3</ele>
        <time>2016-07-29T16:39:36Z</time>
      </trkpt>
      <trkpt lat="45.21337" lon="5.63915">
        <ele>534.3</ele>
        <time>2016-07-29T16:39:38Z</time>
      </trkpt>
      <trkpt lat="45.21354" lon="5.63924">
        <ele>533.3</ele>
        <time>2016-07-29T16:39:40Z</time>
      </trkpt>
      <trkpt lat="45.21362" lon="5.6393">
        <ele>532.7</ele>
        <time>2016-07-29T16:39:41Z</time>
      </trkpt>
      <trkpt lat="45.21371" lon="5.63935">
        <ele>532.2</ele>
        <time>2016-07-29T16:39:42Z</time>
      </trkpt>
      <trkpt lat="45.2138" lon="5.6394">
        <ele>531.5</ele>
        <time>2016-07-29T16:39:43Z</time>
      </trkpt>
      <trkpt lat="45.21389" lon="5.63945">
        <ele>530.8</ele>
        <time>2016-07-29T16:39:44Z</time>
      </trkpt>
      <trkpt lat="45.21398" lon="5.6395">
        <ele>530.2</ele>
        <time>2016-07-29T16:39:45Z</time>
      </trkpt>
      <trkpt lat="45.21407" lon="5.63956">
        <ele>529.5</ele>
        <time>2016-07-29T16:39:46Z</time>
      </trkpt>
      <trkpt lat="45.21416" lon="5.6396">
        <ele>529</ele>
        <time>2016-07-29T16:39:47Z</time>
      </trkpt>
      <trkpt lat="45.21425" lon="5.63963">
        <ele>528.2</ele>
        <time>2016-07-29T16:39:48Z</time>
      </trkpt>
      <trkpt lat="45.21435" lon="5.63966">
        <ele>527.5</ele>
        <time>2016-07-29T16:39:49Z</time>
      </trkpt>
      <trkpt lat="45.21445" lon="5.63969">
        <ele>526.9</ele>
        <time>2016-07-29T16:39:50Z</time>
      </trkpt>
      <trkpt lat="45.21454" lon="5.63972">
        <ele>526.3</ele>
        <time>2016-07-29T16:39:51Z</time>
      </trkpt>
      <trkpt lat="45.21463" lon="5.63975">
        <ele>525.6</ele>
        <time>2016-07-29T16:39:52Z</time>
      </trkpt>
      <trkpt lat="45.21473" lon="5.63977">
        <ele>525</ele>
        <time>2016-07-29T16:39:53Z</time>
      </trkpt>
      <trkpt lat="45.21482" lon="5.63979">
        <ele>524.5</ele>
        <time>2016-07-29T16:39:54Z</time>
      </trkpt>
      <trkpt lat="45.21492" lon="5.63982">
        <ele>524.1</ele>
        <time>2016-07-29T16:39:55Z</time>
      </trkpt>
      <trkpt lat="45.21501" lon="5.63985">
        <ele>523.5</ele>
        <time>2016-07-29T16:39:56Z</time>
      </trkpt>
      <trkpt lat="45.2151" lon="5.63988">
        <ele>522.9</ele>
        <time>2016-07-29T16:39:57Z</time>
      </trkpt>
      <trkpt lat="45.2152" lon="5.63991">
        <ele>522.3</ele>
        <time>2016-07-29T16:39:58Z</time>
      </trkpt>
      <trkpt lat="45.21529" lon="5.63995">
        <ele>521.7</ele>
        <time>2016-07-29T16:39:59Z</time>
      </trkpt>
      <trkpt lat="45.21538" lon="5.63998">
        <ele>521.1</ele>
        <time>2016-07-29T16:40:00Z</time>
      </trkpt>
      <trkpt lat="45.21547" lon="5.64002">
        <ele>520.6</ele>
        <time>2016-07-29T16:40:01Z</time>
      </trkpt>
      <trkpt lat="45.21562" lon="5.64007">
        <ele>519.8</ele>
        <time>2016-07-29T16:40:03Z</time>
      </trkpt>
      <trkpt lat="45.21574" lon="5.64011">
        <ele>519.1</ele>
        <time>2016-07-29T16:40:05Z</time>
      </trkpt>
      <trkpt lat="45.21585" lon="5.64016">
        <ele>518.6</ele>
        <time>2016-07-29T16:40:08Z</time>
      </trkpt>
      <trkpt lat="45.21593" lon="5.64023">
        <ele>518.2</ele>
        <time>2016-07-29T16:40:17Z</time>
      </trkpt>
      <trkpt lat="45.21594" lon="5.64036">
        <ele>516.7</ele>
        <time>2016-07-29T16:40:23Z</time>
      </trkpt>
      <trkpt lat="45.21599" lon="5.64048">
        <ele>513.1</ele>
        <time>2016-07-29T16:40:31Z</time>
      </trkpt>
      <trkpt lat="45.216" lon="5.64061">
        <ele>510.8</ele>
        <time>2016-07-29T16:40:42Z</time>
      </trkpt>
      <trkpt lat="45.21601" lon="5.64075">
        <ele>508.5</ele>
        <time>2016-07-29T16:40:51Z</time>
      </trkpt>
      <trkpt lat="45.21603" lon="5.64089">
        <ele>505.5</ele>
        <time>2016-07-29T16:40:56Z</time>
      </trkpt>
      <trkpt lat="45.21603" lon="5.64104">
        <ele>500.4</ele>
        <time>2016-07-29T16:41:04Z</time>
      </trkpt>
      <trkpt lat="45.21604" lon="5.6412">
        <ele>497.6</ele>
        <time>2016-07-29T16:41:09Z</time>
      </trkpt>
      <trkpt lat="45.21606" lon="5.64133">
        <ele>495</ele>
        <time>2016-07-29T16:41:13Z</time>
      </trkpt>
      <trkpt lat="45.21607" lon="5.64149">
        <ele>493.2</ele>
        <time>2016-07-29T16:41:16Z</time>
      </trkpt>
      <trkpt lat="45.21606" lon="5.64165">
        <ele>490.7</ele>
        <time>2016-07-29T16:41:20Z</time>
      </trkpt>
      <trkpt lat="45.21604" lon="5.64179">
        <ele>488.1</ele>
        <time>2016-07-29T16:41:24Z</time>
      </trkpt>
      <trkpt lat="45.21606" lon="5.64195">
        <ele>485</ele>
        <time>2016-07-29T16:41:30Z</time>
      </trkpt>
      <trkpt lat="45.2161" lon="5.6421">
        <ele>483.1</ele>
        <time>2016-07-29T16:41:33Z</time>
      </trkpt>
      <trkpt lat="45.21615" lon="5.64225">
        <ele>480.5</ele>
        <time>2016-07-29T16:41:38Z</time>
      </trkpt>
      <trkpt lat="45.21608" lon="5.64239">
        <ele>477.3</ele>
        <time>2016-07-29T16:41:44Z</time>
      </trkpt>
      <trkpt lat="45.21601" lon="5.64248">
        <ele>475.8</ele>
        <time>2016-07-29T16:41:47Z</time>
      </trkpt>
      <trkpt lat="45.21595" lon="5.64258">
        <ele>473.9</ele>
        <time>2016-07-29T16:41:52Z</time>
      </trkpt>
      <trkpt lat="45.21604" lon="5.64262">
        <ele>472.6</ele>
        <time>2016-07-29T16:42:27Z</time>
      </trkpt>
      <trkpt lat="45.21612" lon="5.64256">
        <ele>472.5</ele>
        <time>2016-07-29T16:42:30Z</time>
      </trkpt>
      <trkpt lat="45.21621" lon="5.6425">
        <ele>472.8</ele>
        <time>2016-07-29T16:42:33Z</time>
      </trkpt>
      <trkpt lat="45.21629" lon="5.64243">
        <ele>473.7</ele>
        <time>2016-07-29T16:42:36Z</time>
      </trkpt>
      <trkpt lat="45.21638" lon="5.64234">
        <ele>474.9</ele>
        <time>2016-07-29T16:42:40Z</time>
      </trkpt>
      <trkpt lat="45.21646" lon="5.64227">
        <ele>475.2</ele>
        <time>2016-07-29T16:42:44Z</time>
      </trkpt>
      <trkpt lat="45.21655" lon="5.64221">
        <ele>475.6</ele>
        <time>2016-07-29T16:42:48Z</time>
      </trkpt>
      <trkpt lat="45.21663" lon="5.64213">
        <ele>476.1</ele>
        <time>2016-07-29T16:42:52Z</time>
      </trkpt>
      <trkpt lat="45.21671" lon="5.64206">
        <ele>476.8</ele>
        <time>2016-07-29T16:42:56Z</time>
      </trkpt>
      <trkpt lat="45.21679" lon="5.64198">
        <ele>477.3</ele>
        <time>2016-07-29T16:43:00Z</time>
      </trkpt>
      <trkpt lat="45.21687" lon="5.64189">
        <ele>477.9</ele>
        <time>2016-07-29T16:43:05Z</time>
      </trkpt>
      <trkpt lat="45.21696" lon="5.6418">
        <ele>478.9</ele>
        <time>2016-07-29T16:43:12Z</time>
      </trkpt>
      <trkpt lat="45.21704" lon="5.64174">
        <ele>479.3</ele>
        <time>2016-07-29T16:43:17Z</time>
      </trkpt>
      <trkpt lat="45.21711" lon="5.64163">
        <ele>479.6</ele>
        <time>2016-07-29T16:43:30Z</time>
      </trkpt>
      <trkpt lat="45.2172" lon="5.64156">
        <ele>479.8</ele>
        <time>2016-07-29T16:43:34Z</time>
      </trkpt>
      <trkpt lat="45.21731" lon="5.64149">
        <ele>480.4</ele>
        <time>2016-07-29T16:43:38Z</time>
      </trkpt>
      <trkpt lat="45.21739" lon="5.64144">
        <ele>480.8</ele>
        <time>2016-07-29T16:43:41Z</time>
      </trkpt>
      <trkpt lat="45.2175" lon="5.64139">
        <ele>481.4</ele>
        <time>2016-07-29T16:43:45Z</time>
      </trkpt>
      <trkpt lat="45.2176" lon="5.64136">
        <ele>482</ele>
        <time>2016-07-29T16:43:48Z</time>
      </trkpt>
      <trkpt lat="45.21771" lon="5.64133">
        <ele>482.4</ele>
        <time>2016-07-29T16:43:51Z</time>
      </trkpt>
      <trkpt lat="45.21782" lon="5.6413">
        <ele>483.1</ele>
        <time>2016-07-29T16:43:54Z</time>
      </trkpt>
      <trkpt lat="45.21792" lon="5.64127">
        <ele>483.8</ele>
        <time>2016-07-29T16:43:57Z</time>
      </trkpt>
      <trkpt lat="45.21802" lon="5.64125">
        <ele>484.4</ele>
        <time>2016-07-29T16:44:00Z</time>
      </trkpt>
      <trkpt lat="45.21812" lon="5.64123">
        <ele>484.9</ele>
        <time>2016-07-29T16:44:03Z</time>
      </trkpt>
      <trkpt lat="45.21822" lon="5.6412">
        <ele>485.6</ele>
        <time>2016-07-29T16:44:06Z</time>
      </trkpt>
      <trkpt lat="45.21831" lon="5.64118">
        <ele>486.1</ele>
        <time>2016-07-29T16:44:09Z</time>
      </trkpt>
      <trkpt lat="45.21841" lon="5.64115">
        <ele>486.8</ele>
        <time>2016-07-29T16:44:13Z</time>
      </trkpt>
      <trkpt lat="45.21851" lon="5.64113">
        <ele>487.6</ele>
        <time>2016-07-29T16:44:17Z</time>
      </trkpt>
      <trkpt lat="45.21859" lon="5.64119">
        <ele>488.1</ele>
        <time>2016-07-29T16:44:23Z</time>
      </trkpt>
      <trkpt lat="45.21865" lon="5.64129">
        <ele>487</ele>
        <time>2016-07-29T16:44:27Z</time>
      </trkpt>
      <trkpt lat="45.21866" lon="5.64145">
        <ele>484.8</ele>
        <time>2016-07-29T16:44:31Z</time>
      </trkpt>
      <trkpt lat="45.2186" lon="5.64155">
        <ele>482.2</ele>
        <time>2016-07-29T16:44:35Z</time>
      </trkpt>
      <trkpt lat="45.21858" lon="5.64168">
        <ele>478</ele>
        <time>2016-07-29T16:44:43Z</time>
      </trkpt>
      <trkpt lat="45.21848" lon="5.64174">
        <ele>475.6</ele>
        <time>2016-07-29T16:44:49Z</time>
      </trkpt>
      <trkpt lat="45.21837" lon="5.64178">
        <ele>474.1</ele>
        <time>2016-07-29T16:44:53Z</time>
      </trkpt>
      <trkpt lat="45.21827" lon="5.64177">
        <ele>473.4</ele>
        <time>2016-07-29T16:44:56Z</time>
      </trkpt>
      <trkpt lat="45.21816" lon="5.64174">
        <ele>473.3</ele>
        <time>2016-07-29T16:45:01Z</time>
      </trkpt>
      <trkpt lat="45.21805" lon="5.64176">
        <ele>473</ele>
        <time>2016-07-29T16:45:04Z</time>
      </trkpt>
      <trkpt lat="45.21796" lon="5.64172">
        <ele>472.8</ele>
        <time>2016-07-29T16:45:07Z</time>
      </trkpt>
      <trkpt lat="45.21787" lon="5.64168">
        <ele>472.8</ele>
        <time>2016-07-29T16:45:10Z</time>
      </trkpt>
      <trkpt lat="45.2178" lon="5.64182">
        <ele>472</ele>
        <time>2016-07-29T16:45:19Z</time>
      </trkpt>
      <trkpt lat="45.21772" lon="5.64192">
        <ele>469.9</ele>
        <time>2016-07-29T16:45:24Z</time>
      </trkpt>
      <trkpt lat="45.21763" lon="5.64195">
        <ele>468.7</ele>
        <time>2016-07-29T16:45:27Z</time>
      </trkpt>
      <trkpt lat="45.21758" lon="5.64208">
        <ele>466.8</ele>
        <time>2016-07-29T16:45:31Z</time>
      </trkpt>
      <trkpt lat="45.21751" lon="5.64216">
        <ele>464.2</ele>
        <time>2016-07-29T16:45:35Z</time>
      </trkpt>
      <trkpt lat="45.21746" lon="5.64228">
        <ele>461.5</ele>
        <time>2016-07-29T16:45:40Z</time>
      </trkpt>
      <trkpt lat="45.21738" lon="5.64239">
        <ele>459.2</ele>
        <time>2016-07-29T16:45:44Z</time>
      </trkpt>
      <trkpt lat="45.21733" lon="5.64252">
        <ele>457.5</ele>
        <time>2016-07-29T16:45:47Z</time>
      </trkpt>
      <trkpt lat="45.21724" lon="5.64258">
        <ele>455.7</ele>
        <time>2016-07-29T16:45:51Z</time>
      </trkpt>
      <trkpt lat="45.21714" lon="5.64264">
        <ele>454</ele>
        <time>2016-07-29T16:45:55Z</time>
      </trkpt>
      <trkpt lat="45.21706" lon="5.6427">
        <ele>452.5</ele>
        <time>2016-07-29T16:45:58Z</time>
      </trkpt>
      <trkpt lat="45.21705" lon="5.64283">
        <ele>449.5</ele>
        <time>2016-07-29T16:46:14Z</time>
      </trkpt>
      <trkpt lat="45.21714" lon="5.64287">
        <ele>448</ele>
        <time>2016-07-29T16:46:40Z</time>
      </trkpt>
      <trkpt lat="45.21722" lon="5.64297">
        <ele>445.8</ele>
        <time>2016-07-29T16:46:47Z</time>
      </trkpt>
      <trkpt lat="45.21716" lon="5.64311">
        <ele>443.9</ele>
        <time>2016-07-29T16:46:51Z</time>
      </trkpt>
      <trkpt lat="45.21715" lon="5.64325">
        <ele>441.5</ele>
        <time>2016-07-29T16:46:55Z</time>
      </trkpt>
      <trkpt lat="45.21705" lon="5.64333">
        <ele>439.6</ele>
        <time>2016-07-29T16:46:59Z</time>
      </trkpt>
      <trkpt lat="45.21699" lon="5.64346">
        <ele>437.7</ele>
        <time>2016-07-29T16:47:03Z</time>
      </trkpt>
      <trkpt lat="45.21697" lon="5.64363">
        <ele>436.3</ele>
        <time>2016-07-29T16:47:06Z</time>
      </trkpt>
      <trkpt lat="45.21694" lon="5.64377">
        <ele>434.9</ele>
        <time>2016-07-29T16:47:08Z</time>
      </trkpt>
      <trkpt lat="45.21687" lon="5.6439">
        <ele>433.6</ele>
        <time>2016-07-29T16:47:10Z</time>
      </trkpt>
      <trkpt lat="45.2168" lon="5.64406">
        <ele>431.2</ele>
        <time>2016-07-29T16:47:13Z</time>
      </trkpt>
      <trkpt lat="45.21677" lon="5.64419">
        <ele>429.7</ele>
        <time>2016-07-29T16:47:15Z</time>
      </trkpt>
      <trkpt lat="45.21671" lon="5.64435">
        <ele>427.9</ele>
        <time>2016-07-29T16:47:18Z</time>
      </trkpt>
      <trkpt lat="45.21668" lon="5.64451">
        <ele>426</ele>
        <time>2016-07-29T16:47:21Z</time>
      </trkpt>
      <trkpt lat="45.21665" lon="5.64467">
        <ele>423.9</ele>
        <time>2016-07-29T16:47:24Z</time>
      </trkpt>
      <trkpt lat="45.21663" lon="5.6448">
        <ele>422.3</ele>
        <time>2016-07-29T16:47:27Z</time>
      </trkpt>
      <trkpt lat="45.21661" lon="5.64495">
        <ele>420.4</ele>
        <time>2016-07-29T16:47:31Z</time>
      </trkpt>
      <trkpt lat="45.21656" lon="5.64506">
        <ele>419.1</ele>
        <time>2016-07-29T16:47:33Z</time>
      </trkpt>
      <trkpt lat="45.21653" lon="5.64521">
        <ele>417.4</ele>
        <time>2016-07-29T16:47:36Z</time>
      </trkpt>
      <trkpt lat="45.21648" lon="5.64532">
        <ele>415.4</ele>
        <time>2016-07-29T16:47:40Z</time>
      </trkpt>
      <trkpt lat="45.21645" lon="5.64545">
        <ele>413.8</ele>
        <time>2016-07-29T16:47:47Z</time>
      </trkpt>
      <trkpt lat="45.21635" lon="5.6455">
        <ele>412.7</ele>
        <time>2016-07-29T16:47:51Z</time>
      </trkpt>
      <trkpt lat="45.21626" lon="5.64552">
        <ele>412.6</ele>
        <time>2016-07-29T16:47:59Z</time>
      </trkpt>
      <trkpt lat="45.21617" lon="5.64554">
        <ele>414.5</ele>
        <time>2016-07-29T16:48:10Z</time>
      </trkpt>
      <trkpt lat="45.21608" lon="5.64561">
        <ele>414.3</ele>
        <time>2016-07-29T16:48:23Z</time>
      </trkpt>
      <trkpt lat="45.21616" lon="5.64555">
        <ele>414.4</ele>
        <time>2016-07-29T16:48:32Z</time>
      </trkpt>
      <trkpt lat="45.21628" lon="5.64549">
        <ele>413.9</ele>
        <time>2016-07-29T16:48:35Z</time>
      </trkpt>
      <trkpt lat="45.21623" lon="5.64563">
        <ele>412.4</ele>
        <time>2016-07-29T16:48:41Z</time>
      </trkpt>
      <trkpt lat="45.21612" lon="5.64566">
        <ele>412.2</ele>
        <time>2016-07-29T16:48:44Z</time>
      </trkpt>
      <trkpt lat="45.21603" lon="5.64569">
        <ele>412.6</ele>
        <time>2016-07-29T16:48:47Z</time>
      </trkpt>
      <trkpt lat="45.21594" lon="5.64574">
        <ele>413.1</ele>
        <time>2016-07-29T16:48:51Z</time>
      </trkpt>
      <trkpt lat="45.21586" lon="5.64581">
        <ele>413.3</ele>
        <time>2016-07-29T16:48:54Z</time>
      </trkpt>
      <trkpt lat="45.21578" lon="5.64589">
        <ele>413.6</ele>
        <time>2016-07-29T16:48:57Z</time>
      </trkpt>
      <trkpt lat="45.21568" lon="5.64598">
        <ele>414.3</ele>
        <time>2016-07-29T16:49:01Z</time>
      </trkpt>
      <trkpt lat="45.21559" lon="5.64608">
        <ele>413.9</ele>
        <time>2016-07-29T16:49:04Z</time>
      </trkpt>
      <trkpt lat="45.21552" lon="5.64615">
        <ele>413.4</ele>
        <time>2016-07-29T16:49:07Z</time>
      </trkpt>
      <trkpt lat="45.21547" lon="5.64629">
        <ele>412.5</ele>
        <time>2016-07-29T16:49:12Z</time>
      </trkpt>
      <trkpt lat="45.21545" lon="5.64644">
        <ele>411.4</ele>
        <time>2016-07-29T16:49:16Z</time>
      </trkpt>
      <trkpt lat="45.21542" lon="5.64658">
        <ele>409.1</ele>
        <time>2016-07-29T16:49:35Z</time>
      </trkpt>
      <trkpt lat="45.21538" lon="5.64672">
        <ele>407.8</ele>
        <time>2016-07-29T16:49:41Z</time>
      </trkpt>
      <trkpt lat="45.21534" lon="5.64687">
        <ele>407.1</ele>
        <time>2016-07-29T16:49:46Z</time>
      </trkpt>
      <trkpt lat="45.21545" lon="5.64687">
        <ele>404.4</ele>
        <time>2016-07-29T16:49:57Z</time>
      </trkpt>
      <trkpt lat="45.21554" lon="5.64684">
        <ele>402.7</ele>
        <time>2016-07-29T16:50:00Z</time>
      </trkpt>
      <trkpt lat="45.21563" lon="5.64687">
        <ele>401.3</ele>
        <time>2016-07-29T16:50:04Z</time>
      </trkpt>
      <trkpt lat="45.21574" lon="5.64692">
        <ele>399.5</ele>
        <time>2016-07-29T16:50:08Z</time>
      </trkpt>
      <trkpt lat="45.21584" lon="5.64691">
        <ele>398.3</ele>
        <time>2016-07-29T16:50:11Z</time>
      </trkpt>
      <trkpt lat="45.21594" lon="5.64699">
        <ele>397.6</ele>
        <time>2016-07-29T16:50:14Z</time>
      </trkpt>
      <trkpt lat="45.21603" lon="5.64709">
        <ele>397</ele>
        <time>2016-07-29T16:50:16Z</time>
      </trkpt>
      <trkpt lat="45.21612" lon="5.64714">
        <ele>396.3</ele>
        <time>2016-07-29T16:50:18Z</time>
      </trkpt>
      <trkpt lat="45.21622" lon="5.64714">
        <ele>396</ele>
        <time>2016-07-29T16:50:20Z</time>
      </trkpt>
      <trkpt lat="45.21632" lon="5.64715">
        <ele>395.9</ele>
        <time>2016-07-29T16:50:22Z</time>
      </trkpt>
      <trkpt lat="45.21635" lon="5.64728">
        <ele>395.3</ele>
        <time>2016-07-29T16:50:26Z</time>
      </trkpt>
      <trkpt lat="45.21627" lon="5.64737">
        <ele>394.1</ele>
        <time>2016-07-29T16:50:29Z</time>
      </trkpt>
      <trkpt lat="45.21623" lon="5.64749">
        <ele>392.8</ele>
        <time>2016-07-29T16:50:32Z</time>
      </trkpt>
      <trkpt lat="45.21631" lon="5.64756">
        <ele>391.1</ele>
        <time>2016-07-29T16:50:37Z</time>
      </trkpt>
      <trkpt lat="45.21639" lon="5.64764">
        <ele>390.4</ele>
        <time>2016-07-29T16:50:41Z</time>
      </trkpt>
      <trkpt lat="45.21646" lon="5.64774">
        <ele>390.1</ele>
        <time>2016-07-29T16:50:45Z</time>
      </trkpt>
      <trkpt lat="45.21648" lon="5.64787">
        <ele>390</ele>
        <time>2016-07-29T16:50:49Z</time>
      </trkpt>
      <trkpt lat="45.21649" lon="5.64801">
        <ele>388.1</ele>
        <time>2016-07-29T16:50:55Z</time>
      </trkpt>
      <trkpt lat="45.21655" lon="5.64814">
        <ele>385.8</ele>
        <time>2016-07-29T16:50:59Z</time>
      </trkpt>
      <trkpt lat="45.21663" lon="5.64822">
        <ele>384.6</ele>
        <time>2016-07-29T16:51:02Z</time>
      </trkpt>
      <trkpt lat="45.21671" lon="5.64831">
        <ele>384</ele>
        <time>2016-07-29T16:51:05Z</time>
      </trkpt>
      <trkpt lat="45.21679" lon="5.64837">
        <ele>383.7</ele>
        <time>2016-07-29T16:51:08Z</time>
      </trkpt>
      <trkpt lat="45.21688" lon="5.6484">
        <ele>383.5</ele>
        <time>2016-07-29T16:51:11Z</time>
      </trkpt>
      <trkpt lat="45.21696" lon="5.64847">
        <ele>383.3</ele>
        <time>2016-07-29T16:51:14Z</time>
      </trkpt>
      <trkpt lat="45.21704" lon="5.64855">
        <ele>383.1</ele>
        <time>2016-07-29T16:51:17Z</time>
      </trkpt>
      <trkpt lat="45.21712" lon="5.64865">
        <ele>382.8</ele>
        <time>2016-07-29T16:51:20Z</time>
      </trkpt>
      <trkpt lat="45.2172" lon="5.64875">
        <ele>382.8</ele>
        <time>2016-07-29T16:51:23Z</time>
      </trkpt>
      <trkpt lat="45.21729" lon="5.64886">
        <ele>382.9</ele>
        <time>2016-07-29T16:51:26Z</time>
      </trkpt>
      <trkpt lat="45.21738" lon="5.64892">
        <ele>383</ele>
        <time>2016-07-29T16:51:29Z</time>
      </trkpt>
      <trkpt lat="45.21749" lon="5.64899">
        <ele>383.3</ele>
        <time>2016-07-29T16:51:33Z</time>
      </trkpt>
      <trkpt lat="45.21759" lon="5.64906">
        <ele>383.7</ele>
        <time>2016-07-29T16:51:37Z</time>
      </trkpt>
      <trkpt lat="45.21767" lon="5.64912">
        <ele>384.1</ele>
        <time>2016-07-29T16:51:41Z</time>
      </trkpt>
      <trkpt lat="45.21773" lon="5.64921">
        <ele>384.9</ele>
        <time>2016-07-29T16:51:50Z</time>
      </trkpt>
      <trkpt lat="45.21783" lon="5.64921">
        <ele>385.5</ele>
        <time>2016-07-29T16:52:05Z</time>
      </trkpt>
      <trkpt lat="45.21793" lon="5.64927">
        <ele>385.9</ele>
        <time>2016-07-29T16:52:11Z</time>
      </trkpt>
      <trkpt lat="45.21803" lon="5.64929">
        <ele>386.3</ele>
        <time>2016-07-29T16:52:15Z</time>
      </trkpt>
      <trkpt lat="45.21813" lon="5.64932">
        <ele>386.4</ele>
        <time>2016-07-29T16:52:19Z</time>
      </trkpt>
      <trkpt lat="45.21822" lon="5.64932">
        <ele>386.5</ele>
        <time>2016-07-29T16:52:23Z</time>
      </trkpt>
      <trkpt lat="45.21832" lon="5.64933">
        <ele>387.1</ele>
        <time>2016-07-29T16:52:27Z</time>
      </trkpt>
      <trkpt lat="45.21843" lon="5.64933">
        <ele>388.1</ele>
        <time>2016-07-29T16:52:32Z</time>
      </trkpt>
      <trkpt lat="45.21853" lon="5.64933">
        <ele>389</ele>
        <time>2016-07-29T16:52:37Z</time>
      </trkpt>
      <trkpt lat="45.21863" lon="5.64933">
        <ele>389.3</ele>
        <time>2016-07-29T16:52:41Z</time>
      </trkpt>
      <trkpt lat="45.21872" lon="5.64933">
        <ele>389.7</ele>
        <time>2016-07-29T16:52:45Z</time>
      </trkpt>
      <trkpt lat="45.21881" lon="5.64934">
        <ele>390.3</ele>
        <time>2016-07-29T16:52:51Z</time>
      </trkpt>
      <trkpt lat="45.21891" lon="5.64935">
        <ele>390.9</ele>
        <time>2016-07-29T16:53:02Z</time>
      </trkpt>
      <trkpt lat="45.21881" lon="5.64932">
        <ele>390.8</ele>
        <time>2016-07-29T16:53:11Z</time>
      </trkpt>
      <trkpt lat="45.2187" lon="5.64928">
        <ele>390.8</ele>
        <time>2016-07-29T16:53:15Z</time>
      </trkpt>
      <trkpt lat="45.2186" lon="5.64924">
        <ele>390.7</ele>
        <time>2016-07-29T16:53:19Z</time>
      </trkpt>
      <trkpt lat="45.21868" lon="5.64931">
        <ele>389.9</ele>
        <time>2016-07-29T16:54:51Z</time>
      </trkpt>
      <trkpt lat="45.21877" lon="5.64931">
        <ele>390</ele>
        <time>2016-07-29T16:54:55Z</time>
      </trkpt>
      <trkpt lat="45.21887" lon="5.64934">
        <ele>390.3</ele>
        <time>2016-07-29T16:55:00Z</time>
      </trkpt>
      <trkpt lat="45.21897" lon="5.64933">
        <ele>390.8</ele>
        <time>2016-07-29T16:55:28Z</time>
      </trkpt>
      <trkpt lat="45.21904" lon="5.64926">
        <ele>390.5</ele>
        <time>2016-07-29T16:55:31Z</time>
      </trkpt>
      <trkpt lat="45.21913" lon="5.64922">
        <ele>390.1</ele>
        <time>2016-07-29T16:55:34Z</time>
      </trkpt>
      <trkpt lat="45.21921" lon="5.64928">
        <ele>390.1</ele>
        <time>2016-07-29T16:55:37Z</time>
      </trkpt>
      <trkpt lat="45.2193" lon="5.64933">
        <ele>389.8</ele>
        <time>2016-07-29T16:55:40Z</time>
      </trkpt>
      <trkpt lat="45.2194" lon="5.64937">
        <ele>389.7</ele>
        <time>2016-07-29T16:55:43Z</time>
      </trkpt>
      <trkpt lat="45.2195" lon="5.6494">
        <ele>389.8</ele>
        <time>2016-07-29T16:55:46Z</time>
      </trkpt>
      <trkpt lat="45.21961" lon="5.64941">
        <ele>390.1</ele>
        <time>2016-07-29T16:55:49Z</time>
      </trkpt>
      <trkpt lat="45.21972" lon="5.64941">
        <ele>390.3</ele>
        <time>2016-07-29T16:55:52Z</time>
      </trkpt>
      <trkpt lat="45.21982" lon="5.64942">
        <ele>390.5</ele>
        <time>2016-07-29T16:55:55Z</time>
      </trkpt>
      <trkpt lat="45.21992" lon="5.64944">
        <ele>391.2</ele>
        <time>2016-07-29T16:55:59Z</time>
      </trkpt>
      <trkpt lat="45.22003" lon="5.64944">
        <ele>391.8</ele>
        <time>2016-07-29T16:56:02Z</time>
      </trkpt>
      <trkpt lat="45.22012" lon="5.64944">
        <ele>392.3</ele>
        <time>2016-07-29T16:56:04Z</time>
      </trkpt>
      <trkpt lat="45.22023" lon="5.6494">
        <ele>392.8</ele>
        <time>2016-07-29T16:56:07Z</time>
      </trkpt>
      <trkpt lat="45.22032" lon="5.64936">
        <ele>393.5</ele>
        <time>2016-07-29T16:56:11Z</time>
      </trkpt>
      <trkpt lat="45.22041" lon="5.64934">
        <ele>394.4</ele>
        <time>2016-07-29T16:56:17Z</time>
      </trkpt>
      <trkpt lat="45.22031" lon="5.64938">
        <ele>394.6</ele>
        <time>2016-07-29T16:56:25Z</time>
      </trkpt>
      <trkpt lat="45.22019" lon="5.64943">
        <ele>394.3</ele>
        <time>2016-07-29T16:56:28Z</time>
      </trkpt>
      <trkpt lat="45.22007" lon="5.64944">
        <ele>394.1</ele>
        <time>2016-07-29T16:56:31Z</time>
      </trkpt>
      <trkpt lat="45.21995" lon="5.64942">
        <ele>393.6</ele>
        <time>2016-07-29T16:56:34Z</time>
      </trkpt>
      <trkpt lat="45.21996" lon="5.64957">
        <ele>392.1</ele>
        <time>2016-07-29T16:56:42Z</time>
      </trkpt>
      <trkpt lat="45.22005" lon="5.64965">
        <ele>391.3</ele>
        <time>2016-07-29T16:56:45Z</time>
      </trkpt>
      <trkpt lat="45.22015" lon="5.64971">
        <ele>390.5</ele>
        <time>2016-07-29T16:56:48Z</time>
      </trkpt>
      <trkpt lat="45.22028" lon="5.64972">
        <ele>389.9</ele>
        <time>2016-07-29T16:56:51Z</time>
      </trkpt>
      <trkpt lat="45.22039" lon="5.64971">
        <ele>389.1</ele>
        <time>2016-07-29T16:56:54Z</time>
      </trkpt>
      <trkpt lat="45.22049" lon="5.64969">
        <ele>387.9</ele>
        <time>2016-07-29T16:56:57Z</time>
      </trkpt>
      <trkpt lat="45.2206" lon="5.64962">
        <ele>387.1</ele>
        <time>2016-07-29T16:57:00Z</time>
      </trkpt>
      <trkpt lat="45.22072" lon="5.64959">
        <ele>386.6</ele>
        <time>2016-07-29T16:57:03Z</time>
      </trkpt>
      <trkpt lat="45.22083" lon="5.64955">
        <ele>386.8</ele>
        <time>2016-07-29T16:57:07Z</time>
      </trkpt>
      <trkpt lat="45.22092" lon="5.64953">
        <ele>387.4</ele>
        <time>2016-07-29T16:57:12Z</time>
      </trkpt>
      <trkpt lat="45.22101" lon="5.64958">
        <ele>391</ele>
        <time>2016-07-29T16:57:18Z</time>
      </trkpt>
      <trkpt lat="45.2211" lon="5.64962">
        <ele>390.7</ele>
        <time>2016-07-29T16:57:24Z</time>
      </trkpt>
      <trkpt lat="45.2212" lon="5.64965">
        <ele>391</ele>
        <time>2016-07-29T16:57:29Z</time>
      </trkpt>
      <trkpt lat="45.22129" lon="5.64969">
        <ele>391.3</ele>
        <time>2016-07-29T16:57:32Z</time>
      </trkpt>
      <trkpt lat="45.22138" lon="5.64974">
        <ele>392</ele>
        <time>2016-07-29T16:57:35Z</time>
      </trkpt>
      <trkpt lat="45.22148" lon="5.64978">
        <ele>393.2</ele>
        <time>2016-07-29T16:57:39Z</time>
      </trkpt>
      <trkpt lat="45.22157" lon="5.64979">
        <ele>394.4</ele>
        <time>2016-07-29T16:57:54Z</time>
      </trkpt>
      <trkpt lat="45.22165" lon="5.64986">
        <ele>394.6</ele>
        <time>2016-07-29T16:59:41Z</time>
      </trkpt>
      <trkpt lat="45.22176" lon="5.64989">
        <ele>395.4</ele>
        <time>2016-07-29T16:59:49Z</time>
      </trkpt>
      <trkpt lat="45.22184" lon="5.64993">
        <ele>396.4</ele>
        <time>2016-07-29T16:59:54Z</time>
      </trkpt>
      <trkpt lat="45.22195" lon="5.64998">
        <ele>397.8</ele>
        <time>2016-07-29T17:00:00Z</time>
      </trkpt>
      <trkpt lat="45.22205" lon="5.64999">
        <ele>398.8</ele>
        <time>2016-07-29T17:00:05Z</time>
      </trkpt>
      <trkpt lat="45.22215" lon="5.64997">
        <ele>399.5</ele>
        <time>2016-07-29T17:00:10Z</time>
      </trkpt>
      <trkpt lat="45.22226" lon="5.64996">
        <ele>400.1</ele>
        <time>2016-07-29T17:00:14Z</time>
      </trkpt>
      <trkpt lat="45.22234" lon="5.64993">
        <ele>400.9</ele>
        <time>2016-07-29T17:00:18Z</time>
      </trkpt>
      <trkpt lat="45.22245" lon="5.64996">
        <ele>401.7</ele>
        <time>2016-07-29T17:00:21Z</time>
      </trkpt>
      <trkpt lat="45.22255" lon="5.65001">
        <ele>402.7</ele>
        <time>2016-07-29T17:00:25Z</time>
      </trkpt>
      <trkpt lat="45.22263" lon="5.65009">
        <ele>403.8</ele>
        <time>2016-07-29T17:00:29Z</time>
      </trkpt>
      <trkpt lat="45.22273" lon="5.65019">
        <ele>404.5</ele>
        <time>2016-07-29T17:00:33Z</time>
      </trkpt>
      <trkpt lat="45.22283" lon="5.65028">
        <ele>404.8</ele>
        <time>2016-07-29T17:00:37Z</time>
      </trkpt>
      <trkpt lat="45.22292" lon="5.65031">
        <ele>404.8</ele>
        <time>2016-07-29T17:00:40Z</time>
      </trkpt>
      <trkpt lat="45.22301" lon="5.65032">
        <ele>404.7</ele>
        <time>2016-07-29T17:00:43Z</time>
      </trkpt>
      <trkpt lat="45.2231" lon="5.65028">
        <ele>405</ele>
        <time>2016-07-29T17:00:46Z</time>
      </trkpt>
      <trkpt lat="45.2232" lon="5.65022">
        <ele>405.2</ele>
        <time>2016-07-29T17:00:49Z</time>
      </trkpt>
      <trkpt lat="45.22329" lon="5.65014">
        <ele>405.2</ele>
        <time>2016-07-29T17:00:52Z</time>
      </trkpt>
      <trkpt lat="45.22336" lon="5.65007">
        <ele>405.2</ele>
        <time>2016-07-29T17:00:55Z</time>
      </trkpt>
      <trkpt lat="45.22345" lon="5.64997">
        <ele>405.5</ele>
        <time>2016-07-29T17:00:59Z</time>
      </trkpt>
      <trkpt lat="45.22353" lon="5.64984">
        <ele>406.1</ele>
        <time>2016-07-29T17:01:03Z</time>
      </trkpt>
      <trkpt lat="45.22358" lon="5.64971">
        <ele>406.7</ele>
        <time>2016-07-29T17:01:07Z</time>
      </trkpt>
      <trkpt lat="45.22361" lon="5.64958">
        <ele>407.8</ele>
        <time>2016-07-29T17:01:11Z</time>
      </trkpt>
      <trkpt lat="45.22368" lon="5.64944">
        <ele>408.7</ele>
        <time>2016-07-29T17:01:15Z</time>
      </trkpt>
      <trkpt lat="45.22374" lon="5.64933">
        <ele>409.9</ele>
        <time>2016-07-29T17:01:19Z</time>
      </trkpt>
      <trkpt lat="45.22381" lon="5.64924">
        <ele>410.9</ele>
        <time>2016-07-29T17:01:24Z</time>
      </trkpt>
      <trkpt lat="45.22388" lon="5.64915">
        <ele>411.6</ele>
        <time>2016-07-29T17:01:30Z</time>
      </trkpt>
      <trkpt lat="45.22398" lon="5.64908">
        <ele>412.6</ele>
        <time>2016-07-29T17:01:37Z</time>
      </trkpt>
      <trkpt lat="45.22407" lon="5.64906">
        <ele>413.1</ele>
        <time>2016-07-29T17:01:43Z</time>
      </trkpt>
      <trkpt lat="45.22415" lon="5.64898">
        <ele>411.1</ele>
        <time>2016-07-29T17:01:50Z</time>
      </trkpt>
      <trkpt lat="45.22425" lon="5.64899">
        <ele>409</ele>
        <time>2016-07-29T17:01:56Z</time>
      </trkpt>
      <trkpt lat="45.22434" lon="5.64903">
        <ele>406.4</ele>
        <time>2016-07-29T17:02:02Z</time>
      </trkpt>
      <trkpt lat="45.22443" lon="5.64902">
        <ele>404.6</ele>
        <time>2016-07-29T17:02:09Z</time>
      </trkpt>
      <trkpt lat="45.2245" lon="5.64911">
        <ele>401.6</ele>
        <time>2016-07-29T17:02:17Z</time>
      </trkpt>
      <trkpt lat="45.22458" lon="5.64919">
        <ele>398.2</ele>
        <time>2016-07-29T17:02:24Z</time>
      </trkpt>
      <trkpt lat="45.22468" lon="5.64925">
        <ele>395.7</ele>
        <time>2016-07-29T17:02:30Z</time>
      </trkpt>
      <trkpt lat="45.22465" lon="5.64937">
        <ele>394</ele>
        <time>2016-07-29T17:02:36Z</time>
      </trkpt>
      <trkpt lat="45.2246" lon="5.64951">
        <ele>391.2</ele>
        <time>2016-07-29T17:02:42Z</time>
      </trkpt>
      <trkpt lat="45.22459" lon="5.64964">
        <ele>389.1</ele>
        <time>2016-07-29T17:02:49Z</time>
      </trkpt>
      <trkpt lat="45.22466" lon="5.64974">
        <ele>387.1</ele>
        <time>2016-07-29T17:02:54Z</time>
      </trkpt>
      <trkpt lat="45.22474" lon="5.64984">
        <ele>384</ele>
        <time>2016-07-29T17:02:59Z</time>
      </trkpt>
      <trkpt lat="45.22482" lon="5.64987">
        <ele>381.5</ele>
        <time>2016-07-29T17:03:05Z</time>
      </trkpt>
      <trkpt lat="45.22481" lon="5.65">
        <ele>379.6</ele>
        <time>2016-07-29T17:03:10Z</time>
      </trkpt>
      <trkpt lat="45.22491" lon="5.65003">
        <ele>377.7</ele>
        <time>2016-07-29T17:03:15Z</time>
      </trkpt>
      <trkpt lat="45.22502" lon="5.65007">
        <ele>375.5</ele>
        <time>2016-07-29T17:03:19Z</time>
      </trkpt>
      <trkpt lat="45.22509" lon="5.65015">
        <ele>372.7</ele>
        <time>2016-07-29T17:03:23Z</time>
      </trkpt>
      <trkpt lat="45.22515" lon="5.65029">
        <ele>369</ele>
        <time>2016-07-29T17:03:28Z</time>
      </trkpt>
      <trkpt lat="45.22517" lon="5.65043">
        <ele>364.3</ele>
        <time>2016-07-29T17:03:35Z</time>
      </trkpt>
      <trkpt lat="45.22511" lon="5.65054">
        <ele>361.4</ele>
        <time>2016-07-29T17:03:39Z</time>
      </trkpt>
      <trkpt lat="45.22505" lon="5.65066">
        <ele>358.7</ele>
        <time>2016-07-29T17:03:43Z</time>
      </trkpt>
      <trkpt lat="45.22509" lon="5.65081">
        <ele>355.1</ele>
        <time>2016-07-29T17:03:47Z</time>
      </trkpt>
      <trkpt lat="45.2251" lon="5.65096">
        <ele>351.1</ele>
        <time>2016-07-29T17:03:52Z</time>
      </trkpt>
      <trkpt lat="45.22507" lon="5.65111">
        <ele>347.6</ele>
        <time>2016-07-29T17:03:56Z</time>
      </trkpt>
      <trkpt lat="45.22501" lon="5.65122">
        <ele>345</ele>
        <time>2016-07-29T17:03:59Z</time>
      </trkpt>
      <trkpt lat="45.22494" lon="5.65135">
        <ele>343.3</ele>
        <time>2016-07-29T17:04:02Z</time>
      </trkpt>
      <trkpt lat="45.22486" lon="5.65144">
        <ele>342.4</ele>
        <time>2016-07-29T17:04:05Z</time>
      </trkpt>
      <trkpt lat="45.22476" lon="5.6515">
        <ele>341.5</ele>
        <time>2016-07-29T17:04:08Z</time>
      </trkpt>
      <trkpt lat="45.22468" lon="5.65159">
        <ele>340.4</ele>
        <time>2016-07-29T17:04:15Z</time>
      </trkpt>
      <trkpt lat="45.22461" lon="5.65167">
        <ele>337.9</ele>
        <time>2016-07-29T17:04:22Z</time>
      </trkpt>
      <trkpt lat="45.22456" lon="5.6518">
        <ele>335.1</ele>
        <time>2016-07-29T17:04:29Z</time>
      </trkpt>
      <trkpt lat="45.22452" lon="5.65192">
        <ele>332.4</ele>
        <time>2016-07-29T17:04:35Z</time>
      </trkpt>
      <trkpt lat="45.22453" lon="5.65206">
        <ele>330.2</ele>
        <time>2016-07-29T17:04:39Z</time>
      </trkpt>
      <trkpt lat="45.22446" lon="5.65215">
        <ele>329.1</ele>
        <time>2016-07-29T17:04:43Z</time>
      </trkpt>
      <trkpt lat="45.2244" lon="5.65225">
        <ele>328.2</ele>
        <time>2016-07-29T17:04:48Z</time>
      </trkpt>
      <trkpt lat="45.22434" lon="5.65236">
        <ele>326.2</ele>
        <time>2016-07-29T17:04:54Z</time>
      </trkpt>
      <trkpt lat="45.22431" lon="5.65251">
        <ele>322.9</ele>
        <time>2016-07-29T17:05:01Z</time>
      </trkpt>
      <trkpt lat="45.22422" lon="5.6526">
        <ele>319.4</ele>
        <time>2016-07-29T17:05:07Z</time>
      </trkpt>
      <trkpt lat="45.22416" lon="5.65271">
        <ele>316.7</ele>
        <time>2016-07-29T17:05:12Z</time>
      </trkpt>
      <trkpt lat="45.2242" lon="5.65283">
        <ele>314.9</ele>
        <time>2016-07-29T17:05:16Z</time>
      </trkpt>
      <trkpt lat="45.22421" lon="5.65301">
        <ele>311.9</ele>
        <time>2016-07-29T17:05:21Z</time>
      </trkpt>
      <trkpt lat="45.2242" lon="5.65319">
        <ele>309.7</ele>
        <time>2016-07-29T17:05:24Z</time>
      </trkpt>
      <trkpt lat="45.22417" lon="5.65331">
        <ele>307.4</ele>
        <time>2016-07-29T17:05:29Z</time>
      </trkpt>
      <trkpt lat="45.22412" lon="5.65344">
        <ele>305.9</ele>
        <time>2016-07-29T17:05:42Z</time>
      </trkpt>
      <trkpt lat="45.22404" lon="5.65351">
        <ele>304.6</ele>
        <time>2016-07-29T17:05:46Z</time>
      </trkpt>
      <trkpt lat="45.22394" lon="5.65357">
        <ele>302.7</ele>
        <time>2016-07-29T17:05:50Z</time>
      </trkpt>
      <trkpt lat="45.22388" lon="5.6537">
        <ele>300.4</ele>
        <time>2016-07-29T17:05:55Z</time>
      </trkpt>
      <trkpt lat="45.22381" lon="5.6538">
        <ele>299.1</ele>
        <time>2016-07-29T17:05:57Z</time>
      </trkpt>
      <trkpt lat="45.22374" lon="5.65387">
        <ele>298</ele>
        <time>2016-07-29T17:05:59Z</time>
      </trkpt>
      <trkpt lat="45.22364" lon="5.65387">
        <ele>297</ele>
        <time>2016-07-29T17:06:02Z</time>
      </trkpt>
      <trkpt lat="45.22355" lon="5.65386">
        <ele>296.4</ele>
        <time>2016-07-29T17:06:06Z</time>
      </trkpt>
      <trkpt lat="45.22345" lon="5.65391">
        <ele>296</ele>
        <time>2016-07-29T17:06:09Z</time>
      </trkpt>
      <trkpt lat="45.22334" lon="5.65395">
        <ele>295</ele>
        <time>2016-07-29T17:06:12Z</time>
      </trkpt>
      <trkpt lat="45.22324" lon="5.65394">
        <ele>294.2</ele>
        <time>2016-07-29T17:06:15Z</time>
      </trkpt>
      <trkpt lat="45.22316" lon="5.65404">
        <ele>293</ele>
        <time>2016-07-29T17:06:18Z</time>
      </trkpt>
      <trkpt lat="45.22313" lon="5.65421">
        <ele>291.4</ele>
        <time>2016-07-29T17:06:21Z</time>
      </trkpt>
      <trkpt lat="45.2231" lon="5.65437">
        <ele>290.4</ele>
        <time>2016-07-29T17:06:24Z</time>
      </trkpt>
      <trkpt lat="45.2231" lon="5.65451">
        <ele>289.4</ele>
        <time>2016-07-29T17:06:27Z</time>
      </trkpt>
      <trkpt lat="45.22302" lon="5.6546">
        <ele>288.6</ele>
        <time>2016-07-29T17:06:30Z</time>
      </trkpt>
      <trkpt lat="45.22295" lon="5.65469">
        <ele>287.7</ele>
        <time>2016-07-29T17:06:33Z</time>
      </trkpt>
      <trkpt lat="45.22288" lon="5.65477">
        <ele>286.9</ele>
        <time>2016-07-29T17:06:36Z</time>
      </trkpt>
      <trkpt lat="45.22276" lon="5.65479">
        <ele>286.6</ele>
        <time>2016-07-29T17:06:40Z</time>
      </trkpt>
      <trkpt lat="45.22266" lon="5.65478">
        <ele>286.3</ele>
        <time>2016-07-29T17:06:43Z</time>
      </trkpt>
      <trkpt lat="45.22255" lon="5.65474">
        <ele>285.3</ele>
        <time>2016-07-29T17:06:47Z</time>
      </trkpt>
      <trkpt lat="45.22245" lon="5.65467">
        <ele>284.6</ele>
        <time>2016-07-29T17:06:50Z</time>
      </trkpt>
      <trkpt lat="45.22236" lon="5.65464">
        <ele>283.9</ele>
        <time>2016-07-29T17:06:52Z</time>
      </trkpt>
      <trkpt lat="45.22228" lon="5.6546">
        <ele>283.1</ele>
        <time>2016-07-29T17:06:54Z</time>
      </trkpt>
      <trkpt lat="45.22215" lon="5.65461">
        <ele>281.9</ele>
        <time>2016-07-29T17:06:57Z</time>
      </trkpt>
      <trkpt lat="45.22204" lon="5.65461">
        <ele>280.7</ele>
        <time>2016-07-29T17:07:00Z</time>
      </trkpt>
      <trkpt lat="45.22191" lon="5.65458">
        <ele>279.3</ele>
        <time>2016-07-29T17:07:03Z</time>
      </trkpt>
      <trkpt lat="45.2218" lon="5.65457">
        <ele>278</ele>
        <time>2016-07-29T17:07:06Z</time>
      </trkpt>
      <trkpt lat="45.2217" lon="5.65454">
        <ele>276.3</ele>
        <time>2016-07-29T17:07:09Z</time>
      </trkpt>
      <trkpt lat="45.22164" lon="5.65443">
        <ele>275</ele>
        <time>2016-07-29T17:07:27Z</time>
      </trkpt>
      <trkpt lat="45.22158" lon="5.65431">
        <ele>275.2</ele>
        <time>2016-07-29T17:07:33Z</time>
      </trkpt>
      <trkpt lat="45.22156" lon="5.65417">
        <ele>275.3</ele>
        <time>2016-07-29T17:07:39Z</time>
      </trkpt>
      <trkpt lat="45.22146" lon="5.65409">
        <ele>275.2</ele>
        <time>2016-07-29T17:07:43Z</time>
      </trkpt>
      <trkpt lat="45.22136" lon="5.65414">
        <ele>274.4</ele>
        <time>2016-07-29T17:07:46Z</time>
      </trkpt>
      <trkpt lat="45.22127" lon="5.65419">
        <ele>273.9</ele>
        <time>2016-07-29T17:07:48Z</time>
      </trkpt>
      <trkpt lat="45.22117" lon="5.65426">
        <ele>273.6</ele>
        <time>2016-07-29T17:07:51Z</time>
      </trkpt>
      <trkpt lat="45.22107" lon="5.65429">
        <ele>274.4</ele>
        <time>2016-07-29T17:07:58Z</time>
      </trkpt>
      <trkpt lat="45.22096" lon="5.65433">
        <ele>275.2</ele>
        <time>2016-07-29T17:08:07Z</time>
      </trkpt>
      <trkpt lat="45.22086" lon="5.65438">
        <ele>275.1</ele>
        <time>2016-07-29T17:08:12Z</time>
      </trkpt>
      <trkpt lat="45.22075" lon="5.65442">
        <ele>275.2</ele>
        <time>2016-07-29T17:08:16Z</time>
      </trkpt>
      <trkpt lat="45.22066" lon="5.65445">
        <ele>274.9</ele>
        <time>2016-07-29T17:08:21Z</time>
      </trkpt>
      <trkpt lat="45.22056" lon="5.65444">
        <ele>274.8</ele>
        <time>2016-07-29T17:08:27Z</time>
      </trkpt>
      <trkpt lat="45.22046" lon="5.65441">
        <ele>275.1</ele>
        <time>2016-07-29T17:08:32Z</time>
      </trkpt>
      <trkpt lat="45.22036" lon="5.65441">
        <ele>275.5</ele>
        <time>2016-07-29T17:08:36Z</time>
      </trkpt>
      <trkpt lat="45.22026" lon="5.65445">
        <ele>275.9</ele>
        <time>2016-07-29T17:08:40Z</time>
      </trkpt>
      <trkpt lat="45.22017" lon="5.65451">
        <ele>275.7</ele>
        <time>2016-07-29T17:08:43Z</time>
      </trkpt>
      <trkpt lat="45.22008" lon="5.65457">
        <ele>275.5</ele>
        <time>2016-07-29T17:08:46Z</time>
      </trkpt>
      <trkpt lat="45.21997" lon="5.65464">
        <ele>274.9</ele>
        <time>2016-07-29T17:08:49Z</time>
      </trkpt>
      <trkpt lat="45.21987" lon="5.65466">
        <ele>274.2</ele>
        <time>2016-07-29T17:08:51Z</time>
      </trkpt>
      <trkpt lat="45.21977" lon="5.65474">
        <ele>273.4</ele>
        <time>2016-07-29T17:08:53Z</time>
      </trkpt>
      <trkpt lat="45.21968" lon="5.65483">
        <ele>272.6</ele>
        <time>2016-07-29T17:08:55Z</time>
      </trkpt>
      <trkpt lat="45.2196" lon="5.65496">
        <ele>271.4</ele>
        <time>2016-07-29T17:08:58Z</time>
      </trkpt>
      <trkpt lat="45.21952" lon="5.65504">
        <ele>269.9</ele>
        <time>2016-07-29T17:09:05Z</time>
      </trkpt>
      <trkpt lat="45.21949" lon="5.65519">
        <ele>269.3</ele>
        <time>2016-07-29T17:09:10Z</time>
      </trkpt>
      <trkpt lat="45.21943" lon="5.6553">
        <ele>268.3</ele>
        <time>2016-07-29T17:09:13Z</time>
      </trkpt>
      <trkpt lat="45.21937" lon="5.65541">
        <ele>267.5</ele>
        <time>2016-07-29T17:09:15Z</time>
      </trkpt>
      <trkpt lat="45.21939" lon="5.65557">
        <ele>266.5</ele>
        <time>2016-07-29T17:09:18Z</time>
      </trkpt>
      <trkpt lat="45.21947" lon="5.6557">
        <ele>265.3</ele>
        <time>2016-07-29T17:09:21Z</time>
      </trkpt>
      <trkpt lat="45.21955" lon="5.6558">
        <ele>264.3</ele>
        <time>2016-07-29T17:09:24Z</time>
      </trkpt>
      <trkpt lat="45.21953" lon="5.65593">
        <ele>263.2</ele>
        <time>2016-07-29T17:09:45Z</time>
      </trkpt>
      <trkpt lat="45.21963" lon="5.65597">
        <ele>263.1</ele>
        <time>2016-07-29T17:10:44Z</time>
      </trkpt>
      <trkpt lat="45.21956" lon="5.65607">
        <ele>263.2</ele>
        <time>2016-07-29T17:10:57Z</time>
      </trkpt>
      <trkpt lat="45.21954" lon="5.65624">
        <ele>262.3</ele>
        <time>2016-07-29T17:11:00Z</time>
      </trkpt>
      <trkpt lat="45.21953" lon="5.65641">
        <ele>261.7</ele>
        <time>2016-07-29T17:11:03Z</time>
      </trkpt>
      <trkpt lat="45.21952" lon="5.65656">
        <ele>261.2</ele>
        <time>2016-07-29T17:11:06Z</time>
      </trkpt>
      <trkpt lat="45.21952" lon="5.65669">
        <ele>260.2</ele>
        <time>2016-07-29T17:11:11Z</time>
      </trkpt>
      <trkpt lat="45.21952" lon="5.65685">
        <ele>259.2</ele>
        <time>2016-07-29T17:11:16Z</time>
      </trkpt>
      <trkpt lat="45.21953" lon="5.65698">
        <ele>258.8</ele>
        <time>2016-07-29T17:11:19Z</time>
      </trkpt>
      <trkpt lat="45.21954" lon="5.65713">
        <ele>258.4</ele>
        <time>2016-07-29T17:11:22Z</time>
      </trkpt>
      <trkpt lat="45.21955" lon="5.65731">
        <ele>257.9</ele>
        <time>2016-07-29T17:11:25Z</time>
      </trkpt>
      <trkpt lat="45.21957" lon="5.65749">
        <ele>257.5</ele>
        <time>2016-07-29T17:11:28Z</time>
      </trkpt>
      <trkpt lat="45.21959" lon="5.65763">
        <ele>257.1</ele>
        <time>2016-07-29T17:11:30Z</time>
      </trkpt>
      <trkpt lat="45.21962" lon="5.65776">
        <ele>256.6</ele>
        <time>2016-07-29T17:11:32Z</time>
      </trkpt>
      <trkpt lat="45.21963" lon="5.65791">
        <ele>256.2</ele>
        <time>2016-07-29T17:11:34Z</time>
      </trkpt>
      <trkpt lat="45.21963" lon="5.65805">
        <ele>256</ele>
        <time>2016-07-29T17:11:36Z</time>
      </trkpt>
      <trkpt lat="45.2196" lon="5.65818">
        <ele>255.7</ele>
        <time>2016-07-29T17:11:38Z</time>
      </trkpt>
      <trkpt lat="45.21949" lon="5.65829">
        <ele>255.6</ele>
        <time>2016-07-29T17:11:41Z</time>
      </trkpt>
      <trkpt lat="45.21939" lon="5.65837">
        <ele>255.5</ele>
        <time>2016-07-29T17:11:44Z</time>
      </trkpt>
      <trkpt lat="45.21928" lon="5.65844">
        <ele>255.3</ele>
        <time>2016-07-29T17:11:47Z</time>
      </trkpt>
      <trkpt lat="45.21918" lon="5.65852">
        <ele>255.2</ele>
        <time>2016-07-29T17:11:50Z</time>
      </trkpt>
      <trkpt lat="45.21908" lon="5.65859">
        <ele>255</ele>
        <time>2016-07-29T17:11:53Z</time>
      </trkpt>
      <trkpt lat="45.219" lon="5.65871">
        <ele>255</ele>
        <time>2016-07-29T17:11:56Z</time>
      </trkpt>
      <trkpt lat="45.219" lon="5.65887">
        <ele>254.8</ele>
        <time>2016-07-29T17:11:59Z</time>
      </trkpt>
      <trkpt lat="45.21902" lon="5.659">
        <ele>254.8</ele>
        <time>2016-07-29T17:12:02Z</time>
      </trkpt>
      <trkpt lat="45.21906" lon="5.65913">
        <ele>254.4</ele>
        <time>2016-07-29T17:12:05Z</time>
      </trkpt>
      <trkpt lat="45.2191" lon="5.65928">
        <ele>254.7</ele>
        <time>2016-07-29T17:12:09Z</time>
      </trkpt>
      <trkpt lat="45.21914" lon="5.6594">
        <ele>254.8</ele>
        <time>2016-07-29T17:12:13Z</time>
      </trkpt>
      <trkpt lat="45.21918" lon="5.65954">
        <ele>255</ele>
        <time>2016-07-29T17:12:17Z</time>
      </trkpt>
      <trkpt lat="45.21921" lon="5.65967">
        <ele>254.9</ele>
        <time>2016-07-29T17:12:20Z</time>
      </trkpt>
      <trkpt lat="45.21925" lon="5.6598">
        <ele>254.6</ele>
        <time>2016-07-29T17:12:23Z</time>
      </trkpt>
      <trkpt lat="45.2193" lon="5.65995">
        <ele>254.5</ele>
        <time>2016-07-29T17:12:26Z</time>
      </trkpt>
      <trkpt lat="45.21933" lon="5.66008">
        <ele>254.2</ele>
        <time>2016-07-29T17:12:29Z</time>
      </trkpt>
      <trkpt lat="45.21937" lon="5.66022">
        <ele>254.2</ele>
        <time>2016-07-29T17:12:34Z</time>
      </trkpt>
      <trkpt lat="45.21942" lon="5.66034">
        <ele>253.9</ele>
        <time>2016-07-29T17:12:46Z</time>
      </trkpt>
      <trkpt lat="45.2195" lon="5.66042">
        <ele>253.9</ele>
        <time>2016-07-29T17:12:49Z</time>
      </trkpt>
      <trkpt lat="45.21954" lon="5.66056">
        <ele>253.9</ele>
        <time>2016-07-29T17:12:52Z</time>
      </trkpt>
      <trkpt lat="45.21958" lon="5.6607">
        <ele>253.9</ele>
        <time>2016-07-29T17:12:55Z</time>
      </trkpt>
      <trkpt lat="45.21963" lon="5.66085">
        <ele>253.8</ele>
        <time>2016-07-29T17:12:58Z</time>
      </trkpt>
      <trkpt lat="45.21968" lon="5.66101">
        <ele>253.7</ele>
        <time>2016-07-29T17:13:01Z</time>
      </trkpt>
      <trkpt lat="45.21973" lon="5.66117">
        <ele>253.5</ele>
        <time>2016-07-29T17:13:04Z</time>
      </trkpt>
      <trkpt lat="45.21979" lon="5.66133">
        <ele>254.5</ele>
        <time>2016-07-29T17:13:07Z</time>
      </trkpt>
      <trkpt lat="45.21984" lon="5.66149">
        <ele>254.6</ele>
        <time>2016-07-29T17:13:10Z</time>
      </trkpt>
      <trkpt lat="45.21988" lon="5.66165">
        <ele>254.4</ele>
        <time>2016-07-29T17:13:13Z</time>
      </trkpt>
      <trkpt lat="45.21993" lon="5.66183">
        <ele>254.2</ele>
        <time>2016-07-29T17:13:16Z</time>
      </trkpt>
      <trkpt lat="45.21996" lon="5.66194">
        <ele>254.2</ele>
        <time>2016-07-29T17:13:18Z</time>
      </trkpt>
      <trkpt lat="45.22001" lon="5.66211">
        <ele>254.3</ele>
        <time>2016-07-29T17:13:21Z</time>
      </trkpt>
      <trkpt lat="45.22005" lon="5.66226">
        <ele>254.1</ele>
        <time>2016-07-29T17:13:24Z</time>
      </trkpt>
      <trkpt lat="45.22009" lon="5.66238">
        <ele>254.3</ele>
        <time>2016-07-29T17:13:27Z</time>
      </trkpt>
      <trkpt lat="45.22014" lon="5.66251">
        <ele>254.4</ele>
        <time>2016-07-29T17:13:30Z</time>
      </trkpt>
      <trkpt lat="45.22017" lon="5.66266">
        <ele>254.6</ele>
        <time>2016-07-29T17:13:33Z</time>
      </trkpt>
      <trkpt lat="45.22021" lon="5.66283">
        <ele>254.7</ele>
        <time>2016-07-29T17:13:36Z</time>
      </trkpt>
      <trkpt lat="45.22026" lon="5.663">
        <ele>254.5</ele>
        <time>2016-07-29T17:13:39Z</time>
      </trkpt>
      <trkpt lat="45.22029" lon="5.66313">
        <ele>254.4</ele>
        <time>2016-07-29T17:13:41Z</time>
      </trkpt>
      <trkpt lat="45.22033" lon="5.66325">
        <ele>254.3</ele>
        <time>2016-07-29T17:13:43Z</time>
      </trkpt>
      <trkpt lat="45.22036" lon="5.66338">
        <ele>254.2</ele>
        <time>2016-07-29T17:13:45Z</time>
      </trkpt>
      <trkpt lat="45.2204" lon="5.66351">
        <ele>254.3</ele>
        <time>2016-07-29T17:13:47Z</time>
      </trkpt>
      <trkpt lat="45.22044" lon="5.66364">
        <ele>254.2</ele>
        <time>2016-07-29T17:13:49Z</time>
      </trkpt>
      <trkpt lat="45.22047" lon="5.66377">
        <ele>254.2</ele>
        <time>2016-07-29T17:13:51Z</time>
      </trkpt>
      <trkpt lat="45.22051" lon="5.6639">
        <ele>254</ele>
        <time>2016-07-29T17:13:53Z</time>
      </trkpt>
      <trkpt lat="45.22054" lon="5.66404">
        <ele>253.9</ele>
        <time>2016-07-29T17:13:55Z</time>
      </trkpt>
      <trkpt lat="45.22058" lon="5.66416">
        <ele>253.9</ele>
        <time>2016-07-29T17:13:57Z</time>
      </trkpt>
      <trkpt lat="45.22062" lon="5.66429">
        <ele>254</ele>
        <time>2016-07-29T17:13:59Z</time>
      </trkpt>
      <trkpt lat="45.22066" lon="5.66443">
        <ele>254.1</ele>
        <time>2016-07-29T17:14:01Z</time>
      </trkpt>
      <trkpt lat="45.22069" lon="5.66456">
        <ele>254.3</ele>
        <time>2016-07-29T17:14:03Z</time>
      </trkpt>
      <trkpt lat="45.22072" lon="5.66469">
        <ele>254.4</ele>
        <time>2016-07-29T17:14:05Z</time>
      </trkpt>
      <trkpt lat="45.22076" lon="5.66482">
        <ele>254.2</ele>
        <time>2016-07-29T17:14:07Z</time>
      </trkpt>
      <trkpt lat="45.2208" lon="5.66496">
        <ele>254.1</ele>
        <time>2016-07-29T17:14:09Z</time>
      </trkpt>
      <trkpt lat="45.22084" lon="5.66509">
        <ele>254</ele>
        <time>2016-07-29T17:14:11Z</time>
      </trkpt>
      <trkpt lat="45.22087" lon="5.66522">
        <ele>254</ele>
        <time>2016-07-29T17:14:13Z</time>
      </trkpt>
      <trkpt lat="45.22091" lon="5.66536">
        <ele>254.1</ele>
        <time>2016-07-29T17:14:15Z</time>
      </trkpt>
      <trkpt lat="45.22094" lon="5.66549">
        <ele>254.2</ele>
        <time>2016-07-29T17:14:17Z</time>
      </trkpt>
      <trkpt lat="45.22098" lon="5.66563">
        <ele>254.4</ele>
        <time>2016-07-29T17:14:19Z</time>
      </trkpt>
      <trkpt lat="45.22101" lon="5.66578">
        <ele>254.1</ele>
        <time>2016-07-29T17:14:21Z</time>
      </trkpt>
      <trkpt lat="45.22103" lon="5.66592">
        <ele>254.1</ele>
        <time>2016-07-29T17:14:23Z</time>
      </trkpt>
      <trkpt lat="45.22106" lon="5.66606">
        <ele>254.2</ele>
        <time>2016-07-29T17:14:25Z</time>
      </trkpt>
      <trkpt lat="45.22107" lon="5.66619">
        <ele>254.4</ele>
        <time>2016-07-29T17:14:27Z</time>
      </trkpt>
      <trkpt lat="45.22107" lon="5.66632">
        <ele>254.6</ele>
        <time>2016-07-29T17:14:29Z</time>
      </trkpt>
      <trkpt lat="45.22107" lon="5.66646">
        <ele>254.8</ele>
        <time>2016-07-29T17:14:31Z</time>
      </trkpt>
      <trkpt lat="45.22107" lon="5.66659">
        <ele>254.8</ele>
        <time>2016-07-29T17:14:33Z</time>
      </trkpt>
      <trkpt lat="45.22106" lon="5.66672">
        <ele>254.9</ele>
        <time>2016-07-29T17:14:35Z</time>
      </trkpt>
      <trkpt lat="45.22108" lon="5.66689">
        <ele>255.1</ele>
        <time>2016-07-29T17:14:38Z</time>
      </trkpt>
      <trkpt lat="45.22113" lon="5.66704">
        <ele>255.8</ele>
        <time>2016-07-29T17:14:41Z</time>
      </trkpt>
      <trkpt lat="45.22117" lon="5.66719">
        <ele>256.1</ele>
        <time>2016-07-29T17:14:44Z</time>
      </trkpt>
      <trkpt lat="45.22116" lon="5.66733">
        <ele>256.1</ele>
        <time>2016-07-29T17:14:47Z</time>
      </trkpt>
      <trkpt lat="45.2211" lon="5.66746">
        <ele>256.3</ele>
        <time>2016-07-29T17:14:50Z</time>
      </trkpt>
      <trkpt lat="45.22103" lon="5.66759">
        <ele>256.5</ele>
        <time>2016-07-29T17:14:54Z</time>
      </trkpt>
      <trkpt lat="45.22099" lon="5.66772">
        <ele>257</ele>
        <time>2016-07-29T17:14:58Z</time>
      </trkpt>
      <trkpt lat="45.22095" lon="5.66786">
        <ele>257.8</ele>
        <time>2016-07-29T17:15:02Z</time>
      </trkpt>
      <trkpt lat="45.22087" lon="5.66795">
        <ele>258.2</ele>
        <time>2016-07-29T17:15:05Z</time>
      </trkpt>
      <trkpt lat="45.22076" lon="5.66803">
        <ele>258.2</ele>
        <time>2016-07-29T17:15:08Z</time>
      </trkpt>
      <trkpt lat="45.22065" lon="5.66811">
        <ele>259.2</ele>
        <time>2016-07-29T17:15:11Z</time>
      </trkpt>
      <trkpt lat="45.22054" lon="5.6682">
        <ele>259.5</ele>
        <time>2016-07-29T17:15:14Z</time>
      </trkpt>
      <trkpt lat="45.22043" lon="5.66828">
        <ele>258.8</ele>
        <time>2016-07-29T17:15:17Z</time>
      </trkpt>
      <trkpt lat="45.22035" lon="5.66834">
        <ele>258.5</ele>
        <time>2016-07-29T17:15:19Z</time>
      </trkpt>
      <trkpt lat="45.22027" lon="5.66841">
        <ele>258.3</ele>
        <time>2016-07-29T17:15:21Z</time>
      </trkpt>
      <trkpt lat="45.22018" lon="5.66848">
        <ele>258.2</ele>
        <time>2016-07-29T17:15:23Z</time>
      </trkpt>
      <trkpt lat="45.2201" lon="5.66853">
        <ele>258.1</ele>
        <time>2016-07-29T17:15:25Z</time>
      </trkpt>
      <trkpt lat="45.21999" lon="5.66862">
        <ele>258.1</ele>
        <time>2016-07-29T17:15:28Z</time>
      </trkpt>
      <trkpt lat="45.2199" lon="5.66869">
        <ele>258</ele>
        <time>2016-07-29T17:15:30Z</time>
      </trkpt>
      <trkpt lat="45.21981" lon="5.66876">
        <ele>258.1</ele>
        <time>2016-07-29T17:15:32Z</time>
      </trkpt>
      <trkpt lat="45.2197" lon="5.66884">
        <ele>258.1</ele>
        <time>2016-07-29T17:15:34Z</time>
      </trkpt>
      <trkpt lat="45.21961" lon="5.66891">
        <ele>258.1</ele>
        <time>2016-07-29T17:15:36Z</time>
      </trkpt>
      <trkpt lat="45.21952" lon="5.66897">
        <ele>258.1</ele>
        <time>2016-07-29T17:15:38Z</time>
      </trkpt>
      <trkpt lat="45.21943" lon="5.66903">
        <ele>258.1</ele>
        <time>2016-07-29T17:15:40Z</time>
      </trkpt>
      <trkpt lat="45.21934" lon="5.66909">
        <ele>258.1</ele>
        <time>2016-07-29T17:15:42Z</time>
      </trkpt>
      <trkpt lat="45.21925" lon="5.66917">
        <ele>258</ele>
        <time>2016-07-29T17:15:44Z</time>
      </trkpt>
      <trkpt lat="45.21914" lon="5.66925">
        <ele>258.1</ele>
        <time>2016-07-29T17:15:46Z</time>
      </trkpt>
      <trkpt lat="45.21904" lon="5.66932">
        <ele>258</ele>
        <time>2016-07-29T17:15:48Z</time>
      </trkpt>
      <trkpt lat="45.21894" lon="5.66939">
        <ele>258</ele>
        <time>2016-07-29T17:15:50Z</time>
      </trkpt>
      <trkpt lat="45.21884" lon="5.66946">
        <ele>258</ele>
        <time>2016-07-29T17:15:52Z</time>
      </trkpt>
      <trkpt lat="45.21875" lon="5.66953">
        <ele>258</ele>
        <time>2016-07-29T17:15:54Z</time>
      </trkpt>
      <trkpt lat="45.21864" lon="5.66962">
        <ele>258</ele>
        <time>2016-07-29T17:15:56Z</time>
      </trkpt>
      <trkpt lat="45.21853" lon="5.66971">
        <ele>258</ele>
        <time>2016-07-29T17:15:58Z</time>
      </trkpt>
      <trkpt lat="45.21844" lon="5.66979">
        <ele>258</ele>
        <time>2016-07-29T17:16:00Z</time>
      </trkpt>
      <trkpt lat="45.21835" lon="5.66986">
        <ele>258.1</ele>
        <time>2016-07-29T17:16:02Z</time>
      </trkpt>
      <trkpt lat="45.21825" lon="5.66994">
        <ele>258.2</ele>
        <time>2016-07-29T17:16:04Z</time>
      </trkpt>
      <trkpt lat="45.21813" lon="5.67003">
        <ele>258.1</ele>
        <time>2016-07-29T17:16:06Z</time>
      </trkpt>
      <trkpt lat="45.218" lon="5.67013">
        <ele>258</ele>
        <time>2016-07-29T17:16:08Z</time>
      </trkpt>
      <trkpt lat="45.2179" lon="5.67022">
        <ele>257.9</ele>
        <time>2016-07-29T17:16:10Z</time>
      </trkpt>
      <trkpt lat="45.2178" lon="5.67032">
        <ele>257.9</ele>
        <time>2016-07-29T17:16:12Z</time>
      </trkpt>
      <trkpt lat="45.21771" lon="5.67041">
        <ele>257.8</ele>
        <time>2016-07-29T17:16:14Z</time>
      </trkpt>
      <trkpt lat="45.21758" lon="5.67051">
        <ele>257.9</ele>
        <time>2016-07-29T17:16:16Z</time>
      </trkpt>
      <trkpt lat="45.21746" lon="5.67061">
        <ele>257.9</ele>
        <time>2016-07-29T17:16:18Z</time>
      </trkpt>
      <trkpt lat="45.21735" lon="5.67072">
        <ele>257.9</ele>
        <time>2016-07-29T17:16:20Z</time>
      </trkpt>
      <trkpt lat="45.21724" lon="5.67082">
        <ele>257.9</ele>
        <time>2016-07-29T17:16:22Z</time>
      </trkpt>
      <trkpt lat="45.21713" lon="5.67093">
        <ele>258</ele>
        <time>2016-07-29T17:16:24Z</time>
      </trkpt>
      <trkpt lat="45.21704" lon="5.67103">
        <ele>258.1</ele>
        <time>2016-07-29T17:16:26Z</time>
      </trkpt>
      <trkpt lat="45.21694" lon="5.67113">
        <ele>258.1</ele>
        <time>2016-07-29T17:16:28Z</time>
      </trkpt>
      <trkpt lat="45.21684" lon="5.67123">
        <ele>258.2</ele>
        <time>2016-07-29T17:16:30Z</time>
      </trkpt>
      <trkpt lat="45.21676" lon="5.67135">
        <ele>258.3</ele>
        <time>2016-07-29T17:16:32Z</time>
      </trkpt>
      <trkpt lat="45.21667" lon="5.67145">
        <ele>258.4</ele>
        <time>2016-07-29T17:16:34Z</time>
      </trkpt>
      <trkpt lat="45.21658" lon="5.67157">
        <ele>258.4</ele>
        <time>2016-07-29T17:16:36Z</time>
      </trkpt>
      <trkpt lat="45.21649" lon="5.67169">
        <ele>258.3</ele>
        <time>2016-07-29T17:16:38Z</time>
      </trkpt>
      <trkpt lat="45.2164" lon="5.67181">
        <ele>258.3</ele>
        <time>2016-07-29T17:16:40Z</time>
      </trkpt>
      <trkpt lat="45.21631" lon="5.67194">
        <ele>258.4</ele>
        <time>2016-07-29T17:16:42Z</time>
      </trkpt>
      <trkpt lat="45.21622" lon="5.67206">
        <ele>258.5</ele>
        <time>2016-07-29T17:16:44Z</time>
      </trkpt>
      <trkpt lat="45.21613" lon="5.67218">
        <ele>258.4</ele>
        <time>2016-07-29T17:16:46Z</time>
      </trkpt>
      <trkpt lat="45.21603" lon="5.67231">
        <ele>258.4</ele>
        <time>2016-07-29T17:16:48Z</time>
      </trkpt>
      <trkpt lat="45.21593" lon="5.67245">
        <ele>258.4</ele>
        <time>2016-07-29T17:16:50Z</time>
      </trkpt>
      <trkpt lat="45.21584" lon="5.67259">
        <ele>258.3</ele>
        <time>2016-07-29T17:16:52Z</time>
      </trkpt>
      <trkpt lat="45.21575" lon="5.67272">
        <ele>258.2</ele>
        <time>2016-07-29T17:16:54Z</time>
      </trkpt>
      <trkpt lat="45.21565" lon="5.67284">
        <ele>258.2</ele>
        <time>2016-07-29T17:16:56Z</time>
      </trkpt>
      <trkpt lat="45.21556" lon="5.67297">
        <ele>258.3</ele>
        <time>2016-07-29T17:16:58Z</time>
      </trkpt>
      <trkpt lat="45.21547" lon="5.67309">
        <ele>258.4</ele>
        <time>2016-07-29T17:17:00Z</time>
      </trkpt>
      <trkpt lat="45.21538" lon="5.6732">
        <ele>258.4</ele>
        <time>2016-07-29T17:17:02Z</time>
      </trkpt>
      <trkpt lat="45.21529" lon="5.67333">
        <ele>258.5</ele>
        <time>2016-07-29T17:17:04Z</time>
      </trkpt>
      <trkpt lat="45.21519" lon="5.67345">
        <ele>258.7</ele>
        <time>2016-07-29T17:17:06Z</time>
      </trkpt>
      <trkpt lat="45.21511" lon="5.67357">
        <ele>258.6</ele>
        <time>2016-07-29T17:17:08Z</time>
      </trkpt>
      <trkpt lat="45.21503" lon="5.67368">
        <ele>258.7</ele>
        <time>2016-07-29T17:17:10Z</time>
      </trkpt>
      <trkpt lat="45.21496" lon="5.67379">
        <ele>258.8</ele>
        <time>2016-07-29T17:17:12Z</time>
      </trkpt>
      <trkpt lat="45.2149" lon="5.67389">
        <ele>258.8</ele>
        <time>2016-07-29T17:17:14Z</time>
      </trkpt>
      <trkpt lat="45.2148" lon="5.67402">
        <ele>259</ele>
        <time>2016-07-29T17:17:17Z</time>
      </trkpt>
      <trkpt lat="45.21471" lon="5.67412">
        <ele>259</ele>
        <time>2016-07-29T17:17:20Z</time>
      </trkpt>
      <trkpt lat="45.21461" lon="5.67425">
        <ele>259.1</ele>
        <time>2016-07-29T17:17:23Z</time>
      </trkpt>
      <trkpt lat="45.21452" lon="5.67439">
        <ele>259.1</ele>
        <time>2016-07-29T17:17:26Z</time>
      </trkpt>
      <trkpt lat="45.21444" lon="5.67451">
        <ele>259.1</ele>
        <time>2016-07-29T17:17:28Z</time>
      </trkpt>
      <trkpt lat="45.21436" lon="5.67461">
        <ele>259</ele>
        <time>2016-07-29T17:17:30Z</time>
      </trkpt>
      <trkpt lat="45.21428" lon="5.67472">
        <ele>259</ele>
        <time>2016-07-29T17:17:32Z</time>
      </trkpt>
      <trkpt lat="45.2142" lon="5.67484">
        <ele>259</ele>
        <time>2016-07-29T17:17:34Z</time>
      </trkpt>
      <trkpt lat="45.21412" lon="5.67494">
        <ele>259</ele>
        <time>2016-07-29T17:17:36Z</time>
      </trkpt>
      <trkpt lat="45.21403" lon="5.67505">
        <ele>258.3</ele>
        <time>2016-07-29T17:17:38Z</time>
      </trkpt>
      <trkpt lat="45.21395" lon="5.67516">
        <ele>259.2</ele>
        <time>2016-07-29T17:17:40Z</time>
      </trkpt>
      <trkpt lat="45.21386" lon="5.67528">
        <ele>259.1</ele>
        <time>2016-07-29T17:17:42Z</time>
      </trkpt>
      <trkpt lat="45.21379" lon="5.6754">
        <ele>259.1</ele>
        <time>2016-07-29T17:17:44Z</time>
      </trkpt>
      <trkpt lat="45.21371" lon="5.67551">
        <ele>259.1</ele>
        <time>2016-07-29T17:17:46Z</time>
      </trkpt>
      <trkpt lat="45.21363" lon="5.6756">
        <ele>259.2</ele>
        <time>2016-07-29T17:17:48Z</time>
      </trkpt>
      <trkpt lat="45.21356" lon="5.6757">
        <ele>259.2</ele>
        <time>2016-07-29T17:17:50Z</time>
      </trkpt>
      <trkpt lat="45.21349" lon="5.6758">
        <ele>259.2</ele>
        <time>2016-07-29T17:17:52Z</time>
      </trkpt>
      <trkpt lat="45.21342" lon="5.6759">
        <ele>259.1</ele>
        <time>2016-07-29T17:17:54Z</time>
      </trkpt>
      <trkpt lat="45.21334" lon="5.67601">
        <ele>259.2</ele>
        <time>2016-07-29T17:17:56Z</time>
      </trkpt>
      <trkpt lat="45.21326" lon="5.67613">
        <ele>259.2</ele>
        <time>2016-07-29T17:17:58Z</time>
      </trkpt>
      <trkpt lat="45.21318" lon="5.67623">
        <ele>259.2</ele>
        <time>2016-07-29T17:18:00Z</time>
      </trkpt>
      <trkpt lat="45.2131" lon="5.67635">
        <ele>259.2</ele>
        <time>2016-07-29T17:18:02Z</time>
      </trkpt>
      <trkpt lat="45.21302" lon="5.67646">
        <ele>259.1</ele>
        <time>2016-07-29T17:18:04Z</time>
      </trkpt>
      <trkpt lat="45.21294" lon="5.67657">
        <ele>259.1</ele>
        <time>2016-07-29T17:18:06Z</time>
      </trkpt>
      <trkpt lat="45.21286" lon="5.67668">
        <ele>259</ele>
        <time>2016-07-29T17:18:08Z</time>
      </trkpt>
      <trkpt lat="45.21278" lon="5.6768">
        <ele>259.1</ele>
        <time>2016-07-29T17:18:10Z</time>
      </trkpt>
      <trkpt lat="45.2127" lon="5.6769">
        <ele>259.2</ele>
        <time>2016-07-29T17:18:12Z</time>
      </trkpt>
      <trkpt lat="45.21262" lon="5.677">
        <ele>259.2</ele>
        <time>2016-07-29T17:18:14Z</time>
      </trkpt>
      <trkpt lat="45.21254" lon="5.67712">
        <ele>259.2</ele>
        <time>2016-07-29T17:18:16Z</time>
      </trkpt>
      <trkpt lat="45.21245" lon="5.67723">
        <ele>259.2</ele>
        <time>2016-07-29T17:18:18Z</time>
      </trkpt>
      <trkpt lat="45.21237" lon="5.67735">
        <ele>259.3</ele>
        <time>2016-07-29T17:18:20Z</time>
      </trkpt>
      <trkpt lat="45.21227" lon="5.67747">
        <ele>259.3</ele>
        <time>2016-07-29T17:18:22Z</time>
      </trkpt>
      <trkpt lat="45.21219" lon="5.6776">
        <ele>259.2</ele>
        <time>2016-07-29T17:18:24Z</time>
      </trkpt>
      <trkpt lat="45.2121" lon="5.67772">
        <ele>259.2</ele>
        <time>2016-07-29T17:18:26Z</time>
      </trkpt>
      <trkpt lat="45.212" lon="5.67785">
        <ele>259.2</ele>
        <time>2016-07-29T17:18:28Z</time>
      </trkpt>
      <trkpt lat="45.21191" lon="5.67797">
        <ele>259.3</ele>
        <time>2016-07-29T17:18:30Z</time>
      </trkpt>
      <trkpt lat="45.21182" lon="5.67809">
        <ele>259.4</ele>
        <time>2016-07-29T17:18:32Z</time>
      </trkpt>
      <trkpt lat="45.21173" lon="5.67823">
        <ele>259.4</ele>
        <time>2016-07-29T17:18:34Z</time>
      </trkpt>
      <trkpt lat="45.21163" lon="5.67836">
        <ele>259.4</ele>
        <time>2016-07-29T17:18:36Z</time>
      </trkpt>
      <trkpt lat="45.21155" lon="5.6785">
        <ele>259.4</ele>
        <time>2016-07-29T17:18:38Z</time>
      </trkpt>
      <trkpt lat="45.21146" lon="5.67862">
        <ele>259.5</ele>
        <time>2016-07-29T17:18:40Z</time>
      </trkpt>
      <trkpt lat="45.21137" lon="5.67874">
        <ele>259.4</ele>
        <time>2016-07-29T17:18:42Z</time>
      </trkpt>
      <trkpt lat="45.21128" lon="5.67887">
        <ele>259.4</ele>
        <time>2016-07-29T17:18:44Z</time>
      </trkpt>
      <trkpt lat="45.21118" lon="5.679">
        <ele>259.4</ele>
        <time>2016-07-29T17:18:46Z</time>
      </trkpt>
      <trkpt lat="45.21109" lon="5.67913">
        <ele>259.4</ele>
        <time>2016-07-29T17:18:48Z</time>
      </trkpt>
      <trkpt lat="45.21099" lon="5.67926">
        <ele>259.5</ele>
        <time>2016-07-29T17:18:50Z</time>
      </trkpt>
      <trkpt lat="45.2109" lon="5.67938">
        <ele>259.5</ele>
        <time>2016-07-29T17:18:52Z</time>
      </trkpt>
      <trkpt lat="45.21081" lon="5.67951">
        <ele>259.5</ele>
        <time>2016-07-29T17:18:54Z</time>
      </trkpt>
      <trkpt lat="45.21071" lon="5.67964">
        <ele>259.5</ele>
        <time>2016-07-29T17:18:56Z</time>
      </trkpt>
      <trkpt lat="45.21062" lon="5.67976">
        <ele>259.6</ele>
        <time>2016-07-29T17:18:58Z</time>
      </trkpt>
      <trkpt lat="45.21053" lon="5.67988">
        <ele>259.7</ele>
        <time>2016-07-29T17:19:00Z</time>
      </trkpt>
      <trkpt lat="45.21044" lon="5.68">
        <ele>259.7</ele>
        <time>2016-07-29T17:19:02Z</time>
      </trkpt>
      <trkpt lat="45.21035" lon="5.68011">
        <ele>259.7</ele>
        <time>2016-07-29T17:19:04Z</time>
      </trkpt>
      <trkpt lat="45.21025" lon="5.68025">
        <ele>259.8</ele>
        <time>2016-07-29T17:19:06Z</time>
      </trkpt>
      <trkpt lat="45.21016" lon="5.68038">
        <ele>259.9</ele>
        <time>2016-07-29T17:19:08Z</time>
      </trkpt>
      <trkpt lat="45.21007" lon="5.68052">
        <ele>259.8</ele>
        <time>2016-07-29T17:19:10Z</time>
      </trkpt>
      <trkpt lat="45.20998" lon="5.68064">
        <ele>259.8</ele>
        <time>2016-07-29T17:19:12Z</time>
      </trkpt>
      <trkpt lat="45.20989" lon="5.68077">
        <ele>259.8</ele>
        <time>2016-07-29T17:19:14Z</time>
      </trkpt>
      <trkpt lat="45.2098" lon="5.68088">
        <ele>259.9</ele>
        <time>2016-07-29T17:19:16Z</time>
      </trkpt>
      <trkpt lat="45.20972" lon="5.68101">
        <ele>259.8</ele>
        <time>2016-07-29T17:19:18Z</time>
      </trkpt>
      <trkpt lat="45.20963" lon="5.68113">
        <ele>259.7</ele>
        <time>2016-07-29T17:19:20Z</time>
      </trkpt>
      <trkpt lat="45.20954" lon="5.68125">
        <ele>259.7</ele>
        <time>2016-07-29T17:19:22Z</time>
      </trkpt>
      <trkpt lat="45.20945" lon="5.68138">
        <ele>259.7</ele>
        <time>2016-07-29T17:19:24Z</time>
      </trkpt>
      <trkpt lat="45.20936" lon="5.6815">
        <ele>259.8</ele>
        <time>2016-07-29T17:19:26Z</time>
      </trkpt>
      <trkpt lat="45.20926" lon="5.68164">
        <ele>259.8</ele>
        <time>2016-07-29T17:19:28Z</time>
      </trkpt>
      <trkpt lat="45.20916" lon="5.68176">
        <ele>259.9</ele>
        <time>2016-07-29T17:19:30Z</time>
      </trkpt>
      <trkpt lat="45.20908" lon="5.68188">
        <ele>259.9</ele>
        <time>2016-07-29T17:19:32Z</time>
      </trkpt>
      <trkpt lat="45.20899" lon="5.682">
        <ele>260</ele>
        <time>2016-07-29T17:19:34Z</time>
      </trkpt>
      <trkpt lat="45.20892" lon="5.68211">
        <ele>259.8</ele>
        <time>2016-07-29T17:19:36Z</time>
      </trkpt>
      <trkpt lat="45.20883" lon="5.68223">
        <ele>260.1</ele>
        <time>2016-07-29T17:19:38Z</time>
      </trkpt>
      <trkpt lat="45.20874" lon="5.68235">
        <ele>260.2</ele>
        <time>2016-07-29T17:19:40Z</time>
      </trkpt>
      <trkpt lat="45.20865" lon="5.68248">
        <ele>260.3</ele>
        <time>2016-07-29T17:19:42Z</time>
      </trkpt>
      <trkpt lat="45.20858" lon="5.68258">
        <ele>260.4</ele>
        <time>2016-07-29T17:19:44Z</time>
      </trkpt>
      <trkpt lat="45.20851" lon="5.68267">
        <ele>260.4</ele>
        <time>2016-07-29T17:19:46Z</time>
      </trkpt>
      <trkpt lat="45.20843" lon="5.68277">
        <ele>260.5</ele>
        <time>2016-07-29T17:19:48Z</time>
      </trkpt>
      <trkpt lat="45.20836" lon="5.68287">
        <ele>260.5</ele>
        <time>2016-07-29T17:19:50Z</time>
      </trkpt>
      <trkpt lat="45.20829" lon="5.68297">
        <ele>260.6</ele>
        <time>2016-07-29T17:19:52Z</time>
      </trkpt>
      <trkpt lat="45.20821" lon="5.68305">
        <ele>260.6</ele>
        <time>2016-07-29T17:19:54Z</time>
      </trkpt>
      <trkpt lat="45.20813" lon="5.68312">
        <ele>260.4</ele>
        <time>2016-07-29T17:19:56Z</time>
      </trkpt>
      <trkpt lat="45.20806" lon="5.68321">
        <ele>260.5</ele>
        <time>2016-07-29T17:19:58Z</time>
      </trkpt>
      <trkpt lat="45.20797" lon="5.68332">
        <ele>260.6</ele>
        <time>2016-07-29T17:20:01Z</time>
      </trkpt>
      <trkpt lat="45.20788" lon="5.6834">
        <ele>261.2</ele>
        <time>2016-07-29T17:20:05Z</time>
      </trkpt>
      <trkpt lat="45.20777" lon="5.68339">
        <ele>261.9</ele>
        <time>2016-07-29T17:20:10Z</time>
      </trkpt>
      <trkpt lat="45.20768" lon="5.68329">
        <ele>262.4</ele>
        <time>2016-07-29T17:20:14Z</time>
      </trkpt>
      <trkpt lat="45.20761" lon="5.6832">
        <ele>262.7</ele>
        <time>2016-07-29T17:20:17Z</time>
      </trkpt>
      <trkpt lat="45.20752" lon="5.68325">
        <ele>263</ele>
        <time>2016-07-29T17:20:21Z</time>
      </trkpt>
      <trkpt lat="45.20759" lon="5.68337">
        <ele>263.2</ele>
        <time>2016-07-29T17:20:24Z</time>
      </trkpt>
      <trkpt lat="45.2077" lon="5.6835">
        <ele>263.1</ele>
        <time>2016-07-29T17:20:27Z</time>
      </trkpt>
      <trkpt lat="45.20776" lon="5.68359">
        <ele>263.2</ele>
        <time>2016-07-29T17:20:29Z</time>
      </trkpt>
      <trkpt lat="45.20783" lon="5.68369">
        <ele>263.4</ele>
        <time>2016-07-29T17:20:31Z</time>
      </trkpt>
      <trkpt lat="45.2079" lon="5.68378">
        <ele>263.7</ele>
        <time>2016-07-29T17:20:33Z</time>
      </trkpt>
      <trkpt lat="45.20798" lon="5.68388">
        <ele>264</ele>
        <time>2016-07-29T17:20:35Z</time>
      </trkpt>
      <trkpt lat="45.20805" lon="5.68399">
        <ele>264.3</ele>
        <time>2016-07-29T17:20:37Z</time>
      </trkpt>
      <trkpt lat="45.20812" lon="5.6841">
        <ele>264.6</ele>
        <time>2016-07-29T17:20:39Z</time>
      </trkpt>
      <trkpt lat="45.2082" lon="5.68421">
        <ele>264.7</ele>
        <time>2016-07-29T17:20:41Z</time>
      </trkpt>
      <trkpt lat="45.20828" lon="5.68432">
        <ele>264.8</ele>
        <time>2016-07-29T17:20:43Z</time>
      </trkpt>
      <trkpt lat="45.20835" lon="5.68443">
        <ele>264.8</ele>
        <time>2016-07-29T17:20:45Z</time>
      </trkpt>
      <trkpt lat="45.20843" lon="5.68454">
        <ele>265</ele>
        <time>2016-07-29T17:20:47Z</time>
      </trkpt>
      <trkpt lat="45.2085" lon="5.68465">
        <ele>265.1</ele>
        <time>2016-07-29T17:20:49Z</time>
      </trkpt>
      <trkpt lat="45.20858" lon="5.68475">
        <ele>265.2</ele>
        <time>2016-07-29T17:20:51Z</time>
      </trkpt>
      <trkpt lat="45.20865" lon="5.68486">
        <ele>265.2</ele>
        <time>2016-07-29T17:20:53Z</time>
      </trkpt>
      <trkpt lat="45.20872" lon="5.68496">
        <ele>265.2</ele>
        <time>2016-07-29T17:20:55Z</time>
      </trkpt>
      <trkpt lat="45.20881" lon="5.68509">
        <ele>265.4</ele>
        <time>2016-07-29T17:20:58Z</time>
      </trkpt>
      <trkpt lat="45.2089" lon="5.6852">
        <ele>265.2</ele>
        <time>2016-07-29T17:21:01Z</time>
      </trkpt>
      <trkpt lat="45.20901" lon="5.68521">
        <ele>265</ele>
        <time>2016-07-29T17:21:04Z</time>
      </trkpt>
      <trkpt lat="45.20912" lon="5.68512">
        <ele>264.7</ele>
        <time>2016-07-29T17:21:07Z</time>
      </trkpt>
      <trkpt lat="45.20922" lon="5.68505">
        <ele>264.2</ele>
        <time>2016-07-29T17:21:09Z</time>
      </trkpt>
      <trkpt lat="45.20934" lon="5.68496">
        <ele>263.7</ele>
        <time>2016-07-29T17:21:11Z</time>
      </trkpt>
      <trkpt lat="45.20946" lon="5.68491">
        <ele>263</ele>
        <time>2016-07-29T17:21:13Z</time>
      </trkpt>
      <trkpt lat="45.2096" lon="5.68491">
        <ele>262.6</ele>
        <time>2016-07-29T17:21:15Z</time>
      </trkpt>
      <trkpt lat="45.20972" lon="5.68485">
        <ele>262.3</ele>
        <time>2016-07-29T17:21:17Z</time>
      </trkpt>
      <trkpt lat="45.20982" lon="5.68478">
        <ele>261.9</ele>
        <time>2016-07-29T17:21:19Z</time>
      </trkpt>
      <trkpt lat="45.20992" lon="5.68469">
        <ele>261.7</ele>
        <time>2016-07-29T17:21:21Z</time>
      </trkpt>
      <trkpt lat="45.21003" lon="5.6846">
        <ele>261.7</ele>
        <time>2016-07-29T17:21:23Z</time>
      </trkpt>
      <trkpt lat="45.21014" lon="5.68451">
        <ele>261.6</ele>
        <time>2016-07-29T17:21:25Z</time>
      </trkpt>
      <trkpt lat="45.21025" lon="5.68444">
        <ele>261.6</ele>
        <time>2016-07-29T17:21:27Z</time>
      </trkpt>
      <trkpt lat="45.21037" lon="5.68436">
        <ele>261.6</ele>
        <time>2016-07-29T17:21:29Z</time>
      </trkpt>
      <trkpt lat="45.21047" lon="5.68429">
        <ele>261.3</ele>
        <time>2016-07-29T17:21:31Z</time>
      </trkpt>
      <trkpt lat="45.21058" lon="5.68422">
        <ele>261.2</ele>
        <time>2016-07-29T17:21:33Z</time>
      </trkpt>
      <trkpt lat="45.21069" lon="5.68416">
        <ele>261.1</ele>
        <time>2016-07-29T17:21:35Z</time>
      </trkpt>
      <trkpt lat="45.2108" lon="5.68413">
        <ele>260.9</ele>
        <time>2016-07-29T17:21:37Z</time>
      </trkpt>
      <trkpt lat="45.21092" lon="5.68416">
        <ele>260.6</ele>
        <time>2016-07-29T17:21:39Z</time>
      </trkpt>
      <trkpt lat="45.21105" lon="5.68421">
        <ele>260</ele>
        <time>2016-07-29T17:21:41Z</time>
      </trkpt>
      <trkpt lat="45.21117" lon="5.68425">
        <ele>259.4</ele>
        <time>2016-07-29T17:21:43Z</time>
      </trkpt>
      <trkpt lat="45.21126" lon="5.68431">
        <ele>258.9</ele>
        <time>2016-07-29T17:21:46Z</time>
      </trkpt>
      <trkpt lat="45.21134" lon="5.68439">
        <ele>258.8</ele>
        <time>2016-07-29T17:21:48Z</time>
      </trkpt>
      <trkpt lat="45.21136" lon="5.68453">
        <ele>258.6</ele>
        <time>2016-07-29T17:21:50Z</time>
      </trkpt>
      <trkpt lat="45.21134" lon="5.68469">
        <ele>258.3</ele>
        <time>2016-07-29T17:21:52Z</time>
      </trkpt>
      <trkpt lat="45.21132" lon="5.68485">
        <ele>258</ele>
        <time>2016-07-29T17:21:54Z</time>
      </trkpt>
      <trkpt lat="45.21129" lon="5.68502">
        <ele>257.7</ele>
        <time>2016-07-29T17:21:56Z</time>
      </trkpt>
      <trkpt lat="45.21126" lon="5.68518">
        <ele>257.5</ele>
        <time>2016-07-29T17:21:58Z</time>
      </trkpt>
      <trkpt lat="45.21124" lon="5.68535">
        <ele>257.3</ele>
        <time>2016-07-29T17:22:00Z</time>
      </trkpt>
      <trkpt lat="45.21121" lon="5.68553">
        <ele>257.2</ele>
        <time>2016-07-29T17:22:02Z</time>
      </trkpt>
      <trkpt lat="45.21117" lon="5.68571">
        <ele>257</ele>
        <time>2016-07-29T17:22:04Z</time>
      </trkpt>
      <trkpt lat="45.21114" lon="5.6859">
        <ele>257</ele>
        <time>2016-07-29T17:22:06Z</time>
      </trkpt>
      <trkpt lat="45.21109" lon="5.68606">
        <ele>257.2</ele>
        <time>2016-07-29T17:22:08Z</time>
      </trkpt>
      <trkpt lat="45.21105" lon="5.68622">
        <ele>257.7</ele>
        <time>2016-07-29T17:22:10Z</time>
      </trkpt>
      <trkpt lat="45.21101" lon="5.68638">
        <ele>258.1</ele>
        <time>2016-07-29T17:22:12Z</time>
      </trkpt>
      <trkpt lat="45.21098" lon="5.68652">
        <ele>258.5</ele>
        <time>2016-07-29T17:22:14Z</time>
      </trkpt>
      <trkpt lat="45.21094" lon="5.68667">
        <ele>258.7</ele>
        <time>2016-07-29T17:22:16Z</time>
      </trkpt>
      <trkpt lat="45.21091" lon="5.68682">
        <ele>258.9</ele>
        <time>2016-07-29T17:22:18Z</time>
      </trkpt>
      <trkpt lat="45.21087" lon="5.68697">
        <ele>259.1</ele>
        <time>2016-07-29T17:22:20Z</time>
      </trkpt>
      <trkpt lat="45.21084" lon="5.68712">
        <ele>259.5</ele>
        <time>2016-07-29T17:22:22Z</time>
      </trkpt>
      <trkpt lat="45.2108" lon="5.68728">
        <ele>259.7</ele>
        <time>2016-07-29T17:22:24Z</time>
      </trkpt>
      <trkpt lat="45.21076" lon="5.68744">
        <ele>259.7</ele>
        <time>2016-07-29T17:22:26Z</time>
      </trkpt>
      <trkpt lat="45.21073" lon="5.6876">
        <ele>259.9</ele>
        <time>2016-07-29T17:22:28Z</time>
      </trkpt>
      <trkpt lat="45.21069" lon="5.68777">
        <ele>259.9</ele>
        <time>2016-07-29T17:22:30Z</time>
      </trkpt>
      <trkpt lat="45.21065" lon="5.68794">
        <ele>260</ele>
        <time>2016-07-29T17:22:32Z</time>
      </trkpt>
      <trkpt lat="45.21062" lon="5.68811">
        <ele>260</ele>
        <time>2016-07-29T17:22:34Z</time>
      </trkpt>
      <trkpt lat="45.21059" lon="5.68829">
        <ele>260.1</ele>
        <time>2016-07-29T17:22:36Z</time>
      </trkpt>
      <trkpt lat="45.21057" lon="5.68847">
        <ele>260</ele>
        <time>2016-07-29T17:22:38Z</time>
      </trkpt>
      <trkpt lat="45.21053" lon="5.68865">
        <ele>260</ele>
        <time>2016-07-29T17:22:40Z</time>
      </trkpt>
      <trkpt lat="45.21051" lon="5.68883">
        <ele>260</ele>
        <time>2016-07-29T17:22:42Z</time>
      </trkpt>
      <trkpt lat="45.21047" lon="5.68902">
        <ele>260</ele>
        <time>2016-07-29T17:22:44Z</time>
      </trkpt>
      <trkpt lat="45.21045" lon="5.6892">
        <ele>260.1</ele>
        <time>2016-07-29T17:22:46Z</time>
      </trkpt>
      <trkpt lat="45.21043" lon="5.68938">
        <ele>260.1</ele>
        <time>2016-07-29T17:22:48Z</time>
      </trkpt>
      <trkpt lat="45.2104" lon="5.68957">
        <ele>260</ele>
        <time>2016-07-29T17:22:50Z</time>
      </trkpt>
      <trkpt lat="45.21037" lon="5.68974">
        <ele>260</ele>
        <time>2016-07-29T17:22:52Z</time>
      </trkpt>
      <trkpt lat="45.21035" lon="5.68992">
        <ele>260</ele>
        <time>2016-07-29T17:22:54Z</time>
      </trkpt>
      <trkpt lat="45.21033" lon="5.6901">
        <ele>260.1</ele>
        <time>2016-07-29T17:22:56Z</time>
      </trkpt>
      <trkpt lat="45.21031" lon="5.69027">
        <ele>260.3</ele>
        <time>2016-07-29T17:22:58Z</time>
      </trkpt>
      <trkpt lat="45.21028" lon="5.69044">
        <ele>260.3</ele>
        <time>2016-07-29T17:23:00Z</time>
      </trkpt>
      <trkpt lat="45.21025" lon="5.69062">
        <ele>260.4</ele>
        <time>2016-07-29T17:23:02Z</time>
      </trkpt>
      <trkpt lat="45.21023" lon="5.6908">
        <ele>260.3</ele>
        <time>2016-07-29T17:23:04Z</time>
      </trkpt>
      <trkpt lat="45.21021" lon="5.69098">
        <ele>260.2</ele>
        <time>2016-07-29T17:23:06Z</time>
      </trkpt>
      <trkpt lat="45.21019" lon="5.69116">
        <ele>260</ele>
        <time>2016-07-29T17:23:08Z</time>
      </trkpt>
      <trkpt lat="45.21017" lon="5.69133">
        <ele>260</ele>
        <time>2016-07-29T17:23:10Z</time>
      </trkpt>
      <trkpt lat="45.21015" lon="5.6915">
        <ele>260</ele>
        <time>2016-07-29T17:23:12Z</time>
      </trkpt>
      <trkpt lat="45.21013" lon="5.69168">
        <ele>260.1</ele>
        <time>2016-07-29T17:23:14Z</time>
      </trkpt>
      <trkpt lat="45.21011" lon="5.69186">
        <ele>260.1</ele>
        <time>2016-07-29T17:23:16Z</time>
      </trkpt>
      <trkpt lat="45.21008" lon="5.69204">
        <ele>260.2</ele>
        <time>2016-07-29T17:23:18Z</time>
      </trkpt>
      <trkpt lat="45.21006" lon="5.69223">
        <ele>260.4</ele>
        <time>2016-07-29T17:23:20Z</time>
      </trkpt>
      <trkpt lat="45.21004" lon="5.69241">
        <ele>260.5</ele>
        <time>2016-07-29T17:23:22Z</time>
      </trkpt>
      <trkpt lat="45.21002" lon="5.69259">
        <ele>260.7</ele>
        <time>2016-07-29T17:23:24Z</time>
      </trkpt>
      <trkpt lat="45.20999" lon="5.69278">
        <ele>260.7</ele>
        <time>2016-07-29T17:23:26Z</time>
      </trkpt>
      <trkpt lat="45.20997" lon="5.69296">
        <ele>260.6</ele>
        <time>2016-07-29T17:23:28Z</time>
      </trkpt>
      <trkpt lat="45.20994" lon="5.69314">
        <ele>260.6</ele>
        <time>2016-07-29T17:23:30Z</time>
      </trkpt>
      <trkpt lat="45.20992" lon="5.69332">
        <ele>260.5</ele>
        <time>2016-07-29T17:23:32Z</time>
      </trkpt>
      <trkpt lat="45.2099" lon="5.69349">
        <ele>260.5</ele>
        <time>2016-07-29T17:23:34Z</time>
      </trkpt>
      <trkpt lat="45.20987" lon="5.69366">
        <ele>260.4</ele>
        <time>2016-07-29T17:23:36Z</time>
      </trkpt>
      <trkpt lat="45.20984" lon="5.69382">
        <ele>260.4</ele>
        <time>2016-07-29T17:23:38Z</time>
      </trkpt>
      <trkpt lat="45.2098" lon="5.69397">
        <ele>260.7</ele>
        <time>2016-07-29T17:23:40Z</time>
      </trkpt>
      <trkpt lat="45.20975" lon="5.69413">
        <ele>260.6</ele>
        <time>2016-07-29T17:23:42Z</time>
      </trkpt>
      <trkpt lat="45.2097" lon="5.69431">
        <ele>260.7</ele>
        <time>2016-07-29T17:23:44Z</time>
      </trkpt>
      <trkpt lat="45.20964" lon="5.69447">
        <ele>260.8</ele>
        <time>2016-07-29T17:23:46Z</time>
      </trkpt>
      <trkpt lat="45.20959" lon="5.69463">
        <ele>260.8</ele>
        <time>2016-07-29T17:23:48Z</time>
      </trkpt>
      <trkpt lat="45.20953" lon="5.69479">
        <ele>260.8</ele>
        <time>2016-07-29T17:23:50Z</time>
      </trkpt>
      <trkpt lat="45.20947" lon="5.69496">
        <ele>260.7</ele>
        <time>2016-07-29T17:23:52Z</time>
      </trkpt>
      <trkpt lat="45.2094" lon="5.69513">
        <ele>260.7</ele>
        <time>2016-07-29T17:23:54Z</time>
      </trkpt>
      <trkpt lat="45.20934" lon="5.69531">
        <ele>260.7</ele>
        <time>2016-07-29T17:23:56Z</time>
      </trkpt>
      <trkpt lat="45.20928" lon="5.69549">
        <ele>260.7</ele>
        <time>2016-07-29T17:23:58Z</time>
      </trkpt>
      <trkpt lat="45.20921" lon="5.69567">
        <ele>260.7</ele>
        <time>2016-07-29T17:24:00Z</time>
      </trkpt>
      <trkpt lat="45.20915" lon="5.69584">
        <ele>260.7</ele>
        <time>2016-07-29T17:24:02Z</time>
      </trkpt>
      <trkpt lat="45.20908" lon="5.69602">
        <ele>260.8</ele>
        <time>2016-07-29T17:24:04Z</time>
      </trkpt>
      <trkpt lat="45.20902" lon="5.69619">
        <ele>260.9</ele>
        <time>2016-07-29T17:24:06Z</time>
      </trkpt>
      <trkpt lat="45.20896" lon="5.69637">
        <ele>261</ele>
        <time>2016-07-29T17:24:08Z</time>
      </trkpt>
      <trkpt lat="45.20889" lon="5.69654">
        <ele>261</ele>
        <time>2016-07-29T17:24:10Z</time>
      </trkpt>
      <trkpt lat="45.20882" lon="5.6967">
        <ele>261</ele>
        <time>2016-07-29T17:24:12Z</time>
      </trkpt>
      <trkpt lat="45.20876" lon="5.69687">
        <ele>261</ele>
        <time>2016-07-29T17:24:14Z</time>
      </trkpt>
      <trkpt lat="45.20871" lon="5.69705">
        <ele>261</ele>
        <time>2016-07-29T17:24:16Z</time>
      </trkpt>
      <trkpt lat="45.20864" lon="5.69721">
        <ele>261</ele>
        <time>2016-07-29T17:24:18Z</time>
      </trkpt>
      <trkpt lat="45.20858" lon="5.69737">
        <ele>261</ele>
        <time>2016-07-29T17:24:20Z</time>
      </trkpt>
      <trkpt lat="45.20852" lon="5.69753">
        <ele>261.1</ele>
        <time>2016-07-29T17:24:22Z</time>
      </trkpt>
      <trkpt lat="45.20846" lon="5.6977">
        <ele>261</ele>
        <time>2016-07-29T17:24:24Z</time>
      </trkpt>
      <trkpt lat="45.2084" lon="5.69787">
        <ele>261.1</ele>
        <time>2016-07-29T17:24:26Z</time>
      </trkpt>
      <trkpt lat="45.20833" lon="5.69803">
        <ele>261.1</ele>
        <time>2016-07-29T17:24:28Z</time>
      </trkpt>
      <trkpt lat="45.20827" lon="5.6982">
        <ele>261.1</ele>
        <time>2016-07-29T17:24:30Z</time>
      </trkpt>
      <trkpt lat="45.2082" lon="5.69837">
        <ele>261.1</ele>
        <time>2016-07-29T17:24:32Z</time>
      </trkpt>
      <trkpt lat="45.20814" lon="5.69854">
        <ele>261.4</ele>
        <time>2016-07-29T17:24:34Z</time>
      </trkpt>
      <trkpt lat="45.20807" lon="5.69872">
        <ele>261.3</ele>
        <time>2016-07-29T17:24:36Z</time>
      </trkpt>
      <trkpt lat="45.20801" lon="5.69888">
        <ele>261.2</ele>
        <time>2016-07-29T17:24:38Z</time>
      </trkpt>
      <trkpt lat="45.20794" lon="5.69905">
        <ele>261.3</ele>
        <time>2016-07-29T17:24:40Z</time>
      </trkpt>
      <trkpt lat="45.20788" lon="5.69922">
        <ele>261.3</ele>
        <time>2016-07-29T17:24:42Z</time>
      </trkpt>
      <trkpt lat="45.20782" lon="5.69939">
        <ele>261.2</ele>
        <time>2016-07-29T17:24:44Z</time>
      </trkpt>
      <trkpt lat="45.20776" lon="5.69955">
        <ele>261.4</ele>
        <time>2016-07-29T17:24:46Z</time>
      </trkpt>
      <trkpt lat="45.20771" lon="5.69971">
        <ele>261.3</ele>
        <time>2016-07-29T17:24:48Z</time>
      </trkpt>
      <trkpt lat="45.20766" lon="5.69987">
        <ele>261.2</ele>
        <time>2016-07-29T17:24:50Z</time>
      </trkpt>
      <trkpt lat="45.2076" lon="5.70003">
        <ele>261.3</ele>
        <time>2016-07-29T17:24:52Z</time>
      </trkpt>
      <trkpt lat="45.20755" lon="5.70019">
        <ele>261.3</ele>
        <time>2016-07-29T17:24:54Z</time>
      </trkpt>
      <trkpt lat="45.2075" lon="5.70034">
        <ele>261.3</ele>
        <time>2016-07-29T17:24:56Z</time>
      </trkpt>
      <trkpt lat="45.20745" lon="5.70048">
        <ele>261.4</ele>
        <time>2016-07-29T17:24:58Z</time>
      </trkpt>
      <trkpt lat="45.2074" lon="5.70064">
        <ele>261.6</ele>
        <time>2016-07-29T17:25:00Z</time>
      </trkpt>
      <trkpt lat="45.20735" lon="5.70078">
        <ele>261.7</ele>
        <time>2016-07-29T17:25:02Z</time>
      </trkpt>
      <trkpt lat="45.2073" lon="5.70092">
        <ele>261.7</ele>
        <time>2016-07-29T17:25:04Z</time>
      </trkpt>
      <trkpt lat="45.20725" lon="5.70104">
        <ele>261.7</ele>
        <time>2016-07-29T17:25:06Z</time>
      </trkpt>
      <trkpt lat="45.2072" lon="5.7012">
        <ele>261.9</ele>
        <time>2016-07-29T17:25:09Z</time>
      </trkpt>
      <trkpt lat="45.20714" lon="5.70136">
        <ele>262</ele>
        <time>2016-07-29T17:25:12Z</time>
      </trkpt>
      <trkpt lat="45.20705" lon="5.70147">
        <ele>262.1</ele>
        <time>2016-07-29T17:25:15Z</time>
      </trkpt>
      <trkpt lat="45.20695" lon="5.70151">
        <ele>261.7</ele>
        <time>2016-07-29T17:25:17Z</time>
      </trkpt>
      <trkpt lat="45.20685" lon="5.70154">
        <ele>261.2</ele>
        <time>2016-07-29T17:25:19Z</time>
      </trkpt>
      <trkpt lat="45.20674" lon="5.70151">
        <ele>260.9</ele>
        <time>2016-07-29T17:25:21Z</time>
      </trkpt>
      <trkpt lat="45.20665" lon="5.70146">
        <ele>260.6</ele>
        <time>2016-07-29T17:25:23Z</time>
      </trkpt>
      <trkpt lat="45.20654" lon="5.70142">
        <ele>260.3</ele>
        <time>2016-07-29T17:25:25Z</time>
      </trkpt>
      <trkpt lat="45.20645" lon="5.70134">
        <ele>260.1</ele>
        <time>2016-07-29T17:25:27Z</time>
      </trkpt>
      <trkpt lat="45.2064" lon="5.70122">
        <ele>260</ele>
        <time>2016-07-29T17:25:29Z</time>
      </trkpt>
      <trkpt lat="45.20636" lon="5.70109">
        <ele>259.8</ele>
        <time>2016-07-29T17:25:31Z</time>
      </trkpt>
      <trkpt lat="45.20629" lon="5.70099">
        <ele>259.8</ele>
        <time>2016-07-29T17:25:33Z</time>
      </trkpt>
      <trkpt lat="45.2062" lon="5.70092">
        <ele>259.9</ele>
        <time>2016-07-29T17:25:36Z</time>
      </trkpt>
      <trkpt lat="45.20609" lon="5.70099">
        <ele>260.1</ele>
        <time>2016-07-29T17:25:40Z</time>
      </trkpt>
      <trkpt lat="45.20598" lon="5.70104">
        <ele>260.5</ele>
        <time>2016-07-29T17:25:45Z</time>
      </trkpt>
      <trkpt lat="45.20586" lon="5.70103">
        <ele>260.9</ele>
        <time>2016-07-29T17:25:49Z</time>
      </trkpt>
      <trkpt lat="45.20576" lon="5.70104">
        <ele>261.1</ele>
        <time>2016-07-29T17:25:52Z</time>
      </trkpt>
      <trkpt lat="45.20568" lon="5.70112">
        <ele>261.1</ele>
        <time>2016-07-29T17:25:57Z</time>
      </trkpt>
      <trkpt lat="45.20559" lon="5.70117">
        <ele>260.8</ele>
        <time>2016-07-29T17:26:01Z</time>
      </trkpt>
      <trkpt lat="45.2055" lon="5.70125">
        <ele>260.8</ele>
        <time>2016-07-29T17:26:05Z</time>
      </trkpt>
      <trkpt lat="45.20537" lon="5.70125">
        <ele>260.9</ele>
        <time>2016-07-29T17:26:09Z</time>
      </trkpt>
      <trkpt lat="45.20524" lon="5.70119">
        <ele>260.8</ele>
        <time>2016-07-29T17:26:12Z</time>
      </trkpt>
      <trkpt lat="45.20516" lon="5.70115">
        <ele>260.8</ele>
        <time>2016-07-29T17:26:14Z</time>
      </trkpt>
      <trkpt lat="45.20503" lon="5.70114">
        <ele>261</ele>
        <time>2016-07-29T17:26:17Z</time>
      </trkpt>
      <trkpt lat="45.20495" lon="5.70122">
        <ele>261</ele>
        <time>2016-07-29T17:26:19Z</time>
      </trkpt>
      <trkpt lat="45.20488" lon="5.7013">
        <ele>260.8</ele>
        <time>2016-07-29T17:26:21Z</time>
      </trkpt>
      <trkpt lat="45.20481" lon="5.7014">
        <ele>260.8</ele>
        <time>2016-07-29T17:26:23Z</time>
      </trkpt>
      <trkpt lat="45.20473" lon="5.70149">
        <ele>260.9</ele>
        <time>2016-07-29T17:26:25Z</time>
      </trkpt>
      <trkpt lat="45.20467" lon="5.70159">
        <ele>261</ele>
        <time>2016-07-29T17:26:27Z</time>
      </trkpt>
      <trkpt lat="45.2046" lon="5.70169">
        <ele>260.8</ele>
        <time>2016-07-29T17:26:29Z</time>
      </trkpt>
      <trkpt lat="45.20452" lon="5.70178">
        <ele>260.8</ele>
        <time>2016-07-29T17:26:31Z</time>
      </trkpt>
      <trkpt lat="45.20445" lon="5.70188">
        <ele>260.8</ele>
        <time>2016-07-29T17:26:33Z</time>
      </trkpt>
      <trkpt lat="45.20437" lon="5.70197">
        <ele>260.8</ele>
        <time>2016-07-29T17:26:35Z</time>
      </trkpt>
      <trkpt lat="45.2043" lon="5.70206">
        <ele>260.9</ele>
        <time>2016-07-29T17:26:37Z</time>
      </trkpt>
      <trkpt lat="45.20423" lon="5.70216">
        <ele>260.9</ele>
        <time>2016-07-29T17:26:39Z</time>
      </trkpt>
      <trkpt lat="45.20415" lon="5.70226">
        <ele>260.8</ele>
        <time>2016-07-29T17:26:41Z</time>
      </trkpt>
      <trkpt lat="45.20408" lon="5.70236">
        <ele>260.8</ele>
        <time>2016-07-29T17:26:43Z</time>
      </trkpt>
      <trkpt lat="45.20401" lon="5.70246">
        <ele>260.9</ele>
        <time>2016-07-29T17:26:45Z</time>
      </trkpt>
      <trkpt lat="45.20391" lon="5.70259">
        <ele>260.8</ele>
        <time>2016-07-29T17:26:48Z</time>
      </trkpt>
      <trkpt lat="45.20384" lon="5.70267">
        <ele>260.7</ele>
        <time>2016-07-29T17:26:50Z</time>
      </trkpt>
      <trkpt lat="45.20378" lon="5.70276">
        <ele>260.7</ele>
        <time>2016-07-29T17:26:52Z</time>
      </trkpt>
      <trkpt lat="45.20369" lon="5.70284">
        <ele>260.8</ele>
        <time>2016-07-29T17:26:54Z</time>
      </trkpt>
      <trkpt lat="45.2036" lon="5.70287">
        <ele>260.7</ele>
        <time>2016-07-29T17:26:56Z</time>
      </trkpt>
      <trkpt lat="45.2035" lon="5.70294">
        <ele>260.8</ele>
        <time>2016-07-29T17:26:59Z</time>
      </trkpt>
      <trkpt lat="45.20339" lon="5.70292">
        <ele>261.2</ele>
        <time>2016-07-29T17:27:04Z</time>
      </trkpt>
      <trkpt lat="45.20331" lon="5.70287">
        <ele>261.1</ele>
        <time>2016-07-29T17:27:08Z</time>
      </trkpt>
      <trkpt lat="45.20322" lon="5.70283">
        <ele>261.1</ele>
        <time>2016-07-29T17:27:11Z</time>
      </trkpt>
      <trkpt lat="45.20312" lon="5.70292">
        <ele>261.3</ele>
        <time>2016-07-29T17:27:15Z</time>
      </trkpt>
      <trkpt lat="45.20304" lon="5.70303">
        <ele>261.3</ele>
        <time>2016-07-29T17:27:18Z</time>
      </trkpt>
      <trkpt lat="45.20296" lon="5.70314">
        <ele>261.4</ele>
        <time>2016-07-29T17:27:21Z</time>
      </trkpt>
      <trkpt lat="45.20287" lon="5.70325">
        <ele>261.5</ele>
        <time>2016-07-29T17:27:24Z</time>
      </trkpt>
      <trkpt lat="45.20279" lon="5.70336">
        <ele>261.3</ele>
        <time>2016-07-29T17:27:27Z</time>
      </trkpt>
      <trkpt lat="45.20269" lon="5.70345">
        <ele>261.3</ele>
        <time>2016-07-29T17:27:30Z</time>
      </trkpt>
      <trkpt lat="45.20262" lon="5.70355">
        <ele>261.3</ele>
        <time>2016-07-29T17:27:32Z</time>
      </trkpt>
      <trkpt lat="45.20254" lon="5.70367">
        <ele>261.4</ele>
        <time>2016-07-29T17:27:35Z</time>
      </trkpt>
      <trkpt lat="45.20248" lon="5.70379">
        <ele>261.5</ele>
        <time>2016-07-29T17:27:38Z</time>
      </trkpt>
      <trkpt lat="45.2024" lon="5.70386">
        <ele>261.6</ele>
        <time>2016-07-29T17:27:41Z</time>
      </trkpt>
      <trkpt lat="45.20231" lon="5.70378">
        <ele>261.9</ele>
        <time>2016-07-29T17:27:46Z</time>
      </trkpt>
      <trkpt lat="45.20224" lon="5.70371">
        <ele>262.3</ele>
        <time>2016-07-29T17:28:19Z</time>
      </trkpt>
      <trkpt lat="45.20216" lon="5.70361">
        <ele>262.3</ele>
        <time>2016-07-29T17:28:44Z</time>
      </trkpt>
      <trkpt lat="45.20211" lon="5.70351">
        <ele>262.3</ele>
        <time>2016-07-29T17:28:47Z</time>
      </trkpt>
      <trkpt lat="45.20208" lon="5.70336">
        <ele>261.9</ele>
        <time>2016-07-29T17:28:51Z</time>
      </trkpt>
      <trkpt lat="45.20214" lon="5.70325">
        <ele>261.6</ele>
        <time>2016-07-29T17:28:54Z</time>
      </trkpt>
      <trkpt lat="45.20222" lon="5.70314">
        <ele>261.2</ele>
        <time>2016-07-29T17:28:57Z</time>
      </trkpt>
      <trkpt lat="45.20231" lon="5.70302">
        <ele>261.2</ele>
        <time>2016-07-29T17:29:00Z</time>
      </trkpt>
      <trkpt lat="45.20239" lon="5.70289">
        <ele>261.1</ele>
        <time>2016-07-29T17:29:03Z</time>
      </trkpt>
      <trkpt lat="45.20249" lon="5.70277">
        <ele>261.2</ele>
        <time>2016-07-29T17:29:06Z</time>
      </trkpt>
      <trkpt lat="45.20258" lon="5.70265">
        <ele>261.1</ele>
        <time>2016-07-29T17:29:09Z</time>
      </trkpt>
      <trkpt lat="45.20267" lon="5.70256">
        <ele>261.2</ele>
        <time>2016-07-29T17:29:12Z</time>
      </trkpt>
      <trkpt lat="45.20277" lon="5.70253">
        <ele>261.2</ele>
        <time>2016-07-29T17:29:16Z</time>
      </trkpt>
      <trkpt lat="45.20285" lon="5.70262">
        <ele>260.9</ele>
        <time>2016-07-29T17:29:24Z</time>
      </trkpt>
      <trkpt lat="45.20291" lon="5.70273">
        <ele>260.7</ele>
        <time>2016-07-29T17:29:28Z</time>
      </trkpt>
      <trkpt lat="45.20302" lon="5.70279">
        <ele>261</ele>
        <time>2016-07-29T17:29:37Z</time>
      </trkpt>
      <trkpt lat="45.20306" lon="5.70267">
        <ele>261.3</ele>
        <time>2016-07-29T17:29:48Z</time>
      </trkpt>
      <trkpt lat="45.20303" lon="5.70281">
        <ele>261</ele>
        <time>2016-07-29T17:34:24Z</time>
      </trkpt>
      <trkpt lat="45.2031" lon="5.70273">
        <ele>261.2</ele>
        <time>2016-07-29T17:35:26Z</time>
      </trkpt>
      <trkpt lat="45.20318" lon="5.70261">
        <ele>260.9</ele>
        <time>2016-07-29T17:35:30Z</time>
      </trkpt>
      <trkpt lat="45.20319" lon="5.70247">
        <ele>260.7</ele>
        <time>2016-07-29T17:35:33Z</time>
      </trkpt>
      <trkpt lat="45.20314" lon="5.70235">
        <ele>260.8</ele>
        <time>2016-07-29T17:35:36Z</time>
      </trkpt>
      <trkpt lat="45.20308" lon="5.70226">
        <ele>260.9</ele>
        <time>2016-07-29T17:35:39Z</time>
      </trkpt>
      <trkpt lat="45.20302" lon="5.70215">
        <ele>261</ele>
        <time>2016-07-29T17:35:42Z</time>
      </trkpt>
      <trkpt lat="45.20302" lon="5.702">
        <ele>260.8</ele>
        <time>2016-07-29T17:35:46Z</time>
      </trkpt>
      <trkpt lat="45.20311" lon="5.70188">
        <ele>260.9</ele>
        <time>2016-07-29T17:35:50Z</time>
      </trkpt>
      <trkpt lat="45.2032" lon="5.7019">
        <ele>260.9</ele>
        <time>2016-07-29T17:35:53Z</time>
      </trkpt>
      <trkpt lat="45.20329" lon="5.70191">
        <ele>260.5</ele>
        <time>2016-07-29T17:36:27Z</time>
      </trkpt>
      <trkpt lat="45.20333" lon="5.70191">
        <ele>261</ele>
        <time>2016-07-29T17:37:14Z</time>
      </trkpt>
    </trkseg>
  </trk>
</gpx>